<?xml version='1.0' encoding='UTF-8'?><gpx version="1.1" creator="JPX - https://github.com/jenetics/jpx" xmlns="http://www.topografix.com/GPX/1/1"><trk><trkseg><trkpt lat="42.5753401" lon="12.6620177"><ele>174.66666666666666</ele><time>2026-04-25T09:58:41.529Z</time></trkpt><trkpt lat="42.575452" lon="12.6619751"><ele>175.33333333333334</ele><time>2026-04-25T09:59:00.537Z</time></trkpt><trkpt lat="42.575515" lon="12.6619636"><ele>176.0</ele><time>2026-04-25T09:59:02.538Z</time></trkpt><trkpt lat="42.5755773" lon="12.6620266"><ele>176.66666666666669</ele><time>2026-04-25T09:59:11.536Z</time></trkpt><trkpt lat="42.5756282" lon="12.6620993"><ele>177.33333333333334</ele><time>2026-04-25T09:59:22.533Z</time></trkpt><trkpt lat="42.5756614" lon="12.662185"><ele>178.0</ele><time>2026-04-25T09:59:27.546Z</time></trkpt><trkpt lat="42.5757236" lon="12.6622191"><ele>178.0</ele><time>2026-04-25T09:59:37.536Z</time></trkpt><trkpt lat="42.5758327" lon="12.662192"><ele>178.0</ele><time>2026-04-25T09:59:46.539Z</time></trkpt><trkpt lat="42.5758979" lon="12.6620822"><ele>178.0</ele><time>2026-04-25T09:59:48.541Z</time></trkpt><trkpt lat="42.5759617" lon="12.6620298"><ele>178.0</ele><time>2026-04-25T09:59:50.547Z</time></trkpt><trkpt lat="42.5759657" lon="12.6621319"><ele>178.0</ele><time>2026-04-25T09:59:54.547Z</time></trkpt><trkpt lat="42.5759436" lon="12.6622358"><ele>178.0</ele><time>2026-04-25T09:59:58.544Z</time></trkpt><trkpt lat="42.5758658" lon="12.6623525"><ele>177.99999999999997</ele><time>2026-04-25T10:00:00.544Z</time></trkpt><trkpt lat="42.5758115" lon="12.6624146"><ele>178.0</ele><time>2026-04-25T10:00:01.539Z</time></trkpt><trkpt lat="42.5757504" lon="12.6624736"><ele>178.0</ele><time>2026-04-25T10:00:02.547Z</time></trkpt><trkpt lat="42.5756935" lon="12.6625388"><ele>178.0</ele><time>2026-04-25T10:00:03.538Z</time></trkpt><trkpt lat="42.5756383" lon="12.6625971"><ele>178.0</ele><time>2026-04-25T10:00:04.542Z</time></trkpt><trkpt lat="42.5755786" lon="12.6626545"><ele>177.99999999999997</ele><time>2026-04-25T10:00:05.541Z</time></trkpt><trkpt lat="42.5755243" lon="12.6627326"><ele>178.0</ele><time>2026-04-25T10:00:06.539Z</time></trkpt><trkpt lat="42.5754749" lon="12.6628252"><ele>176.83333333333334</ele><time>2026-04-25T10:00:07.545Z</time></trkpt><trkpt lat="42.5754384" lon="12.6629274"><ele>175.66666666666669</ele><time>2026-04-25T10:00:08.538Z</time></trkpt><trkpt lat="42.5754048" lon="12.6630176"><ele>174.5</ele><time>2026-04-25T10:00:09.545Z</time></trkpt><trkpt lat="42.5753782" lon="12.6631059"><ele>173.33333333333334</ele><time>2026-04-25T10:00:10.538Z</time></trkpt><trkpt lat="42.5753137" lon="12.6632169"><ele>172.16666666666666</ele><time>2026-04-25T10:00:12.546Z</time></trkpt><trkpt lat="42.5752462" lon="12.6632229"><ele>171.0</ele><time>2026-04-25T10:00:14.536Z</time></trkpt><trkpt lat="42.5751922" lon="12.6631724"><ele>170.60000000000002</ele><time>2026-04-25T10:00:15.533Z</time></trkpt><trkpt lat="42.5751333" lon="12.6631096"><ele>170.2</ele><time>2026-04-25T10:00:16.548Z</time></trkpt><trkpt lat="42.5750716" lon="12.6630451"><ele>169.8</ele><time>2026-04-25T10:00:17.548Z</time></trkpt><trkpt lat="42.574986" lon="12.6629632"><ele>169.39999999999998</ele><time>2026-04-25T10:00:18.536Z</time></trkpt><trkpt lat="42.5748838" lon="12.6628802"><ele>169.0</ele><time>2026-04-25T10:00:19.544Z</time></trkpt><trkpt lat="42.5747796" lon="12.6628065"><ele>170.0</ele><time>2026-04-25T10:00:20.545Z</time></trkpt><trkpt lat="42.5747046" lon="12.6627454"><ele>171.0</ele><time>2026-04-25T10:00:21.538Z</time></trkpt><trkpt lat="42.5746508" lon="12.6626586"><ele>172.0</ele><time>2026-04-25T10:00:22.541Z</time></trkpt><trkpt lat="42.5746288" lon="12.6625458"><ele>173.0</ele><time>2026-04-25T10:00:23.54Z</time></trkpt><trkpt lat="42.574626" lon="12.66242"><ele>174.0</ele><time>2026-04-25T10:00:24.561Z</time></trkpt><trkpt lat="42.5746303" lon="12.6622654"><ele>174.0</ele><time>2026-04-25T10:00:25.544Z</time></trkpt><trkpt lat="42.5746471" lon="12.6620926"><ele>174.0</ele><time>2026-04-25T10:00:26.549Z</time></trkpt><trkpt lat="42.5746653" lon="12.6619233"><ele>174.0</ele><time>2026-04-25T10:00:27.542Z</time></trkpt><trkpt lat="42.5746845" lon="12.6617857"><ele>174.0</ele><time>2026-04-25T10:00:28.548Z</time></trkpt><trkpt lat="42.5746974" lon="12.6616561"><ele>175.0</ele><time>2026-04-25T10:00:29.541Z</time></trkpt><trkpt lat="42.5747157" lon="12.6615272"><ele>176.0</ele><time>2026-04-25T10:00:30.543Z</time></trkpt><trkpt lat="42.574738" lon="12.6614108"><ele>177.0</ele><time>2026-04-25T10:00:31.544Z</time></trkpt><trkpt lat="42.5747605" lon="12.6613001"><ele>178.0</ele><time>2026-04-25T10:00:32.541Z</time></trkpt><trkpt lat="42.5747825" lon="12.661201"><ele>179.0</ele><time>2026-04-25T10:00:33.54Z</time></trkpt><trkpt lat="42.5747968" lon="12.6611106"><ele>180.0</ele><time>2026-04-25T10:00:34.544Z</time></trkpt><trkpt lat="42.5748201" lon="12.6609627"><ele>180.0</ele><time>2026-04-25T10:00:36.543Z</time></trkpt><trkpt lat="42.5748161" lon="12.6608668"><ele>180.0</ele><time>2026-04-25T10:00:38.55Z</time></trkpt><trkpt lat="42.5747514" lon="12.6608447"><ele>180.0</ele><time>2026-04-25T10:00:40.551Z</time></trkpt><trkpt lat="42.5746486" lon="12.6609592"><ele>180.0</ele><time>2026-04-25T10:00:42.543Z</time></trkpt><trkpt lat="42.5745889" lon="12.6610449"><ele>180.0</ele><time>2026-04-25T10:00:43.549Z</time></trkpt><trkpt lat="42.5745215" lon="12.6611491"><ele>177.0</ele><time>2026-04-25T10:00:44.544Z</time></trkpt><trkpt lat="42.5744348" lon="12.6612745"><ele>174.0</ele><time>2026-04-25T10:00:45.54Z</time></trkpt><trkpt lat="42.5743455" lon="12.6614036"><ele>171.0</ele><time>2026-04-25T10:00:46.536Z</time></trkpt><trkpt lat="42.5742638" lon="12.6615283"><ele>168.0</ele><time>2026-04-25T10:00:47.533Z</time></trkpt><trkpt lat="42.5741855" lon="12.6616496"><ele>168.0</ele><time>2026-04-25T10:00:48.564Z</time></trkpt><trkpt lat="42.5741068" lon="12.6617669"><ele>168.0</ele><time>2026-04-25T10:00:49.538Z</time></trkpt><trkpt lat="42.574024" lon="12.6618811"><ele>168.0</ele><time>2026-04-25T10:00:50.543Z</time></trkpt><trkpt lat="42.5739411" lon="12.6619934"><ele>168.0</ele><time>2026-04-25T10:00:51.539Z</time></trkpt><trkpt lat="42.5738647" lon="12.6621073"><ele>167.0</ele><time>2026-04-25T10:00:52.537Z</time></trkpt><trkpt lat="42.5737928" lon="12.6622212"><ele>166.0</ele><time>2026-04-25T10:00:53.543Z</time></trkpt><trkpt lat="42.5737176" lon="12.6623502"><ele>165.0</ele><time>2026-04-25T10:00:54.539Z</time></trkpt><trkpt lat="42.5736431" lon="12.6624814"><ele>164.0</ele><time>2026-04-25T10:00:55.544Z</time></trkpt><trkpt lat="42.5735704" lon="12.6626096"><ele>164.0</ele><time>2026-04-25T10:00:56.555Z</time></trkpt><trkpt lat="42.5735278" lon="12.6627489"><ele>164.0</ele><time>2026-04-25T10:00:57.547Z</time></trkpt><trkpt lat="42.573511" lon="12.662902"><ele>164.0</ele><time>2026-04-25T10:00:58.54Z</time></trkpt><trkpt lat="42.5735107" lon="12.6630646"><ele>164.0</ele><time>2026-04-25T10:00:59.546Z</time></trkpt><trkpt lat="42.5735366" lon="12.6632146"><ele>165.75</ele><time>2026-04-25T10:01:00.54Z</time></trkpt><trkpt lat="42.5735734" lon="12.6633522"><ele>167.5</ele><time>2026-04-25T10:01:01.54Z</time></trkpt><trkpt lat="42.5736202" lon="12.6634849"><ele>169.25</ele><time>2026-04-25T10:01:02.543Z</time></trkpt><trkpt lat="42.5736775" lon="12.6636225"><ele>171.0</ele><time>2026-04-25T10:01:03.544Z</time></trkpt><trkpt lat="42.5737459" lon="12.6637531"><ele>171.0</ele><time>2026-04-25T10:01:04.546Z</time></trkpt><trkpt lat="42.5738218" lon="12.6638831"><ele>171.0</ele><time>2026-04-25T10:01:05.557Z</time></trkpt><trkpt lat="42.5738954" lon="12.6640163"><ele>171.0</ele><time>2026-04-25T10:01:06.542Z</time></trkpt><trkpt lat="42.5739686" lon="12.6641382"><ele>171.0</ele><time>2026-04-25T10:01:07.545Z</time></trkpt><trkpt lat="42.5740405" lon="12.6642493"><ele>171.0</ele><time>2026-04-25T10:01:08.548Z</time></trkpt><trkpt lat="42.5741238" lon="12.6643527"><ele>171.0</ele><time>2026-04-25T10:01:09.561Z</time></trkpt><trkpt lat="42.5742098" lon="12.6644612"><ele>171.0</ele><time>2026-04-25T10:01:10.539Z</time></trkpt><trkpt lat="42.5742974" lon="12.6645559"><ele>171.0</ele><time>2026-04-25T10:01:11.539Z</time></trkpt><trkpt lat="42.5743756" lon="12.6646545"><ele>171.0</ele><time>2026-04-25T10:01:12.542Z</time></trkpt><trkpt lat="42.5744362" lon="12.6647648"><ele>169.66666666666666</ele><time>2026-04-25T10:01:13.539Z</time></trkpt><trkpt lat="42.574491" lon="12.6648799"><ele>168.33333333333334</ele><time>2026-04-25T10:01:14.553Z</time></trkpt><trkpt lat="42.5745278" lon="12.6650093"><ele>167.0</ele><time>2026-04-25T10:01:15.539Z</time></trkpt><trkpt lat="42.574548" lon="12.6651272"><ele>165.66666666666669</ele><time>2026-04-25T10:01:16.542Z</time></trkpt><trkpt lat="42.5745622" lon="12.6652387"><ele>164.33333333333334</ele><time>2026-04-25T10:01:17.565Z</time></trkpt><trkpt lat="42.5745697" lon="12.6653279"><ele>163.0</ele><time>2026-04-25T10:01:18.544Z</time></trkpt><trkpt lat="42.5745591" lon="12.6654135"><ele>161.6</ele><time>2026-04-25T10:01:19.542Z</time></trkpt><trkpt lat="42.5745298" lon="12.6654907"><ele>160.20000000000002</ele><time>2026-04-25T10:01:20.547Z</time></trkpt><trkpt lat="42.5744822" lon="12.6655708"><ele>158.8</ele><time>2026-04-25T10:01:21.551Z</time></trkpt><trkpt lat="42.5744164" lon="12.6656781"><ele>157.4</ele><time>2026-04-25T10:01:22.542Z</time></trkpt><trkpt lat="42.5743315" lon="12.6658114"><ele>156.0</ele><time>2026-04-25T10:01:23.545Z</time></trkpt><trkpt lat="42.5742484" lon="12.6659521"><ele>156.0</ele><time>2026-04-25T10:01:24.557Z</time></trkpt><trkpt lat="42.5741685" lon="12.6660927"><ele>156.0</ele><time>2026-04-25T10:01:25.548Z</time></trkpt><trkpt lat="42.5740958" lon="12.6662348"><ele>156.0</ele><time>2026-04-25T10:01:26.545Z</time></trkpt><trkpt lat="42.5740148" lon="12.6663669"><ele>156.0</ele><time>2026-04-25T10:01:27.55Z</time></trkpt><trkpt lat="42.5739312" lon="12.6665118"><ele>155.0</ele><time>2026-04-25T10:01:28.54Z</time></trkpt><trkpt lat="42.5738516" lon="12.6666466"><ele>154.0</ele><time>2026-04-25T10:01:29.541Z</time></trkpt><trkpt lat="42.5737855" lon="12.666767"><ele>153.0</ele><time>2026-04-25T10:01:30.544Z</time></trkpt><trkpt lat="42.5737176" lon="12.6668658"><ele>152.0</ele><time>2026-04-25T10:01:31.536Z</time></trkpt><trkpt lat="42.5736486" lon="12.6669573"><ele>151.0</ele><time>2026-04-25T10:01:32.548Z</time></trkpt><trkpt lat="42.5736003" lon="12.667052"><ele>150.16666666666669</ele><time>2026-04-25T10:01:33.542Z</time></trkpt><trkpt lat="42.5735812" lon="12.6671446"><ele>149.33333333333334</ele><time>2026-04-25T10:01:34.542Z</time></trkpt><trkpt lat="42.5735837" lon="12.6672608"><ele>148.5</ele><time>2026-04-25T10:01:35.544Z</time></trkpt><trkpt lat="42.573613" lon="12.6673704"><ele>147.66666666666666</ele><time>2026-04-25T10:01:36.542Z</time></trkpt><trkpt lat="42.5736419" lon="12.6674776"><ele>146.83333333333331</ele><time>2026-04-25T10:01:37.543Z</time></trkpt><trkpt lat="42.5736633" lon="12.6675746"><ele>146.0</ele><time>2026-04-25T10:01:38.543Z</time></trkpt><trkpt lat="42.573665" lon="12.6677253"><ele>146.0</ele><time>2026-04-25T10:01:40.547Z</time></trkpt><trkpt lat="42.5736322" lon="12.6677993"><ele>146.0</ele><time>2026-04-25T10:01:41.538Z</time></trkpt><trkpt lat="42.5735715" lon="12.6678728"><ele>146.0</ele><time>2026-04-25T10:01:42.568Z</time></trkpt><trkpt lat="42.5734896" lon="12.6679441"><ele>146.0</ele><time>2026-04-25T10:01:43.538Z</time></trkpt><trkpt lat="42.5733981" lon="12.6680372"><ele>146.0</ele><time>2026-04-25T10:01:44.539Z</time></trkpt><trkpt lat="42.5733104" lon="12.6681389"><ele>146.0</ele><time>2026-04-25T10:01:45.546Z</time></trkpt><trkpt lat="42.5732276" lon="12.6682479"><ele>146.0</ele><time>2026-04-25T10:01:46.539Z</time></trkpt><trkpt lat="42.5731219" lon="12.6683528"><ele>146.0</ele><time>2026-04-25T10:01:47.545Z</time></trkpt><trkpt lat="42.5730308" lon="12.6684375"><ele>146.0</ele><time>2026-04-25T10:01:48.543Z</time></trkpt><trkpt lat="42.5729544" lon="12.668508"><ele>146.0</ele><time>2026-04-25T10:01:49.541Z</time></trkpt><trkpt lat="42.5728876" lon="12.6685781"><ele>145.66666666666666</ele><time>2026-04-25T10:01:50.545Z</time></trkpt><trkpt lat="42.5728435" lon="12.6686675"><ele>145.33333333333331</ele><time>2026-04-25T10:01:51.541Z</time></trkpt><trkpt lat="42.5728171" lon="12.6687814"><ele>145.0</ele><time>2026-04-25T10:01:52.544Z</time></trkpt><trkpt lat="42.5727912" lon="12.6688988"><ele>144.66666666666666</ele><time>2026-04-25T10:01:53.543Z</time></trkpt><trkpt lat="42.5727715" lon="12.6690101"><ele>144.33333333333334</ele><time>2026-04-25T10:01:54.541Z</time></trkpt><trkpt lat="42.5727461" lon="12.6691102"><ele>144.0</ele><time>2026-04-25T10:01:55.539Z</time></trkpt><trkpt lat="42.5727095" lon="12.6691899"><ele>144.0</ele><time>2026-04-25T10:01:57.541Z</time></trkpt><trkpt lat="42.572773" lon="12.6693409"><ele>144.0</ele><time>2026-04-25T10:02:18.55Z</time></trkpt><trkpt lat="42.5728553" lon="12.6694404"><ele>144.0</ele><time>2026-04-25T10:02:19.545Z</time></trkpt><trkpt lat="42.5729438" lon="12.6695424"><ele>144.0</ele><time>2026-04-25T10:02:20.549Z</time></trkpt><trkpt lat="42.5730435" lon="12.6696527"><ele>144.75</ele><time>2026-04-25T10:02:21.541Z</time></trkpt><trkpt lat="42.5731468" lon="12.6697637"><ele>145.5</ele><time>2026-04-25T10:02:22.552Z</time></trkpt><trkpt lat="42.5732429" lon="12.6698654"><ele>146.25</ele><time>2026-04-25T10:02:23.548Z</time></trkpt><trkpt lat="42.5733297" lon="12.6699588"><ele>147.0</ele><time>2026-04-25T10:02:24.545Z</time></trkpt><trkpt lat="42.5734257" lon="12.6700484"><ele>147.0</ele><time>2026-04-25T10:02:25.541Z</time></trkpt><trkpt lat="42.573527" lon="12.6701508"><ele>147.0</ele><time>2026-04-25T10:02:26.538Z</time></trkpt><trkpt lat="42.5736257" lon="12.6702605"><ele>147.0</ele><time>2026-04-25T10:02:27.541Z</time></trkpt><trkpt lat="42.5737223" lon="12.6703621"><ele>147.0</ele><time>2026-04-25T10:02:28.548Z</time></trkpt><trkpt lat="42.5738206" lon="12.6704638"><ele>147.75</ele><time>2026-04-25T10:02:29.539Z</time></trkpt><trkpt lat="42.5739186" lon="12.6705649"><ele>148.5</ele><time>2026-04-25T10:02:30.568Z</time></trkpt><trkpt lat="42.5740181" lon="12.6706634"><ele>149.25</ele><time>2026-04-25T10:02:31.54Z</time></trkpt><trkpt lat="42.5741136" lon="12.6707618"><ele>150.0</ele><time>2026-04-25T10:02:32.54Z</time></trkpt><trkpt lat="42.5742142" lon="12.6708644"><ele>150.0</ele><time>2026-04-25T10:02:33.539Z</time></trkpt><trkpt lat="42.5743164" lon="12.6709711"><ele>150.0</ele><time>2026-04-25T10:02:34.539Z</time></trkpt><trkpt lat="42.5744187" lon="12.6710768"><ele>150.0</ele><time>2026-04-25T10:02:35.543Z</time></trkpt><trkpt lat="42.574522" lon="12.6711808"><ele>150.0</ele><time>2026-04-25T10:02:36.554Z</time></trkpt><trkpt lat="42.5746238" lon="12.6712839"><ele>150.0</ele><time>2026-04-25T10:02:37.535Z</time></trkpt><trkpt lat="42.5747242" lon="12.6713868"><ele>150.0</ele><time>2026-04-25T10:02:38.568Z</time></trkpt><trkpt lat="42.5748212" lon="12.67149"><ele>150.0</ele><time>2026-04-25T10:02:39.53Z</time></trkpt><trkpt lat="42.5749154" lon="12.6715907"><ele>150.0</ele><time>2026-04-25T10:02:40.541Z</time></trkpt><trkpt lat="42.5750132" lon="12.6716943"><ele>150.0</ele><time>2026-04-25T10:02:41.538Z</time></trkpt><trkpt lat="42.5751149" lon="12.6717966"><ele>150.0</ele><time>2026-04-25T10:02:42.536Z</time></trkpt><trkpt lat="42.5752185" lon="12.6718978"><ele>150.0</ele><time>2026-04-25T10:02:43.539Z</time></trkpt><trkpt lat="42.5753217" lon="12.671996"><ele>150.0</ele><time>2026-04-25T10:02:44.538Z</time></trkpt><trkpt lat="42.5754216" lon="12.6720995"><ele>150.25</ele><time>2026-04-25T10:02:45.54Z</time></trkpt><trkpt lat="42.5755269" lon="12.6722051"><ele>150.5</ele><time>2026-04-25T10:02:46.541Z</time></trkpt><trkpt lat="42.5756296" lon="12.6723159"><ele>150.75</ele><time>2026-04-25T10:02:47.541Z</time></trkpt><trkpt lat="42.5757369" lon="12.6724218"><ele>151.0</ele><time>2026-04-25T10:02:48.551Z</time></trkpt><trkpt lat="42.5758368" lon="12.672537"><ele>151.0</ele><time>2026-04-25T10:02:49.544Z</time></trkpt><trkpt lat="42.575936" lon="12.6726447"><ele>151.0</ele><time>2026-04-25T10:02:50.548Z</time></trkpt><trkpt lat="42.5760285" lon="12.6727541"><ele>151.0</ele><time>2026-04-25T10:02:51.542Z</time></trkpt><trkpt lat="42.5761256" lon="12.6728698"><ele>151.0</ele><time>2026-04-25T10:02:52.541Z</time></trkpt><trkpt lat="42.5762168" lon="12.6729759"><ele>151.2</ele><time>2026-04-25T10:02:53.543Z</time></trkpt><trkpt lat="42.5762979" lon="12.6730709"><ele>151.39999999999998</ele><time>2026-04-25T10:02:54.542Z</time></trkpt><trkpt lat="42.5763675" lon="12.6731548"><ele>151.6</ele><time>2026-04-25T10:02:55.537Z</time></trkpt><trkpt lat="42.5764341" lon="12.67324"><ele>151.79999999999998</ele><time>2026-04-25T10:02:56.545Z</time></trkpt><trkpt lat="42.5764967" lon="12.6733231"><ele>152.0</ele><time>2026-04-25T10:02:57.542Z</time></trkpt><trkpt lat="42.5765545" lon="12.673418"><ele>152.0</ele><time>2026-04-25T10:02:58.546Z</time></trkpt><trkpt lat="42.5766028" lon="12.6735193"><ele>152.0</ele><time>2026-04-25T10:02:59.538Z</time></trkpt><trkpt lat="42.5766473" lon="12.6736177"><ele>152.0</ele><time>2026-04-25T10:03:00.55Z</time></trkpt><trkpt lat="42.5766886" lon="12.6737067"><ele>152.0</ele><time>2026-04-25T10:03:01.554Z</time></trkpt><trkpt lat="42.5767325" lon="12.6737946"><ele>152.0</ele><time>2026-04-25T10:03:02.543Z</time></trkpt><trkpt lat="42.5767775" lon="12.6738828"><ele>152.0</ele><time>2026-04-25T10:03:03.542Z</time></trkpt><trkpt lat="42.5768177" lon="12.6739766"><ele>152.16666666666666</ele><time>2026-04-25T10:03:04.552Z</time></trkpt><trkpt lat="42.5768578" lon="12.674072"><ele>152.33333333333331</ele><time>2026-04-25T10:03:05.541Z</time></trkpt><trkpt lat="42.5768972" lon="12.6741661"><ele>152.5</ele><time>2026-04-25T10:03:06.539Z</time></trkpt><trkpt lat="42.5769371" lon="12.6742588"><ele>152.66666666666666</ele><time>2026-04-25T10:03:07.539Z</time></trkpt><trkpt lat="42.5769753" lon="12.6743469"><ele>152.83333333333334</ele><time>2026-04-25T10:03:08.544Z</time></trkpt><trkpt lat="42.5770158" lon="12.6744343"><ele>153.0</ele><time>2026-04-25T10:03:09.544Z</time></trkpt><trkpt lat="42.5770572" lon="12.6745215"><ele>153.16666666666666</ele><time>2026-04-25T10:03:10.549Z</time></trkpt><trkpt lat="42.5771" lon="12.6746065"><ele>153.33333333333334</ele><time>2026-04-25T10:03:11.54Z</time></trkpt><trkpt lat="42.5771455" lon="12.6746975"><ele>153.5</ele><time>2026-04-25T10:03:12.54Z</time></trkpt><trkpt lat="42.5771906" lon="12.6747852"><ele>153.66666666666669</ele><time>2026-04-25T10:03:13.543Z</time></trkpt><trkpt lat="42.5772448" lon="12.6748736"><ele>153.83333333333334</ele><time>2026-04-25T10:03:14.548Z</time></trkpt><trkpt lat="42.5772889" lon="12.674969"><ele>154.0</ele><time>2026-04-25T10:03:15.538Z</time></trkpt><trkpt lat="42.5773235" lon="12.675065"><ele>154.0</ele><time>2026-04-25T10:03:16.55Z</time></trkpt><trkpt lat="42.5773601" lon="12.6751623"><ele>154.0</ele><time>2026-04-25T10:03:17.541Z</time></trkpt><trkpt lat="42.5774018" lon="12.6752576"><ele>154.0</ele><time>2026-04-25T10:03:18.537Z</time></trkpt><trkpt lat="42.5774459" lon="12.6753457"><ele>154.0</ele><time>2026-04-25T10:03:19.538Z</time></trkpt><trkpt lat="42.5774796" lon="12.6754406"><ele>154.0</ele><time>2026-04-25T10:03:20.547Z</time></trkpt><trkpt lat="42.5775212" lon="12.6755346"><ele>154.0</ele><time>2026-04-25T10:03:21.536Z</time></trkpt><trkpt lat="42.5775591" lon="12.6756294"><ele>154.0</ele><time>2026-04-25T10:03:22.541Z</time></trkpt><trkpt lat="42.5775942" lon="12.6757194"><ele>154.0</ele><time>2026-04-25T10:03:23.54Z</time></trkpt><trkpt lat="42.5776249" lon="12.6757982"><ele>154.0</ele><time>2026-04-25T10:03:24.543Z</time></trkpt><trkpt lat="42.5776791" lon="12.6759301"><ele>154.0</ele><time>2026-04-25T10:03:26.544Z</time></trkpt><trkpt lat="42.577741" lon="12.6760838"><ele>154.0</ele><time>2026-04-25T10:03:28.54Z</time></trkpt><trkpt lat="42.5777751" lon="12.6761683"><ele>153.83333333333334</ele><time>2026-04-25T10:03:29.542Z</time></trkpt><trkpt lat="42.57782" lon="12.6762677"><ele>153.66666666666669</ele><time>2026-04-25T10:03:30.542Z</time></trkpt><trkpt lat="42.5778635" lon="12.6763774"><ele>153.5</ele><time>2026-04-25T10:03:31.547Z</time></trkpt><trkpt lat="42.5779107" lon="12.6764755"><ele>153.33333333333334</ele><time>2026-04-25T10:03:32.55Z</time></trkpt><trkpt lat="42.5779503" lon="12.6765564"><ele>153.16666666666666</ele><time>2026-04-25T10:03:33.541Z</time></trkpt><trkpt lat="42.5780031" lon="12.6766154"><ele>153.0</ele><time>2026-04-25T10:03:34.544Z</time></trkpt><trkpt lat="42.5780819" lon="12.6766448"><ele>153.0</ele><time>2026-04-25T10:03:35.543Z</time></trkpt><trkpt lat="42.5781723" lon="12.6766422"><ele>153.0</ele><time>2026-04-25T10:03:36.55Z</time></trkpt><trkpt lat="42.5782812" lon="12.6766276"><ele>153.0</ele><time>2026-04-25T10:03:37.542Z</time></trkpt><trkpt lat="42.578406" lon="12.6766122"><ele>153.0</ele><time>2026-04-25T10:03:38.533Z</time></trkpt><trkpt lat="42.5785446" lon="12.6766004"><ele>153.0</ele><time>2026-04-25T10:03:39.547Z</time></trkpt><trkpt lat="42.5786722" lon="12.6765877"><ele>153.0</ele><time>2026-04-25T10:03:40.547Z</time></trkpt><trkpt lat="42.5787977" lon="12.6765808"><ele>153.0</ele><time>2026-04-25T10:03:41.54Z</time></trkpt><trkpt lat="42.5789216" lon="12.6766001"><ele>153.0</ele><time>2026-04-25T10:03:42.537Z</time></trkpt><trkpt lat="42.5790541" lon="12.6766452"><ele>153.66666666666666</ele><time>2026-04-25T10:03:43.536Z</time></trkpt><trkpt lat="42.5791958" lon="12.6767161"><ele>154.33333333333331</ele><time>2026-04-25T10:03:44.559Z</time></trkpt><trkpt lat="42.5793355" lon="12.6767983"><ele>155.0</ele><time>2026-04-25T10:03:45.535Z</time></trkpt><trkpt lat="42.5794807" lon="12.6768928"><ele>156.0</ele><time>2026-04-25T10:03:46.55Z</time></trkpt><trkpt lat="42.57963" lon="12.676984"><ele>157.0</ele><time>2026-04-25T10:03:47.539Z</time></trkpt><trkpt lat="42.5797753" lon="12.6770746"><ele>158.0</ele><time>2026-04-25T10:03:48.557Z</time></trkpt><trkpt lat="42.5799232" lon="12.6771635"><ele>158.0</ele><time>2026-04-25T10:03:49.545Z</time></trkpt><trkpt lat="42.5800652" lon="12.6772544"><ele>158.0</ele><time>2026-04-25T10:03:50.546Z</time></trkpt><trkpt lat="42.5802132" lon="12.6773341"><ele>158.0</ele><time>2026-04-25T10:03:51.562Z</time></trkpt><trkpt lat="42.5803564" lon="12.6774141"><ele>158.33333333333331</ele><time>2026-04-25T10:03:52.553Z</time></trkpt><trkpt lat="42.5805001" lon="12.6774959"><ele>158.66666666666666</ele><time>2026-04-25T10:03:53.545Z</time></trkpt><trkpt lat="42.5806421" lon="12.6775781"><ele>159.0</ele><time>2026-04-25T10:03:54.551Z</time></trkpt><trkpt lat="42.5807825" lon="12.6776653"><ele>159.0</ele><time>2026-04-25T10:03:55.544Z</time></trkpt><trkpt lat="42.5809218" lon="12.6777514"><ele>159.0</ele><time>2026-04-25T10:03:56.551Z</time></trkpt><trkpt lat="42.5810601" lon="12.6778322"><ele>159.0</ele><time>2026-04-25T10:03:57.537Z</time></trkpt><trkpt lat="42.5811999" lon="12.6779184"><ele>160.5</ele><time>2026-04-25T10:03:58.539Z</time></trkpt><trkpt lat="42.5813278" lon="12.6779895"><ele>162.0</ele><time>2026-04-25T10:03:59.54Z</time></trkpt><trkpt lat="42.5814399" lon="12.6780442"><ele>163.5</ele><time>2026-04-25T10:04:00.554Z</time></trkpt><trkpt lat="42.5815478" lon="12.6780894"><ele>165.0</ele><time>2026-04-25T10:04:01.54Z</time></trkpt><trkpt lat="42.5816463" lon="12.6781218"><ele>165.0</ele><time>2026-04-25T10:04:02.566Z</time></trkpt><trkpt lat="42.5817408" lon="12.6781434"><ele>165.0</ele><time>2026-04-25T10:04:03.541Z</time></trkpt><trkpt lat="42.5818387" lon="12.6781682"><ele>165.0</ele><time>2026-04-25T10:04:04.564Z</time></trkpt><trkpt lat="42.5819465" lon="12.6781937"><ele>165.0</ele><time>2026-04-25T10:04:05.533Z</time></trkpt><trkpt lat="42.582053" lon="12.6782191"><ele>165.0</ele><time>2026-04-25T10:04:06.548Z</time></trkpt><trkpt lat="42.5821687" lon="12.6782417"><ele>166.0</ele><time>2026-04-25T10:04:07.548Z</time></trkpt><trkpt lat="42.5822865" lon="12.6782709"><ele>167.0</ele><time>2026-04-25T10:04:08.56Z</time></trkpt><trkpt lat="42.5824098" lon="12.6783021"><ele>168.0</ele><time>2026-04-25T10:04:09.539Z</time></trkpt><trkpt lat="42.5825474" lon="12.6783374"><ele>169.0</ele><time>2026-04-25T10:04:10.564Z</time></trkpt><trkpt lat="42.5826954" lon="12.6783738"><ele>170.0</ele><time>2026-04-25T10:04:11.54Z</time></trkpt><trkpt lat="42.5828495" lon="12.6784164"><ele>171.0</ele><time>2026-04-25T10:04:12.557Z</time></trkpt><trkpt lat="42.5829956" lon="12.6784599"><ele>172.0</ele><time>2026-04-25T10:04:13.539Z</time></trkpt><trkpt lat="42.5831499" lon="12.6785012"><ele>172.0</ele><time>2026-04-25T10:04:14.548Z</time></trkpt><trkpt lat="42.5833027" lon="12.6785363"><ele>172.0</ele><time>2026-04-25T10:04:15.541Z</time></trkpt><trkpt lat="42.583458" lon="12.6785734"><ele>172.0</ele><time>2026-04-25T10:04:16.536Z</time></trkpt><trkpt lat="42.5836095" lon="12.6786092"><ele>173.75</ele><time>2026-04-25T10:04:17.559Z</time></trkpt><trkpt lat="42.5837569" lon="12.6786419"><ele>175.5</ele><time>2026-04-25T10:04:18.54Z</time></trkpt><trkpt lat="42.5839035" lon="12.6786767"><ele>177.25</ele><time>2026-04-25T10:04:19.538Z</time></trkpt><trkpt lat="42.58405" lon="12.6787159"><ele>179.0</ele><time>2026-04-25T10:04:20.563Z</time></trkpt><trkpt lat="42.5841969" lon="12.6787564"><ele>179.0</ele><time>2026-04-25T10:04:21.541Z</time></trkpt><trkpt lat="42.5843447" lon="12.6788012"><ele>179.0</ele><time>2026-04-25T10:04:22.559Z</time></trkpt><trkpt lat="42.5844922" lon="12.678848"><ele>179.0</ele><time>2026-04-25T10:04:23.539Z</time></trkpt><trkpt lat="42.5846426" lon="12.6788716"><ele>180.66666666666666</ele><time>2026-04-25T10:04:24.541Z</time></trkpt><trkpt lat="42.5847943" lon="12.6788873"><ele>182.33333333333334</ele><time>2026-04-25T10:04:25.543Z</time></trkpt><trkpt lat="42.5849394" lon="12.6788633"><ele>184.0</ele><time>2026-04-25T10:04:26.547Z</time></trkpt><trkpt lat="42.5850874" lon="12.678804"><ele>184.0</ele><time>2026-04-25T10:04:27.543Z</time></trkpt><trkpt lat="42.5852322" lon="12.6787174"><ele>184.0</ele><time>2026-04-25T10:04:28.551Z</time></trkpt><trkpt lat="42.5853792" lon="12.6786369"><ele>184.0</ele><time>2026-04-25T10:04:29.539Z</time></trkpt><trkpt lat="42.5855122" lon="12.678556"><ele>183.5</ele><time>2026-04-25T10:04:30.543Z</time></trkpt><trkpt lat="42.5856439" lon="12.6784781"><ele>183.0</ele><time>2026-04-25T10:04:31.544Z</time></trkpt><trkpt lat="42.5857668" lon="12.6784043"><ele>182.5</ele><time>2026-04-25T10:04:32.541Z</time></trkpt><trkpt lat="42.5858906" lon="12.6783316"><ele>182.0</ele><time>2026-04-25T10:04:33.54Z</time></trkpt><trkpt lat="42.5860254" lon="12.6782502"><ele>182.0</ele><time>2026-04-25T10:04:34.55Z</time></trkpt><trkpt lat="42.5861628" lon="12.6781796"><ele>182.0</ele><time>2026-04-25T10:04:35.536Z</time></trkpt><trkpt lat="42.5863043" lon="12.678132"><ele>182.0</ele><time>2026-04-25T10:04:36.541Z</time></trkpt><trkpt lat="42.5864498" lon="12.6781015"><ele>182.0</ele><time>2026-04-25T10:04:37.541Z</time></trkpt><trkpt lat="42.5866058" lon="12.678072"><ele>184.66666666666666</ele><time>2026-04-25T10:04:38.538Z</time></trkpt><trkpt lat="42.5867623" lon="12.6780484"><ele>187.33333333333334</ele><time>2026-04-25T10:04:39.538Z</time></trkpt><trkpt lat="42.5869264" lon="12.6780179"><ele>190.0</ele><time>2026-04-25T10:04:40.544Z</time></trkpt><trkpt lat="42.5870892" lon="12.6779816"><ele>191.33333333333334</ele><time>2026-04-25T10:04:41.543Z</time></trkpt><trkpt lat="42.5872513" lon="12.6779466"><ele>192.66666666666669</ele><time>2026-04-25T10:04:42.533Z</time></trkpt><trkpt lat="42.587418" lon="12.6779136"><ele>194.0</ele><time>2026-04-25T10:04:43.535Z</time></trkpt><trkpt lat="42.5875835" lon="12.6778732"><ele>194.0</ele><time>2026-04-25T10:04:44.533Z</time></trkpt><trkpt lat="42.5877486" lon="12.6778318"><ele>194.0</ele><time>2026-04-25T10:04:45.541Z</time></trkpt><trkpt lat="42.5879096" lon="12.6777882"><ele>194.0</ele><time>2026-04-25T10:04:46.534Z</time></trkpt><trkpt lat="42.5880744" lon="12.6777339"><ele>189.0</ele><time>2026-04-25T10:04:47.539Z</time></trkpt><trkpt lat="42.588233" lon="12.6776669"><ele>184.0</ele><time>2026-04-25T10:04:48.541Z</time></trkpt><trkpt lat="42.5883734" lon="12.6776151"><ele>179.0</ele><time>2026-04-25T10:04:49.538Z</time></trkpt><trkpt lat="42.5885067" lon="12.6775698"><ele>174.0</ele><time>2026-04-25T10:04:50.542Z</time></trkpt><trkpt lat="42.5886251" lon="12.6775218"><ele>174.6</ele><time>2026-04-25T10:04:51.539Z</time></trkpt><trkpt lat="42.5887328" lon="12.6774825"><ele>175.2</ele><time>2026-04-25T10:04:52.54Z</time></trkpt><trkpt lat="42.5888238" lon="12.6774366"><ele>175.79999999999998</ele><time>2026-04-25T10:04:53.54Z</time></trkpt><trkpt lat="42.5889147" lon="12.6774028"><ele>176.39999999999998</ele><time>2026-04-25T10:04:54.546Z</time></trkpt><trkpt lat="42.5890224" lon="12.677373"><ele>177.0</ele><time>2026-04-25T10:04:55.537Z</time></trkpt><trkpt lat="42.5891303" lon="12.6773413"><ele>177.0</ele><time>2026-04-25T10:04:56.546Z</time></trkpt><trkpt lat="42.5892396" lon="12.6772975"><ele>177.0</ele><time>2026-04-25T10:04:57.537Z</time></trkpt><trkpt lat="42.5893524" lon="12.677229"><ele>177.0</ele><time>2026-04-25T10:04:58.532Z</time></trkpt><trkpt lat="42.5894632" lon="12.6771407"><ele>177.0</ele><time>2026-04-25T10:04:59.536Z</time></trkpt><trkpt lat="42.5895746" lon="12.6770347"><ele>176.5</ele><time>2026-04-25T10:05:00.558Z</time></trkpt><trkpt lat="42.5896789" lon="12.6769123"><ele>176.0</ele><time>2026-04-25T10:05:01.536Z</time></trkpt><trkpt lat="42.5897953" lon="12.6767735"><ele>175.5</ele><time>2026-04-25T10:05:02.546Z</time></trkpt><trkpt lat="42.5899012" lon="12.676636"><ele>175.0</ele><time>2026-04-25T10:05:03.535Z</time></trkpt><trkpt lat="42.5899979" lon="12.6765241"><ele>175.0</ele><time>2026-04-25T10:05:04.539Z</time></trkpt><trkpt lat="42.5900857" lon="12.6764388"><ele>175.0</ele><time>2026-04-25T10:05:05.534Z</time></trkpt><trkpt lat="42.5901856" lon="12.6763532"><ele>175.0</ele><time>2026-04-25T10:05:06.543Z</time></trkpt><trkpt lat="42.5902869" lon="12.6762795"><ele>175.0</ele><time>2026-04-25T10:05:07.532Z</time></trkpt><trkpt lat="42.5903898" lon="12.6762425"><ele>175.0</ele><time>2026-04-25T10:05:08.562Z</time></trkpt><trkpt lat="42.5905024" lon="12.6762296"><ele>175.75</ele><time>2026-04-25T10:05:09.539Z</time></trkpt><trkpt lat="42.5906184" lon="12.6762442"><ele>176.5</ele><time>2026-04-25T10:05:10.541Z</time></trkpt><trkpt lat="42.5907435" lon="12.6762831"><ele>177.25</ele><time>2026-04-25T10:05:11.537Z</time></trkpt><trkpt lat="42.5908799" lon="12.6763147"><ele>178.0</ele><time>2026-04-25T10:05:12.54Z</time></trkpt><trkpt lat="42.5910215" lon="12.6763515"><ele>178.0</ele><time>2026-04-25T10:05:13.538Z</time></trkpt><trkpt lat="42.5911693" lon="12.6763835"><ele>178.0</ele><time>2026-04-25T10:05:14.543Z</time></trkpt><trkpt lat="42.5913124" lon="12.6764019"><ele>178.0</ele><time>2026-04-25T10:05:15.537Z</time></trkpt><trkpt lat="42.5914643" lon="12.6764028"><ele>178.0</ele><time>2026-04-25T10:05:16.542Z</time></trkpt><trkpt lat="42.5916193" lon="12.6763919"><ele>179.66666666666669</ele><time>2026-04-25T10:05:17.539Z</time></trkpt><trkpt lat="42.591775" lon="12.6763931"><ele>181.33333333333334</ele><time>2026-04-25T10:05:18.546Z</time></trkpt><trkpt lat="42.5919253" lon="12.6764112"><ele>183.0</ele><time>2026-04-25T10:05:19.54Z</time></trkpt><trkpt lat="42.5920725" lon="12.6764527"><ele>190.0</ele><time>2026-04-25T10:05:20.535Z</time></trkpt><trkpt lat="42.5922176" lon="12.6765236"><ele>197.0</ele><time>2026-04-25T10:05:21.538Z</time></trkpt><trkpt lat="42.5923652" lon="12.6766127"><ele>204.0</ele><time>2026-04-25T10:05:22.541Z</time></trkpt><trkpt lat="42.5925126" lon="12.6767114"><ele>204.0</ele><time>2026-04-25T10:05:23.541Z</time></trkpt><trkpt lat="42.5926615" lon="12.6768194"><ele>204.0</ele><time>2026-04-25T10:05:24.541Z</time></trkpt><trkpt lat="42.5927936" lon="12.6769442"><ele>204.0</ele><time>2026-04-25T10:05:25.536Z</time></trkpt><trkpt lat="42.5929065" lon="12.677086"><ele>206.0</ele><time>2026-04-25T10:05:26.541Z</time></trkpt><trkpt lat="42.5930041" lon="12.6772461"><ele>208.0</ele><time>2026-04-25T10:05:27.54Z</time></trkpt><trkpt lat="42.5930957" lon="12.6774127"><ele>210.0</ele><time>2026-04-25T10:05:28.538Z</time></trkpt><trkpt lat="42.593179" lon="12.6775829"><ele>210.0</ele><time>2026-04-25T10:05:29.537Z</time></trkpt><trkpt lat="42.5932527" lon="12.6777504"><ele>210.0</ele><time>2026-04-25T10:05:30.54Z</time></trkpt><trkpt lat="42.5933059" lon="12.6779293"><ele>210.0</ele><time>2026-04-25T10:05:31.53Z</time></trkpt><trkpt lat="42.5933392" lon="12.6781092"><ele>210.0</ele><time>2026-04-25T10:05:32.535Z</time></trkpt><trkpt lat="42.5933601" lon="12.6783101"><ele>206.66666666666669</ele><time>2026-04-25T10:05:33.539Z</time></trkpt><trkpt lat="42.593369" lon="12.6785133"><ele>203.33333333333334</ele><time>2026-04-25T10:05:34.534Z</time></trkpt><trkpt lat="42.5933799" lon="12.6787213"><ele>200.0</ele><time>2026-04-25T10:05:35.537Z</time></trkpt><trkpt lat="42.5933937" lon="12.6789409"><ele>198.0</ele><time>2026-04-25T10:05:36.546Z</time></trkpt><trkpt lat="42.5934129" lon="12.6791564"><ele>196.0</ele><time>2026-04-25T10:05:37.536Z</time></trkpt><trkpt lat="42.5934355" lon="12.6793556"><ele>194.0</ele><time>2026-04-25T10:05:38.535Z</time></trkpt><trkpt lat="42.5934557" lon="12.6795499"><ele>192.5</ele><time>2026-04-25T10:05:39.544Z</time></trkpt><trkpt lat="42.5934965" lon="12.6796986"><ele>191.0</ele><time>2026-04-25T10:05:40.558Z</time></trkpt><trkpt lat="42.593591" lon="12.6798264"><ele>189.5</ele><time>2026-04-25T10:05:41.541Z</time></trkpt><trkpt lat="42.5937107" lon="12.6799492"><ele>188.0</ele><time>2026-04-25T10:05:42.534Z</time></trkpt><trkpt lat="42.5938716" lon="12.6800655"><ele>190.0</ele><time>2026-04-25T10:05:43.538Z</time></trkpt><trkpt lat="42.5940392" lon="12.6801842"><ele>192.0</ele><time>2026-04-25T10:05:44.54Z</time></trkpt><trkpt lat="42.5942124" lon="12.6803053"><ele>194.0</ele><time>2026-04-25T10:05:45.535Z</time></trkpt><trkpt lat="42.5943835" lon="12.6804268"><ele>208.0</ele><time>2026-04-25T10:05:46.543Z</time></trkpt><trkpt lat="42.5945415" lon="12.6805382"><ele>222.0</ele><time>2026-04-25T10:05:47.534Z</time></trkpt><trkpt lat="42.5946753" lon="12.6806684"><ele>236.0</ele><time>2026-04-25T10:05:48.559Z</time></trkpt><trkpt lat="42.5947845" lon="12.6808255"><ele>236.0</ele><time>2026-04-25T10:05:49.537Z</time></trkpt><trkpt lat="42.5948761" lon="12.6810054"><ele>236.0</ele><time>2026-04-25T10:05:50.544Z</time></trkpt><trkpt lat="42.5949679" lon="12.6812074"><ele>236.0</ele><time>2026-04-25T10:05:51.535Z</time></trkpt><trkpt lat="42.5950576" lon="12.6814128"><ele>226.33333333333334</ele><time>2026-04-25T10:05:52.558Z</time></trkpt><trkpt lat="42.5951511" lon="12.6816126"><ele>216.66666666666669</ele><time>2026-04-25T10:05:53.535Z</time></trkpt><trkpt lat="42.5952306" lon="12.6817872"><ele>207.0</ele><time>2026-04-25T10:05:54.54Z</time></trkpt><trkpt lat="42.5953048" lon="12.6819342"><ele>210.0</ele><time>2026-04-25T10:05:55.536Z</time></trkpt><trkpt lat="42.5953961" lon="12.6820473"><ele>213.0</ele><time>2026-04-25T10:05:56.539Z</time></trkpt><trkpt lat="42.5955155" lon="12.6821094"><ele>216.0</ele><time>2026-04-25T10:05:57.538Z</time></trkpt><trkpt lat="42.5956519" lon="12.6821497"><ele>219.0</ele><time>2026-04-25T10:05:58.533Z</time></trkpt><trkpt lat="42.5957856" lon="12.6821922"><ele>219.0</ele><time>2026-04-25T10:05:59.535Z</time></trkpt><trkpt lat="42.5959085" lon="12.6822787"><ele>219.0</ele><time>2026-04-25T10:06:00.538Z</time></trkpt><trkpt lat="42.5960061" lon="12.6824393"><ele>219.0</ele><time>2026-04-25T10:06:01.535Z</time></trkpt><trkpt lat="42.5961025" lon="12.6826078"><ele>219.0</ele><time>2026-04-25T10:06:02.528Z</time></trkpt><trkpt lat="42.5961892" lon="12.6828108"><ele>229.66666666666669</ele><time>2026-04-25T10:06:03.533Z</time></trkpt><trkpt lat="42.5962745" lon="12.6830366"><ele>240.33333333333334</ele><time>2026-04-25T10:06:04.544Z</time></trkpt><trkpt lat="42.5963578" lon="12.6832753"><ele>251.0</ele><time>2026-04-25T10:06:05.534Z</time></trkpt><trkpt lat="42.596446" lon="12.6835235"><ele>246.66666666666669</ele><time>2026-04-25T10:06:06.533Z</time></trkpt><trkpt lat="42.5965304" lon="12.6837718"><ele>242.33333333333331</ele><time>2026-04-25T10:06:07.534Z</time></trkpt><trkpt lat="42.5965991" lon="12.6840167"><ele>238.0</ele><time>2026-04-25T10:06:08.544Z</time></trkpt><trkpt lat="42.5966482" lon="12.6842633"><ele>234.0</ele><time>2026-04-25T10:06:09.535Z</time></trkpt><trkpt lat="42.596692" lon="12.6845006"><ele>230.0</ele><time>2026-04-25T10:06:10.545Z</time></trkpt><trkpt lat="42.5967409" lon="12.6847185"><ele>226.0</ele><time>2026-04-25T10:06:11.536Z</time></trkpt><trkpt lat="42.5967867" lon="12.6849119"><ele>226.0</ele><time>2026-04-25T10:06:12.542Z</time></trkpt><trkpt lat="42.5968582" lon="12.6850825"><ele>226.0</ele><time>2026-04-25T10:06:13.538Z</time></trkpt><trkpt lat="42.5969486" lon="12.6852323"><ele>226.0</ele><time>2026-04-25T10:06:14.547Z</time></trkpt><trkpt lat="42.5970582" lon="12.6853408"><ele>226.0</ele><time>2026-04-25T10:06:15.536Z</time></trkpt><trkpt lat="42.5971812" lon="12.6853912"><ele>223.66666666666666</ele><time>2026-04-25T10:06:16.549Z</time></trkpt><trkpt lat="42.5973173" lon="12.6854177"><ele>221.33333333333331</ele><time>2026-04-25T10:06:17.533Z</time></trkpt><trkpt lat="42.597478" lon="12.685424"><ele>219.0</ele><time>2026-04-25T10:06:18.532Z</time></trkpt><trkpt lat="42.5976668" lon="12.6854451"><ele>222.66666666666669</ele><time>2026-04-25T10:06:19.532Z</time></trkpt><trkpt lat="42.5978506" lon="12.6854773"><ele>226.33333333333334</ele><time>2026-04-25T10:06:20.537Z</time></trkpt><trkpt lat="42.5980252" lon="12.6854895"><ele>230.0</ele><time>2026-04-25T10:06:21.535Z</time></trkpt><trkpt lat="42.5981884" lon="12.685464"><ele>230.0</ele><time>2026-04-25T10:06:22.54Z</time></trkpt><trkpt lat="42.5983598" lon="12.6854164"><ele>230.0</ele><time>2026-04-25T10:06:23.532Z</time></trkpt><trkpt lat="42.5985254" lon="12.6853905"><ele>230.0</ele><time>2026-04-25T10:06:24.551Z</time></trkpt><trkpt lat="42.5986914" lon="12.6853933"><ele>230.0</ele><time>2026-04-25T10:06:25.536Z</time></trkpt><trkpt lat="42.598862" lon="12.6854226"><ele>230.0</ele><time>2026-04-25T10:06:26.552Z</time></trkpt><trkpt lat="42.5990052" lon="12.6854487"><ele>230.0</ele><time>2026-04-25T10:06:27.538Z</time></trkpt><trkpt lat="42.599137" lon="12.68545"><ele>230.0</ele><time>2026-04-25T10:06:28.541Z</time></trkpt><trkpt lat="42.5992617" lon="12.6854202"><ele>230.0</ele><time>2026-04-25T10:06:29.535Z</time></trkpt><trkpt lat="42.5993735" lon="12.6853372"><ele>230.0</ele><time>2026-04-25T10:06:30.542Z</time></trkpt><trkpt lat="42.5994686" lon="12.6852076"><ele>230.0</ele><time>2026-04-25T10:06:31.551Z</time></trkpt><trkpt lat="42.5995518" lon="12.6850353"><ele>230.0</ele><time>2026-04-25T10:06:32.541Z</time></trkpt><trkpt lat="42.5996357" lon="12.6848461"><ele>228.66666666666669</ele><time>2026-04-25T10:06:33.53Z</time></trkpt><trkpt lat="42.5997233" lon="12.6846548"><ele>227.33333333333331</ele><time>2026-04-25T10:06:34.538Z</time></trkpt><trkpt lat="42.5998287" lon="12.6844737"><ele>226.0</ele><time>2026-04-25T10:06:35.529Z</time></trkpt><trkpt lat="42.5999447" lon="12.6843127"><ele>234.0</ele><time>2026-04-25T10:06:36.535Z</time></trkpt><trkpt lat="42.6000552" lon="12.684162"><ele>242.0</ele><time>2026-04-25T10:06:37.534Z</time></trkpt><trkpt lat="42.6001329" lon="12.6840085"><ele>250.0</ele><time>2026-04-25T10:06:38.555Z</time></trkpt><trkpt lat="42.6001628" lon="12.6838358"><ele>258.0</ele><time>2026-04-25T10:06:39.535Z</time></trkpt><trkpt lat="42.6001631" lon="12.6836558"><ele>253.5</ele><time>2026-04-25T10:06:40.559Z</time></trkpt><trkpt lat="42.6001679" lon="12.6834766"><ele>249.0</ele><time>2026-04-25T10:06:41.535Z</time></trkpt><trkpt lat="42.6002006" lon="12.6833086"><ele>244.5</ele><time>2026-04-25T10:06:42.551Z</time></trkpt><trkpt lat="42.6002686" lon="12.6831389"><ele>240.0</ele><time>2026-04-25T10:06:43.533Z</time></trkpt><trkpt lat="42.6003672" lon="12.6829852"><ele>240.0</ele><time>2026-04-25T10:06:44.533Z</time></trkpt><trkpt lat="42.6004739" lon="12.6828274"><ele>240.0</ele><time>2026-04-25T10:06:45.535Z</time></trkpt><trkpt lat="42.6005911" lon="12.6826522"><ele>240.0</ele><time>2026-04-25T10:06:46.543Z</time></trkpt><trkpt lat="42.6007049" lon="12.6824857"><ele>252.66666666666669</ele><time>2026-04-25T10:06:47.536Z</time></trkpt><trkpt lat="42.6008295" lon="12.6823477"><ele>265.33333333333337</ele><time>2026-04-25T10:06:48.551Z</time></trkpt><trkpt lat="42.6009625" lon="12.6822445"><ele>278.0</ele><time>2026-04-25T10:06:49.531Z</time></trkpt><trkpt lat="42.6011167" lon="12.6821736"><ele>275.33333333333337</ele><time>2026-04-25T10:06:50.545Z</time></trkpt><trkpt lat="42.6012795" lon="12.6821398"><ele>272.6666666666667</ele><time>2026-04-25T10:06:51.531Z</time></trkpt><trkpt lat="42.6014741" lon="12.6821324"><ele>270.0</ele><time>2026-04-25T10:06:52.537Z</time></trkpt><trkpt lat="42.6016613" lon="12.6821216"><ele>270.0</ele><time>2026-04-25T10:06:53.542Z</time></trkpt><trkpt lat="42.6018464" lon="12.6821164"><ele>270.0</ele><time>2026-04-25T10:06:54.533Z</time></trkpt><trkpt lat="42.6020381" lon="12.6821295"><ele>270.0</ele><time>2026-04-25T10:06:55.531Z</time></trkpt><trkpt lat="42.6022199" lon="12.6821596"><ele>273.0</ele><time>2026-04-25T10:06:56.533Z</time></trkpt><trkpt lat="42.6024025" lon="12.6822389"><ele>276.0</ele><time>2026-04-25T10:06:57.538Z</time></trkpt><trkpt lat="42.602591" lon="12.6823218"><ele>279.0</ele><time>2026-04-25T10:06:58.537Z</time></trkpt><trkpt lat="42.6027946" lon="12.6823889"><ele>285.6666666666667</ele><time>2026-04-25T10:06:59.53Z</time></trkpt><trkpt lat="42.603008" lon="12.6824352"><ele>292.33333333333337</ele><time>2026-04-25T10:07:00.536Z</time></trkpt><trkpt lat="42.6032208" lon="12.68248"><ele>299.0</ele><time>2026-04-25T10:07:01.537Z</time></trkpt><trkpt lat="42.6034382" lon="12.6825294"><ele>299.0</ele><time>2026-04-25T10:07:02.526Z</time></trkpt><trkpt lat="42.6036305" lon="12.6825602"><ele>299.0</ele><time>2026-04-25T10:07:03.532Z</time></trkpt><trkpt lat="42.6038072" lon="12.6825859"><ele>299.0</ele><time>2026-04-25T10:07:04.538Z</time></trkpt><trkpt lat="42.603978" lon="12.6825975"><ele>299.33333333333337</ele><time>2026-04-25T10:07:05.536Z</time></trkpt><trkpt lat="42.6041406" lon="12.6825801"><ele>299.6666666666667</ele><time>2026-04-25T10:07:06.542Z</time></trkpt><trkpt lat="42.604294" lon="12.6825243"><ele>300.0</ele><time>2026-04-25T10:07:07.532Z</time></trkpt><trkpt lat="42.6044477" lon="12.6824548"><ele>301.75</ele><time>2026-04-25T10:07:08.543Z</time></trkpt><trkpt lat="42.6045824" lon="12.6823978"><ele>303.5</ele><time>2026-04-25T10:07:09.538Z</time></trkpt><trkpt lat="42.6047197" lon="12.6823606"><ele>305.25</ele><time>2026-04-25T10:07:10.545Z</time></trkpt><trkpt lat="42.6048522" lon="12.6823758"><ele>307.0</ele><time>2026-04-25T10:07:11.533Z</time></trkpt><trkpt lat="42.6049798" lon="12.6824248"><ele>307.0</ele><time>2026-04-25T10:07:12.539Z</time></trkpt><trkpt lat="42.6051092" lon="12.682499"><ele>307.0</ele><time>2026-04-25T10:07:13.538Z</time></trkpt><trkpt lat="42.605249" lon="12.6825778"><ele>307.0</ele><time>2026-04-25T10:07:14.536Z</time></trkpt><trkpt lat="42.6054061" lon="12.682659"><ele>312.3333333333333</ele><time>2026-04-25T10:07:15.535Z</time></trkpt><trkpt lat="42.6055839" lon="12.6827086"><ele>317.6666666666667</ele><time>2026-04-25T10:07:16.536Z</time></trkpt><trkpt lat="42.6057747" lon="12.6827455"><ele>323.0</ele><time>2026-04-25T10:07:17.534Z</time></trkpt><trkpt lat="42.6059703" lon="12.682743"><ele>323.0</ele><time>2026-04-25T10:07:18.54Z</time></trkpt><trkpt lat="42.6061502" lon="12.6827001"><ele>323.0</ele><time>2026-04-25T10:07:19.531Z</time></trkpt><trkpt lat="42.6063292" lon="12.6826447"><ele>323.0</ele><time>2026-04-25T10:07:20.555Z</time></trkpt><trkpt lat="42.6065174" lon="12.6825821"><ele>324.6666666666667</ele><time>2026-04-25T10:07:21.538Z</time></trkpt><trkpt lat="42.6067116" lon="12.6825565"><ele>326.3333333333333</ele><time>2026-04-25T10:07:22.536Z</time></trkpt><trkpt lat="42.6069206" lon="12.6825753"><ele>328.0</ele><time>2026-04-25T10:07:23.536Z</time></trkpt><trkpt lat="42.6071399" lon="12.6826002"><ele>328.3333333333333</ele><time>2026-04-25T10:07:24.536Z</time></trkpt><trkpt lat="42.6073581" lon="12.6826409"><ele>328.6666666666667</ele><time>2026-04-25T10:07:25.554Z</time></trkpt><trkpt lat="42.6075761" lon="12.6826727"><ele>329.0</ele><time>2026-04-25T10:07:26.552Z</time></trkpt><trkpt lat="42.6077971" lon="12.6827126"><ele>327.0</ele><time>2026-04-25T10:07:27.537Z</time></trkpt><trkpt lat="42.6080048" lon="12.6827465"><ele>325.0</ele><time>2026-04-25T10:07:28.534Z</time></trkpt><trkpt lat="42.6081963" lon="12.6827794"><ele>323.0</ele><time>2026-04-25T10:07:29.535Z</time></trkpt><trkpt lat="42.6083652" lon="12.682817"><ele>319.6666666666667</ele><time>2026-04-25T10:07:30.541Z</time></trkpt><trkpt lat="42.6085205" lon="12.6828221"><ele>316.3333333333333</ele><time>2026-04-25T10:07:31.531Z</time></trkpt><trkpt lat="42.6086669" lon="12.6827884"><ele>313.0</ele><time>2026-04-25T10:07:32.529Z</time></trkpt><trkpt lat="42.608805" lon="12.6827176"><ele>313.0</ele><time>2026-04-25T10:07:33.536Z</time></trkpt><trkpt lat="42.6089458" lon="12.6826103"><ele>313.0</ele><time>2026-04-25T10:07:34.537Z</time></trkpt><trkpt lat="42.6091011" lon="12.682504"><ele>313.0</ele><time>2026-04-25T10:07:35.536Z</time></trkpt><trkpt lat="42.6092496" lon="12.682444"><ele>313.0</ele><time>2026-04-25T10:07:36.533Z</time></trkpt><trkpt lat="42.6094123" lon="12.6824294"><ele>313.0</ele><time>2026-04-25T10:07:37.533Z</time></trkpt><trkpt lat="42.6095745" lon="12.6824445"><ele>313.0</ele><time>2026-04-25T10:07:38.539Z</time></trkpt><trkpt lat="42.6097448" lon="12.6824507"><ele>311.3333333333333</ele><time>2026-04-25T10:07:39.535Z</time></trkpt><trkpt lat="42.6099169" lon="12.682419"><ele>309.6666666666667</ele><time>2026-04-25T10:07:40.56Z</time></trkpt><trkpt lat="42.6100965" lon="12.6823413"><ele>308.0</ele><time>2026-04-25T10:07:41.534Z</time></trkpt><trkpt lat="42.6102758" lon="12.6822353"><ele>303.0</ele><time>2026-04-25T10:07:42.545Z</time></trkpt><trkpt lat="42.6104658" lon="12.6821172"><ele>298.0</ele><time>2026-04-25T10:07:43.532Z</time></trkpt><trkpt lat="42.6106568" lon="12.6820187"><ele>293.0</ele><time>2026-04-25T10:07:44.534Z</time></trkpt><trkpt lat="42.6108541" lon="12.6819503"><ele>304.6666666666667</ele><time>2026-04-25T10:07:45.536Z</time></trkpt><trkpt lat="42.6110579" lon="12.6818964"><ele>316.3333333333333</ele><time>2026-04-25T10:07:46.535Z</time></trkpt><trkpt lat="42.6112621" lon="12.6818517"><ele>328.0</ele><time>2026-04-25T10:07:47.532Z</time></trkpt><trkpt lat="42.6114671" lon="12.6818013"><ele>328.0</ele><time>2026-04-25T10:07:48.538Z</time></trkpt><trkpt lat="42.6116624" lon="12.6817551"><ele>328.0</ele><time>2026-04-25T10:07:49.535Z</time></trkpt><trkpt lat="42.61184" lon="12.6817079"><ele>328.0</ele><time>2026-04-25T10:07:50.555Z</time></trkpt><trkpt lat="42.6119901" lon="12.6816535"><ele>322.3333333333333</ele><time>2026-04-25T10:07:51.533Z</time></trkpt><trkpt lat="42.6121394" lon="12.6815834"><ele>316.6666666666667</ele><time>2026-04-25T10:07:52.53Z</time></trkpt><trkpt lat="42.6122844" lon="12.6814887"><ele>311.0</ele><time>2026-04-25T10:07:53.539Z</time></trkpt><trkpt lat="42.6124243" lon="12.6813501"><ele>311.0</ele><time>2026-04-25T10:07:54.541Z</time></trkpt><trkpt lat="42.6125539" lon="12.6811882"><ele>311.0</ele><time>2026-04-25T10:07:55.537Z</time></trkpt><trkpt lat="42.6126665" lon="12.6809951"><ele>311.0</ele><time>2026-04-25T10:07:56.531Z</time></trkpt><trkpt lat="42.6127815" lon="12.6808062"><ele>308.0</ele><time>2026-04-25T10:07:57.536Z</time></trkpt><trkpt lat="42.6128794" lon="12.6806095"><ele>305.0</ele><time>2026-04-25T10:07:58.537Z</time></trkpt><trkpt lat="42.6129659" lon="12.6804077"><ele>302.0</ele><time>2026-04-25T10:07:59.533Z</time></trkpt><trkpt lat="42.6130434" lon="12.6802248"><ele>309.25</ele><time>2026-04-25T10:08:00.536Z</time></trkpt><trkpt lat="42.6131313" lon="12.6800734"><ele>316.5</ele><time>2026-04-25T10:08:01.536Z</time></trkpt><trkpt lat="42.613246" lon="12.6799437"><ele>323.75</ele><time>2026-04-25T10:08:02.538Z</time></trkpt><trkpt lat="42.6133864" lon="12.6798557"><ele>331.0</ele><time>2026-04-25T10:08:03.536Z</time></trkpt><trkpt lat="42.6135236" lon="12.6798119"><ele>329.66666666666663</ele><time>2026-04-25T10:08:04.533Z</time></trkpt><trkpt lat="42.6136858" lon="12.6798088"><ele>328.3333333333333</ele><time>2026-04-25T10:08:05.536Z</time></trkpt><trkpt lat="42.6138414" lon="12.6798182"><ele>327.0</ele><time>2026-04-25T10:08:06.531Z</time></trkpt><trkpt lat="42.6140055" lon="12.6798328"><ele>327.0</ele><time>2026-04-25T10:08:07.531Z</time></trkpt><trkpt lat="42.6141836" lon="12.6798398"><ele>327.0</ele><time>2026-04-25T10:08:08.536Z</time></trkpt><trkpt lat="42.6143814" lon="12.6798387"><ele>327.0</ele><time>2026-04-25T10:08:09.541Z</time></trkpt><trkpt lat="42.6145858" lon="12.6798255"><ele>327.6666666666667</ele><time>2026-04-25T10:08:10.538Z</time></trkpt><trkpt lat="42.6147633" lon="12.679809"><ele>328.33333333333337</ele><time>2026-04-25T10:08:11.538Z</time></trkpt><trkpt lat="42.614933" lon="12.6797813"><ele>329.0</ele><time>2026-04-25T10:08:12.55Z</time></trkpt><trkpt lat="42.6150937" lon="12.679737"><ele>329.0</ele><time>2026-04-25T10:08:13.543Z</time></trkpt><trkpt lat="42.6152432" lon="12.6796756"><ele>329.0</ele><time>2026-04-25T10:08:14.542Z</time></trkpt><trkpt lat="42.6153809" lon="12.6796075"><ele>329.0</ele><time>2026-04-25T10:08:15.54Z</time></trkpt><trkpt lat="42.6155031" lon="12.6795213"><ele>329.0</ele><time>2026-04-25T10:08:16.544Z</time></trkpt><trkpt lat="42.6156078" lon="12.6793886"><ele>331.5</ele><time>2026-04-25T10:08:17.536Z</time></trkpt><trkpt lat="42.6156772" lon="12.6792543"><ele>334.0</ele><time>2026-04-25T10:08:18.546Z</time></trkpt><trkpt lat="42.6157256" lon="12.6790923"><ele>336.5</ele><time>2026-04-25T10:08:19.538Z</time></trkpt><trkpt lat="42.6157576" lon="12.6789013"><ele>339.0</ele><time>2026-04-25T10:08:20.537Z</time></trkpt><trkpt lat="42.6157771" lon="12.678678"><ele>341.0</ele><time>2026-04-25T10:08:21.536Z</time></trkpt><trkpt lat="42.6158141" lon="12.6784332"><ele>343.0</ele><time>2026-04-25T10:08:22.54Z</time></trkpt><trkpt lat="42.6158598" lon="12.6781911"><ele>345.0</ele><time>2026-04-25T10:08:23.535Z</time></trkpt><trkpt lat="42.6159204" lon="12.6779645"><ele>348.0</ele><time>2026-04-25T10:08:24.537Z</time></trkpt><trkpt lat="42.6159805" lon="12.6777543"><ele>351.0</ele><time>2026-04-25T10:08:25.54Z</time></trkpt><trkpt lat="42.6160511" lon="12.6775703"><ele>354.0</ele><time>2026-04-25T10:08:26.531Z</time></trkpt><trkpt lat="42.6161222" lon="12.6774079"><ele>345.75</ele><time>2026-04-25T10:08:27.534Z</time></trkpt><trkpt lat="42.6162115" lon="12.6772783"><ele>337.5</ele><time>2026-04-25T10:08:28.539Z</time></trkpt><trkpt lat="42.6163282" lon="12.6771742"><ele>329.25</ele><time>2026-04-25T10:08:29.535Z</time></trkpt><trkpt lat="42.6164594" lon="12.6770839"><ele>321.0</ele><time>2026-04-25T10:08:30.533Z</time></trkpt><trkpt lat="42.6165985" lon="12.6770248"><ele>321.0</ele><time>2026-04-25T10:08:31.531Z</time></trkpt><trkpt lat="42.616743" lon="12.6770048"><ele>321.0</ele><time>2026-04-25T10:08:32.531Z</time></trkpt><trkpt lat="42.6168786" lon="12.6770287"><ele>321.0</ele><time>2026-04-25T10:08:33.529Z</time></trkpt><trkpt lat="42.6170276" lon="12.6770814"><ele>321.0</ele><time>2026-04-25T10:08:34.533Z</time></trkpt><trkpt lat="42.6171948" lon="12.677154"><ele>325.3333333333333</ele><time>2026-04-25T10:08:35.54Z</time></trkpt><trkpt lat="42.6173592" lon="12.6772341"><ele>329.66666666666663</ele><time>2026-04-25T10:08:36.536Z</time></trkpt><trkpt lat="42.6175178" lon="12.6773172"><ele>334.0</ele><time>2026-04-25T10:08:37.534Z</time></trkpt><trkpt lat="42.6176703" lon="12.6773996"><ele>334.0</ele><time>2026-04-25T10:08:38.537Z</time></trkpt><trkpt lat="42.617813" lon="12.6774823"><ele>334.0</ele><time>2026-04-25T10:08:39.539Z</time></trkpt><trkpt lat="42.6179547" lon="12.6775637"><ele>334.0</ele><time>2026-04-25T10:08:40.534Z</time></trkpt><trkpt lat="42.6181019" lon="12.6776382"><ele>338.0</ele><time>2026-04-25T10:08:41.528Z</time></trkpt><trkpt lat="42.6182466" lon="12.6776851"><ele>342.0</ele><time>2026-04-25T10:08:42.535Z</time></trkpt><trkpt lat="42.6183986" lon="12.677688"><ele>346.0</ele><time>2026-04-25T10:08:43.535Z</time></trkpt><trkpt lat="42.6185575" lon="12.6776508"><ele>344.66666666666663</ele><time>2026-04-25T10:08:44.54Z</time></trkpt><trkpt lat="42.6187208" lon="12.6775703"><ele>343.3333333333333</ele><time>2026-04-25T10:08:45.539Z</time></trkpt><trkpt lat="42.618885" lon="12.6774772"><ele>342.0</ele><time>2026-04-25T10:08:46.536Z</time></trkpt><trkpt lat="42.6190406" lon="12.677374"><ele>342.0</ele><time>2026-04-25T10:08:47.537Z</time></trkpt><trkpt lat="42.6191694" lon="12.6772417"><ele>342.0</ele><time>2026-04-25T10:08:48.535Z</time></trkpt><trkpt lat="42.6192754" lon="12.6770887"><ele>342.0</ele><time>2026-04-25T10:08:49.536Z</time></trkpt><trkpt lat="42.6193616" lon="12.6769124"><ele>339.3333333333333</ele><time>2026-04-25T10:08:50.535Z</time></trkpt><trkpt lat="42.61944" lon="12.6767035"><ele>336.66666666666663</ele><time>2026-04-25T10:08:51.541Z</time></trkpt><trkpt lat="42.6195339" lon="12.6764827"><ele>334.0</ele><time>2026-04-25T10:08:52.543Z</time></trkpt><trkpt lat="42.6196489" lon="12.6762869"><ele>342.0</ele><time>2026-04-25T10:08:53.536Z</time></trkpt><trkpt lat="42.6197911" lon="12.6761025"><ele>350.0</ele><time>2026-04-25T10:08:54.533Z</time></trkpt><trkpt lat="42.6199495" lon="12.6759292"><ele>358.0</ele><time>2026-04-25T10:08:55.534Z</time></trkpt><trkpt lat="42.6201121" lon="12.6757503"><ele>358.0</ele><time>2026-04-25T10:08:56.532Z</time></trkpt><trkpt lat="42.620267" lon="12.6755756"><ele>358.0</ele><time>2026-04-25T10:08:57.532Z</time></trkpt><trkpt lat="42.620421" lon="12.6754089"><ele>358.0</ele><time>2026-04-25T10:08:58.535Z</time></trkpt><trkpt lat="42.6205671" lon="12.6752378"><ele>359.0</ele><time>2026-04-25T10:08:59.535Z</time></trkpt><trkpt lat="42.6207056" lon="12.6750748"><ele>360.0</ele><time>2026-04-25T10:09:00.535Z</time></trkpt><trkpt lat="42.6208384" lon="12.6749119"><ele>361.0</ele><time>2026-04-25T10:09:01.53Z</time></trkpt><trkpt lat="42.620952" lon="12.6747531"><ele>361.0</ele><time>2026-04-25T10:09:02.538Z</time></trkpt><trkpt lat="42.6210466" lon="12.6745788"><ele>361.0</ele><time>2026-04-25T10:09:03.533Z</time></trkpt><trkpt lat="42.6211142" lon="12.6743807"><ele>361.0</ele><time>2026-04-25T10:09:04.53Z</time></trkpt><trkpt lat="42.6211717" lon="12.6741807"><ele>356.3333333333333</ele><time>2026-04-25T10:09:05.541Z</time></trkpt><trkpt lat="42.6212365" lon="12.6739885"><ele>351.6666666666667</ele><time>2026-04-25T10:09:06.536Z</time></trkpt><trkpt lat="42.6213061" lon="12.6738083"><ele>347.0</ele><time>2026-04-25T10:09:07.54Z</time></trkpt><trkpt lat="42.6214037" lon="12.6736551"><ele>355.33333333333337</ele><time>2026-04-25T10:09:08.536Z</time></trkpt><trkpt lat="42.6215258" lon="12.6735171"><ele>363.6666666666667</ele><time>2026-04-25T10:09:09.541Z</time></trkpt><trkpt lat="42.6216557" lon="12.6733858"><ele>372.0</ele><time>2026-04-25T10:09:10.539Z</time></trkpt><trkpt lat="42.6217601" lon="12.6732422"><ele>372.0</ele><time>2026-04-25T10:09:11.54Z</time></trkpt><trkpt lat="42.6218308" lon="12.6730772"><ele>372.0</ele><time>2026-04-25T10:09:12.548Z</time></trkpt><trkpt lat="42.6218824" lon="12.6728775"><ele>372.0</ele><time>2026-04-25T10:09:13.539Z</time></trkpt><trkpt lat="42.6219262" lon="12.6726524"><ele>366.3333333333333</ele><time>2026-04-25T10:09:14.541Z</time></trkpt><trkpt lat="42.6219879" lon="12.6724422"><ele>360.66666666666663</ele><time>2026-04-25T10:09:15.545Z</time></trkpt><trkpt lat="42.6220781" lon="12.6722623"><ele>355.0</ele><time>2026-04-25T10:09:16.536Z</time></trkpt><trkpt lat="42.622184" lon="12.6720801"><ele>365.66666666666663</ele><time>2026-04-25T10:09:17.532Z</time></trkpt><trkpt lat="42.6222936" lon="12.6719125"><ele>376.3333333333333</ele><time>2026-04-25T10:09:18.539Z</time></trkpt><trkpt lat="42.6224248" lon="12.6717821"><ele>387.0</ele><time>2026-04-25T10:09:19.533Z</time></trkpt><trkpt lat="42.6225635" lon="12.6716756"><ele>387.0</ele><time>2026-04-25T10:09:20.535Z</time></trkpt><trkpt lat="42.6226892" lon="12.6715825"><ele>387.0</ele><time>2026-04-25T10:09:21.536Z</time></trkpt><trkpt lat="42.6227836" lon="12.6714697"><ele>387.0</ele><time>2026-04-25T10:09:22.532Z</time></trkpt><trkpt lat="42.6228418" lon="12.6713161"><ele>387.0</ele><time>2026-04-25T10:09:23.536Z</time></trkpt><trkpt lat="42.6228628" lon="12.6711265"><ele>376.6666666666667</ele><time>2026-04-25T10:09:24.54Z</time></trkpt><trkpt lat="42.6228551" lon="12.6709091"><ele>366.33333333333337</ele><time>2026-04-25T10:09:25.535Z</time></trkpt><trkpt lat="42.6228486" lon="12.6706823"><ele>356.0</ele><time>2026-04-25T10:09:26.531Z</time></trkpt><trkpt lat="42.6228755" lon="12.6704926"><ele>356.0</ele><time>2026-04-25T10:09:27.543Z</time></trkpt><trkpt lat="42.6229334" lon="12.6703008"><ele>356.0</ele><time>2026-04-25T10:09:28.538Z</time></trkpt><trkpt lat="42.6230311" lon="12.6701053"><ele>356.0</ele><time>2026-04-25T10:09:29.534Z</time></trkpt><trkpt lat="42.6231371" lon="12.6699043"><ele>361.33333333333337</ele><time>2026-04-25T10:09:30.54Z</time></trkpt><trkpt lat="42.6232534" lon="12.6696755"><ele>366.6666666666667</ele><time>2026-04-25T10:09:31.538Z</time></trkpt><trkpt lat="42.6233818" lon="12.6694375"><ele>372.0</ele><time>2026-04-25T10:09:32.539Z</time></trkpt><trkpt lat="42.623527" lon="12.6692007"><ele>365.5</ele><time>2026-04-25T10:09:33.535Z</time></trkpt><trkpt lat="42.6236956" lon="12.6689774"><ele>359.0</ele><time>2026-04-25T10:09:34.537Z</time></trkpt><trkpt lat="42.6238651" lon="12.6687717"><ele>370.33333333333337</ele><time>2026-04-25T10:09:35.533Z</time></trkpt><trkpt lat="42.6240203" lon="12.6685742"><ele>381.6666666666667</ele><time>2026-04-25T10:09:36.543Z</time></trkpt><trkpt lat="42.6241699" lon="12.6683849"><ele>393.0</ele><time>2026-04-25T10:09:37.536Z</time></trkpt><trkpt lat="42.6243134" lon="12.668203"><ele>393.0</ele><time>2026-04-25T10:09:38.531Z</time></trkpt><trkpt lat="42.6244623" lon="12.6680496"><ele>393.0</ele><time>2026-04-25T10:09:39.526Z</time></trkpt><trkpt lat="42.6246164" lon="12.6679044"><ele>393.0</ele><time>2026-04-25T10:09:40.541Z</time></trkpt><trkpt lat="42.6247638" lon="12.6677631"><ele>393.66666666666663</ele><time>2026-04-25T10:09:41.536Z</time></trkpt><trkpt lat="42.6249126" lon="12.6676125"><ele>394.3333333333333</ele><time>2026-04-25T10:09:42.544Z</time></trkpt><trkpt lat="42.6250557" lon="12.6674664"><ele>395.0</ele><time>2026-04-25T10:09:43.54Z</time></trkpt><trkpt lat="42.6251961" lon="12.6673209"><ele>388.3333333333333</ele><time>2026-04-25T10:09:44.547Z</time></trkpt><trkpt lat="42.6253299" lon="12.6671949"><ele>381.66666666666663</ele><time>2026-04-25T10:09:45.534Z</time></trkpt><trkpt lat="42.6254631" lon="12.6671176"><ele>375.0</ele><time>2026-04-25T10:09:46.54Z</time></trkpt><trkpt lat="42.6256062" lon="12.6670554"><ele>375.0</ele><time>2026-04-25T10:09:47.536Z</time></trkpt><trkpt lat="42.6257525" lon="12.6670049"><ele>375.0</ele><time>2026-04-25T10:09:48.542Z</time></trkpt><trkpt lat="42.6258968" lon="12.6669397"><ele>375.0</ele><time>2026-04-25T10:09:49.536Z</time></trkpt><trkpt lat="42.6260244" lon="12.6668327"><ele>373.3333333333333</ele><time>2026-04-25T10:09:50.541Z</time></trkpt><trkpt lat="42.6261323" lon="12.6666783"><ele>371.66666666666663</ele><time>2026-04-25T10:09:51.542Z</time></trkpt><trkpt lat="42.6262225" lon="12.6664924"><ele>370.0</ele><time>2026-04-25T10:09:52.539Z</time></trkpt><trkpt lat="42.6263156" lon="12.6663015"><ele>374.3333333333333</ele><time>2026-04-25T10:09:53.535Z</time></trkpt><trkpt lat="42.6264182" lon="12.6660967"><ele>378.6666666666667</ele><time>2026-04-25T10:09:54.542Z</time></trkpt><trkpt lat="42.6265332" lon="12.6659175"><ele>383.0</ele><time>2026-04-25T10:09:55.54Z</time></trkpt><trkpt lat="42.6266435" lon="12.6657364"><ele>383.0</ele><time>2026-04-25T10:09:56.543Z</time></trkpt><trkpt lat="42.6267453" lon="12.6655294"><ele>383.0</ele><time>2026-04-25T10:09:57.538Z</time></trkpt><trkpt lat="42.6268279" lon="12.6653197"><ele>383.0</ele><time>2026-04-25T10:09:58.539Z</time></trkpt><trkpt lat="42.6268878" lon="12.6651086"><ele>381.0</ele><time>2026-04-25T10:09:59.537Z</time></trkpt><trkpt lat="42.6269517" lon="12.6648953"><ele>379.0</ele><time>2026-04-25T10:10:00.545Z</time></trkpt><trkpt lat="42.62702" lon="12.66469"><ele>377.0</ele><time>2026-04-25T10:10:01.54Z</time></trkpt><trkpt lat="42.6271112" lon="12.6644912"><ele>380.0</ele><time>2026-04-25T10:10:02.528Z</time></trkpt><trkpt lat="42.6272167" lon="12.6643008"><ele>383.0</ele><time>2026-04-25T10:10:03.535Z</time></trkpt><trkpt lat="42.6273273" lon="12.6641126"><ele>386.0</ele><time>2026-04-25T10:10:04.539Z</time></trkpt><trkpt lat="42.6274338" lon="12.6639222"><ele>386.0</ele><time>2026-04-25T10:10:05.546Z</time></trkpt><trkpt lat="42.6275441" lon="12.6637248"><ele>386.0</ele><time>2026-04-25T10:10:06.539Z</time></trkpt><trkpt lat="42.6276407" lon="12.6635314"><ele>386.0</ele><time>2026-04-25T10:10:07.547Z</time></trkpt><trkpt lat="42.6277315" lon="12.6633295"><ele>386.0</ele><time>2026-04-25T10:10:08.541Z</time></trkpt><trkpt lat="42.6278206" lon="12.6631279"><ele>386.0</ele><time>2026-04-25T10:10:09.543Z</time></trkpt><trkpt lat="42.6279089" lon="12.6629267"><ele>386.0</ele><time>2026-04-25T10:10:10.547Z</time></trkpt><trkpt lat="42.6280056" lon="12.6627295"><ele>386.0</ele><time>2026-04-25T10:10:11.54Z</time></trkpt><trkpt lat="42.6281124" lon="12.6625369"><ele>386.0</ele><time>2026-04-25T10:10:12.545Z</time></trkpt><trkpt lat="42.6282211" lon="12.6623397"><ele>386.0</ele><time>2026-04-25T10:10:13.539Z</time></trkpt><trkpt lat="42.6283348" lon="12.6621422"><ele>389.3333333333333</ele><time>2026-04-25T10:10:14.543Z</time></trkpt><trkpt lat="42.6284513" lon="12.6619435"><ele>392.66666666666663</ele><time>2026-04-25T10:10:15.542Z</time></trkpt><trkpt lat="42.6285692" lon="12.661747"><ele>396.0</ele><time>2026-04-25T10:10:16.542Z</time></trkpt><trkpt lat="42.6286866" lon="12.6615622"><ele>389.3333333333333</ele><time>2026-04-25T10:10:17.543Z</time></trkpt><trkpt lat="42.6288158" lon="12.6614077"><ele>382.66666666666663</ele><time>2026-04-25T10:10:18.538Z</time></trkpt><trkpt lat="42.6289482" lon="12.6612762"><ele>376.0</ele><time>2026-04-25T10:10:19.54Z</time></trkpt><trkpt lat="42.6290776" lon="12.6611597"><ele>380.5</ele><time>2026-04-25T10:10:20.541Z</time></trkpt><trkpt lat="42.6291933" lon="12.6610406"><ele>385.0</ele><time>2026-04-25T10:10:21.54Z</time></trkpt><trkpt lat="42.6292742" lon="12.6609054"><ele>389.5</ele><time>2026-04-25T10:10:22.541Z</time></trkpt><trkpt lat="42.629332" lon="12.6607531"><ele>394.0</ele><time>2026-04-25T10:10:23.54Z</time></trkpt><trkpt lat="42.6293722" lon="12.6605831"><ele>394.0</ele><time>2026-04-25T10:10:24.547Z</time></trkpt><trkpt lat="42.629389" lon="12.6604135"><ele>394.0</ele><time>2026-04-25T10:10:25.537Z</time></trkpt><trkpt lat="42.6294075" lon="12.6602593"><ele>394.0</ele><time>2026-04-25T10:10:26.547Z</time></trkpt><trkpt lat="42.6294491" lon="12.6601281"><ele>394.0</ele><time>2026-04-25T10:10:27.538Z</time></trkpt><trkpt lat="42.6295055" lon="12.6600148"><ele>394.0</ele><time>2026-04-25T10:10:28.539Z</time></trkpt><trkpt lat="42.6295883" lon="12.6599311"><ele>389.0</ele><time>2026-04-25T10:10:29.539Z</time></trkpt><trkpt lat="42.6297031" lon="12.6598765"><ele>384.0</ele><time>2026-04-25T10:10:30.538Z</time></trkpt><trkpt lat="42.6298366" lon="12.6598236"><ele>379.0</ele><time>2026-04-25T10:10:31.54Z</time></trkpt><trkpt lat="42.629951" lon="12.659745"><ele>374.0</ele><time>2026-04-25T10:10:32.539Z</time></trkpt><trkpt lat="42.6300437" lon="12.6596249"><ele>374.0</ele><time>2026-04-25T10:10:33.538Z</time></trkpt><trkpt lat="42.6300954" lon="12.6594857"><ele>374.0</ele><time>2026-04-25T10:10:34.544Z</time></trkpt><trkpt lat="42.6301487" lon="12.6593342"><ele>374.0</ele><time>2026-04-25T10:10:35.534Z</time></trkpt><trkpt lat="42.6301571" lon="12.6591763"><ele>374.0</ele><time>2026-04-25T10:10:36.537Z</time></trkpt><trkpt lat="42.6301311" lon="12.6590014"><ele>378.0</ele><time>2026-04-25T10:10:37.537Z</time></trkpt><trkpt lat="42.6300966" lon="12.6588289"><ele>382.0</ele><time>2026-04-25T10:10:38.537Z</time></trkpt><trkpt lat="42.6300574" lon="12.6586454"><ele>386.0</ele><time>2026-04-25T10:10:39.537Z</time></trkpt><trkpt lat="42.6300552" lon="12.6584649"><ele>390.0</ele><time>2026-04-25T10:10:40.541Z</time></trkpt><trkpt lat="42.6300854" lon="12.6582995"><ele>392.33333333333337</ele><time>2026-04-25T10:10:41.541Z</time></trkpt><trkpt lat="42.6301515" lon="12.6581355"><ele>394.6666666666667</ele><time>2026-04-25T10:10:42.535Z</time></trkpt><trkpt lat="42.6302413" lon="12.6579683"><ele>397.0</ele><time>2026-04-25T10:10:43.532Z</time></trkpt><trkpt lat="42.6303272" lon="12.657782"><ele>386.33333333333337</ele><time>2026-04-25T10:10:44.547Z</time></trkpt><trkpt lat="42.6303887" lon="12.6575873"><ele>375.6666666666667</ele><time>2026-04-25T10:10:45.54Z</time></trkpt><trkpt lat="42.6304599" lon="12.6573957"><ele>365.0</ele><time>2026-04-25T10:10:46.538Z</time></trkpt><trkpt lat="42.6305576" lon="12.6572333"><ele>365.0</ele><time>2026-04-25T10:10:47.538Z</time></trkpt><trkpt lat="42.6306638" lon="12.6570899"><ele>365.0</ele><time>2026-04-25T10:10:48.539Z</time></trkpt><trkpt lat="42.6307925" lon="12.6569542"><ele>365.0</ele><time>2026-04-25T10:10:49.538Z</time></trkpt><trkpt lat="42.6309111" lon="12.6568404"><ele>367.2</ele><time>2026-04-25T10:10:50.534Z</time></trkpt><trkpt lat="42.631008" lon="12.6567261"><ele>369.4</ele><time>2026-04-25T10:10:51.537Z</time></trkpt><trkpt lat="42.6310768" lon="12.6566252"><ele>371.6</ele><time>2026-04-25T10:10:52.536Z</time></trkpt><trkpt lat="42.6310993" lon="12.6565065"><ele>373.8</ele><time>2026-04-25T10:10:53.539Z</time></trkpt><trkpt lat="42.6310611" lon="12.6563761"><ele>376.0</ele><time>2026-04-25T10:10:54.54Z</time></trkpt><trkpt lat="42.6309838" lon="12.6562551"><ele>376.0</ele><time>2026-04-25T10:10:55.535Z</time></trkpt><trkpt lat="42.6309" lon="12.6561618"><ele>376.0</ele><time>2026-04-25T10:10:56.545Z</time></trkpt><trkpt lat="42.6307808" lon="12.6560952"><ele>376.0</ele><time>2026-04-25T10:10:57.538Z</time></trkpt><trkpt lat="42.6306452" lon="12.6560603"><ele>376.0</ele><time>2026-04-25T10:10:58.539Z</time></trkpt><trkpt lat="42.6304837" lon="12.6560215"><ele>376.0</ele><time>2026-04-25T10:10:59.539Z</time></trkpt><trkpt lat="42.630326" lon="12.6559804"><ele>376.0</ele><time>2026-04-25T10:11:00.547Z</time></trkpt><trkpt lat="42.6301797" lon="12.6559323"><ele>376.0</ele><time>2026-04-25T10:11:01.539Z</time></trkpt><trkpt lat="42.6300417" lon="12.6558801"><ele>376.0</ele><time>2026-04-25T10:11:02.541Z</time></trkpt><trkpt lat="42.6299311" lon="12.6558128"><ele>376.0</ele><time>2026-04-25T10:11:03.537Z</time></trkpt><trkpt lat="42.6298604" lon="12.6557281"><ele>376.0</ele><time>2026-04-25T10:11:04.54Z</time></trkpt><trkpt lat="42.6298318" lon="12.6555965"><ele>376.0</ele><time>2026-04-25T10:11:05.538Z</time></trkpt><trkpt lat="42.6298422" lon="12.655447"><ele>376.0</ele><time>2026-04-25T10:11:06.531Z</time></trkpt><trkpt lat="42.6298817" lon="12.6553049"><ele>375.5</ele><time>2026-04-25T10:11:07.535Z</time></trkpt><trkpt lat="42.6299588" lon="12.6551808"><ele>375.0</ele><time>2026-04-25T10:11:08.542Z</time></trkpt><trkpt lat="42.6300775" lon="12.6550543"><ele>374.5</ele><time>2026-04-25T10:11:09.538Z</time></trkpt><trkpt lat="42.6302162" lon="12.6549205"><ele>374.0</ele><time>2026-04-25T10:11:10.534Z</time></trkpt><trkpt lat="42.6303687" lon="12.6548112"><ele>369.0</ele><time>2026-04-25T10:11:11.543Z</time></trkpt><trkpt lat="42.6305339" lon="12.6547149"><ele>364.0</ele><time>2026-04-25T10:11:12.537Z</time></trkpt><trkpt lat="42.6307275" lon="12.6546392"><ele>359.0</ele><time>2026-04-25T10:11:13.532Z</time></trkpt><trkpt lat="42.630928" lon="12.6545766"><ele>359.0</ele><time>2026-04-25T10:11:14.535Z</time></trkpt><trkpt lat="42.6311271" lon="12.6544978"><ele>359.0</ele><time>2026-04-25T10:11:15.536Z</time></trkpt><trkpt lat="42.6313169" lon="12.6544028"><ele>359.0</ele><time>2026-04-25T10:11:16.546Z</time></trkpt><trkpt lat="42.6314998" lon="12.6542933"><ele>359.33333333333337</ele><time>2026-04-25T10:11:17.54Z</time></trkpt><trkpt lat="42.6316712" lon="12.6541846"><ele>359.6666666666667</ele><time>2026-04-25T10:11:18.533Z</time></trkpt><trkpt lat="42.6318452" lon="12.6540705"><ele>360.0</ele><time>2026-04-25T10:11:19.538Z</time></trkpt><trkpt lat="42.631999" lon="12.653919"><ele>357.3333333333333</ele><time>2026-04-25T10:11:20.538Z</time></trkpt><trkpt lat="42.632134" lon="12.6537452"><ele>354.66666666666663</ele><time>2026-04-25T10:11:21.538Z</time></trkpt><trkpt lat="42.6322578" lon="12.6535651"><ele>352.0</ele><time>2026-04-25T10:11:22.542Z</time></trkpt><trkpt lat="42.632372" lon="12.6533879"><ele>352.0</ele><time>2026-04-25T10:11:23.537Z</time></trkpt><trkpt lat="42.6324867" lon="12.653209"><ele>352.0</ele><time>2026-04-25T10:11:24.536Z</time></trkpt><trkpt lat="42.6326033" lon="12.6530281"><ele>352.0</ele><time>2026-04-25T10:11:25.536Z</time></trkpt><trkpt lat="42.632719" lon="12.6528485"><ele>347.3333333333333</ele><time>2026-04-25T10:11:26.541Z</time></trkpt><trkpt lat="42.632838" lon="12.6526646"><ele>342.6666666666667</ele><time>2026-04-25T10:11:27.535Z</time></trkpt><trkpt lat="42.6329536" lon="12.6524828"><ele>338.0</ele><time>2026-04-25T10:11:28.541Z</time></trkpt><trkpt lat="42.6330694" lon="12.6522915"><ele>338.0</ele><time>2026-04-25T10:11:29.538Z</time></trkpt><trkpt lat="42.6331921" lon="12.6521083"><ele>338.0</ele><time>2026-04-25T10:11:30.534Z</time></trkpt><trkpt lat="42.6333088" lon="12.6519201"><ele>338.0</ele><time>2026-04-25T10:11:31.541Z</time></trkpt><trkpt lat="42.633415" lon="12.6517294"><ele>342.33333333333337</ele><time>2026-04-25T10:11:32.562Z</time></trkpt><trkpt lat="42.6335202" lon="12.6515365"><ele>346.6666666666667</ele><time>2026-04-25T10:11:33.539Z</time></trkpt><trkpt lat="42.633624" lon="12.651338"><ele>351.0</ele><time>2026-04-25T10:11:34.536Z</time></trkpt><trkpt lat="42.6337291" lon="12.6511411"><ele>345.0</ele><time>2026-04-25T10:11:35.543Z</time></trkpt><trkpt lat="42.6338286" lon="12.6509489"><ele>339.0</ele><time>2026-04-25T10:11:36.539Z</time></trkpt><trkpt lat="42.6339263" lon="12.6507516"><ele>333.0</ele><time>2026-04-25T10:11:37.535Z</time></trkpt><trkpt lat="42.6340223" lon="12.6505525"><ele>333.0</ele><time>2026-04-25T10:11:38.546Z</time></trkpt><trkpt lat="42.6341183" lon="12.6503607"><ele>333.0</ele><time>2026-04-25T10:11:39.532Z</time></trkpt><trkpt lat="42.6342169" lon="12.6501686"><ele>333.0</ele><time>2026-04-25T10:11:40.536Z</time></trkpt><trkpt lat="42.6343124" lon="12.6499735"><ele>331.3333333333333</ele><time>2026-04-25T10:11:41.537Z</time></trkpt><trkpt lat="42.6344213" lon="12.6497987"><ele>329.66666666666663</ele><time>2026-04-25T10:11:42.536Z</time></trkpt><trkpt lat="42.6345255" lon="12.6496249"><ele>328.0</ele><time>2026-04-25T10:11:43.539Z</time></trkpt><trkpt lat="42.6346356" lon="12.6494538"><ele>328.0</ele><time>2026-04-25T10:11:44.536Z</time></trkpt><trkpt lat="42.6347557" lon="12.6492815"><ele>328.0</ele><time>2026-04-25T10:11:45.539Z</time></trkpt><trkpt lat="42.6348814" lon="12.6491221"><ele>328.0</ele><time>2026-04-25T10:11:46.543Z</time></trkpt><trkpt lat="42.6350093" lon="12.6489576"><ele>328.0</ele><time>2026-04-25T10:11:47.538Z</time></trkpt><trkpt lat="42.6351356" lon="12.648793"><ele>328.0</ele><time>2026-04-25T10:11:48.548Z</time></trkpt><trkpt lat="42.6352627" lon="12.6486304"><ele>328.0</ele><time>2026-04-25T10:11:49.54Z</time></trkpt><trkpt lat="42.6353881" lon="12.6484682"><ele>327.66666666666663</ele><time>2026-04-25T10:11:50.533Z</time></trkpt><trkpt lat="42.6355138" lon="12.64831"><ele>327.3333333333333</ele><time>2026-04-25T10:11:51.541Z</time></trkpt><trkpt lat="42.635636" lon="12.6481443"><ele>327.0</ele><time>2026-04-25T10:11:52.542Z</time></trkpt><trkpt lat="42.6357634" lon="12.647982"><ele>327.0</ele><time>2026-04-25T10:11:53.542Z</time></trkpt><trkpt lat="42.6358839" lon="12.6478282"><ele>327.0</ele><time>2026-04-25T10:11:54.538Z</time></trkpt><trkpt lat="42.6360055" lon="12.6476771"><ele>327.0</ele><time>2026-04-25T10:11:55.541Z</time></trkpt><trkpt lat="42.6361273" lon="12.6475233"><ele>327.0</ele><time>2026-04-25T10:11:56.553Z</time></trkpt><trkpt lat="42.6362497" lon="12.647373"><ele>327.0</ele><time>2026-04-25T10:11:57.537Z</time></trkpt><trkpt lat="42.6363687" lon="12.6472229"><ele>327.0</ele><time>2026-04-25T10:11:58.55Z</time></trkpt><trkpt lat="42.6364916" lon="12.6470614"><ele>328.0</ele><time>2026-04-25T10:11:59.539Z</time></trkpt><trkpt lat="42.6366159" lon="12.6469059"><ele>329.0</ele><time>2026-04-25T10:12:00.541Z</time></trkpt><trkpt lat="42.636739" lon="12.6467534"><ele>330.0</ele><time>2026-04-25T10:12:01.535Z</time></trkpt><trkpt lat="42.6368643" lon="12.6465956"><ele>329.0</ele><time>2026-04-25T10:12:02.551Z</time></trkpt><trkpt lat="42.6369868" lon="12.6464389"><ele>328.0</ele><time>2026-04-25T10:12:03.535Z</time></trkpt><trkpt lat="42.6371121" lon="12.6462797"><ele>327.0</ele><time>2026-04-25T10:12:04.548Z</time></trkpt><trkpt lat="42.6372393" lon="12.6461228"><ele>329.0</ele><time>2026-04-25T10:12:05.543Z</time></trkpt><trkpt lat="42.6373666" lon="12.6459688"><ele>331.0</ele><time>2026-04-25T10:12:06.542Z</time></trkpt><trkpt lat="42.6374935" lon="12.645814"><ele>333.0</ele><time>2026-04-25T10:12:07.543Z</time></trkpt><trkpt lat="42.6376242" lon="12.6456621"><ele>333.0</ele><time>2026-04-25T10:12:08.539Z</time></trkpt><trkpt lat="42.6377552" lon="12.6455131"><ele>333.0</ele><time>2026-04-25T10:12:09.54Z</time></trkpt><trkpt lat="42.6378815" lon="12.6453598"><ele>333.0</ele><time>2026-04-25T10:12:10.536Z</time></trkpt><trkpt lat="42.6380069" lon="12.6452038"><ele>332.6666666666667</ele><time>2026-04-25T10:12:11.538Z</time></trkpt><trkpt lat="42.63813" lon="12.6450437"><ele>332.33333333333337</ele><time>2026-04-25T10:12:12.538Z</time></trkpt><trkpt lat="42.6382539" lon="12.6448775"><ele>332.0</ele><time>2026-04-25T10:12:13.54Z</time></trkpt><trkpt lat="42.6383709" lon="12.6447121"><ele>332.0</ele><time>2026-04-25T10:12:14.544Z</time></trkpt><trkpt lat="42.6384907" lon="12.6445454"><ele>332.0</ele><time>2026-04-25T10:12:15.541Z</time></trkpt><trkpt lat="42.6386114" lon="12.6443805"><ele>332.0</ele><time>2026-04-25T10:12:16.545Z</time></trkpt><trkpt lat="42.6387349" lon="12.6442186"><ele>332.0</ele><time>2026-04-25T10:12:17.537Z</time></trkpt><trkpt lat="42.6388545" lon="12.6440617"><ele>332.0</ele><time>2026-04-25T10:12:18.536Z</time></trkpt><trkpt lat="42.638978" lon="12.6439102"><ele>332.0</ele><time>2026-04-25T10:12:19.538Z</time></trkpt><trkpt lat="42.6391021" lon="12.6437602"><ele>333.6666666666667</ele><time>2026-04-25T10:12:20.548Z</time></trkpt><trkpt lat="42.6392195" lon="12.643608"><ele>335.3333333333333</ele><time>2026-04-25T10:12:21.538Z</time></trkpt><trkpt lat="42.6393394" lon="12.6434651"><ele>337.0</ele><time>2026-04-25T10:12:22.543Z</time></trkpt><trkpt lat="42.6394575" lon="12.643319"><ele>335.66666666666663</ele><time>2026-04-25T10:12:23.562Z</time></trkpt><trkpt lat="42.639582" lon="12.6431731"><ele>334.3333333333333</ele><time>2026-04-25T10:12:24.537Z</time></trkpt><trkpt lat="42.6397098" lon="12.6430284"><ele>333.0</ele><time>2026-04-25T10:12:25.536Z</time></trkpt><trkpt lat="42.6398438" lon="12.6428919"><ele>333.6666666666667</ele><time>2026-04-25T10:12:26.543Z</time></trkpt><trkpt lat="42.6399784" lon="12.6427592"><ele>334.33333333333337</ele><time>2026-04-25T10:12:27.544Z</time></trkpt><trkpt lat="42.6401143" lon="12.6426275"><ele>335.0</ele><time>2026-04-25T10:12:28.54Z</time></trkpt><trkpt lat="42.6402521" lon="12.6424969"><ele>334.5</ele><time>2026-04-25T10:12:29.538Z</time></trkpt><trkpt lat="42.640385" lon="12.6423694"><ele>334.0</ele><time>2026-04-25T10:12:30.544Z</time></trkpt><trkpt lat="42.6405111" lon="12.6422518"><ele>333.5</ele><time>2026-04-25T10:12:31.538Z</time></trkpt><trkpt lat="42.6406242" lon="12.6421576"><ele>333.0</ele><time>2026-04-25T10:12:32.54Z</time></trkpt><trkpt lat="42.6407388" lon="12.6421051"><ele>333.0</ele><time>2026-04-25T10:12:33.54Z</time></trkpt><trkpt lat="42.6408574" lon="12.6420905"><ele>333.0</ele><time>2026-04-25T10:12:34.548Z</time></trkpt><trkpt lat="42.6409902" lon="12.6421023"><ele>333.0</ele><time>2026-04-25T10:12:35.552Z</time></trkpt><trkpt lat="42.6411206" lon="12.6421496"><ele>333.0</ele><time>2026-04-25T10:12:36.54Z</time></trkpt><trkpt lat="42.6412436" lon="12.6422104"><ele>333.25</ele><time>2026-04-25T10:12:37.537Z</time></trkpt><trkpt lat="42.6413658" lon="12.6422861"><ele>333.5</ele><time>2026-04-25T10:12:38.541Z</time></trkpt><trkpt lat="42.6414745" lon="12.6423385"><ele>333.75</ele><time>2026-04-25T10:12:39.533Z</time></trkpt><trkpt lat="42.6415958" lon="12.6423481"><ele>334.0</ele><time>2026-04-25T10:12:40.537Z</time></trkpt><trkpt lat="42.6417158" lon="12.6423187"><ele>334.0</ele><time>2026-04-25T10:12:41.533Z</time></trkpt><trkpt lat="42.6418386" lon="12.6422587"><ele>334.0</ele><time>2026-04-25T10:12:42.546Z</time></trkpt><trkpt lat="42.6419437" lon="12.6421891"><ele>334.0</ele><time>2026-04-25T10:12:43.542Z</time></trkpt><trkpt lat="42.6420544" lon="12.6421143"><ele>334.0</ele><time>2026-04-25T10:12:44.542Z</time></trkpt><trkpt lat="42.6421544" lon="12.6420466"><ele>334.0</ele><time>2026-04-25T10:12:45.534Z</time></trkpt><trkpt lat="42.6422582" lon="12.6419717"><ele>334.0</ele><time>2026-04-25T10:12:46.537Z</time></trkpt><trkpt lat="42.6423724" lon="12.6419049"><ele>334.0</ele><time>2026-04-25T10:12:47.543Z</time></trkpt><trkpt lat="42.6424927" lon="12.6418389"><ele>334.0</ele><time>2026-04-25T10:12:48.54Z</time></trkpt><trkpt lat="42.6426133" lon="12.64178"><ele>335.0</ele><time>2026-04-25T10:12:49.542Z</time></trkpt><trkpt lat="42.6427197" lon="12.6417312"><ele>336.0</ele><time>2026-04-25T10:12:50.537Z</time></trkpt><trkpt lat="42.6428103" lon="12.6416942"><ele>337.0</ele><time>2026-04-25T10:12:51.541Z</time></trkpt><trkpt lat="42.6428977" lon="12.641661"><ele>338.0</ele><time>2026-04-25T10:12:52.552Z</time></trkpt><trkpt lat="42.6429708" lon="12.6416246"><ele>339.0</ele><time>2026-04-25T10:12:53.539Z</time></trkpt><trkpt lat="42.6430429" lon="12.6415994"><ele>339.0</ele><time>2026-04-25T10:12:54.551Z</time></trkpt><trkpt lat="42.6431251" lon="12.6415688"><ele>339.0</ele><time>2026-04-25T10:12:55.55Z</time></trkpt><trkpt lat="42.6432336" lon="12.6415256"><ele>339.0</ele><time>2026-04-25T10:12:56.545Z</time></trkpt><trkpt lat="42.6433675" lon="12.6414626"><ele>339.0</ele><time>2026-04-25T10:12:57.545Z</time></trkpt><trkpt lat="42.6435229" lon="12.6414036"><ele>339.0</ele><time>2026-04-25T10:12:58.538Z</time></trkpt><trkpt lat="42.6436661" lon="12.6413341"><ele>339.0</ele><time>2026-04-25T10:12:59.534Z</time></trkpt><trkpt lat="42.6438302" lon="12.6412569"><ele>339.0</ele><time>2026-04-25T10:13:00.545Z</time></trkpt><trkpt lat="42.6440067" lon="12.6411815"><ele>339.6666666666667</ele><time>2026-04-25T10:13:01.537Z</time></trkpt><trkpt lat="42.6441816" lon="12.6411096"><ele>340.33333333333337</ele><time>2026-04-25T10:13:02.542Z</time></trkpt><trkpt lat="42.6443556" lon="12.6410334"><ele>341.0</ele><time>2026-04-25T10:13:03.541Z</time></trkpt><trkpt lat="42.6445237" lon="12.6409622"><ele>341.6666666666667</ele><time>2026-04-25T10:13:04.544Z</time></trkpt><trkpt lat="42.6446927" lon="12.6408905"><ele>342.3333333333333</ele><time>2026-04-25T10:13:05.542Z</time></trkpt><trkpt lat="42.6448542" lon="12.640824"><ele>343.0</ele><time>2026-04-25T10:13:06.546Z</time></trkpt><trkpt lat="42.6450152" lon="12.6407574"><ele>343.0</ele><time>2026-04-25T10:13:07.54Z</time></trkpt><trkpt lat="42.645178" lon="12.6406906"><ele>343.0</ele><time>2026-04-25T10:13:08.534Z</time></trkpt><trkpt lat="42.6453398" lon="12.6406186"><ele>343.0</ele><time>2026-04-25T10:13:09.556Z</time></trkpt><trkpt lat="42.6454945" lon="12.6405489"><ele>342.3333333333333</ele><time>2026-04-25T10:13:10.538Z</time></trkpt><trkpt lat="42.645654" lon="12.6404792"><ele>341.6666666666667</ele><time>2026-04-25T10:13:11.539Z</time></trkpt><trkpt lat="42.645811" lon="12.6404141"><ele>341.0</ele><time>2026-04-25T10:13:12.543Z</time></trkpt><trkpt lat="42.6459688" lon="12.640347"><ele>342.6666666666667</ele><time>2026-04-25T10:13:13.537Z</time></trkpt><trkpt lat="42.6461243" lon="12.6402748"><ele>344.3333333333333</ele><time>2026-04-25T10:13:14.531Z</time></trkpt><trkpt lat="42.6462736" lon="12.640205"><ele>346.0</ele><time>2026-04-25T10:13:15.538Z</time></trkpt><trkpt lat="42.6464289" lon="12.6401319"><ele>346.0</ele><time>2026-04-25T10:13:16.558Z</time></trkpt><trkpt lat="42.6465854" lon="12.6400624"><ele>346.0</ele><time>2026-04-25T10:13:17.536Z</time></trkpt><trkpt lat="42.646741" lon="12.639996"><ele>346.0</ele><time>2026-04-25T10:13:18.568Z</time></trkpt><trkpt lat="42.6468948" lon="12.6399309"><ele>345.3333333333333</ele><time>2026-04-25T10:13:19.539Z</time></trkpt><trkpt lat="42.6470497" lon="12.6398648"><ele>344.6666666666667</ele><time>2026-04-25T10:13:20.56Z</time></trkpt><trkpt lat="42.6472072" lon="12.6397925"><ele>344.0</ele><time>2026-04-25T10:13:21.54Z</time></trkpt><trkpt lat="42.6473631" lon="12.6397138"><ele>344.0</ele><time>2026-04-25T10:13:22.538Z</time></trkpt><trkpt lat="42.6475171" lon="12.6396256"><ele>344.0</ele><time>2026-04-25T10:13:23.538Z</time></trkpt><trkpt lat="42.6476636" lon="12.6395241"><ele>344.0</ele><time>2026-04-25T10:13:24.539Z</time></trkpt><trkpt lat="42.6478084" lon="12.6394132"><ele>344.6666666666667</ele><time>2026-04-25T10:13:25.542Z</time></trkpt><trkpt lat="42.6479422" lon="12.6392859"><ele>345.3333333333333</ele><time>2026-04-25T10:13:26.539Z</time></trkpt><trkpt lat="42.6480598" lon="12.6391471"><ele>346.0</ele><time>2026-04-25T10:13:27.541Z</time></trkpt><trkpt lat="42.648164" lon="12.6390142"><ele>346.0</ele><time>2026-04-25T10:13:28.537Z</time></trkpt><trkpt lat="42.6482604" lon="12.6388902"><ele>346.0</ele><time>2026-04-25T10:13:29.533Z</time></trkpt><trkpt lat="42.6483533" lon="12.6387844"><ele>346.0</ele><time>2026-04-25T10:13:30.542Z</time></trkpt><trkpt lat="42.6484309" lon="12.6386968"><ele>346.0</ele><time>2026-04-25T10:13:31.542Z</time></trkpt><trkpt lat="42.6484917" lon="12.638626"><ele>346.0</ele><time>2026-04-25T10:13:32.537Z</time></trkpt><trkpt lat="42.6485536" lon="12.638514"><ele>346.3333333333333</ele><time>2026-04-25T10:13:34.544Z</time></trkpt><trkpt lat="42.6485414" lon="12.6383799"><ele>346.66666666666663</ele><time>2026-04-25T10:13:36.537Z</time></trkpt><trkpt lat="42.6485014" lon="12.6383101"><ele>347.0</ele><time>2026-04-25T10:13:37.537Z</time></trkpt><trkpt lat="42.6484488" lon="12.6382155"><ele>347.3333333333333</ele><time>2026-04-25T10:13:38.538Z</time></trkpt><trkpt lat="42.6484015" lon="12.6381161"><ele>347.6666666666667</ele><time>2026-04-25T10:13:39.538Z</time></trkpt><trkpt lat="42.6483603" lon="12.6380314"><ele>348.0</ele><time>2026-04-25T10:13:40.54Z</time></trkpt><trkpt lat="42.6483504" lon="12.6379265"><ele>348.0</ele><time>2026-04-25T10:13:42.552Z</time></trkpt><trkpt lat="42.6483963" lon="12.6378491"><ele>348.0</ele><time>2026-04-25T10:13:44.546Z</time></trkpt><trkpt lat="42.6484612" lon="12.6377881"><ele>348.0</ele><time>2026-04-25T10:13:46.535Z</time></trkpt><trkpt lat="42.6485313" lon="12.6377369"><ele>348.0</ele><time>2026-04-25T10:13:48.537Z</time></trkpt><trkpt lat="42.6486017" lon="12.6377006"><ele>348.0</ele><time>2026-04-25T10:13:50.535Z</time></trkpt><trkpt lat="42.6486648" lon="12.6376767"><ele>348.0</ele><time>2026-04-25T10:13:52.538Z</time></trkpt><trkpt lat="42.6487325" lon="12.6376493"><ele>348.0</ele><time>2026-04-25T10:13:55.542Z</time></trkpt><trkpt lat="42.6487879" lon="12.6375367"><ele>348.0</ele><time>2026-04-25T10:17:22.54Z</time></trkpt><trkpt lat="42.648826" lon="12.6374634"><ele>348.0</ele><time>2026-04-25T10:17:23.563Z</time></trkpt><trkpt lat="42.6488841" lon="12.6373733"><ele>348.0</ele><time>2026-04-25T10:17:24.539Z</time></trkpt><trkpt lat="42.6489491" lon="12.6372542"><ele>348.0</ele><time>2026-04-25T10:17:25.536Z</time></trkpt><trkpt lat="42.6490093" lon="12.6371352"><ele>348.0</ele><time>2026-04-25T10:17:26.535Z</time></trkpt><trkpt lat="42.6490654" lon="12.6370253"><ele>348.59999999999997</ele><time>2026-04-25T10:17:27.543Z</time></trkpt><trkpt lat="42.6491306" lon="12.6369185"><ele>349.2</ele><time>2026-04-25T10:17:28.539Z</time></trkpt><trkpt lat="42.6492025" lon="12.6368338"><ele>349.8</ele><time>2026-04-25T10:17:29.553Z</time></trkpt><trkpt lat="42.649272" lon="12.6367556"><ele>350.4</ele><time>2026-04-25T10:17:30.537Z</time></trkpt><trkpt lat="42.6493485" lon="12.6366791"><ele>351.0</ele><time>2026-04-25T10:17:31.54Z</time></trkpt><trkpt lat="42.6494282" lon="12.6365995"><ele>350.75</ele><time>2026-04-25T10:17:32.536Z</time></trkpt><trkpt lat="42.6495084" lon="12.6365204"><ele>350.5</ele><time>2026-04-25T10:17:33.538Z</time></trkpt><trkpt lat="42.6495939" lon="12.636437"><ele>350.25</ele><time>2026-04-25T10:17:34.54Z</time></trkpt><trkpt lat="42.6496887" lon="12.6363422"><ele>350.0</ele><time>2026-04-25T10:17:35.535Z</time></trkpt><trkpt lat="42.6497959" lon="12.6362443"><ele>350.0</ele><time>2026-04-25T10:17:36.54Z</time></trkpt><trkpt lat="42.6499087" lon="12.6361375"><ele>350.0</ele><time>2026-04-25T10:17:37.556Z</time></trkpt><trkpt lat="42.6500401" lon="12.6360093"><ele>350.0</ele><time>2026-04-25T10:17:38.545Z</time></trkpt><trkpt lat="42.650184" lon="12.6358646"><ele>350.6666666666667</ele><time>2026-04-25T10:17:39.532Z</time></trkpt><trkpt lat="42.6503171" lon="12.6357262"><ele>351.3333333333333</ele><time>2026-04-25T10:17:40.541Z</time></trkpt><trkpt lat="42.6504488" lon="12.6355921"><ele>352.0</ele><time>2026-04-25T10:17:41.536Z</time></trkpt><trkpt lat="42.6505789" lon="12.6354451"><ele>353.3333333333333</ele><time>2026-04-25T10:17:42.541Z</time></trkpt><trkpt lat="42.6507051" lon="12.6353024"><ele>354.6666666666667</ele><time>2026-04-25T10:17:43.547Z</time></trkpt><trkpt lat="42.6508231" lon="12.6351602"><ele>356.0</ele><time>2026-04-25T10:17:44.539Z</time></trkpt><trkpt lat="42.6509295" lon="12.6350341"><ele>356.0</ele><time>2026-04-25T10:17:45.54Z</time></trkpt><trkpt lat="42.6510354" lon="12.6349263"><ele>356.0</ele><time>2026-04-25T10:17:46.534Z</time></trkpt><trkpt lat="42.6511455" lon="12.6348315"><ele>356.0</ele><time>2026-04-25T10:17:47.542Z</time></trkpt><trkpt lat="42.6512689" lon="12.6347523"><ele>356.0</ele><time>2026-04-25T10:17:48.541Z</time></trkpt><trkpt lat="42.6514116" lon="12.6346757"><ele>356.25</ele><time>2026-04-25T10:17:49.543Z</time></trkpt><trkpt lat="42.651553" lon="12.6346086"><ele>356.5</ele><time>2026-04-25T10:17:50.54Z</time></trkpt><trkpt lat="42.6516916" lon="12.6345487"><ele>356.75</ele><time>2026-04-25T10:17:51.546Z</time></trkpt><trkpt lat="42.6518274" lon="12.634508"><ele>357.0</ele><time>2026-04-25T10:17:52.536Z</time></trkpt><trkpt lat="42.6519672" lon="12.6344762"><ele>358.5</ele><time>2026-04-25T10:17:53.548Z</time></trkpt><trkpt lat="42.6521119" lon="12.6344466"><ele>360.0</ele><time>2026-04-25T10:17:54.541Z</time></trkpt><trkpt lat="42.6522587" lon="12.6344071"><ele>361.5</ele><time>2026-04-25T10:17:55.545Z</time></trkpt><trkpt lat="42.652401" lon="12.6343655"><ele>363.0</ele><time>2026-04-25T10:17:56.542Z</time></trkpt><trkpt lat="42.652537" lon="12.6343389"><ele>363.0</ele><time>2026-04-25T10:17:57.538Z</time></trkpt><trkpt lat="42.6526451" lon="12.6343165"><ele>363.0</ele><time>2026-04-25T10:17:58.54Z</time></trkpt><trkpt lat="42.6527375" lon="12.6343068"><ele>363.0</ele><time>2026-04-25T10:17:59.549Z</time></trkpt><trkpt lat="42.6528154" lon="12.6343028"><ele>363.0</ele><time>2026-04-25T10:18:00.542Z</time></trkpt><trkpt lat="42.6528858" lon="12.6343042"><ele>363.0</ele><time>2026-04-25T10:18:01.545Z</time></trkpt><trkpt lat="42.6529816" lon="12.6343778"><ele>362.6666666666667</ele><time>2026-04-25T10:18:03.54Z</time></trkpt><trkpt lat="42.6530155" lon="12.6345363"><ele>362.3333333333333</ele><time>2026-04-25T10:18:05.544Z</time></trkpt><trkpt lat="42.653005" lon="12.6346361"><ele>362.0</ele><time>2026-04-25T10:18:06.54Z</time></trkpt><trkpt lat="42.6529913" lon="12.6347503"><ele>361.66666666666663</ele><time>2026-04-25T10:18:07.543Z</time></trkpt><trkpt lat="42.6529752" lon="12.6348471"><ele>361.3333333333333</ele><time>2026-04-25T10:18:08.535Z</time></trkpt><trkpt lat="42.6529575" lon="12.6349341"><ele>361.0</ele><time>2026-04-25T10:18:09.539Z</time></trkpt><trkpt lat="42.6529302" lon="12.6350703"><ele>361.0</ele><time>2026-04-25T10:18:11.547Z</time></trkpt><trkpt lat="42.6529812" lon="12.63516"><ele>361.0</ele><time>2026-04-25T10:18:13.548Z</time></trkpt><trkpt lat="42.6531006" lon="12.635204"><ele>361.0</ele><time>2026-04-25T10:18:15.549Z</time></trkpt><trkpt lat="42.65317" lon="12.6352029"><ele>361.0</ele><time>2026-04-25T10:18:16.547Z</time></trkpt><trkpt lat="42.6532681" lon="12.6352127"><ele>361.0</ele><time>2026-04-25T10:18:17.544Z</time></trkpt><trkpt lat="42.6533865" lon="12.6352165"><ele>361.0</ele><time>2026-04-25T10:18:18.542Z</time></trkpt><trkpt lat="42.653517" lon="12.6352215"><ele>361.0</ele><time>2026-04-25T10:18:19.54Z</time></trkpt><trkpt lat="42.6536468" lon="12.6352354"><ele>361.0</ele><time>2026-04-25T10:18:20.543Z</time></trkpt><trkpt lat="42.6537877" lon="12.6352583"><ele>361.0</ele><time>2026-04-25T10:18:21.55Z</time></trkpt><trkpt lat="42.6539305" lon="12.6352838"><ele>359.66666666666663</ele><time>2026-04-25T10:18:22.542Z</time></trkpt><trkpt lat="42.6540882" lon="12.6353107"><ele>358.3333333333333</ele><time>2026-04-25T10:18:23.54Z</time></trkpt><trkpt lat="42.6542526" lon="12.6353425"><ele>357.0</ele><time>2026-04-25T10:18:24.54Z</time></trkpt><trkpt lat="42.6544071" lon="12.6353835"><ele>357.6666666666667</ele><time>2026-04-25T10:18:25.542Z</time></trkpt><trkpt lat="42.6545479" lon="12.6354317"><ele>358.33333333333337</ele><time>2026-04-25T10:18:26.547Z</time></trkpt><trkpt lat="42.6546935" lon="12.6354822"><ele>359.0</ele><time>2026-04-25T10:18:27.541Z</time></trkpt><trkpt lat="42.6548466" lon="12.6355283"><ele>359.0</ele><time>2026-04-25T10:18:28.542Z</time></trkpt><trkpt lat="42.6550135" lon="12.6355794"><ele>359.0</ele><time>2026-04-25T10:18:29.546Z</time></trkpt><trkpt lat="42.6551874" lon="12.6356348"><ele>359.0</ele><time>2026-04-25T10:18:30.538Z</time></trkpt><trkpt lat="42.6553648" lon="12.6356873"><ele>360.0</ele><time>2026-04-25T10:18:31.549Z</time></trkpt><trkpt lat="42.6555365" lon="12.6357407"><ele>361.0</ele><time>2026-04-25T10:18:32.545Z</time></trkpt><trkpt lat="42.6557064" lon="12.6357924"><ele>362.0</ele><time>2026-04-25T10:18:33.54Z</time></trkpt><trkpt lat="42.6558586" lon="12.6358396"><ele>362.0</ele><time>2026-04-25T10:18:34.54Z</time></trkpt><trkpt lat="42.6559858" lon="12.6358832"><ele>362.0</ele><time>2026-04-25T10:18:35.537Z</time></trkpt><trkpt lat="42.6560978" lon="12.6359465"><ele>362.0</ele><time>2026-04-25T10:18:36.535Z</time></trkpt><trkpt lat="42.6562051" lon="12.636029"><ele>362.0</ele><time>2026-04-25T10:18:37.535Z</time></trkpt><trkpt lat="42.6563038" lon="12.6361234"><ele>361.83333333333337</ele><time>2026-04-25T10:18:38.538Z</time></trkpt><trkpt lat="42.6563959" lon="12.6362099"><ele>361.6666666666667</ele><time>2026-04-25T10:18:39.536Z</time></trkpt><trkpt lat="42.6564722" lon="12.6362723"><ele>361.5</ele><time>2026-04-25T10:18:40.542Z</time></trkpt><trkpt lat="42.6565387" lon="12.6363227"><ele>361.3333333333333</ele><time>2026-04-25T10:18:41.536Z</time></trkpt><trkpt lat="42.6566023" lon="12.6363374"><ele>361.16666666666663</ele><time>2026-04-25T10:18:42.543Z</time></trkpt><trkpt lat="42.6566774" lon="12.6363203"><ele>361.0</ele><time>2026-04-25T10:18:43.545Z</time></trkpt><trkpt lat="42.6567533" lon="12.6362751"><ele>361.0</ele><time>2026-04-25T10:18:44.542Z</time></trkpt><trkpt lat="42.6568354" lon="12.636198"><ele>361.0</ele><time>2026-04-25T10:18:45.55Z</time></trkpt><trkpt lat="42.6569233" lon="12.636109"><ele>361.0</ele><time>2026-04-25T10:18:46.541Z</time></trkpt><trkpt lat="42.6570116" lon="12.6360115"><ele>361.0</ele><time>2026-04-25T10:18:47.543Z</time></trkpt><trkpt lat="42.6571084" lon="12.635907"><ele>361.0</ele><time>2026-04-25T10:18:48.546Z</time></trkpt><trkpt lat="42.6571903" lon="12.6358245"><ele>361.8333333333333</ele><time>2026-04-25T10:18:49.542Z</time></trkpt><trkpt lat="42.6572603" lon="12.6357562"><ele>362.66666666666663</ele><time>2026-04-25T10:18:50.533Z</time></trkpt><trkpt lat="42.6573301" lon="12.63572"><ele>363.5</ele><time>2026-04-25T10:18:51.533Z</time></trkpt><trkpt lat="42.6574026" lon="12.6357101"><ele>364.3333333333333</ele><time>2026-04-25T10:18:52.544Z</time></trkpt><trkpt lat="42.6574814" lon="12.6357043"><ele>365.1666666666667</ele><time>2026-04-25T10:18:53.546Z</time></trkpt><trkpt lat="42.6575762" lon="12.6357007"><ele>366.0</ele><time>2026-04-25T10:18:54.543Z</time></trkpt><trkpt lat="42.6576946" lon="12.6357095"><ele>367.25</ele><time>2026-04-25T10:18:55.55Z</time></trkpt><trkpt lat="42.6578215" lon="12.6357287"><ele>368.5</ele><time>2026-04-25T10:18:56.531Z</time></trkpt><trkpt lat="42.6579548" lon="12.6357416"><ele>369.75</ele><time>2026-04-25T10:18:57.546Z</time></trkpt><trkpt lat="42.6580865" lon="12.6357593"><ele>371.0</ele><time>2026-04-25T10:18:58.54Z</time></trkpt><trkpt lat="42.6582314" lon="12.6357747"><ele>371.0</ele><time>2026-04-25T10:18:59.546Z</time></trkpt><trkpt lat="42.6583754" lon="12.6357916"><ele>371.0</ele><time>2026-04-25T10:19:00.565Z</time></trkpt><trkpt lat="42.6585171" lon="12.6358134"><ele>371.0</ele><time>2026-04-25T10:19:01.544Z</time></trkpt><trkpt lat="42.6586499" lon="12.6358415"><ele>371.0</ele><time>2026-04-25T10:19:02.542Z</time></trkpt><trkpt lat="42.6587846" lon="12.6358547"><ele>372.25</ele><time>2026-04-25T10:19:03.546Z</time></trkpt><trkpt lat="42.6589074" lon="12.6358572"><ele>373.5</ele><time>2026-04-25T10:19:04.539Z</time></trkpt><trkpt lat="42.6590274" lon="12.6358441"><ele>374.75</ele><time>2026-04-25T10:19:05.539Z</time></trkpt><trkpt lat="42.6591421" lon="12.6358231"><ele>376.0</ele><time>2026-04-25T10:19:06.548Z</time></trkpt><trkpt lat="42.6592411" lon="12.635793"><ele>376.0</ele><time>2026-04-25T10:19:07.544Z</time></trkpt><trkpt lat="42.6593359" lon="12.6357682"><ele>376.0</ele><time>2026-04-25T10:19:08.539Z</time></trkpt><trkpt lat="42.6594197" lon="12.6357486"><ele>376.0</ele><time>2026-04-25T10:19:09.538Z</time></trkpt><trkpt lat="42.6594931" lon="12.6357284"><ele>376.0</ele><time>2026-04-25T10:19:10.543Z</time></trkpt><trkpt lat="42.6595656" lon="12.6357085"><ele>376.0</ele><time>2026-04-25T10:19:11.54Z</time></trkpt><trkpt lat="42.6596345" lon="12.6356961"><ele>376.0</ele><time>2026-04-25T10:19:12.547Z</time></trkpt><trkpt lat="42.659697" lon="12.6356814"><ele>375.25</ele><time>2026-04-25T10:19:13.544Z</time></trkpt><trkpt lat="42.6598125" lon="12.6356607"><ele>374.5</ele><time>2026-04-25T10:19:15.547Z</time></trkpt><trkpt lat="42.6599155" lon="12.6356907"><ele>373.75</ele><time>2026-04-25T10:19:17.541Z</time></trkpt><trkpt lat="42.6600192" lon="12.6357253"><ele>373.0</ele><time>2026-04-25T10:19:19.542Z</time></trkpt><trkpt lat="42.6601525" lon="12.6357433"><ele>373.0</ele><time>2026-04-25T10:19:21.543Z</time></trkpt><trkpt lat="42.6602193" lon="12.635746"><ele>373.0</ele><time>2026-04-25T10:19:22.538Z</time></trkpt><trkpt lat="42.6602924" lon="12.6357454"><ele>373.0</ele><time>2026-04-25T10:19:23.545Z</time></trkpt><trkpt lat="42.6603615" lon="12.6357439"><ele>373.0</ele><time>2026-04-25T10:19:24.541Z</time></trkpt><trkpt lat="42.6604322" lon="12.6357411"><ele>373.0</ele><time>2026-04-25T10:19:25.542Z</time></trkpt><trkpt lat="42.6604978" lon="12.6357338"><ele>373.0</ele><time>2026-04-25T10:19:26.544Z</time></trkpt><trkpt lat="42.6606164" lon="12.6356967"><ele>373.4</ele><time>2026-04-25T10:19:28.543Z</time></trkpt><trkpt lat="42.660729" lon="12.6356453"><ele>373.79999999999995</ele><time>2026-04-25T10:19:30.541Z</time></trkpt><trkpt lat="42.6608129" lon="12.6356125"><ele>374.2</ele><time>2026-04-25T10:19:32.592Z</time></trkpt><trkpt lat="42.6608892" lon="12.6355837"><ele>374.6</ele><time>2026-04-25T10:19:34.537Z</time></trkpt><trkpt lat="42.660978" lon="12.6355526"><ele>375.0</ele><time>2026-04-25T10:19:36.537Z</time></trkpt><trkpt lat="42.6610774" lon="12.6355393"><ele>375.75</ele><time>2026-04-25T10:19:38.537Z</time></trkpt><trkpt lat="42.6611887" lon="12.6355386"><ele>376.5</ele><time>2026-04-25T10:19:40.537Z</time></trkpt><trkpt lat="42.6613155" lon="12.6355731"><ele>377.25</ele><time>2026-04-25T10:19:42.539Z</time></trkpt><trkpt lat="42.6614424" lon="12.6355935"><ele>378.0</ele><time>2026-04-25T10:19:44.539Z</time></trkpt><trkpt lat="42.6615534" lon="12.635616"><ele>378.0</ele><time>2026-04-25T10:19:46.543Z</time></trkpt><trkpt lat="42.6616194" lon="12.6356308"><ele>378.0</ele><time>2026-04-25T10:19:48.544Z</time></trkpt><trkpt lat="42.6617002" lon="12.6356505"><ele>378.0</ele><time>2026-04-25T10:19:58.545Z</time></trkpt><trkpt lat="42.6617886" lon="12.635661"><ele>378.0</ele><time>2026-04-25T10:20:00.544Z</time></trkpt><trkpt lat="42.6618723" lon="12.6356802"><ele>378.0</ele><time>2026-04-25T10:20:02.536Z</time></trkpt><trkpt lat="42.6619932" lon="12.6356908"><ele>378.0</ele><time>2026-04-25T10:20:04.542Z</time></trkpt><trkpt lat="42.6620756" lon="12.6356901"><ele>378.6666666666667</ele><time>2026-04-25T10:20:05.542Z</time></trkpt><trkpt lat="42.6621616" lon="12.6356841"><ele>379.3333333333333</ele><time>2026-04-25T10:20:06.541Z</time></trkpt><trkpt lat="42.6622434" lon="12.6356915"><ele>380.0</ele><time>2026-04-25T10:20:07.546Z</time></trkpt><trkpt lat="42.6623267" lon="12.6357065"><ele>380.66666666666663</ele><time>2026-04-25T10:20:08.54Z</time></trkpt><trkpt lat="42.6624095" lon="12.6357236"><ele>381.3333333333333</ele><time>2026-04-25T10:20:09.567Z</time></trkpt><trkpt lat="42.6624963" lon="12.6357385"><ele>382.0</ele><time>2026-04-25T10:20:10.536Z</time></trkpt><trkpt lat="42.6625881" lon="12.6357556"><ele>382.0</ele><time>2026-04-25T10:20:11.555Z</time></trkpt><trkpt lat="42.6626767" lon="12.6357858"><ele>382.0</ele><time>2026-04-25T10:20:12.538Z</time></trkpt><trkpt lat="42.6627639" lon="12.6358148"><ele>382.0</ele><time>2026-04-25T10:20:13.545Z</time></trkpt><trkpt lat="42.6628508" lon="12.6358386"><ele>382.0</ele><time>2026-04-25T10:20:14.537Z</time></trkpt><trkpt lat="42.6629382" lon="12.6358646"><ele>382.0</ele><time>2026-04-25T10:20:15.543Z</time></trkpt><trkpt lat="42.6630279" lon="12.6358901"><ele>382.66666666666663</ele><time>2026-04-25T10:20:16.54Z</time></trkpt><trkpt lat="42.6631152" lon="12.6359096"><ele>383.3333333333333</ele><time>2026-04-25T10:20:17.547Z</time></trkpt><trkpt lat="42.663202" lon="12.6359334"><ele>384.0</ele><time>2026-04-25T10:20:18.539Z</time></trkpt><trkpt lat="42.6632878" lon="12.6359519"><ele>384.66666666666663</ele><time>2026-04-25T10:20:19.542Z</time></trkpt><trkpt lat="42.6633756" lon="12.6359617"><ele>385.3333333333333</ele><time>2026-04-25T10:20:20.54Z</time></trkpt><trkpt lat="42.6634518" lon="12.6359666"><ele>386.0</ele><time>2026-04-25T10:20:21.546Z</time></trkpt><trkpt lat="42.6635295" lon="12.6359768"><ele>387.16666666666663</ele><time>2026-04-25T10:20:22.541Z</time></trkpt><trkpt lat="42.6636188" lon="12.6359853"><ele>388.3333333333333</ele><time>2026-04-25T10:20:23.547Z</time></trkpt><trkpt lat="42.6637129" lon="12.6360008"><ele>389.5</ele><time>2026-04-25T10:20:24.545Z</time></trkpt><trkpt lat="42.6637943" lon="12.6360199"><ele>390.66666666666663</ele><time>2026-04-25T10:20:25.543Z</time></trkpt><trkpt lat="42.6638681" lon="12.6360422"><ele>391.8333333333333</ele><time>2026-04-25T10:20:26.545Z</time></trkpt><trkpt lat="42.663946" lon="12.6360696"><ele>393.0</ele><time>2026-04-25T10:20:27.545Z</time></trkpt><trkpt lat="42.6640205" lon="12.6360956"><ele>393.0</ele><time>2026-04-25T10:20:28.544Z</time></trkpt><trkpt lat="42.6640973" lon="12.6361291"><ele>393.0</ele><time>2026-04-25T10:20:29.541Z</time></trkpt><trkpt lat="42.6641744" lon="12.6361629"><ele>393.0</ele><time>2026-04-25T10:20:30.545Z</time></trkpt><trkpt lat="42.6642507" lon="12.6361862"><ele>393.0</ele><time>2026-04-25T10:20:31.542Z</time></trkpt><trkpt lat="42.6643208" lon="12.6362058"><ele>393.0</ele><time>2026-04-25T10:20:32.55Z</time></trkpt><trkpt lat="42.6643903" lon="12.6362281"><ele>393.0</ele><time>2026-04-25T10:20:33.54Z</time></trkpt><trkpt lat="42.6644644" lon="12.6362503"><ele>392.00000000000006</ele><time>2026-04-25T10:20:34.538Z</time></trkpt><trkpt lat="42.6645318" lon="12.6362758"><ele>391.0</ele><time>2026-04-25T10:20:35.542Z</time></trkpt><trkpt lat="42.6645924" lon="12.6363022"><ele>390.0</ele><time>2026-04-25T10:20:36.541Z</time></trkpt><trkpt lat="42.6646543" lon="12.6363309"><ele>389.0</ele><time>2026-04-25T10:20:37.54Z</time></trkpt><trkpt lat="42.6647224" lon="12.6363693"><ele>388.0</ele><time>2026-04-25T10:20:38.542Z</time></trkpt><trkpt lat="42.6647906" lon="12.6364146"><ele>387.00000000000006</ele><time>2026-04-25T10:20:39.541Z</time></trkpt><trkpt lat="42.6648565" lon="12.6364602"><ele>386.0</ele><time>2026-04-25T10:20:40.541Z</time></trkpt><trkpt lat="42.6649301" lon="12.6364985"><ele>385.99999999999994</ele><time>2026-04-25T10:20:41.539Z</time></trkpt><trkpt lat="42.6650011" lon="12.6365426"><ele>386.0</ele><time>2026-04-25T10:20:42.55Z</time></trkpt><trkpt lat="42.6650718" lon="12.6365923"><ele>386.0</ele><time>2026-04-25T10:20:43.543Z</time></trkpt><trkpt lat="42.6651433" lon="12.6366454"><ele>386.0</ele><time>2026-04-25T10:20:44.541Z</time></trkpt><trkpt lat="42.6652227" lon="12.6366918"><ele>385.99999999999994</ele><time>2026-04-25T10:20:45.551Z</time></trkpt><trkpt lat="42.6653013" lon="12.636737"><ele>386.0</ele><time>2026-04-25T10:20:46.544Z</time></trkpt><trkpt lat="42.6653839" lon="12.6367815"><ele>386.16666666666663</ele><time>2026-04-25T10:20:47.549Z</time></trkpt><trkpt lat="42.6654713" lon="12.6368252"><ele>386.3333333333333</ele><time>2026-04-25T10:20:48.544Z</time></trkpt><trkpt lat="42.6655578" lon="12.6368812"><ele>386.5</ele><time>2026-04-25T10:20:49.545Z</time></trkpt><trkpt lat="42.6656394" lon="12.6369363"><ele>386.66666666666663</ele><time>2026-04-25T10:20:50.543Z</time></trkpt><trkpt lat="42.6657155" lon="12.6369883"><ele>386.8333333333333</ele><time>2026-04-25T10:20:51.547Z</time></trkpt><trkpt lat="42.6657701" lon="12.6370316"><ele>387.0</ele><time>2026-04-25T10:20:52.543Z</time></trkpt><trkpt lat="42.6658719" lon="12.6371053"><ele>387.0</ele><time>2026-04-25T10:20:54.542Z</time></trkpt><trkpt lat="42.665979" lon="12.6371865"><ele>387.0</ele><time>2026-04-25T10:20:56.538Z</time></trkpt><trkpt lat="42.6660414" lon="12.6372262"><ele>387.0</ele><time>2026-04-25T10:20:57.548Z</time></trkpt><trkpt lat="42.6661084" lon="12.6372761"><ele>387.0</ele><time>2026-04-25T10:20:58.549Z</time></trkpt><trkpt lat="42.6661802" lon="12.6373267"><ele>387.0</ele><time>2026-04-25T10:20:59.533Z</time></trkpt><trkpt lat="42.6662529" lon="12.6373836"><ele>387.0</ele><time>2026-04-25T10:21:00.541Z</time></trkpt><trkpt lat="42.6663336" lon="12.6374368"><ele>387.8</ele><time>2026-04-25T10:21:01.546Z</time></trkpt><trkpt lat="42.6664167" lon="12.6374853"><ele>388.6</ele><time>2026-04-25T10:21:02.542Z</time></trkpt><trkpt lat="42.6665002" lon="12.6375388"><ele>389.40000000000003</ele><time>2026-04-25T10:21:03.546Z</time></trkpt><trkpt lat="42.6665817" lon="12.6375989"><ele>390.20000000000005</ele><time>2026-04-25T10:21:04.541Z</time></trkpt><trkpt lat="42.6666612" lon="12.6376661"><ele>391.0</ele><time>2026-04-25T10:21:05.544Z</time></trkpt><trkpt lat="42.6667384" lon="12.6377314"><ele>391.00000000000006</ele><time>2026-04-25T10:21:06.541Z</time></trkpt><trkpt lat="42.6668095" lon="12.6377951"><ele>391.0</ele><time>2026-04-25T10:21:07.543Z</time></trkpt><trkpt lat="42.6668766" lon="12.6378495"><ele>391.0</ele><time>2026-04-25T10:21:08.543Z</time></trkpt><trkpt lat="42.6669389" lon="12.6379001"><ele>391.0</ele><time>2026-04-25T10:21:09.553Z</time></trkpt><trkpt lat="42.6670031" lon="12.637945"><ele>391.00000000000006</ele><time>2026-04-25T10:21:10.545Z</time></trkpt><trkpt lat="42.6671069" lon="12.6380248"><ele>391.0</ele><time>2026-04-25T10:21:12.543Z</time></trkpt><trkpt lat="42.6671652" lon="12.6380708"><ele>391.83333333333337</ele><time>2026-04-25T10:21:13.546Z</time></trkpt><trkpt lat="42.6672266" lon="12.6381162"><ele>392.6666666666667</ele><time>2026-04-25T10:21:14.544Z</time></trkpt><trkpt lat="42.6672891" lon="12.6381606"><ele>393.5</ele><time>2026-04-25T10:21:15.548Z</time></trkpt><trkpt lat="42.6673529" lon="12.6382102"><ele>394.33333333333337</ele><time>2026-04-25T10:21:16.542Z</time></trkpt><trkpt lat="42.6674222" lon="12.6382613"><ele>395.1666666666667</ele><time>2026-04-25T10:21:17.544Z</time></trkpt><trkpt lat="42.667491" lon="12.6383147"><ele>396.0</ele><time>2026-04-25T10:21:18.545Z</time></trkpt><trkpt lat="42.667562" lon="12.6383703"><ele>396.0</ele><time>2026-04-25T10:21:19.535Z</time></trkpt><trkpt lat="42.6676259" lon="12.6384152"><ele>396.0</ele><time>2026-04-25T10:21:20.545Z</time></trkpt><trkpt lat="42.6676866" lon="12.6384546"><ele>396.0</ele><time>2026-04-25T10:21:21.546Z</time></trkpt><trkpt lat="42.6677488" lon="12.6385077"><ele>396.0</ele><time>2026-04-25T10:21:22.545Z</time></trkpt><trkpt lat="42.6678175" lon="12.6385662"><ele>396.0</ele><time>2026-04-25T10:21:23.543Z</time></trkpt><trkpt lat="42.6678883" lon="12.6386205"><ele>396.0</ele><time>2026-04-25T10:21:24.54Z</time></trkpt><trkpt lat="42.6679573" lon="12.6386758"><ele>396.1666666666667</ele><time>2026-04-25T10:21:25.548Z</time></trkpt><trkpt lat="42.6680277" lon="12.6387323"><ele>396.33333333333337</ele><time>2026-04-25T10:21:26.539Z</time></trkpt><trkpt lat="42.6681001" lon="12.6387915"><ele>396.5</ele><time>2026-04-25T10:21:27.55Z</time></trkpt><trkpt lat="42.6681775" lon="12.6388551"><ele>396.6666666666667</ele><time>2026-04-25T10:21:28.542Z</time></trkpt><trkpt lat="42.6682555" lon="12.638921"><ele>396.83333333333337</ele><time>2026-04-25T10:21:29.539Z</time></trkpt><trkpt lat="42.6683313" lon="12.638981"><ele>397.0</ele><time>2026-04-25T10:21:30.542Z</time></trkpt><trkpt lat="42.6683982" lon="12.6390322"><ele>397.00000000000006</ele><time>2026-04-25T10:21:31.543Z</time></trkpt><trkpt lat="42.6684655" lon="12.6390853"><ele>397.0</ele><time>2026-04-25T10:21:32.541Z</time></trkpt><trkpt lat="42.6685421" lon="12.6391443"><ele>397.0</ele><time>2026-04-25T10:21:33.543Z</time></trkpt><trkpt lat="42.6686093" lon="12.6391949"><ele>397.0</ele><time>2026-04-25T10:21:34.541Z</time></trkpt><trkpt lat="42.6686779" lon="12.6392494"><ele>397.00000000000006</ele><time>2026-04-25T10:21:35.569Z</time></trkpt><trkpt lat="42.668758" lon="12.6393081"><ele>397.0</ele><time>2026-04-25T10:21:36.543Z</time></trkpt><trkpt lat="42.6688427" lon="12.6393725"><ele>397.83333333333337</ele><time>2026-04-25T10:21:37.549Z</time></trkpt><trkpt lat="42.6689208" lon="12.6394393"><ele>398.6666666666667</ele><time>2026-04-25T10:21:38.533Z</time></trkpt><trkpt lat="42.668993" lon="12.6395024"><ele>399.5</ele><time>2026-04-25T10:21:39.544Z</time></trkpt><trkpt lat="42.6690659" lon="12.6395656"><ele>400.33333333333337</ele><time>2026-04-25T10:21:40.543Z</time></trkpt><trkpt lat="42.6691359" lon="12.6396285"><ele>401.1666666666667</ele><time>2026-04-25T10:21:41.541Z</time></trkpt><trkpt lat="42.6692082" lon="12.6396905"><ele>402.0</ele><time>2026-04-25T10:21:42.544Z</time></trkpt><trkpt lat="42.6692874" lon="12.6397646"><ele>402.0</ele><time>2026-04-25T10:21:43.546Z</time></trkpt><trkpt lat="42.6693756" lon="12.6398433"><ele>402.0</ele><time>2026-04-25T10:21:44.54Z</time></trkpt><trkpt lat="42.6694664" lon="12.6399231"><ele>402.0</ele><time>2026-04-25T10:21:45.544Z</time></trkpt><trkpt lat="42.6695572" lon="12.6399968"><ele>402.0</ele><time>2026-04-25T10:21:46.542Z</time></trkpt><trkpt lat="42.6696421" lon="12.6400626"><ele>402.0</ele><time>2026-04-25T10:21:47.543Z</time></trkpt><trkpt lat="42.6697345" lon="12.6401319"><ele>402.6666666666667</ele><time>2026-04-25T10:21:48.533Z</time></trkpt><trkpt lat="42.669827" lon="12.64019"><ele>403.33333333333337</ele><time>2026-04-25T10:21:49.543Z</time></trkpt><trkpt lat="42.6699101" lon="12.6402449"><ele>404.0</ele><time>2026-04-25T10:21:50.539Z</time></trkpt><trkpt lat="42.6699759" lon="12.6402902"><ele>404.6666666666667</ele><time>2026-04-25T10:21:51.543Z</time></trkpt><trkpt lat="42.6700372" lon="12.6403277"><ele>405.33333333333337</ele><time>2026-04-25T10:21:52.541Z</time></trkpt><trkpt lat="42.6700903" lon="12.6404245"><ele>406.0</ele><time>2026-04-25T10:21:54.539Z</time></trkpt><trkpt lat="42.6700489" lon="12.640489"><ele>409.0</ele><time>2026-04-25T10:21:56.539Z</time></trkpt><trkpt lat="42.669944" lon="12.6405113"><ele>412.0</ele><time>2026-04-25T10:21:58.547Z</time></trkpt><trkpt lat="42.669836" lon="12.6404842"><ele>415.0</ele><time>2026-04-25T10:22:00.54Z</time></trkpt><trkpt lat="42.6697298" lon="12.6404823"><ele>418.0</ele><time>2026-04-25T10:22:02.542Z</time></trkpt><trkpt lat="42.6696258" lon="12.6405013"><ele>421.0</ele><time>2026-04-25T10:22:04.541Z</time></trkpt><trkpt lat="42.6695501" lon="12.6405425"><ele>421.0</ele><time>2026-04-25T10:22:06.542Z</time></trkpt><trkpt lat="42.6694842" lon="12.6406208"><ele>421.0</ele><time>2026-04-25T10:22:08.541Z</time></trkpt><trkpt lat="42.6694239" lon="12.6407478"><ele>421.0</ele><time>2026-04-25T10:22:10.541Z</time></trkpt><trkpt lat="42.6693462" lon="12.6408778"><ele>421.0</ele><time>2026-04-25T10:22:12.545Z</time></trkpt><trkpt lat="42.6692759" lon="12.6409917"><ele>421.0</ele><time>2026-04-25T10:22:14.544Z</time></trkpt><trkpt lat="42.6692078" lon="12.6410523"><ele>420.00000000000006</ele><time>2026-04-25T10:22:16.544Z</time></trkpt><trkpt lat="42.6691362" lon="12.6410991"><ele>419.0</ele><time>2026-04-25T10:22:19.542Z</time></trkpt><trkpt lat="42.6690986" lon="12.6411685"><ele>418.0</ele><time>2026-04-25T10:22:21.543Z</time></trkpt><trkpt lat="42.6691083" lon="12.6412778"><ele>417.0</ele><time>2026-04-25T10:22:23.546Z</time></trkpt><trkpt lat="42.6691608" lon="12.6413784"><ele>416.00000000000006</ele><time>2026-04-25T10:22:25.541Z</time></trkpt><trkpt lat="42.6692483" lon="12.6413795"><ele>415.0</ele><time>2026-04-25T10:22:27.543Z</time></trkpt><trkpt lat="42.6693332" lon="12.6412823"><ele>415.8571428571429</ele><time>2026-04-25T10:22:29.537Z</time></trkpt><trkpt lat="42.6693835" lon="12.6412277"><ele>416.7142857142857</ele><time>2026-04-25T10:22:30.541Z</time></trkpt><trkpt lat="42.6694381" lon="12.6411724"><ele>417.57142857142856</ele><time>2026-04-25T10:22:31.545Z</time></trkpt><trkpt lat="42.6694919" lon="12.6411061"><ele>418.42857142857144</ele><time>2026-04-25T10:22:32.544Z</time></trkpt><trkpt lat="42.6695567" lon="12.6410647"><ele>419.2857142857143</ele><time>2026-04-25T10:22:33.541Z</time></trkpt><trkpt lat="42.6696334" lon="12.6410253"><ele>420.14285714285717</ele><time>2026-04-25T10:22:34.536Z</time></trkpt><trkpt lat="42.6697065" lon="12.6409871"><ele>421.0</ele><time>2026-04-25T10:22:35.54Z</time></trkpt><trkpt lat="42.6697764" lon="12.6409519"><ele>421.00000000000006</ele><time>2026-04-25T10:22:36.542Z</time></trkpt><trkpt lat="42.6698378" lon="12.64092"><ele>421.0</ele><time>2026-04-25T10:22:37.545Z</time></trkpt><trkpt lat="42.6699512" lon="12.6408768"><ele>421.0</ele><time>2026-04-25T10:22:39.547Z</time></trkpt><trkpt lat="42.6700146" lon="12.6408637"><ele>421.0</ele><time>2026-04-25T10:22:40.541Z</time></trkpt><trkpt lat="42.6700885" lon="12.6408698"><ele>421.00000000000006</ele><time>2026-04-25T10:22:41.543Z</time></trkpt><trkpt lat="42.6701539" lon="12.6408721"><ele>421.0</ele><time>2026-04-25T10:22:42.563Z</time></trkpt><trkpt lat="42.6702385" lon="12.6409143"><ele>421.00000000000006</ele><time>2026-04-25T10:22:44.537Z</time></trkpt><trkpt lat="42.6703001" lon="12.6409795"><ele>421.0</ele><time>2026-04-25T10:22:46.54Z</time></trkpt><trkpt lat="42.6703011" lon="12.6410789"><ele>421.0</ele><time>2026-04-25T10:22:48.542Z</time></trkpt><trkpt lat="42.6702309" lon="12.6411327"><ele>421.0</ele><time>2026-04-25T10:22:50.548Z</time></trkpt><trkpt lat="42.6701413" lon="12.641132"><ele>421.00000000000006</ele><time>2026-04-25T10:22:52.543Z</time></trkpt><trkpt lat="42.670039" lon="12.6411498"><ele>421.0</ele><time>2026-04-25T10:22:54.544Z</time></trkpt><trkpt lat="42.669958" lon="12.6412357"><ele>423.33333333333337</ele><time>2026-04-25T10:22:56.537Z</time></trkpt><trkpt lat="42.6699032" lon="12.6413595"><ele>425.6666666666667</ele><time>2026-04-25T10:22:58.542Z</time></trkpt><trkpt lat="42.6698779" lon="12.6414393"><ele>428.0</ele><time>2026-04-25T10:22:59.552Z</time></trkpt><trkpt lat="42.6698533" lon="12.6415208"><ele>430.33333333333337</ele><time>2026-04-25T10:23:00.539Z</time></trkpt><trkpt lat="42.6698196" lon="12.6416246"><ele>432.6666666666667</ele><time>2026-04-25T10:23:01.542Z</time></trkpt><trkpt lat="42.6697835" lon="12.6417432"><ele>435.0</ele><time>2026-04-25T10:23:02.552Z</time></trkpt><trkpt lat="42.6697474" lon="12.641856"><ele>435.0</ele><time>2026-04-25T10:23:03.544Z</time></trkpt><trkpt lat="42.6697128" lon="12.6419594"><ele>435.0</ele><time>2026-04-25T10:23:04.544Z</time></trkpt><trkpt lat="42.6696806" lon="12.6420516"><ele>435.0</ele><time>2026-04-25T10:23:05.544Z</time></trkpt><trkpt lat="42.6696511" lon="12.6421365"><ele>435.0</ele><time>2026-04-25T10:23:06.538Z</time></trkpt><trkpt lat="42.6696308" lon="12.6422179"><ele>435.0</ele><time>2026-04-25T10:23:07.534Z</time></trkpt><trkpt lat="42.6695716" lon="12.6423545"><ele>435.0</ele><time>2026-04-25T10:23:09.544Z</time></trkpt><trkpt lat="42.6694714" lon="12.642432"><ele>437.1666666666667</ele><time>2026-04-25T10:23:11.54Z</time></trkpt><trkpt lat="42.6693479" lon="12.6424269"><ele>439.33333333333337</ele><time>2026-04-25T10:23:13.533Z</time></trkpt><trkpt lat="42.6692762" lon="12.6424162"><ele>441.5</ele><time>2026-04-25T10:23:14.544Z</time></trkpt><trkpt lat="42.6692111" lon="12.6424104"><ele>443.6666666666667</ele><time>2026-04-25T10:23:15.547Z</time></trkpt><trkpt lat="42.669105" lon="12.6423997"><ele>445.83333333333337</ele><time>2026-04-25T10:23:17.545Z</time></trkpt><trkpt lat="42.6690266" lon="12.6424056"><ele>448.0</ele><time>2026-04-25T10:23:19.574Z</time></trkpt><trkpt lat="42.668973" lon="12.6425024"><ele>448.00000000000006</ele><time>2026-04-25T10:23:22.538Z</time></trkpt><trkpt lat="42.6690324" lon="12.6425756"><ele>448.0</ele><time>2026-04-25T10:23:25.536Z</time></trkpt><trkpt lat="42.6691017" lon="12.6425753"><ele>448.0</ele><time>2026-04-25T10:23:27.54Z</time></trkpt><trkpt lat="42.6691988" lon="12.642575"><ele>448.0</ele><time>2026-04-25T10:23:29.539Z</time></trkpt><trkpt lat="42.669321" lon="12.642596"><ele>448.00000000000006</ele><time>2026-04-25T10:23:31.549Z</time></trkpt><trkpt lat="42.6693856" lon="12.6426185"><ele>448.0</ele><time>2026-04-25T10:23:32.541Z</time></trkpt><trkpt lat="42.6694495" lon="12.6426428"><ele>448.33333333333337</ele><time>2026-04-25T10:23:33.543Z</time></trkpt><trkpt lat="42.6695187" lon="12.6426791"><ele>448.6666666666667</ele><time>2026-04-25T10:23:34.54Z</time></trkpt><trkpt lat="42.6695923" lon="12.6427166"><ele>449.0</ele><time>2026-04-25T10:23:35.551Z</time></trkpt><trkpt lat="42.6696565" lon="12.6427564"><ele>449.33333333333337</ele><time>2026-04-25T10:23:36.542Z</time></trkpt><trkpt lat="42.66972" lon="12.6428001"><ele>449.6666666666667</ele><time>2026-04-25T10:23:37.545Z</time></trkpt><trkpt lat="42.6697924" lon="12.6428552"><ele>450.0</ele><time>2026-04-25T10:23:38.542Z</time></trkpt><trkpt lat="42.6698673" lon="12.6428944"><ele>453.8333333333333</ele><time>2026-04-25T10:23:39.544Z</time></trkpt><trkpt lat="42.6699504" lon="12.6429238"><ele>457.66666666666663</ele><time>2026-04-25T10:23:40.541Z</time></trkpt><trkpt lat="42.670029" lon="12.6429299"><ele>461.5</ele><time>2026-04-25T10:23:41.537Z</time></trkpt><trkpt lat="42.670111" lon="12.6429261"><ele>465.3333333333333</ele><time>2026-04-25T10:23:42.546Z</time></trkpt><trkpt lat="42.6701962" lon="12.6429297"><ele>469.16666666666663</ele><time>2026-04-25T10:23:43.538Z</time></trkpt><trkpt lat="42.6702724" lon="12.6429298"><ele>473.0</ele><time>2026-04-25T10:23:44.539Z</time></trkpt><trkpt lat="42.6703454" lon="12.6429338"><ele>473.16666666666663</ele><time>2026-04-25T10:23:45.538Z</time></trkpt><trkpt lat="42.670421" lon="12.6429363"><ele>473.3333333333333</ele><time>2026-04-25T10:23:46.531Z</time></trkpt><trkpt lat="42.6704889" lon="12.6429414"><ele>473.5</ele><time>2026-04-25T10:23:47.539Z</time></trkpt><trkpt lat="42.6705943" lon="12.6429637"><ele>473.66666666666663</ele><time>2026-04-25T10:23:49.543Z</time></trkpt><trkpt lat="42.670639" lon="12.6430574"><ele>473.8333333333333</ele><time>2026-04-25T10:23:52.54Z</time></trkpt><trkpt lat="42.6705852" lon="12.6431255"><ele>474.0</ele><time>2026-04-25T10:23:54.539Z</time></trkpt><trkpt lat="42.6704895" lon="12.6431202"><ele>474.0</ele><time>2026-04-25T10:23:56.538Z</time></trkpt><trkpt lat="42.6703833" lon="12.6430917"><ele>474.0</ele><time>2026-04-25T10:23:58.539Z</time></trkpt><trkpt lat="42.670298" lon="12.6431399"><ele>474.0</ele><time>2026-04-25T10:24:00.543Z</time></trkpt><trkpt lat="42.6702642" lon="12.6432152"><ele>474.0</ele><time>2026-04-25T10:24:02.537Z</time></trkpt><trkpt lat="42.6702865" lon="12.6433161"><ele>474.0</ele><time>2026-04-25T10:24:04.534Z</time></trkpt><trkpt lat="42.6703664" lon="12.643354"><ele>474.0</ele><time>2026-04-25T10:24:06.547Z</time></trkpt><trkpt lat="42.670476" lon="12.6433326"><ele>474.0</ele><time>2026-04-25T10:24:08.53Z</time></trkpt><trkpt lat="42.6705438" lon="12.6433134"><ele>474.0</ele><time>2026-04-25T10:24:09.538Z</time></trkpt><trkpt lat="42.6706101" lon="12.6432908"><ele>474.0</ele><time>2026-04-25T10:24:10.537Z</time></trkpt><trkpt lat="42.6706874" lon="12.6432674"><ele>474.0</ele><time>2026-04-25T10:24:11.539Z</time></trkpt><trkpt lat="42.6707751" lon="12.6432482"><ele>474.0</ele><time>2026-04-25T10:24:12.548Z</time></trkpt><trkpt lat="42.6708684" lon="12.6432311"><ele>474.0</ele><time>2026-04-25T10:24:13.539Z</time></trkpt><trkpt lat="42.6709573" lon="12.6432093"><ele>474.0</ele><time>2026-04-25T10:24:14.536Z</time></trkpt><trkpt lat="42.671048" lon="12.6431797"><ele>474.0</ele><time>2026-04-25T10:24:15.54Z</time></trkpt><trkpt lat="42.6711335" lon="12.6431452"><ele>474.0</ele><time>2026-04-25T10:24:16.535Z</time></trkpt><trkpt lat="42.6712278" lon="12.6431291"><ele>474.0</ele><time>2026-04-25T10:24:17.54Z</time></trkpt><trkpt lat="42.6713125" lon="12.6431094"><ele>474.0</ele><time>2026-04-25T10:24:18.547Z</time></trkpt><trkpt lat="42.6713881" lon="12.6430918"><ele>474.0</ele><time>2026-04-25T10:24:19.567Z</time></trkpt><trkpt lat="42.6714512" lon="12.6430778"><ele>475.6</ele><time>2026-04-25T10:24:20.532Z</time></trkpt><trkpt lat="42.6715608" lon="12.6430649"><ele>477.2</ele><time>2026-04-25T10:24:22.545Z</time></trkpt><trkpt lat="42.6716641" lon="12.6431118"><ele>478.80000000000007</ele><time>2026-04-25T10:24:24.546Z</time></trkpt><trkpt lat="42.6717412" lon="12.6431866"><ele>480.40000000000003</ele><time>2026-04-25T10:24:26.543Z</time></trkpt><trkpt lat="42.6718264" lon="12.6433218"><ele>482.0</ele><time>2026-04-25T10:24:28.542Z</time></trkpt><trkpt lat="42.6718727" lon="12.6433903"><ele>481.99999999999994</ele><time>2026-04-25T10:24:29.542Z</time></trkpt><trkpt lat="42.6719139" lon="12.64346"><ele>482.0</ele><time>2026-04-25T10:24:30.543Z</time></trkpt><trkpt lat="42.6719764" lon="12.6435901"><ele>482.0</ele><time>2026-04-25T10:24:32.539Z</time></trkpt><trkpt lat="42.6720241" lon="12.6437253"><ele>482.0</ele><time>2026-04-25T10:24:34.545Z</time></trkpt><trkpt lat="42.6720537" lon="12.6438126"><ele>481.99999999999994</ele><time>2026-04-25T10:24:35.536Z</time></trkpt><trkpt lat="42.672086" lon="12.6439023"><ele>482.0</ele><time>2026-04-25T10:24:36.54Z</time></trkpt><trkpt lat="42.6721239" lon="12.6439871"><ele>483.28571428571433</ele><time>2026-04-25T10:24:37.547Z</time></trkpt><trkpt lat="42.6721688" lon="12.6440617"><ele>484.5714285714286</ele><time>2026-04-25T10:24:38.542Z</time></trkpt><trkpt lat="42.6722192" lon="12.6441256"><ele>485.8571428571429</ele><time>2026-04-25T10:24:39.543Z</time></trkpt><trkpt lat="42.672276" lon="12.6441734"><ele>487.1428571428571</ele><time>2026-04-25T10:24:40.546Z</time></trkpt><trkpt lat="42.6723371" lon="12.6442032"><ele>488.4285714285714</ele><time>2026-04-25T10:24:41.54Z</time></trkpt><trkpt lat="42.6724034" lon="12.644228"><ele>489.71428571428567</ele><time>2026-04-25T10:24:42.597Z</time></trkpt><trkpt lat="42.672477" lon="12.6442433"><ele>491.0</ele><time>2026-04-25T10:24:43.536Z</time></trkpt><trkpt lat="42.6725511" lon="12.6442434"><ele>491.0</ele><time>2026-04-25T10:24:44.543Z</time></trkpt><trkpt lat="42.6726298" lon="12.6442256"><ele>491.0</ele><time>2026-04-25T10:24:45.531Z</time></trkpt><trkpt lat="42.6727017" lon="12.6442034"><ele>491.0</ele><time>2026-04-25T10:24:46.54Z</time></trkpt><trkpt lat="42.6728075" lon="12.6441676"><ele>491.0</ele><time>2026-04-25T10:24:48.541Z</time></trkpt><trkpt lat="42.6729111" lon="12.6441702"><ele>491.0</ele><time>2026-04-25T10:24:50.546Z</time></trkpt><trkpt lat="42.6730119" lon="12.6442391"><ele>490.3333333333333</ele><time>2026-04-25T10:24:52.538Z</time></trkpt><trkpt lat="42.673077" lon="12.6442983"><ele>489.66666666666663</ele><time>2026-04-25T10:24:53.544Z</time></trkpt><trkpt lat="42.6731614" lon="12.6443705"><ele>489.0</ele><time>2026-04-25T10:24:54.545Z</time></trkpt><trkpt lat="42.6732423" lon="12.6444381"><ele>488.33333333333337</ele><time>2026-04-25T10:24:55.531Z</time></trkpt><trkpt lat="42.6733169" lon="12.644504"><ele>487.6666666666667</ele><time>2026-04-25T10:24:56.549Z</time></trkpt><trkpt lat="42.673391" lon="12.6445668"><ele>487.0</ele><time>2026-04-25T10:24:57.539Z</time></trkpt><trkpt lat="42.6734651" lon="12.6446356"><ele>491.20000000000005</ele><time>2026-04-25T10:24:58.539Z</time></trkpt><trkpt lat="42.673547" lon="12.6447011"><ele>495.40000000000003</ele><time>2026-04-25T10:24:59.541Z</time></trkpt><trkpt lat="42.6736407" lon="12.6447464"><ele>499.59999999999997</ele><time>2026-04-25T10:25:00.54Z</time></trkpt><trkpt lat="42.6737287" lon="12.6447914"><ele>503.79999999999995</ele><time>2026-04-25T10:25:01.532Z</time></trkpt><trkpt lat="42.6738175" lon="12.6448255"><ele>508.0</ele><time>2026-04-25T10:25:02.549Z</time></trkpt><trkpt lat="42.6739127" lon="12.6448607"><ele>508.0</ele><time>2026-04-25T10:25:03.539Z</time></trkpt><trkpt lat="42.6740085" lon="12.644904"><ele>507.99999999999994</ele><time>2026-04-25T10:25:04.54Z</time></trkpt><trkpt lat="42.6741077" lon="12.6449414"><ele>507.99999999999994</ele><time>2026-04-25T10:25:05.54Z</time></trkpt><trkpt lat="42.6742029" lon="12.6449799"><ele>508.0</ele><time>2026-04-25T10:25:06.535Z</time></trkpt><trkpt lat="42.6743002" lon="12.6450163"><ele>508.0</ele><time>2026-04-25T10:25:07.544Z</time></trkpt><trkpt lat="42.6743942" lon="12.6450447"><ele>508.0</ele><time>2026-04-25T10:25:08.544Z</time></trkpt><trkpt lat="42.6744954" lon="12.6450692"><ele>507.99999999999994</ele><time>2026-04-25T10:25:09.544Z</time></trkpt><trkpt lat="42.6745982" lon="12.6450789"><ele>507.99999999999994</ele><time>2026-04-25T10:25:10.542Z</time></trkpt><trkpt lat="42.674704" lon="12.6450871"><ele>508.0</ele><time>2026-04-25T10:25:11.584Z</time></trkpt><trkpt lat="42.6748096" lon="12.645089"><ele>508.0</ele><time>2026-04-25T10:25:12.538Z</time></trkpt><trkpt lat="42.6749147" lon="12.6450824"><ele>508.0</ele><time>2026-04-25T10:25:13.552Z</time></trkpt><trkpt lat="42.6750244" lon="12.6450804"><ele>507.99999999999994</ele><time>2026-04-25T10:25:14.543Z</time></trkpt><trkpt lat="42.6751207" lon="12.6450757"><ele>507.99999999999994</ele><time>2026-04-25T10:25:15.537Z</time></trkpt><trkpt lat="42.6752192" lon="12.6450809"><ele>508.0</ele><time>2026-04-25T10:25:16.537Z</time></trkpt><trkpt lat="42.6753111" lon="12.6450959"><ele>508.0</ele><time>2026-04-25T10:25:17.538Z</time></trkpt><trkpt lat="42.6753947" lon="12.6451201"><ele>507.83333333333337</ele><time>2026-04-25T10:25:18.537Z</time></trkpt><trkpt lat="42.6754744" lon="12.6451543"><ele>507.6666666666667</ele><time>2026-04-25T10:25:19.543Z</time></trkpt><trkpt lat="42.6755494" lon="12.6451959"><ele>507.5</ele><time>2026-04-25T10:25:20.539Z</time></trkpt><trkpt lat="42.675619" lon="12.6452334"><ele>507.33333333333337</ele><time>2026-04-25T10:25:21.538Z</time></trkpt><trkpt lat="42.6756914" lon="12.64527"><ele>507.1666666666667</ele><time>2026-04-25T10:25:22.538Z</time></trkpt><trkpt lat="42.6757699" lon="12.6453109"><ele>507.0</ele><time>2026-04-25T10:25:23.54Z</time></trkpt><trkpt lat="42.6758499" lon="12.6453574"><ele>511.8</ele><time>2026-04-25T10:25:24.548Z</time></trkpt><trkpt lat="42.6759416" lon="12.6453973"><ele>516.6</ele><time>2026-04-25T10:25:25.535Z</time></trkpt><trkpt lat="42.6760483" lon="12.6454464"><ele>521.4000000000001</ele><time>2026-04-25T10:25:26.538Z</time></trkpt><trkpt lat="42.6761629" lon="12.6455021"><ele>526.2</ele><time>2026-04-25T10:25:27.542Z</time></trkpt><trkpt lat="42.6762717" lon="12.6455605"><ele>531.0</ele><time>2026-04-25T10:25:28.54Z</time></trkpt><trkpt lat="42.6763753" lon="12.645614"><ele>531.0</ele><time>2026-04-25T10:25:29.533Z</time></trkpt><trkpt lat="42.6764851" lon="12.6456713"><ele>531.0</ele><time>2026-04-25T10:25:30.533Z</time></trkpt><trkpt lat="42.6765864" lon="12.6457266"><ele>531.0</ele><time>2026-04-25T10:25:31.531Z</time></trkpt><trkpt lat="42.6766946" lon="12.6457806"><ele>531.0</ele><time>2026-04-25T10:25:32.535Z</time></trkpt><trkpt lat="42.6768026" lon="12.6458275"><ele>531.0</ele><time>2026-04-25T10:25:33.54Z</time></trkpt><trkpt lat="42.6769061" lon="12.6458626"><ele>531.0</ele><time>2026-04-25T10:25:34.538Z</time></trkpt><trkpt lat="42.6770056" lon="12.6459067"><ele>531.0</ele><time>2026-04-25T10:25:35.536Z</time></trkpt><trkpt lat="42.6771047" lon="12.6459531"><ele>531.0</ele><time>2026-04-25T10:25:36.535Z</time></trkpt><trkpt lat="42.6772039" lon="12.6459947"><ele>531.0</ele><time>2026-04-25T10:25:37.539Z</time></trkpt><trkpt lat="42.6773036" lon="12.6460358"><ele>530.5</ele><time>2026-04-25T10:25:38.538Z</time></trkpt><trkpt lat="42.6773996" lon="12.6460786"><ele>530.0</ele><time>2026-04-25T10:25:39.538Z</time></trkpt><trkpt lat="42.6774848" lon="12.646114"><ele>529.5</ele><time>2026-04-25T10:25:40.546Z</time></trkpt><trkpt lat="42.6775628" lon="12.6461501"><ele>529.0</ele><time>2026-04-25T10:25:41.541Z</time></trkpt><trkpt lat="42.6776416" lon="12.6461838"><ele>528.5</ele><time>2026-04-25T10:25:42.542Z</time></trkpt><trkpt lat="42.6777242" lon="12.6462161"><ele>528.0</ele><time>2026-04-25T10:25:43.546Z</time></trkpt><trkpt lat="42.6778139" lon="12.646246"><ele>532.1999999999999</ele><time>2026-04-25T10:25:44.543Z</time></trkpt><trkpt lat="42.6779137" lon="12.6462568"><ele>536.4</ele><time>2026-04-25T10:25:45.543Z</time></trkpt><trkpt lat="42.6780051" lon="12.6462586"><ele>540.5999999999999</ele><time>2026-04-25T10:25:46.544Z</time></trkpt><trkpt lat="42.6781008" lon="12.6462632"><ele>544.8</ele><time>2026-04-25T10:25:47.54Z</time></trkpt><trkpt lat="42.6781951" lon="12.6462662"><ele>549.0</ele><time>2026-04-25T10:25:48.531Z</time></trkpt><trkpt lat="42.6782953" lon="12.646272"><ele>549.0</ele><time>2026-04-25T10:25:49.542Z</time></trkpt><trkpt lat="42.6783991" lon="12.6462785"><ele>549.0</ele><time>2026-04-25T10:25:50.542Z</time></trkpt><trkpt lat="42.6784952" lon="12.6462786"><ele>549.0</ele><time>2026-04-25T10:25:51.546Z</time></trkpt><trkpt lat="42.6785842" lon="12.6462806"><ele>549.0</ele><time>2026-04-25T10:25:52.545Z</time></trkpt><trkpt lat="42.6786561" lon="12.6462738"><ele>549.0</ele><time>2026-04-25T10:25:53.541Z</time></trkpt><trkpt lat="42.6787243" lon="12.6462599"><ele>549.0</ele><time>2026-04-25T10:25:54.537Z</time></trkpt><trkpt lat="42.6787811" lon="12.6462189"><ele>549.5</ele><time>2026-04-25T10:25:55.541Z</time></trkpt><trkpt lat="42.6788362" lon="12.6461661"><ele>550.0</ele><time>2026-04-25T10:25:56.538Z</time></trkpt><trkpt lat="42.6788859" lon="12.646078"><ele>550.5</ele><time>2026-04-25T10:25:57.537Z</time></trkpt><trkpt lat="42.6789265" lon="12.6459859"><ele>551.0</ele><time>2026-04-25T10:25:58.539Z</time></trkpt><trkpt lat="42.6789629" lon="12.6458805"><ele>551.5</ele><time>2026-04-25T10:25:59.535Z</time></trkpt><trkpt lat="42.679002" lon="12.6457772"><ele>552.0</ele><time>2026-04-25T10:26:00.537Z</time></trkpt><trkpt lat="42.6790285" lon="12.6456673"><ele>550.1666666666666</ele><time>2026-04-25T10:26:01.54Z</time></trkpt><trkpt lat="42.6790555" lon="12.6455648"><ele>548.3333333333334</ele><time>2026-04-25T10:26:02.533Z</time></trkpt><trkpt lat="42.6790842" lon="12.6454743"><ele>546.5</ele><time>2026-04-25T10:26:03.537Z</time></trkpt><trkpt lat="42.6791534" lon="12.6453864"><ele>544.6666666666667</ele><time>2026-04-25T10:26:05.573Z</time></trkpt><trkpt lat="42.6792497" lon="12.6453427"><ele>542.8333333333334</ele><time>2026-04-25T10:26:07.558Z</time></trkpt><trkpt lat="42.6793237" lon="12.6453214"><ele>541.0</ele><time>2026-04-25T10:26:08.549Z</time></trkpt><trkpt lat="42.6794014" lon="12.645313"><ele>539.8</ele><time>2026-04-25T10:26:09.534Z</time></trkpt><trkpt lat="42.679493" lon="12.6453053"><ele>538.6</ele><time>2026-04-25T10:26:10.549Z</time></trkpt><trkpt lat="42.6795962" lon="12.6452926"><ele>537.4</ele><time>2026-04-25T10:26:11.545Z</time></trkpt><trkpt lat="42.6796999" lon="12.6452716"><ele>536.2</ele><time>2026-04-25T10:26:12.532Z</time></trkpt><trkpt lat="42.6797944" lon="12.6452687"><ele>535.0</ele><time>2026-04-25T10:26:13.543Z</time></trkpt><trkpt lat="42.6798871" lon="12.6452792"><ele>538.6</ele><time>2026-04-25T10:26:14.539Z</time></trkpt><trkpt lat="42.6799906" lon="12.6453047"><ele>542.2</ele><time>2026-04-25T10:26:15.546Z</time></trkpt><trkpt lat="42.6801011" lon="12.6453302"><ele>545.8</ele><time>2026-04-25T10:26:16.542Z</time></trkpt><trkpt lat="42.6802091" lon="12.6453493"><ele>549.4</ele><time>2026-04-25T10:26:17.545Z</time></trkpt><trkpt lat="42.680305" lon="12.6453659"><ele>553.0</ele><time>2026-04-25T10:26:18.54Z</time></trkpt><trkpt lat="42.6803928" lon="12.6453775"><ele>553.0</ele><time>2026-04-25T10:26:19.539Z</time></trkpt><trkpt lat="42.6804707" lon="12.6453782"><ele>553.0</ele><time>2026-04-25T10:26:20.534Z</time></trkpt><trkpt lat="42.6805393" lon="12.6453683"><ele>553.0</ele><time>2026-04-25T10:26:21.543Z</time></trkpt><trkpt lat="42.6806026" lon="12.6453602"><ele>553.0</ele><time>2026-04-25T10:26:22.538Z</time></trkpt><trkpt lat="42.6807033" lon="12.6453239"><ele>553.0</ele><time>2026-04-25T10:26:24.542Z</time></trkpt><trkpt lat="42.680774" lon="12.645219"><ele>553.0</ele><time>2026-04-25T10:26:26.546Z</time></trkpt><trkpt lat="42.6808333" lon="12.6451083"><ele>550.8333333333334</ele><time>2026-04-25T10:26:28.542Z</time></trkpt><trkpt lat="42.6809152" lon="12.6450062"><ele>548.6666666666667</ele><time>2026-04-25T10:26:30.545Z</time></trkpt><trkpt lat="42.6809784" lon="12.6449615"><ele>546.5</ele><time>2026-04-25T10:26:31.543Z</time></trkpt><trkpt lat="42.6810479" lon="12.6449265"><ele>544.3333333333334</ele><time>2026-04-25T10:26:32.539Z</time></trkpt><trkpt lat="42.6811135" lon="12.64491"><ele>542.1666666666666</ele><time>2026-04-25T10:26:33.545Z</time></trkpt><trkpt lat="42.6811798" lon="12.6448845"><ele>540.0</ele><time>2026-04-25T10:26:34.541Z</time></trkpt><trkpt lat="42.6812482" lon="12.6448681"><ele>539.5</ele><time>2026-04-25T10:26:35.544Z</time></trkpt><trkpt lat="42.6813144" lon="12.6448395"><ele>539.0</ele><time>2026-04-25T10:26:36.543Z</time></trkpt><trkpt lat="42.6813863" lon="12.644813"><ele>538.5</ele><time>2026-04-25T10:26:37.547Z</time></trkpt><trkpt lat="42.6814659" lon="12.6447919"><ele>538.0</ele><time>2026-04-25T10:26:38.573Z</time></trkpt><trkpt lat="42.6815505" lon="12.6447749"><ele>537.5</ele><time>2026-04-25T10:26:39.556Z</time></trkpt><trkpt lat="42.681634" lon="12.644764"><ele>537.0</ele><time>2026-04-25T10:26:40.54Z</time></trkpt><trkpt lat="42.6817197" lon="12.6447476"><ele>537.0</ele><time>2026-04-25T10:26:41.54Z</time></trkpt><trkpt lat="42.6818089" lon="12.6447432"><ele>537.0</ele><time>2026-04-25T10:26:42.543Z</time></trkpt><trkpt lat="42.6819013" lon="12.6447452"><ele>537.0</ele><time>2026-04-25T10:26:43.535Z</time></trkpt><trkpt lat="42.6819976" lon="12.6447502"><ele>537.0</ele><time>2026-04-25T10:26:44.541Z</time></trkpt><trkpt lat="42.6820954" lon="12.6447637"><ele>537.0</ele><time>2026-04-25T10:26:45.551Z</time></trkpt><trkpt lat="42.6821958" lon="12.6447831"><ele>535.4</ele><time>2026-04-25T10:26:46.543Z</time></trkpt><trkpt lat="42.682299" lon="12.6447976"><ele>533.8000000000001</ele><time>2026-04-25T10:26:47.543Z</time></trkpt><trkpt lat="42.6824031" lon="12.6448205"><ele>532.2</ele><time>2026-04-25T10:26:48.542Z</time></trkpt><trkpt lat="42.6825098" lon="12.644845"><ele>530.6</ele><time>2026-04-25T10:26:49.538Z</time></trkpt><trkpt lat="42.6826193" lon="12.6448732"><ele>529.0</ele><time>2026-04-25T10:26:50.55Z</time></trkpt><trkpt lat="42.6827217" lon="12.6448846"><ele>528.6</ele><time>2026-04-25T10:26:51.54Z</time></trkpt><trkpt lat="42.6828314" lon="12.6448875"><ele>528.2</ele><time>2026-04-25T10:26:52.541Z</time></trkpt><trkpt lat="42.6829349" lon="12.6448775"><ele>527.8000000000001</ele><time>2026-04-25T10:26:53.534Z</time></trkpt><trkpt lat="42.6830408" lon="12.644854"><ele>527.4</ele><time>2026-04-25T10:26:54.536Z</time></trkpt><trkpt lat="42.6831544" lon="12.6448269"><ele>527.0</ele><time>2026-04-25T10:26:55.54Z</time></trkpt><trkpt lat="42.6832754" lon="12.644802"><ele>527.0</ele><time>2026-04-25T10:26:56.54Z</time></trkpt><trkpt lat="42.6833917" lon="12.6447735"><ele>527.0</ele><time>2026-04-25T10:26:57.544Z</time></trkpt><trkpt lat="42.6834922" lon="12.6447628"><ele>527.0</ele><time>2026-04-25T10:26:58.554Z</time></trkpt><trkpt lat="42.6835985" lon="12.6447525"><ele>527.0</ele><time>2026-04-25T10:26:59.543Z</time></trkpt><trkpt lat="42.6837025" lon="12.6447476"><ele>527.0</ele><time>2026-04-25T10:27:00.545Z</time></trkpt><trkpt lat="42.6838078" lon="12.6447518"><ele>526.6</ele><time>2026-04-25T10:27:01.539Z</time></trkpt><trkpt lat="42.6839181" lon="12.6447816"><ele>526.2</ele><time>2026-04-25T10:27:02.538Z</time></trkpt><trkpt lat="42.6840159" lon="12.644796"><ele>525.8</ele><time>2026-04-25T10:27:03.54Z</time></trkpt><trkpt lat="42.6841198" lon="12.6448035"><ele>525.4</ele><time>2026-04-25T10:27:04.537Z</time></trkpt><trkpt lat="42.6842237" lon="12.6448"><ele>525.0</ele><time>2026-04-25T10:27:05.54Z</time></trkpt><trkpt lat="42.684326" lon="12.644796"><ele>525.0</ele><time>2026-04-25T10:27:06.539Z</time></trkpt><trkpt lat="42.6844169" lon="12.6447859"><ele>525.0</ele><time>2026-04-25T10:27:07.546Z</time></trkpt><trkpt lat="42.6844861" lon="12.6447572"><ele>525.0</ele><time>2026-04-25T10:27:08.555Z</time></trkpt><trkpt lat="42.6845358" lon="12.6446903"><ele>525.0</ele><time>2026-04-25T10:27:09.538Z</time></trkpt><trkpt lat="42.6845729" lon="12.6445971"><ele>525.0</ele><time>2026-04-25T10:27:10.568Z</time></trkpt><trkpt lat="42.6845839" lon="12.6445059"><ele>525.0</ele><time>2026-04-25T10:27:11.535Z</time></trkpt><trkpt lat="42.684572" lon="12.6443983"><ele>523.4</ele><time>2026-04-25T10:27:12.541Z</time></trkpt><trkpt lat="42.6845586" lon="12.6443003"><ele>521.8</ele><time>2026-04-25T10:27:13.533Z</time></trkpt><trkpt lat="42.6845351" lon="12.6441833"><ele>520.2</ele><time>2026-04-25T10:27:14.534Z</time></trkpt><trkpt lat="42.6845477" lon="12.6440527"><ele>518.6</ele><time>2026-04-25T10:27:15.538Z</time></trkpt><trkpt lat="42.6845805" lon="12.6439183"><ele>517.0</ele><time>2026-04-25T10:27:16.536Z</time></trkpt><trkpt lat="42.6846122" lon="12.6437964"><ele>517.0</ele><time>2026-04-25T10:27:17.547Z</time></trkpt><trkpt lat="42.6846453" lon="12.6436871"><ele>517.0</ele><time>2026-04-25T10:27:18.539Z</time></trkpt><trkpt lat="42.6846938" lon="12.6435903"><ele>517.0</ele><time>2026-04-25T10:27:19.541Z</time></trkpt><trkpt lat="42.6847596" lon="12.6434974"><ele>517.0</ele><time>2026-04-25T10:27:20.546Z</time></trkpt><trkpt lat="42.6848337" lon="12.643416"><ele>517.0</ele><time>2026-04-25T10:27:21.542Z</time></trkpt><trkpt lat="42.6849015" lon="12.6433513"><ele>517.0</ele><time>2026-04-25T10:27:22.54Z</time></trkpt><trkpt lat="42.6849807" lon="12.6432917"><ele>517.0</ele><time>2026-04-25T10:27:23.547Z</time></trkpt><trkpt lat="42.6850413" lon="12.6432379"><ele>517.0</ele><time>2026-04-25T10:27:24.542Z</time></trkpt><trkpt lat="42.6851263" lon="12.6431485"><ele>517.0</ele><time>2026-04-25T10:27:26.533Z</time></trkpt><trkpt lat="42.6851866" lon="12.6431086"><ele>517.0</ele><time>2026-04-25T10:27:28.545Z</time></trkpt><trkpt lat="42.6853169" lon="12.6430245"><ele>517.0</ele><time>2026-04-25T10:30:16.543Z</time></trkpt><trkpt lat="42.6854111" lon="12.6429874"><ele>517.0</ele><time>2026-04-25T10:30:18.545Z</time></trkpt><trkpt lat="42.6854704" lon="12.6429368"><ele>517.0</ele><time>2026-04-25T10:30:20.544Z</time></trkpt><trkpt lat="42.6855151" lon="12.6428286"><ele>517.0</ele><time>2026-04-25T10:30:22.542Z</time></trkpt><trkpt lat="42.6855607" lon="12.6427"><ele>517.0</ele><time>2026-04-25T10:30:24.545Z</time></trkpt><trkpt lat="42.6855914" lon="12.6425655"><ele>517.0</ele><time>2026-04-25T10:30:26.538Z</time></trkpt><trkpt lat="42.6855849" lon="12.6424141"><ele>519.2</ele><time>2026-04-25T10:30:28.54Z</time></trkpt><trkpt lat="42.6855634" lon="12.6423298"><ele>521.4000000000001</ele><time>2026-04-25T10:30:29.541Z</time></trkpt><trkpt lat="42.6855129" lon="12.6421509"><ele>523.5999999999999</ele><time>2026-04-25T10:30:31.54Z</time></trkpt><trkpt lat="42.6854834" lon="12.6420385"><ele>525.8</ele><time>2026-04-25T10:30:32.538Z</time></trkpt><trkpt lat="42.685457" lon="12.6419262"><ele>528.0</ele><time>2026-04-25T10:30:33.546Z</time></trkpt><trkpt lat="42.6854384" lon="12.6418154"><ele>530.5</ele><time>2026-04-25T10:30:34.536Z</time></trkpt><trkpt lat="42.6854234" lon="12.6417114"><ele>533.0</ele><time>2026-04-25T10:30:35.537Z</time></trkpt><trkpt lat="42.6854042" lon="12.641604"><ele>535.5</ele><time>2026-04-25T10:30:36.542Z</time></trkpt><trkpt lat="42.6853838" lon="12.6414922"><ele>538.0</ele><time>2026-04-25T10:30:37.542Z</time></trkpt><trkpt lat="42.6853516" lon="12.6413823"><ele>540.5</ele><time>2026-04-25T10:30:38.583Z</time></trkpt><trkpt lat="42.6853268" lon="12.6412857"><ele>543.0</ele><time>2026-04-25T10:30:39.54Z</time></trkpt><trkpt lat="42.6852662" lon="12.6411627"><ele>541.8333333333334</ele><time>2026-04-25T10:30:41.542Z</time></trkpt><trkpt lat="42.6851749" lon="12.6410968"><ele>540.6666666666666</ele><time>2026-04-25T10:30:43.539Z</time></trkpt><trkpt lat="42.6851045" lon="12.6410954"><ele>539.5</ele><time>2026-04-25T10:30:45.543Z</time></trkpt><trkpt lat="42.6850268" lon="12.6410664"><ele>538.3333333333333</ele><time>2026-04-25T10:30:47.552Z</time></trkpt><trkpt lat="42.6849681" lon="12.6409926"><ele>537.1666666666666</ele><time>2026-04-25T10:30:49.564Z</time></trkpt><trkpt lat="42.6849396" lon="12.6408917"><ele>536.0</ele><time>2026-04-25T10:30:51.537Z</time></trkpt><trkpt lat="42.6849579" lon="12.640798"><ele>536.0</ele><time>2026-04-25T10:30:53.54Z</time></trkpt><trkpt lat="42.6850078" lon="12.6406808"><ele>536.0</ele><time>2026-04-25T10:30:55.543Z</time></trkpt><trkpt lat="42.6850375" lon="12.6405962"><ele>536.0</ele><time>2026-04-25T10:30:56.542Z</time></trkpt><trkpt lat="42.6850654" lon="12.6405073"><ele>536.0</ele><time>2026-04-25T10:30:57.578Z</time></trkpt><trkpt lat="42.685095" lon="12.6403313"><ele>536.0</ele><time>2026-04-25T10:30:59.545Z</time></trkpt><trkpt lat="42.6851046" lon="12.640238"><ele>536.0</ele><time>2026-04-25T10:31:00.539Z</time></trkpt><trkpt lat="42.6851123" lon="12.6401494"><ele>537.1666666666666</ele><time>2026-04-25T10:31:01.542Z</time></trkpt><trkpt lat="42.6851535" lon="12.6399883"><ele>538.3333333333333</ele><time>2026-04-25T10:31:03.537Z</time></trkpt><trkpt lat="42.6851866" lon="12.6399101"><ele>539.5</ele><time>2026-04-25T10:31:04.539Z</time></trkpt><trkpt lat="42.6852247" lon="12.6398386"><ele>540.6666666666666</ele><time>2026-04-25T10:31:05.542Z</time></trkpt><trkpt lat="42.6852514" lon="12.6397561"><ele>541.8333333333334</ele><time>2026-04-25T10:31:06.534Z</time></trkpt><trkpt lat="42.6852676" lon="12.6396677"><ele>543.0</ele><time>2026-04-25T10:31:07.541Z</time></trkpt><trkpt lat="42.6852818" lon="12.6395729"><ele>549.0</ele><time>2026-04-25T10:31:08.543Z</time></trkpt><trkpt lat="42.6852932" lon="12.6394739"><ele>555.0</ele><time>2026-04-25T10:31:09.544Z</time></trkpt><trkpt lat="42.6853015" lon="12.6393776"><ele>561.0</ele><time>2026-04-25T10:31:10.546Z</time></trkpt><trkpt lat="42.6853057" lon="12.6392802"><ele>567.0</ele><time>2026-04-25T10:31:11.535Z</time></trkpt><trkpt lat="42.6852975" lon="12.639114"><ele>573.0</ele><time>2026-04-25T10:31:13.541Z</time></trkpt><trkpt lat="42.6852975" lon="12.6390238"><ele>579.0</ele><time>2026-04-25T10:31:14.548Z</time></trkpt><trkpt lat="42.6853019" lon="12.6389309"><ele>579.0</ele><time>2026-04-25T10:31:15.55Z</time></trkpt><trkpt lat="42.6853128" lon="12.6388286"><ele>579.0</ele><time>2026-04-25T10:31:16.542Z</time></trkpt><trkpt lat="42.6853363" lon="12.6387217"><ele>579.0</ele><time>2026-04-25T10:31:17.541Z</time></trkpt><trkpt lat="42.6853548" lon="12.6386115"><ele>579.0</ele><time>2026-04-25T10:31:18.539Z</time></trkpt><trkpt lat="42.6853729" lon="12.6385172"><ele>579.0</ele><time>2026-04-25T10:31:19.536Z</time></trkpt><trkpt lat="42.6853881" lon="12.6383548"><ele>579.0</ele><time>2026-04-25T10:31:21.537Z</time></trkpt><trkpt lat="42.6854121" lon="12.6382333"><ele>576.3333333333334</ele><time>2026-04-25T10:31:23.539Z</time></trkpt><trkpt lat="42.6854612" lon="12.6381597"><ele>573.6666666666666</ele><time>2026-04-25T10:31:26.539Z</time></trkpt><trkpt lat="42.6855648" lon="12.6381642"><ele>571.0</ele><time>2026-04-25T10:31:42.536Z</time></trkpt><trkpt lat="42.6856392" lon="12.6381553"><ele>568.3333333333333</ele><time>2026-04-25T10:31:44.545Z</time></trkpt><trkpt lat="42.6857073" lon="12.6381193"><ele>565.6666666666666</ele><time>2026-04-25T10:31:46.54Z</time></trkpt><trkpt lat="42.6857786" lon="12.6380897"><ele>563.0</ele><time>2026-04-25T10:31:48.536Z</time></trkpt><trkpt lat="42.6858659" lon="12.6381001"><ele>563.0</ele><time>2026-04-25T10:31:50.575Z</time></trkpt><trkpt lat="42.685956" lon="12.6381182"><ele>563.0</ele><time>2026-04-25T10:31:52.542Z</time></trkpt><trkpt lat="42.6860324" lon="12.6381627"><ele>563.0</ele><time>2026-04-25T10:31:54.549Z</time></trkpt><trkpt lat="42.686097" lon="12.6382126"><ele>563.0</ele><time>2026-04-25T10:31:56.546Z</time></trkpt><trkpt lat="42.6861574" lon="12.6382822"><ele>563.0</ele><time>2026-04-25T10:31:58.545Z</time></trkpt><trkpt lat="42.6862313" lon="12.6383587"><ele>563.0</ele><time>2026-04-25T10:32:00.554Z</time></trkpt><trkpt lat="42.6863168" lon="12.6384627"><ele>563.6</ele><time>2026-04-25T10:32:02.542Z</time></trkpt><trkpt lat="42.686409" lon="12.638558"><ele>564.1999999999999</ele><time>2026-04-25T10:32:04.545Z</time></trkpt><trkpt lat="42.6865002" lon="12.6386007"><ele>564.8</ele><time>2026-04-25T10:32:06.541Z</time></trkpt><trkpt lat="42.6866003" lon="12.6386301"><ele>565.4</ele><time>2026-04-25T10:32:08.542Z</time></trkpt><trkpt lat="42.6867135" lon="12.6386449"><ele>566.0</ele><time>2026-04-25T10:32:10.547Z</time></trkpt><trkpt lat="42.6868283" lon="12.638654"><ele>565.6</ele><time>2026-04-25T10:32:12.541Z</time></trkpt><trkpt lat="42.6869198" lon="12.6386514"><ele>565.2</ele><time>2026-04-25T10:32:14.539Z</time></trkpt><trkpt lat="42.6870052" lon="12.6386773"><ele>564.8</ele><time>2026-04-25T10:32:17.543Z</time></trkpt><trkpt lat="42.6869253" lon="12.6387208"><ele>564.4</ele><time>2026-04-25T10:32:40.554Z</time></trkpt><trkpt lat="42.6868269" lon="12.6387641"><ele>564.0</ele><time>2026-04-25T10:32:42.57Z</time></trkpt><trkpt lat="42.6867675" lon="12.6388483"><ele>567.6666666666666</ele><time>2026-04-25T10:32:44.549Z</time></trkpt><trkpt lat="42.6867495" lon="12.6389679"><ele>571.3333333333334</ele><time>2026-04-25T10:32:46.548Z</time></trkpt><trkpt lat="42.6867404" lon="12.6390641"><ele>575.0</ele><time>2026-04-25T10:32:48.568Z</time></trkpt><trkpt lat="42.6867336" lon="12.6391813"><ele>578.6666666666667</ele><time>2026-04-25T10:32:51.542Z</time></trkpt><trkpt lat="42.6866676" lon="12.6392061"><ele>582.3333333333334</ele><time>2026-04-25T10:32:55.548Z</time></trkpt><trkpt lat="42.6866037" lon="12.6391829"><ele>586.0</ele><time>2026-04-25T10:32:57.541Z</time></trkpt><trkpt lat="42.6865057" lon="12.6391401"><ele>585.9999999999999</ele><time>2026-04-25T10:33:00.549Z</time></trkpt><trkpt lat="42.6864412" lon="12.6391187"><ele>586.0</ele><time>2026-04-25T10:33:02.547Z</time></trkpt><trkpt lat="42.6863755" lon="12.6390984"><ele>586.0</ele><time>2026-04-25T10:33:15.54Z</time></trkpt><trkpt lat="42.6863052" lon="12.6391293"><ele>586.0</ele><time>2026-04-25T10:33:18.543Z</time></trkpt><trkpt lat="42.6863201" lon="12.6392247"><ele>586.0</ele><time>2026-04-25T10:33:21.541Z</time></trkpt><trkpt lat="42.6863412" lon="12.6393162"><ele>585.9999999999999</ele><time>2026-04-25T10:33:23.56Z</time></trkpt><trkpt lat="42.6863455" lon="12.6394079"><ele>586.0</ele><time>2026-04-25T10:33:25.539Z</time></trkpt><trkpt lat="42.6862663" lon="12.6394741"><ele>587.0</ele><time>2026-04-25T10:33:28.544Z</time></trkpt><trkpt lat="42.6861724" lon="12.6394968"><ele>587.0</ele><time>2026-04-25T10:33:30.54Z</time></trkpt></trkseg><trkseg><trkpt lat="42.686073" lon="12.6395019"><ele>579.9999999999999</ele><time>2026-04-25T11:21:15.549Z</time></trkpt><trkpt lat="42.6861142" lon="12.6394232"><ele>581.0</ele><time>2026-04-25T11:21:19.549Z</time></trkpt><trkpt lat="42.6861808" lon="12.6394587"><ele>582.0</ele><time>2026-04-25T11:21:21.559Z</time></trkpt><trkpt lat="42.6862683" lon="12.6394593"><ele>583.0</ele><time>2026-04-25T11:21:24.547Z</time></trkpt><trkpt lat="42.6863036" lon="12.6393853"><ele>584.0</ele><time>2026-04-25T11:21:28.54Z</time></trkpt><trkpt lat="42.6863133" lon="12.6392903"><ele>584.9999999999999</ele><time>2026-04-25T11:21:31.546Z</time></trkpt><trkpt lat="42.6862926" lon="12.6392029"><ele>586.0</ele><time>2026-04-25T11:21:34.543Z</time></trkpt><trkpt lat="42.6862746" lon="12.6391129"><ele>585.9999999999999</ele><time>2026-04-25T11:22:10.541Z</time></trkpt><trkpt lat="42.6863381" lon="12.6390744"><ele>586.0</ele><time>2026-04-25T11:22:32.541Z</time></trkpt><trkpt lat="42.6864031" lon="12.639078"><ele>586.0</ele><time>2026-04-25T11:22:44.544Z</time></trkpt><trkpt lat="42.6864694" lon="12.6390976"><ele>586.0</ele><time>2026-04-25T11:22:51.545Z</time></trkpt><trkpt lat="42.6865316" lon="12.6391238"><ele>586.0</ele><time>2026-04-25T11:22:59.546Z</time></trkpt><trkpt lat="42.6865907" lon="12.6391702"><ele>585.9999999999999</ele><time>2026-04-25T11:23:08.538Z</time></trkpt><trkpt lat="42.6866619" lon="12.6391837"><ele>586.0</ele><time>2026-04-25T11:23:13.55Z</time></trkpt><trkpt lat="42.6867125" lon="12.6391264"><ele>586.0</ele><time>2026-04-25T11:23:24.542Z</time></trkpt><trkpt lat="42.6867205" lon="12.6390399"><ele>586.0</ele><time>2026-04-25T11:23:28.545Z</time></trkpt><trkpt lat="42.6867435" lon="12.6389176"><ele>586.0</ele><time>2026-04-25T11:23:31.547Z</time></trkpt><trkpt lat="42.6867776" lon="12.6388415"><ele>586.0</ele><time>2026-04-25T11:23:33.549Z</time></trkpt><trkpt lat="42.6868282" lon="12.6387831"><ele>586.0</ele><time>2026-04-25T11:23:35.555Z</time></trkpt><trkpt lat="42.6869165" lon="12.6387594"><ele>586.0</ele><time>2026-04-25T11:23:38.539Z</time></trkpt><trkpt lat="42.6869884" lon="12.6387232"><ele>582.6666666666667</ele><time>2026-04-25T11:23:41.539Z</time></trkpt><trkpt lat="42.687041" lon="12.6386388"><ele>579.3333333333334</ele><time>2026-04-25T11:23:50.54Z</time></trkpt><trkpt lat="42.6869724" lon="12.6385909"><ele>576.0</ele><time>2026-04-25T11:24:04.543Z</time></trkpt><trkpt lat="42.6869048" lon="12.6385838"><ele>572.6666666666666</ele><time>2026-04-25T11:24:07.539Z</time></trkpt><trkpt lat="42.6868033" lon="12.6385637"><ele>569.3333333333333</ele><time>2026-04-25T11:24:09.542Z</time></trkpt><trkpt lat="42.6866891" lon="12.6385541"><ele>566.0</ele><time>2026-04-25T11:24:11.544Z</time></trkpt><trkpt lat="42.6865891" lon="12.6385453"><ele>566.0</ele><time>2026-04-25T11:24:13.546Z</time></trkpt><trkpt lat="42.6864952" lon="12.6385317"><ele>566.0</ele><time>2026-04-25T11:24:15.543Z</time></trkpt><trkpt lat="42.6864226" lon="12.6385005"><ele>566.0</ele><time>2026-04-25T11:24:17.548Z</time></trkpt><trkpt lat="42.6863531" lon="12.6384442"><ele>566.0</ele><time>2026-04-25T11:24:19.544Z</time></trkpt><trkpt lat="42.6862984" lon="12.6383681"><ele>566.0</ele><time>2026-04-25T11:24:21.544Z</time></trkpt><trkpt lat="42.6862524" lon="12.6383007"><ele>566.0</ele><time>2026-04-25T11:24:23.546Z</time></trkpt><trkpt lat="42.6861729" lon="12.6382396"><ele>565.4</ele><time>2026-04-25T11:24:25.552Z</time></trkpt><trkpt lat="42.6860828" lon="12.638181"><ele>564.8</ele><time>2026-04-25T11:24:27.542Z</time></trkpt><trkpt lat="42.6859911" lon="12.6381444"><ele>564.1999999999999</ele><time>2026-04-25T11:24:29.54Z</time></trkpt><trkpt lat="42.6858929" lon="12.6380971"><ele>563.6</ele><time>2026-04-25T11:24:31.546Z</time></trkpt><trkpt lat="42.6857833" lon="12.6381044"><ele>563.0</ele><time>2026-04-25T11:24:33.542Z</time></trkpt><trkpt lat="42.6856705" lon="12.6381321"><ele>563.0</ele><time>2026-04-25T11:24:35.545Z</time></trkpt><trkpt lat="42.6855577" lon="12.638168"><ele>563.0</ele><time>2026-04-25T11:24:37.547Z</time></trkpt><trkpt lat="42.6854567" lon="12.6381842"><ele>563.0</ele><time>2026-04-25T11:24:39.533Z</time></trkpt><trkpt lat="42.6853735" lon="12.6381852"><ele>563.0</ele><time>2026-04-25T11:24:41.547Z</time></trkpt><trkpt lat="42.6853138" lon="12.6381367"><ele>563.0</ele><time>2026-04-25T11:24:43.537Z</time></trkpt><trkpt lat="42.6852102" lon="12.6380443"><ele>560.5</ele><time>2026-04-25T11:24:45.546Z</time></trkpt><trkpt lat="42.6851066" lon="12.6380145"><ele>558.0</ele><time>2026-04-25T11:24:47.544Z</time></trkpt><trkpt lat="42.685042" lon="12.6380007"><ele>555.5</ele><time>2026-04-25T11:24:48.552Z</time></trkpt><trkpt lat="42.6849652" lon="12.6379662"><ele>553.0</ele><time>2026-04-25T11:24:50.541Z</time></trkpt><trkpt lat="42.684887" lon="12.6379502"><ele>550.5</ele><time>2026-04-25T11:24:59.543Z</time></trkpt><trkpt lat="42.6847779" lon="12.6379307"><ele>548.0</ele><time>2026-04-25T11:25:01.582Z</time></trkpt><trkpt lat="42.6846686" lon="12.6379075"><ele>548.0</ele><time>2026-04-25T11:25:03.544Z</time></trkpt><trkpt lat="42.684571" lon="12.6378469"><ele>548.0</ele><time>2026-04-25T11:25:05.548Z</time></trkpt><trkpt lat="42.6844776" lon="12.6377827"><ele>548.0</ele><time>2026-04-25T11:25:07.54Z</time></trkpt><trkpt lat="42.6843932" lon="12.6377066"><ele>548.0</ele><time>2026-04-25T11:25:09.539Z</time></trkpt><trkpt lat="42.6843192" lon="12.637588"><ele>548.0</ele><time>2026-04-25T11:25:11.553Z</time></trkpt><trkpt lat="42.6842832" lon="12.6375114"><ele>549.0</ele><time>2026-04-25T11:25:12.551Z</time></trkpt><trkpt lat="42.6842228" lon="12.6373948"><ele>550.0</ele><time>2026-04-25T11:25:14.536Z</time></trkpt><trkpt lat="42.6841854" lon="12.637308"><ele>551.0</ele><time>2026-04-25T11:25:16.545Z</time></trkpt><trkpt lat="42.6841626" lon="12.6372096"><ele>552.0</ele><time>2026-04-25T11:25:18.543Z</time></trkpt><trkpt lat="42.6841554" lon="12.6370738"><ele>553.0</ele><time>2026-04-25T11:25:20.544Z</time></trkpt><trkpt lat="42.6841783" lon="12.6369269"><ele>554.5</ele><time>2026-04-25T11:25:22.546Z</time></trkpt><trkpt lat="42.6841968" lon="12.6368419"><ele>556.0</ele><time>2026-04-25T11:25:23.541Z</time></trkpt><trkpt lat="42.6842178" lon="12.6367458"><ele>557.5</ele><time>2026-04-25T11:25:24.544Z</time></trkpt><trkpt lat="42.684242" lon="12.6366556"><ele>559.0</ele><time>2026-04-25T11:25:25.546Z</time></trkpt><trkpt lat="42.6842719" lon="12.6365756"><ele>560.5</ele><time>2026-04-25T11:25:26.57Z</time></trkpt><trkpt lat="42.6843388" lon="12.6364366"><ele>562.0</ele><time>2026-04-25T11:25:28.541Z</time></trkpt><trkpt lat="42.684378" lon="12.6363638"><ele>562.0</ele><time>2026-04-25T11:25:29.557Z</time></trkpt><trkpt lat="42.6844182" lon="12.6362808"><ele>562.0</ele><time>2026-04-25T11:25:30.545Z</time></trkpt><trkpt lat="42.6844628" lon="12.6362074"><ele>562.0</ele><time>2026-04-25T11:25:31.54Z</time></trkpt><trkpt lat="42.6845263" lon="12.6360888"><ele>562.0</ele><time>2026-04-25T11:25:33.538Z</time></trkpt><trkpt lat="42.6845737" lon="12.6359458"><ele>562.0</ele><time>2026-04-25T11:25:35.545Z</time></trkpt><trkpt lat="42.684593" lon="12.6358636"><ele>562.0</ele><time>2026-04-25T11:25:36.545Z</time></trkpt><trkpt lat="42.6846197" lon="12.6356898"><ele>560.4</ele><time>2026-04-25T11:25:38.543Z</time></trkpt><trkpt lat="42.6846376" lon="12.635545"><ele>558.8000000000001</ele><time>2026-04-25T11:25:40.546Z</time></trkpt><trkpt lat="42.6846764" lon="12.6354109"><ele>557.2</ele><time>2026-04-25T11:25:42.536Z</time></trkpt><trkpt lat="42.6847287" lon="12.6352718"><ele>555.6</ele><time>2026-04-25T11:25:44.541Z</time></trkpt><trkpt lat="42.6847887" lon="12.6351398"><ele>554.0</ele><time>2026-04-25T11:25:46.545Z</time></trkpt><trkpt lat="42.6848531" lon="12.6350173"><ele>557.0</ele><time>2026-04-25T11:25:48.546Z</time></trkpt><trkpt lat="42.6849048" lon="12.6349061"><ele>560.0</ele><time>2026-04-25T11:25:50.544Z</time></trkpt><trkpt lat="42.6849287" lon="12.6348247"><ele>563.0</ele><time>2026-04-25T11:25:52.554Z</time></trkpt><trkpt lat="42.6849379" lon="12.6347185"><ele>566.0</ele><time>2026-04-25T11:25:55.54Z</time></trkpt><trkpt lat="42.6849517" lon="12.6346009"><ele>569.0</ele><time>2026-04-25T11:25:58.543Z</time></trkpt><trkpt lat="42.6849039" lon="12.6345239"><ele>572.0</ele><time>2026-04-25T11:26:01.546Z</time></trkpt><trkpt lat="42.6848367" lon="12.634501"><ele>572.8000000000001</ele><time>2026-04-25T11:26:04.548Z</time></trkpt><trkpt lat="42.6847453" lon="12.6344698"><ele>573.6</ele><time>2026-04-25T11:26:06.546Z</time></trkpt><trkpt lat="42.6846448" lon="12.6344199"><ele>574.4000000000001</ele><time>2026-04-25T11:26:08.548Z</time></trkpt><trkpt lat="42.6845791" lon="12.6343704"><ele>575.2</ele><time>2026-04-25T11:26:10.538Z</time></trkpt><trkpt lat="42.6844977" lon="12.6343031"><ele>576.0</ele><time>2026-04-25T11:26:13.548Z</time></trkpt><trkpt lat="42.6844078" lon="12.6342246"><ele>579.6666666666666</ele><time>2026-04-25T11:26:15.544Z</time></trkpt><trkpt lat="42.6843433" lon="12.6341874"><ele>583.3333333333334</ele><time>2026-04-25T11:26:17.546Z</time></trkpt><trkpt lat="42.6842769" lon="12.6341529"><ele>587.0</ele><time>2026-04-25T11:26:19.547Z</time></trkpt><trkpt lat="42.6842093" lon="12.6341527"><ele>590.6666666666667</ele><time>2026-04-25T11:26:21.544Z</time></trkpt><trkpt lat="42.6841067" lon="12.6341784"><ele>594.3333333333334</ele><time>2026-04-25T11:26:23.553Z</time></trkpt><trkpt lat="42.684012" lon="12.6341519"><ele>598.0</ele><time>2026-04-25T11:26:25.541Z</time></trkpt><trkpt lat="42.6839513" lon="12.6340952"><ele>598.0</ele><time>2026-04-25T11:26:47.578Z</time></trkpt><trkpt lat="42.6838715" lon="12.6340173"><ele>598.0</ele><time>2026-04-25T11:26:50.545Z</time></trkpt><trkpt lat="42.6837782" lon="12.6339428"><ele>598.0</ele><time>2026-04-25T11:26:52.547Z</time></trkpt><trkpt lat="42.6836922" lon="12.6338657"><ele>598.0</ele><time>2026-04-25T11:26:54.546Z</time></trkpt><trkpt lat="42.6835916" lon="12.6337873"><ele>598.0</ele><time>2026-04-25T11:26:56.534Z</time></trkpt><trkpt lat="42.6834854" lon="12.6336992"><ele>600.0</ele><time>2026-04-25T11:26:58.545Z</time></trkpt><trkpt lat="42.6833821" lon="12.633611"><ele>602.0</ele><time>2026-04-25T11:27:00.549Z</time></trkpt><trkpt lat="42.6832866" lon="12.6335263"><ele>604.0</ele><time>2026-04-25T11:27:02.541Z</time></trkpt><trkpt lat="42.683206" lon="12.6334557"><ele>606.0</ele><time>2026-04-25T11:27:04.543Z</time></trkpt><trkpt lat="42.6831202" lon="12.6334165"><ele>608.0</ele><time>2026-04-25T11:27:06.546Z</time></trkpt><trkpt lat="42.6830202" lon="12.633384"><ele>608.0</ele><time>2026-04-25T11:27:08.538Z</time></trkpt><trkpt lat="42.6829507" lon="12.6333113"><ele>608.0</ele><time>2026-04-25T11:27:10.542Z</time></trkpt><trkpt lat="42.6829027" lon="12.6331924"><ele>608.0</ele><time>2026-04-25T11:27:36.541Z</time></trkpt><trkpt lat="42.6828893" lon="12.6330715"><ele>608.0</ele><time>2026-04-25T11:27:38.555Z</time></trkpt><trkpt lat="42.6828705" lon="12.6329434"><ele>608.0</ele><time>2026-04-25T11:27:40.544Z</time></trkpt><trkpt lat="42.6828284" lon="12.6328289"><ele>609.4</ele><time>2026-04-25T11:27:42.542Z</time></trkpt><trkpt lat="42.6827598" lon="12.6327569"><ele>610.8</ele><time>2026-04-25T11:27:44.543Z</time></trkpt><trkpt lat="42.6826499" lon="12.6326954"><ele>612.2</ele><time>2026-04-25T11:27:46.544Z</time></trkpt><trkpt lat="42.6825465" lon="12.6326379"><ele>613.6</ele><time>2026-04-25T11:27:48.542Z</time></trkpt><trkpt lat="42.6824831" lon="12.6325847"><ele>615.0</ele><time>2026-04-25T11:27:50.545Z</time></trkpt><trkpt lat="42.6824111" lon="12.6325715"><ele>615.0</ele><time>2026-04-25T11:28:03.548Z</time></trkpt><trkpt lat="42.6823457" lon="12.6325696"><ele>615.0</ele><time>2026-04-25T11:28:06.546Z</time></trkpt><trkpt lat="42.6822823" lon="12.6325311"><ele>615.0</ele><time>2026-04-25T11:28:08.536Z</time></trkpt><trkpt lat="42.6822183" lon="12.6324677"><ele>615.0</ele><time>2026-04-25T11:28:10.546Z</time></trkpt><trkpt lat="42.6821588" lon="12.6323988"><ele>615.0</ele><time>2026-04-25T11:28:12.54Z</time></trkpt><trkpt lat="42.682076" lon="12.6323248"><ele>615.0</ele><time>2026-04-25T11:28:14.542Z</time></trkpt><trkpt lat="42.6819917" lon="12.6322479"><ele>612.8</ele><time>2026-04-25T11:28:16.542Z</time></trkpt><trkpt lat="42.6819017" lon="12.6321744"><ele>610.6</ele><time>2026-04-25T11:28:18.54Z</time></trkpt><trkpt lat="42.6818082" lon="12.6320704"><ele>608.4</ele><time>2026-04-25T11:28:20.549Z</time></trkpt><trkpt lat="42.6817352" lon="12.631972"><ele>606.2</ele><time>2026-04-25T11:28:22.544Z</time></trkpt><trkpt lat="42.6816679" lon="12.631877"><ele>604.0</ele><time>2026-04-25T11:28:24.543Z</time></trkpt><trkpt lat="42.6815952" lon="12.6317923"><ele>603.8333333333334</ele><time>2026-04-25T11:28:26.545Z</time></trkpt><trkpt lat="42.6815479" lon="12.6317203"><ele>603.6666666666667</ele><time>2026-04-25T11:28:28.544Z</time></trkpt><trkpt lat="42.6815433" lon="12.6316132"><ele>603.5</ele><time>2026-04-25T11:28:31.542Z</time></trkpt><trkpt lat="42.6815671" lon="12.6315338"><ele>603.3333333333334</ele><time>2026-04-25T11:28:33.54Z</time></trkpt><trkpt lat="42.6816027" lon="12.631437"><ele>603.1666666666666</ele><time>2026-04-25T11:28:35.542Z</time></trkpt><trkpt lat="42.6816443" lon="12.6313112"><ele>603.0</ele><time>2026-04-25T11:28:37.544Z</time></trkpt><trkpt lat="42.6816877" lon="12.6311817"><ele>602.5714285714286</ele><time>2026-04-25T11:28:39.542Z</time></trkpt><trkpt lat="42.6817154" lon="12.6310616"><ele>602.1428571428571</ele><time>2026-04-25T11:28:41.547Z</time></trkpt><trkpt lat="42.6817091" lon="12.6309648"><ele>601.7142857142857</ele><time>2026-04-25T11:28:43.545Z</time></trkpt><trkpt lat="42.6816934" lon="12.6308761"><ele>601.2857142857142</ele><time>2026-04-25T11:28:45.543Z</time></trkpt><trkpt lat="42.681683" lon="12.6307864"><ele>600.8571428571429</ele><time>2026-04-25T11:28:47.539Z</time></trkpt><trkpt lat="42.6816735" lon="12.6306874"><ele>600.4285714285713</ele><time>2026-04-25T11:28:49.543Z</time></trkpt><trkpt lat="42.6816429" lon="12.6305969"><ele>600.0</ele><time>2026-04-25T11:28:51.547Z</time></trkpt><trkpt lat="42.6816022" lon="12.630523"><ele>600.0</ele><time>2026-04-25T11:28:53.55Z</time></trkpt><trkpt lat="42.6815297" lon="12.6304767"><ele>600.0</ele><time>2026-04-25T11:28:55.543Z</time></trkpt><trkpt lat="42.681451" lon="12.6304161"><ele>600.0</ele><time>2026-04-25T11:28:57.542Z</time></trkpt><trkpt lat="42.6813729" lon="12.6303669"><ele>600.0</ele><time>2026-04-25T11:28:59.569Z</time></trkpt><trkpt lat="42.6813111" lon="12.6303172"><ele>600.0</ele><time>2026-04-25T11:29:01.541Z</time></trkpt><trkpt lat="42.6812653" lon="12.6302566"><ele>600.0</ele><time>2026-04-25T11:29:05.545Z</time></trkpt><trkpt lat="42.681218" lon="12.6301943"><ele>600.5</ele><time>2026-04-25T11:30:03.542Z</time></trkpt><trkpt lat="42.6811538" lon="12.6301106"><ele>601.0</ele><time>2026-04-25T11:30:05.541Z</time></trkpt><trkpt lat="42.6811077" lon="12.6300301"><ele>601.5</ele><time>2026-04-25T11:30:07.546Z</time></trkpt><trkpt lat="42.681097" lon="12.629942"><ele>602.0</ele><time>2026-04-25T11:30:09.551Z</time></trkpt><trkpt lat="42.6810695" lon="12.629844"><ele>602.5</ele><time>2026-04-25T11:30:11.547Z</time></trkpt><trkpt lat="42.6810226" lon="12.6297622"><ele>603.0</ele><time>2026-04-25T11:30:13.544Z</time></trkpt><trkpt lat="42.6809699" lon="12.629653"><ele>601.6</ele><time>2026-04-25T11:30:15.545Z</time></trkpt><trkpt lat="42.6809291" lon="12.6295197"><ele>600.1999999999999</ele><time>2026-04-25T11:30:17.545Z</time></trkpt><trkpt lat="42.6808804" lon="12.6294017"><ele>598.8</ele><time>2026-04-25T11:30:19.545Z</time></trkpt><trkpt lat="42.6808142" lon="12.62931"><ele>597.4</ele><time>2026-04-25T11:30:21.541Z</time></trkpt><trkpt lat="42.6807473" lon="12.6292404"><ele>596.0</ele><time>2026-04-25T11:30:23.544Z</time></trkpt><trkpt lat="42.680679" lon="12.629202"><ele>598.8333333333333</ele><time>2026-04-25T11:30:26.534Z</time></trkpt><trkpt lat="42.6806139" lon="12.6291634"><ele>601.6666666666666</ele><time>2026-04-25T11:30:39.543Z</time></trkpt><trkpt lat="42.68054" lon="12.6291834"><ele>604.5</ele><time>2026-04-25T11:33:29.537Z</time></trkpt><trkpt lat="42.6804536" lon="12.6291764"><ele>607.3333333333334</ele><time>2026-04-25T11:33:31.543Z</time></trkpt><trkpt lat="42.6803292" lon="12.6291813"><ele>610.1666666666667</ele><time>2026-04-25T11:33:33.546Z</time></trkpt><trkpt lat="42.6802603" lon="12.6292078"><ele>613.0</ele><time>2026-04-25T11:33:34.538Z</time></trkpt><trkpt lat="42.6802011" lon="12.6292373"><ele>614.6</ele><time>2026-04-25T11:33:35.54Z</time></trkpt><trkpt lat="42.6801229" lon="12.6292731"><ele>616.1999999999999</ele><time>2026-04-25T11:33:37.553Z</time></trkpt><trkpt lat="42.6799929" lon="12.6293008"><ele>617.8</ele><time>2026-04-25T11:33:39.542Z</time></trkpt><trkpt lat="42.6799146" lon="12.6293195"><ele>619.4</ele><time>2026-04-25T11:33:40.54Z</time></trkpt><trkpt lat="42.6798478" lon="12.6293392"><ele>621.0</ele><time>2026-04-25T11:33:41.541Z</time></trkpt><trkpt lat="42.6797483" lon="12.6293489"><ele>621.0</ele><time>2026-04-25T11:33:43.546Z</time></trkpt><trkpt lat="42.6796724" lon="12.6293488"><ele>621.0</ele><time>2026-04-25T11:33:46.537Z</time></trkpt><trkpt lat="42.6795883" lon="12.6293299"><ele>621.0</ele><time>2026-04-25T11:34:07.545Z</time></trkpt><trkpt lat="42.6794665" lon="12.6293208"><ele>621.0</ele><time>2026-04-25T11:34:09.54Z</time></trkpt><trkpt lat="42.679356" lon="12.6293162"><ele>621.0</ele><time>2026-04-25T11:34:11.541Z</time></trkpt><trkpt lat="42.6792276" lon="12.6292783"><ele>621.0</ele><time>2026-04-25T11:34:13.543Z</time></trkpt><trkpt lat="42.6791545" lon="12.6292583"><ele>621.0</ele><time>2026-04-25T11:34:14.543Z</time></trkpt><trkpt lat="42.6790822" lon="12.629235"><ele>621.0</ele><time>2026-04-25T11:34:15.543Z</time></trkpt><trkpt lat="42.6790122" lon="12.6292009"><ele>621.0</ele><time>2026-04-25T11:34:16.546Z</time></trkpt><trkpt lat="42.6789394" lon="12.6291663"><ele>621.0</ele><time>2026-04-25T11:34:17.548Z</time></trkpt><trkpt lat="42.6788661" lon="12.6291331"><ele>621.0</ele><time>2026-04-25T11:34:18.549Z</time></trkpt><trkpt lat="42.6787892" lon="12.6290842"><ele>621.0</ele><time>2026-04-25T11:34:19.543Z</time></trkpt><trkpt lat="42.6787058" lon="12.6290475"><ele>621.0</ele><time>2026-04-25T11:34:20.538Z</time></trkpt><trkpt lat="42.6786219" lon="12.6290245"><ele>621.0</ele><time>2026-04-25T11:34:21.546Z</time></trkpt><trkpt lat="42.678539" lon="12.6289971"><ele>621.0</ele><time>2026-04-25T11:34:22.548Z</time></trkpt><trkpt lat="42.6784669" lon="12.6289714"><ele>621.0</ele><time>2026-04-25T11:34:23.548Z</time></trkpt><trkpt lat="42.6784063" lon="12.6289435"><ele>621.0</ele><time>2026-04-25T11:34:24.543Z</time></trkpt><trkpt lat="42.6783429" lon="12.6289129"><ele>621.1666666666666</ele><time>2026-04-25T11:34:25.546Z</time></trkpt><trkpt lat="42.6782821" lon="12.6288573"><ele>621.3333333333334</ele><time>2026-04-25T11:34:26.543Z</time></trkpt><trkpt lat="42.6782249" lon="12.6287905"><ele>621.5</ele><time>2026-04-25T11:34:27.544Z</time></trkpt><trkpt lat="42.6781803" lon="12.6287172"><ele>621.6666666666667</ele><time>2026-04-25T11:34:28.542Z</time></trkpt><trkpt lat="42.6781358" lon="12.6285889"><ele>621.8333333333334</ele><time>2026-04-25T11:34:30.547Z</time></trkpt><trkpt lat="42.6781095" lon="12.6284588"><ele>622.0</ele><time>2026-04-25T11:34:32.544Z</time></trkpt><trkpt lat="42.6780754" lon="12.6283761"><ele>622.0</ele><time>2026-04-25T11:34:52.54Z</time></trkpt><trkpt lat="42.6780286" lon="12.6283079"><ele>622.0</ele><time>2026-04-25T11:34:59.543Z</time></trkpt><trkpt lat="42.6779801" lon="12.6282468"><ele>622.0</ele><time>2026-04-25T11:35:03.546Z</time></trkpt><trkpt lat="42.6779175" lon="12.628161"><ele>622.0</ele><time>2026-04-25T11:35:10.542Z</time></trkpt><trkpt lat="42.677859" lon="12.6280872"><ele>622.0</ele><time>2026-04-25T11:35:12.553Z</time></trkpt><trkpt lat="42.6778108" lon="12.6279847"><ele>622.0</ele><time>2026-04-25T11:35:15.554Z</time></trkpt><trkpt lat="42.6778121" lon="12.627886"><ele>621.8333333333334</ele><time>2026-04-25T11:35:18.547Z</time></trkpt><trkpt lat="42.6778212" lon="12.6277639"><ele>621.6666666666667</ele><time>2026-04-25T11:35:21.542Z</time></trkpt><trkpt lat="42.6778595" lon="12.6276416"><ele>621.5</ele><time>2026-04-25T11:35:24.536Z</time></trkpt><trkpt lat="42.6779124" lon="12.6275323"><ele>621.3333333333334</ele><time>2026-04-25T11:35:26.544Z</time></trkpt><trkpt lat="42.6778731" lon="12.6276033"><ele>621.1666666666666</ele><time>2026-04-25T11:36:08.545Z</time></trkpt><trkpt lat="42.6778514" lon="12.6276939"><ele>621.0</ele><time>2026-04-25T11:36:26.549Z</time></trkpt><trkpt lat="42.6778116" lon="12.6277671"><ele>621.2</ele><time>2026-04-25T11:36:59.54Z</time></trkpt><trkpt lat="42.6778067" lon="12.6278895"><ele>621.4000000000001</ele><time>2026-04-25T11:37:02.55Z</time></trkpt><trkpt lat="42.6778068" lon="12.6280173"><ele>621.6</ele><time>2026-04-25T11:37:05.545Z</time></trkpt><trkpt lat="42.6778657" lon="12.6281241"><ele>621.8000000000001</ele><time>2026-04-25T11:37:08.554Z</time></trkpt><trkpt lat="42.6779496" lon="12.6281941"><ele>622.0</ele><time>2026-04-25T11:37:10.546Z</time></trkpt><trkpt lat="42.6780144" lon="12.6282599"><ele>622.0</ele><time>2026-04-25T11:37:13.544Z</time></trkpt><trkpt lat="42.6780509" lon="12.6283362"><ele>622.0</ele><time>2026-04-25T11:37:19.544Z</time></trkpt><trkpt lat="42.6781022" lon="12.6284233"><ele>622.0</ele><time>2026-04-25T11:37:23.546Z</time></trkpt><trkpt lat="42.6781167" lon="12.6285287"><ele>622.0</ele><time>2026-04-25T11:37:25.547Z</time></trkpt><trkpt lat="42.6781517" lon="12.628649"><ele>622.0</ele><time>2026-04-25T11:37:27.549Z</time></trkpt><trkpt lat="42.6782105" lon="12.6287358"><ele>622.0</ele><time>2026-04-25T11:37:29.545Z</time></trkpt><trkpt lat="42.6782721" lon="12.6288046"><ele>621.8000000000001</ele><time>2026-04-25T11:37:31.547Z</time></trkpt><trkpt lat="42.6783597" lon="12.6288842"><ele>621.6</ele><time>2026-04-25T11:37:33.552Z</time></trkpt><trkpt lat="42.6784644" lon="12.6289449"><ele>621.4000000000001</ele><time>2026-04-25T11:37:35.546Z</time></trkpt><trkpt lat="42.6785913" lon="12.6289842"><ele>621.2</ele><time>2026-04-25T11:37:37.579Z</time></trkpt><trkpt lat="42.6786631" lon="12.6290154"><ele>621.0</ele><time>2026-04-25T11:37:38.539Z</time></trkpt><trkpt lat="42.6787378" lon="12.6290519"><ele>621.0</ele><time>2026-04-25T11:37:39.546Z</time></trkpt><trkpt lat="42.6788101" lon="12.6290972"><ele>621.0</ele><time>2026-04-25T11:37:40.548Z</time></trkpt><trkpt lat="42.6788813" lon="12.6291444"><ele>621.0</ele><time>2026-04-25T11:37:41.547Z</time></trkpt><trkpt lat="42.6789389" lon="12.6291808"><ele>621.0</ele><time>2026-04-25T11:37:42.555Z</time></trkpt><trkpt lat="42.6789985" lon="12.6292173"><ele>621.0</ele><time>2026-04-25T11:37:43.545Z</time></trkpt><trkpt lat="42.6790574" lon="12.6292499"><ele>621.0</ele><time>2026-04-25T11:37:44.547Z</time></trkpt><trkpt lat="42.6791703" lon="12.6292967"><ele>621.0</ele><time>2026-04-25T11:37:46.544Z</time></trkpt><trkpt lat="42.679264" lon="12.6293367"><ele>621.0</ele><time>2026-04-25T11:37:48.546Z</time></trkpt><trkpt lat="42.679349" lon="12.629354"><ele>621.0</ele><time>2026-04-25T11:37:50.547Z</time></trkpt><trkpt lat="42.6794289" lon="12.6293537"><ele>621.0</ele><time>2026-04-25T11:37:52.542Z</time></trkpt><trkpt lat="42.6795073" lon="12.6293461"><ele>621.0</ele><time>2026-04-25T11:37:54.552Z</time></trkpt><trkpt lat="42.6795885" lon="12.6293438"><ele>621.0</ele><time>2026-04-25T11:37:57.555Z</time></trkpt><trkpt lat="42.6796451" lon="12.6293893"><ele>621.0</ele><time>2026-04-25T11:38:01.551Z</time></trkpt><trkpt lat="42.6795686" lon="12.6294383"><ele>621.0</ele><time>2026-04-25T11:38:08.544Z</time></trkpt><trkpt lat="42.679476" lon="12.6294441"><ele>621.0</ele><time>2026-04-25T11:38:11.545Z</time></trkpt><trkpt lat="42.679383" lon="12.629441"><ele>621.0</ele><time>2026-04-25T11:38:13.547Z</time></trkpt><trkpt lat="42.6792677" lon="12.6294388"><ele>621.0</ele><time>2026-04-25T11:38:15.541Z</time></trkpt><trkpt lat="42.6791409" lon="12.6294201"><ele>620.9999999999999</ele><time>2026-04-25T11:38:17.551Z</time></trkpt><trkpt lat="42.6790667" lon="12.6294152"><ele>621.0</ele><time>2026-04-25T11:38:18.555Z</time></trkpt><trkpt lat="42.6789882" lon="12.6294006"><ele>621.0</ele><time>2026-04-25T11:38:19.546Z</time></trkpt><trkpt lat="42.6789196" lon="12.6293965"><ele>621.0</ele><time>2026-04-25T11:38:20.567Z</time></trkpt><trkpt lat="42.6788528" lon="12.6293972"><ele>621.0</ele><time>2026-04-25T11:38:21.546Z</time></trkpt><trkpt lat="42.6787835" lon="12.629393"><ele>620.9999999999999</ele><time>2026-04-25T11:38:22.547Z</time></trkpt><trkpt lat="42.6787029" lon="12.6293785"><ele>621.0</ele><time>2026-04-25T11:38:23.547Z</time></trkpt><trkpt lat="42.6786258" lon="12.6293669"><ele>619.5</ele><time>2026-04-25T11:38:24.557Z</time></trkpt><trkpt lat="42.6785432" lon="12.6293559"><ele>618.0</ele><time>2026-04-25T11:38:25.545Z</time></trkpt><trkpt lat="42.6784593" lon="12.6293425"><ele>616.5</ele><time>2026-04-25T11:38:26.546Z</time></trkpt><trkpt lat="42.6783709" lon="12.6293272"><ele>615.0</ele><time>2026-04-25T11:38:27.568Z</time></trkpt><trkpt lat="42.6782799" lon="12.629309"><ele>613.5</ele><time>2026-04-25T11:38:28.539Z</time></trkpt><trkpt lat="42.678186" lon="12.6293018"><ele>612.0</ele><time>2026-04-25T11:38:29.545Z</time></trkpt><trkpt lat="42.6780917" lon="12.6292889"><ele>612.0</ele><time>2026-04-25T11:38:30.552Z</time></trkpt><trkpt lat="42.6779977" lon="12.6292873"><ele>612.0</ele><time>2026-04-25T11:38:31.563Z</time></trkpt><trkpt lat="42.6779101" lon="12.6292929"><ele>612.0</ele><time>2026-04-25T11:38:32.531Z</time></trkpt><trkpt lat="42.6778185" lon="12.6293111"><ele>612.0</ele><time>2026-04-25T11:38:33.545Z</time></trkpt><trkpt lat="42.6777303" lon="12.6293549"><ele>612.0</ele><time>2026-04-25T11:38:34.533Z</time></trkpt><trkpt lat="42.6776421" lon="12.6294163"><ele>606.6</ele><time>2026-04-25T11:38:35.544Z</time></trkpt><trkpt lat="42.6775582" lon="12.6294956"><ele>601.2</ele><time>2026-04-25T11:38:36.546Z</time></trkpt><trkpt lat="42.6774779" lon="12.6295655"><ele>595.8</ele><time>2026-04-25T11:38:37.557Z</time></trkpt><trkpt lat="42.6773967" lon="12.6296077"><ele>590.4</ele><time>2026-04-25T11:38:38.546Z</time></trkpt><trkpt lat="42.6773155" lon="12.6296412"><ele>585.0</ele><time>2026-04-25T11:38:39.573Z</time></trkpt><trkpt lat="42.6772336" lon="12.6296699"><ele>585.0</ele><time>2026-04-25T11:38:40.548Z</time></trkpt><trkpt lat="42.677161" lon="12.629725"><ele>585.0</ele><time>2026-04-25T11:38:41.555Z</time></trkpt><trkpt lat="42.6771108" lon="12.629809"><ele>585.0</ele><time>2026-04-25T11:38:42.543Z</time></trkpt><trkpt lat="42.6770914" lon="12.6299217"><ele>585.0</ele><time>2026-04-25T11:38:43.544Z</time></trkpt><trkpt lat="42.6770912" lon="12.6300324"><ele>585.0</ele><time>2026-04-25T11:38:44.547Z</time></trkpt><trkpt lat="42.6770939" lon="12.6301395"><ele>585.0</ele><time>2026-04-25T11:38:45.544Z</time></trkpt><trkpt lat="42.6770852" lon="12.6302488"><ele>583.6666666666666</ele><time>2026-04-25T11:38:46.541Z</time></trkpt><trkpt lat="42.6770683" lon="12.6303389"><ele>582.3333333333334</ele><time>2026-04-25T11:38:47.554Z</time></trkpt><trkpt lat="42.6770264" lon="12.6304032"><ele>581.0</ele><time>2026-04-25T11:38:48.545Z</time></trkpt><trkpt lat="42.6769698" lon="12.6304693"><ele>579.6666666666667</ele><time>2026-04-25T11:38:49.546Z</time></trkpt><trkpt lat="42.6769078" lon="12.6305352"><ele>578.3333333333334</ele><time>2026-04-25T11:38:50.545Z</time></trkpt><trkpt lat="42.6768318" lon="12.6306187"><ele>577.0</ele><time>2026-04-25T11:38:51.548Z</time></trkpt><trkpt lat="42.6767624" lon="12.6307054"><ele>577.0</ele><time>2026-04-25T11:38:52.542Z</time></trkpt><trkpt lat="42.6766895" lon="12.6308026"><ele>577.0</ele><time>2026-04-25T11:38:53.546Z</time></trkpt><trkpt lat="42.6766173" lon="12.6308881"><ele>577.0</ele><time>2026-04-25T11:38:54.548Z</time></trkpt><trkpt lat="42.6765444" lon="12.6309638"><ele>577.0</ele><time>2026-04-25T11:38:55.543Z</time></trkpt><trkpt lat="42.6764684" lon="12.6310228"><ele>577.0</ele><time>2026-04-25T11:38:56.548Z</time></trkpt><trkpt lat="42.6763828" lon="12.6310689"><ele>577.0</ele><time>2026-04-25T11:38:57.567Z</time></trkpt><trkpt lat="42.6762862" lon="12.6310916"><ele>577.0</ele><time>2026-04-25T11:38:58.545Z</time></trkpt><trkpt lat="42.6761913" lon="12.631095"><ele>577.0</ele><time>2026-04-25T11:38:59.543Z</time></trkpt><trkpt lat="42.6760943" lon="12.631099"><ele>577.0</ele><time>2026-04-25T11:39:00.544Z</time></trkpt><trkpt lat="42.6759974" lon="12.631091"><ele>577.0</ele><time>2026-04-25T11:39:01.553Z</time></trkpt><trkpt lat="42.6758982" lon="12.6310686"><ele>576.4</ele><time>2026-04-25T11:39:02.553Z</time></trkpt><trkpt lat="42.6757976" lon="12.6310588"><ele>575.8000000000001</ele><time>2026-04-25T11:39:03.543Z</time></trkpt><trkpt lat="42.6757053" lon="12.6310439"><ele>575.2</ele><time>2026-04-25T11:39:04.542Z</time></trkpt><trkpt lat="42.6756144" lon="12.6310185"><ele>574.6</ele><time>2026-04-25T11:39:05.541Z</time></trkpt><trkpt lat="42.6755245" lon="12.6309817"><ele>574.0</ele><time>2026-04-25T11:39:06.548Z</time></trkpt><trkpt lat="42.6754325" lon="12.6309439"><ele>574.0</ele><time>2026-04-25T11:39:07.544Z</time></trkpt><trkpt lat="42.6753318" lon="12.6309165"><ele>574.0</ele><time>2026-04-25T11:39:08.547Z</time></trkpt><trkpt lat="42.6752219" lon="12.630908"><ele>574.0</ele><time>2026-04-25T11:39:09.538Z</time></trkpt><trkpt lat="42.6751118" lon="12.6309014"><ele>574.0</ele><time>2026-04-25T11:39:10.549Z</time></trkpt><trkpt lat="42.6750196" lon="12.6308692"><ele>574.0</ele><time>2026-04-25T11:39:11.553Z</time></trkpt><trkpt lat="42.6749306" lon="12.6308256"><ele>570.6</ele><time>2026-04-25T11:39:12.539Z</time></trkpt><trkpt lat="42.6748369" lon="12.6307922"><ele>567.2</ele><time>2026-04-25T11:39:13.546Z</time></trkpt><trkpt lat="42.6747399" lon="12.6307746"><ele>563.8000000000001</ele><time>2026-04-25T11:39:14.545Z</time></trkpt><trkpt lat="42.6746474" lon="12.6307635"><ele>560.4</ele><time>2026-04-25T11:39:15.547Z</time></trkpt><trkpt lat="42.6745555" lon="12.6307404"><ele>557.0</ele><time>2026-04-25T11:39:16.542Z</time></trkpt><trkpt lat="42.6744759" lon="12.6307173"><ele>557.8333333333333</ele><time>2026-04-25T11:39:17.548Z</time></trkpt><trkpt lat="42.6744054" lon="12.6306799"><ele>558.6666666666666</ele><time>2026-04-25T11:39:18.588Z</time></trkpt><trkpt lat="42.6743409" lon="12.6306386"><ele>559.5</ele><time>2026-04-25T11:39:19.542Z</time></trkpt><trkpt lat="42.6742843" lon="12.6305625"><ele>560.3333333333334</ele><time>2026-04-25T11:39:20.554Z</time></trkpt><trkpt lat="42.6742387" lon="12.6304679"><ele>561.1666666666667</ele><time>2026-04-25T11:39:21.542Z</time></trkpt><trkpt lat="42.6742059" lon="12.6303694"><ele>562.0</ele><time>2026-04-25T11:39:22.54Z</time></trkpt><trkpt lat="42.6741693" lon="12.6302592"><ele>562.0000000000001</ele><time>2026-04-25T11:39:23.571Z</time></trkpt><trkpt lat="42.6741208" lon="12.6301876"><ele>562.0</ele><time>2026-04-25T11:39:24.543Z</time></trkpt><trkpt lat="42.6740503" lon="12.6301579"><ele>562.0</ele><time>2026-04-25T11:39:25.546Z</time></trkpt><trkpt lat="42.6739812" lon="12.6301721"><ele>562.0</ele><time>2026-04-25T11:39:26.542Z</time></trkpt><trkpt lat="42.6739133" lon="12.6302194"><ele>562.0</ele><time>2026-04-25T11:39:27.544Z</time></trkpt><trkpt lat="42.6738497" lon="12.6302732"><ele>562.0000000000001</ele><time>2026-04-25T11:39:28.541Z</time></trkpt><trkpt lat="42.6737866" lon="12.6303037"><ele>562.0</ele><time>2026-04-25T11:39:29.546Z</time></trkpt><trkpt lat="42.6737129" lon="12.6303012"><ele>562.0</ele><time>2026-04-25T11:39:30.541Z</time></trkpt><trkpt lat="42.67365" lon="12.6302604"><ele>562.0</ele><time>2026-04-25T11:39:31.542Z</time></trkpt><trkpt lat="42.6735893" lon="12.6301927"><ele>562.0</ele><time>2026-04-25T11:39:32.547Z</time></trkpt><trkpt lat="42.6735292" lon="12.6301156"><ele>562.0</ele><time>2026-04-25T11:39:33.546Z</time></trkpt><trkpt lat="42.6734647" lon="12.6300569"><ele>562.0</ele><time>2026-04-25T11:39:34.545Z</time></trkpt><trkpt lat="42.6733714" lon="12.6300736"><ele>562.0</ele><time>2026-04-25T11:39:35.548Z</time></trkpt><trkpt lat="42.6732657" lon="12.6301017"><ele>559.4</ele><time>2026-04-25T11:39:36.552Z</time></trkpt><trkpt lat="42.6731557" lon="12.6301153"><ele>556.8000000000001</ele><time>2026-04-25T11:39:37.541Z</time></trkpt><trkpt lat="42.6730472" lon="12.6301238"><ele>554.2</ele><time>2026-04-25T11:39:38.549Z</time></trkpt><trkpt lat="42.6729443" lon="12.6301449"><ele>551.6</ele><time>2026-04-25T11:39:39.542Z</time></trkpt><trkpt lat="42.672836" lon="12.6301921"><ele>549.0</ele><time>2026-04-25T11:39:40.546Z</time></trkpt><trkpt lat="42.6727423" lon="12.6302508"><ele>543.6</ele><time>2026-04-25T11:39:41.54Z</time></trkpt><trkpt lat="42.6726534" lon="12.6303181"><ele>538.2</ele><time>2026-04-25T11:39:42.548Z</time></trkpt><trkpt lat="42.6725726" lon="12.6303839"><ele>532.8000000000001</ele><time>2026-04-25T11:39:43.542Z</time></trkpt><trkpt lat="42.6724952" lon="12.6304442"><ele>527.4</ele><time>2026-04-25T11:39:44.551Z</time></trkpt><trkpt lat="42.6724161" lon="12.6304793"><ele>522.0</ele><time>2026-04-25T11:39:45.537Z</time></trkpt><trkpt lat="42.6723351" lon="12.6305031"><ele>522.0</ele><time>2026-04-25T11:39:46.574Z</time></trkpt><trkpt lat="42.6722541" lon="12.6304977"><ele>522.0</ele><time>2026-04-25T11:39:47.563Z</time></trkpt><trkpt lat="42.6721791" lon="12.6304866"><ele>522.0</ele><time>2026-04-25T11:39:48.548Z</time></trkpt><trkpt lat="42.6721052" lon="12.6304686"><ele>522.0</ele><time>2026-04-25T11:39:49.548Z</time></trkpt><trkpt lat="42.6720228" lon="12.6304445"><ele>522.0</ele><time>2026-04-25T11:39:50.548Z</time></trkpt><trkpt lat="42.6719247" lon="12.6304216"><ele>522.0</ele><time>2026-04-25T11:39:51.546Z</time></trkpt><trkpt lat="42.6718239" lon="12.6304111"><ele>520.2</ele><time>2026-04-25T11:39:52.544Z</time></trkpt><trkpt lat="42.6717192" lon="12.630402"><ele>518.4000000000001</ele><time>2026-04-25T11:39:53.544Z</time></trkpt><trkpt lat="42.6716186" lon="12.6303823"><ele>516.5999999999999</ele><time>2026-04-25T11:39:54.544Z</time></trkpt><trkpt lat="42.6715196" lon="12.6303389"><ele>514.8</ele><time>2026-04-25T11:39:55.555Z</time></trkpt><trkpt lat="42.6714086" lon="12.6302939"><ele>513.0</ele><time>2026-04-25T11:39:56.545Z</time></trkpt><trkpt lat="42.6713" lon="12.6302401"><ele>515.0</ele><time>2026-04-25T11:39:57.544Z</time></trkpt><trkpt lat="42.6711951" lon="12.6302018"><ele>517.0</ele><time>2026-04-25T11:39:58.544Z</time></trkpt><trkpt lat="42.6710929" lon="12.630172"><ele>519.0</ele><time>2026-04-25T11:39:59.544Z</time></trkpt><trkpt lat="42.670989" lon="12.6301557"><ele>521.0</ele><time>2026-04-25T11:40:00.55Z</time></trkpt><trkpt lat="42.6708748" lon="12.6301554"><ele>523.0</ele><time>2026-04-25T11:40:01.538Z</time></trkpt><trkpt lat="42.6707492" lon="12.6301558"><ele>523.0</ele><time>2026-04-25T11:40:02.549Z</time></trkpt><trkpt lat="42.6706303" lon="12.6301715"><ele>523.0</ele><time>2026-04-25T11:40:03.546Z</time></trkpt><trkpt lat="42.6705166" lon="12.6301959"><ele>523.0</ele><time>2026-04-25T11:40:04.541Z</time></trkpt><trkpt lat="42.6704064" lon="12.6302203"><ele>523.0</ele><time>2026-04-25T11:40:05.545Z</time></trkpt><trkpt lat="42.6702957" lon="12.6302572"><ele>519.75</ele><time>2026-04-25T11:40:06.539Z</time></trkpt><trkpt lat="42.670186" lon="12.6302917"><ele>516.5</ele><time>2026-04-25T11:40:07.544Z</time></trkpt><trkpt lat="42.670073" lon="12.6303254"><ele>513.25</ele><time>2026-04-25T11:40:08.546Z</time></trkpt><trkpt lat="42.669959" lon="12.6303501"><ele>510.0</ele><time>2026-04-25T11:40:09.539Z</time></trkpt><trkpt lat="42.6698449" lon="12.6303858"><ele>507.3333333333333</ele><time>2026-04-25T11:40:10.546Z</time></trkpt><trkpt lat="42.6697445" lon="12.6304183"><ele>504.66666666666663</ele><time>2026-04-25T11:40:11.541Z</time></trkpt><trkpt lat="42.6696588" lon="12.6304596"><ele>502.0</ele><time>2026-04-25T11:40:12.545Z</time></trkpt><trkpt lat="42.6695731" lon="12.6305056"><ele>499.3333333333333</ele><time>2026-04-25T11:40:13.555Z</time></trkpt><trkpt lat="42.6694957" lon="12.6305528"><ele>496.66666666666663</ele><time>2026-04-25T11:40:14.55Z</time></trkpt><trkpt lat="42.6694263" lon="12.6305838"><ele>494.0</ele><time>2026-04-25T11:40:15.549Z</time></trkpt><trkpt lat="42.6693524" lon="12.6305769"><ele>492.16666666666663</ele><time>2026-04-25T11:40:16.545Z</time></trkpt><trkpt lat="42.6692886" lon="12.6305569"><ele>490.3333333333333</ele><time>2026-04-25T11:40:17.543Z</time></trkpt><trkpt lat="42.6692264" lon="12.6304545"><ele>488.5</ele><time>2026-04-25T11:40:19.548Z</time></trkpt><trkpt lat="42.6692436" lon="12.6302824"><ele>486.66666666666663</ele><time>2026-04-25T11:40:21.543Z</time></trkpt><trkpt lat="42.6692822" lon="12.6302146"><ele>484.8333333333333</ele><time>2026-04-25T11:40:22.54Z</time></trkpt><trkpt lat="42.6693414" lon="12.630129"><ele>483.0</ele><time>2026-04-25T11:40:23.538Z</time></trkpt><trkpt lat="42.6694076" lon="12.6299994"><ele>489.25</ele><time>2026-04-25T11:40:24.542Z</time></trkpt><trkpt lat="42.6694604" lon="12.6298231"><ele>495.5</ele><time>2026-04-25T11:40:25.537Z</time></trkpt><trkpt lat="42.6694936" lon="12.629661"><ele>501.75</ele><time>2026-04-25T11:40:26.543Z</time></trkpt><trkpt lat="42.6695192" lon="12.6295156"><ele>508.0</ele><time>2026-04-25T11:40:27.541Z</time></trkpt><trkpt lat="42.6695488" lon="12.6293761"><ele>508.00000000000006</ele><time>2026-04-25T11:40:28.542Z</time></trkpt><trkpt lat="42.6695756" lon="12.6292528"><ele>508.0</ele><time>2026-04-25T11:40:29.564Z</time></trkpt><trkpt lat="42.6696035" lon="12.6291728"><ele>508.0</ele><time>2026-04-25T11:40:30.545Z</time></trkpt><trkpt lat="42.6696046" lon="12.6290398"><ele>508.0</ele><time>2026-04-25T11:40:32.548Z</time></trkpt><trkpt lat="42.6695197" lon="12.6290087"><ele>508.00000000000006</ele><time>2026-04-25T11:40:34.541Z</time></trkpt><trkpt lat="42.6694446" lon="12.6290988"><ele>508.0</ele><time>2026-04-25T11:40:36.548Z</time></trkpt><trkpt lat="42.6694171" lon="12.62918"><ele>503.0</ele><time>2026-04-25T11:40:37.538Z</time></trkpt><trkpt lat="42.6693545" lon="12.6293381"><ele>497.99999999999994</ele><time>2026-04-25T11:40:39.543Z</time></trkpt><trkpt lat="42.6693081" lon="12.629446"><ele>492.99999999999994</ele><time>2026-04-25T11:40:40.546Z</time></trkpt><trkpt lat="42.6692643" lon="12.6295448"><ele>488.0</ele><time>2026-04-25T11:40:41.547Z</time></trkpt><trkpt lat="42.6692195" lon="12.629638"><ele>483.0</ele><time>2026-04-25T11:40:42.543Z</time></trkpt><trkpt lat="42.6691674" lon="12.6297233"><ele>483.0</ele><time>2026-04-25T11:40:43.539Z</time></trkpt><trkpt lat="42.669109" lon="12.6298039"><ele>482.99999999999994</ele><time>2026-04-25T11:40:44.539Z</time></trkpt><trkpt lat="42.6690324" lon="12.6298723"><ele>482.99999999999994</ele><time>2026-04-25T11:40:45.545Z</time></trkpt><trkpt lat="42.6689473" lon="12.6299431"><ele>483.0</ele><time>2026-04-25T11:40:46.611Z</time></trkpt><trkpt lat="42.6688397" lon="12.6300212"><ele>483.0</ele><time>2026-04-25T11:40:47.543Z</time></trkpt><trkpt lat="42.6687013" lon="12.6301041"><ele>479.25</ele><time>2026-04-25T11:40:48.571Z</time></trkpt><trkpt lat="42.6685612" lon="12.6301747"><ele>475.5</ele><time>2026-04-25T11:40:49.546Z</time></trkpt><trkpt lat="42.668422" lon="12.6302381"><ele>471.75</ele><time>2026-04-25T11:40:50.543Z</time></trkpt><trkpt lat="42.6683057" lon="12.6302797"><ele>468.0</ele><time>2026-04-25T11:40:51.536Z</time></trkpt><trkpt lat="42.6681961" lon="12.6303201"><ele>467.1666666666667</ele><time>2026-04-25T11:40:52.544Z</time></trkpt><trkpt lat="42.6680952" lon="12.6303617"><ele>466.33333333333337</ele><time>2026-04-25T11:40:53.559Z</time></trkpt><trkpt lat="42.6680114" lon="12.6304078"><ele>465.5</ele><time>2026-04-25T11:40:54.543Z</time></trkpt><trkpt lat="42.6679556" lon="12.6304657"><ele>464.6666666666667</ele><time>2026-04-25T11:40:55.543Z</time></trkpt><trkpt lat="42.6679171" lon="12.6305349"><ele>463.83333333333337</ele><time>2026-04-25T11:40:56.542Z</time></trkpt><trkpt lat="42.6678948" lon="12.6306264"><ele>463.0</ele><time>2026-04-25T11:40:57.543Z</time></trkpt><trkpt lat="42.6678704" lon="12.6307262"><ele>463.0</ele><time>2026-04-25T11:40:58.548Z</time></trkpt><trkpt lat="42.6678456" lon="12.6308305"><ele>462.99999999999994</ele><time>2026-04-25T11:40:59.55Z</time></trkpt><trkpt lat="42.6678234" lon="12.6309522"><ele>462.99999999999994</ele><time>2026-04-25T11:41:00.549Z</time></trkpt><trkpt lat="42.6677971" lon="12.631077"><ele>463.0</ele><time>2026-04-25T11:41:01.547Z</time></trkpt><trkpt lat="42.6677673" lon="12.6312003"><ele>463.0</ele><time>2026-04-25T11:41:02.555Z</time></trkpt><trkpt lat="42.6677348" lon="12.631326"><ele>461.2</ele><time>2026-04-25T11:41:03.547Z</time></trkpt><trkpt lat="42.6676938" lon="12.6314522"><ele>459.4</ele><time>2026-04-25T11:41:04.55Z</time></trkpt><trkpt lat="42.6676358" lon="12.6315725"><ele>457.59999999999997</ele><time>2026-04-25T11:41:05.546Z</time></trkpt><trkpt lat="42.6675747" lon="12.6316957"><ele>455.79999999999995</ele><time>2026-04-25T11:41:06.579Z</time></trkpt><trkpt lat="42.667513" lon="12.631813"><ele>454.0</ele><time>2026-04-25T11:41:07.548Z</time></trkpt><trkpt lat="42.6674546" lon="12.6319286"><ele>452.79999999999995</ele><time>2026-04-25T11:41:08.544Z</time></trkpt><trkpt lat="42.6673972" lon="12.6320541"><ele>451.59999999999997</ele><time>2026-04-25T11:41:09.546Z</time></trkpt><trkpt lat="42.6673345" lon="12.6321754"><ele>450.4</ele><time>2026-04-25T11:41:10.537Z</time></trkpt><trkpt lat="42.6672781" lon="12.6322918"><ele>449.2</ele><time>2026-04-25T11:41:11.544Z</time></trkpt><trkpt lat="42.6672215" lon="12.6324055"><ele>448.0</ele><time>2026-04-25T11:41:12.542Z</time></trkpt><trkpt lat="42.66717" lon="12.6325077"><ele>448.00000000000006</ele><time>2026-04-25T11:41:13.545Z</time></trkpt><trkpt lat="42.6671185" lon="12.6326012"><ele>448.0</ele><time>2026-04-25T11:41:14.545Z</time></trkpt><trkpt lat="42.6670697" lon="12.6326808"><ele>448.0</ele><time>2026-04-25T11:41:15.543Z</time></trkpt><trkpt lat="42.6670298" lon="12.632757"><ele>448.0</ele><time>2026-04-25T11:41:16.548Z</time></trkpt><trkpt lat="42.6669555" lon="12.632823"><ele>448.00000000000006</ele><time>2026-04-25T11:41:18.545Z</time></trkpt><trkpt lat="42.6668582" lon="12.632829"><ele>448.0</ele><time>2026-04-25T11:41:21.545Z</time></trkpt><trkpt lat="42.6667726" lon="12.6327841"><ele>446.79999999999995</ele><time>2026-04-25T11:41:23.55Z</time></trkpt><trkpt lat="42.6666535" lon="12.6327142"><ele>445.59999999999997</ele><time>2026-04-25T11:41:25.542Z</time></trkpt><trkpt lat="42.6665274" lon="12.6326834"><ele>444.40000000000003</ele><time>2026-04-25T11:41:27.55Z</time></trkpt><trkpt lat="42.6664611" lon="12.6326868"><ele>443.20000000000005</ele><time>2026-04-25T11:41:28.543Z</time></trkpt><trkpt lat="42.6663527" lon="12.6327015"><ele>442.0</ele><time>2026-04-25T11:41:30.556Z</time></trkpt><trkpt lat="42.6662854" lon="12.632665"><ele>442.0</ele><time>2026-04-25T11:41:32.569Z</time></trkpt><trkpt lat="42.6662746" lon="12.6325613"><ele>442.00000000000006</ele><time>2026-04-25T11:41:34.573Z</time></trkpt><trkpt lat="42.6662737" lon="12.6323922"><ele>442.00000000000006</ele><time>2026-04-25T11:41:36.552Z</time></trkpt><trkpt lat="42.6663117" lon="12.6322773"><ele>442.0</ele><time>2026-04-25T11:41:38.555Z</time></trkpt><trkpt lat="42.6663119" lon="12.6321655"><ele>442.0</ele><time>2026-04-25T11:41:40.551Z</time></trkpt><trkpt lat="42.6663184" lon="12.6320199"><ele>442.25</ele><time>2026-04-25T11:41:42.549Z</time></trkpt><trkpt lat="42.6662834" lon="12.6318644"><ele>442.5</ele><time>2026-04-25T11:41:44.554Z</time></trkpt><trkpt lat="42.6661583" lon="12.6317907"><ele>442.75</ele><time>2026-04-25T11:41:46.551Z</time></trkpt><trkpt lat="42.6660604" lon="12.6317657"><ele>443.0</ele><time>2026-04-25T11:41:47.55Z</time></trkpt><trkpt lat="42.6659474" lon="12.6317569"><ele>442.3333333333333</ele><time>2026-04-25T11:41:48.555Z</time></trkpt><trkpt lat="42.6658398" lon="12.6317382"><ele>441.66666666666663</ele><time>2026-04-25T11:41:49.563Z</time></trkpt><trkpt lat="42.6657489" lon="12.6317238"><ele>441.0</ele><time>2026-04-25T11:41:50.556Z</time></trkpt><trkpt lat="42.6656765" lon="12.631704"><ele>440.33333333333337</ele><time>2026-04-25T11:41:51.549Z</time></trkpt><trkpt lat="42.6656093" lon="12.6316842"><ele>439.6666666666667</ele><time>2026-04-25T11:41:52.563Z</time></trkpt><trkpt lat="42.6655346" lon="12.6316827"><ele>439.0</ele><time>2026-04-25T11:41:53.549Z</time></trkpt><trkpt lat="42.6654445" lon="12.6317303"><ele>439.0</ele><time>2026-04-25T11:41:54.576Z</time></trkpt><trkpt lat="42.6653449" lon="12.6318095"><ele>439.0</ele><time>2026-04-25T11:41:55.547Z</time></trkpt><trkpt lat="42.6652369" lon="12.6319112"><ele>439.0</ele><time>2026-04-25T11:41:56.554Z</time></trkpt><trkpt lat="42.6651204" lon="12.631971"><ele>439.0</ele><time>2026-04-25T11:41:57.546Z</time></trkpt><trkpt lat="42.6650157" lon="12.6320405"><ele>435.5</ele><time>2026-04-25T11:41:58.545Z</time></trkpt><trkpt lat="42.6648926" lon="12.632111"><ele>432.0</ele><time>2026-04-25T11:41:59.567Z</time></trkpt><trkpt lat="42.6647727" lon="12.6321797"><ele>428.5</ele><time>2026-04-25T11:42:00.549Z</time></trkpt><trkpt lat="42.664669" lon="12.632233"><ele>425.0</ele><time>2026-04-25T11:42:01.554Z</time></trkpt><trkpt lat="42.664568" lon="12.6322905"><ele>424.99999999999994</ele><time>2026-04-25T11:42:02.553Z</time></trkpt><trkpt lat="42.6644799" lon="12.6323344"><ele>425.0</ele><time>2026-04-25T11:42:03.55Z</time></trkpt><trkpt lat="42.6643985" lon="12.6323805"><ele>425.0</ele><time>2026-04-25T11:42:04.551Z</time></trkpt><trkpt lat="42.6643208" lon="12.6324096"><ele>425.0</ele><time>2026-04-25T11:42:05.553Z</time></trkpt><trkpt lat="42.6642411" lon="12.632426"><ele>424.99999999999994</ele><time>2026-04-25T11:42:06.55Z</time></trkpt><trkpt lat="42.6641633" lon="12.6324027"><ele>425.0</ele><time>2026-04-25T11:42:07.547Z</time></trkpt><trkpt lat="42.6640995" lon="12.6323783"><ele>425.16666666666663</ele><time>2026-04-25T11:42:08.545Z</time></trkpt><trkpt lat="42.6640185" lon="12.6323394"><ele>425.3333333333333</ele><time>2026-04-25T11:42:09.558Z</time></trkpt><trkpt lat="42.6639552" lon="12.6323492"><ele>425.5</ele><time>2026-04-25T11:42:10.547Z</time></trkpt><trkpt lat="42.6638554" lon="12.6323656"><ele>425.66666666666663</ele><time>2026-04-25T11:42:11.553Z</time></trkpt><trkpt lat="42.6637681" lon="12.6324182"><ele>425.8333333333333</ele><time>2026-04-25T11:42:12.551Z</time></trkpt><trkpt lat="42.6637059" lon="12.6325014"><ele>426.0</ele><time>2026-04-25T11:42:13.554Z</time></trkpt><trkpt lat="42.6636493" lon="12.6325947"><ele>425.8</ele><time>2026-04-25T11:42:14.547Z</time></trkpt><trkpt lat="42.6635802" lon="12.6326808"><ele>425.6</ele><time>2026-04-25T11:42:15.548Z</time></trkpt><trkpt lat="42.6634912" lon="12.6327709"><ele>425.4</ele><time>2026-04-25T11:42:16.547Z</time></trkpt><trkpt lat="42.66338" lon="12.6328392"><ele>425.2</ele><time>2026-04-25T11:42:17.542Z</time></trkpt><trkpt lat="42.6632701" lon="12.6329019"><ele>425.0</ele><time>2026-04-25T11:42:18.55Z</time></trkpt><trkpt lat="42.6631915" lon="12.6329637"><ele>422.6</ele><time>2026-04-25T11:42:19.546Z</time></trkpt><trkpt lat="42.6631212" lon="12.6330346"><ele>420.2</ele><time>2026-04-25T11:42:20.551Z</time></trkpt><trkpt lat="42.6630675" lon="12.6331467"><ele>417.79999999999995</ele><time>2026-04-25T11:42:21.55Z</time></trkpt><trkpt lat="42.6630241" lon="12.6332853"><ele>415.4</ele><time>2026-04-25T11:42:22.548Z</time></trkpt><trkpt lat="42.6629842" lon="12.6334375"><ele>413.0</ele><time>2026-04-25T11:42:23.575Z</time></trkpt><trkpt lat="42.6629275" lon="12.633609"><ele>412.75</ele><time>2026-04-25T11:42:24.556Z</time></trkpt><trkpt lat="42.6628736" lon="12.6337899"><ele>412.5</ele><time>2026-04-25T11:42:25.552Z</time></trkpt><trkpt lat="42.6628149" lon="12.6339354"><ele>412.25</ele><time>2026-04-25T11:42:26.554Z</time></trkpt><trkpt lat="42.6627643" lon="12.6340684"><ele>412.0</ele><time>2026-04-25T11:42:27.549Z</time></trkpt><trkpt lat="42.6627192" lon="12.6341824"><ele>412.0</ele><time>2026-04-25T11:42:28.555Z</time></trkpt><trkpt lat="42.6626529" lon="12.6343049"><ele>412.0</ele><time>2026-04-25T11:42:29.549Z</time></trkpt><trkpt lat="42.6625785" lon="12.6344153"><ele>412.0</ele><time>2026-04-25T11:42:30.561Z</time></trkpt><trkpt lat="42.6624944" lon="12.6345115"><ele>412.0</ele><time>2026-04-25T11:42:31.553Z</time></trkpt><trkpt lat="42.6624079" lon="12.6345928"><ele>412.0</ele><time>2026-04-25T11:42:32.544Z</time></trkpt><trkpt lat="42.6623457" lon="12.6346305"><ele>409.1666666666667</ele><time>2026-04-25T11:42:33.552Z</time></trkpt><trkpt lat="42.6622533" lon="12.6346599"><ele>406.33333333333337</ele><time>2026-04-25T11:42:34.551Z</time></trkpt><trkpt lat="42.6621562" lon="12.6346689"><ele>403.5</ele><time>2026-04-25T11:42:35.549Z</time></trkpt><trkpt lat="42.6620914" lon="12.6346384"><ele>400.66666666666663</ele><time>2026-04-25T11:42:36.547Z</time></trkpt><trkpt lat="42.6620176" lon="12.634584"><ele>397.8333333333333</ele><time>2026-04-25T11:42:37.552Z</time></trkpt><trkpt lat="42.6619529" lon="12.6344989"><ele>395.0</ele><time>2026-04-25T11:42:38.545Z</time></trkpt><trkpt lat="42.6618772" lon="12.6343848"><ele>395.0</ele><time>2026-04-25T11:42:39.543Z</time></trkpt><trkpt lat="42.6618348" lon="12.6342731"><ele>395.0</ele><time>2026-04-25T11:42:40.546Z</time></trkpt><trkpt lat="42.661812" lon="12.6341491"><ele>395.0</ele><time>2026-04-25T11:42:41.549Z</time></trkpt><trkpt lat="42.6618001" lon="12.6340198"><ele>395.0</ele><time>2026-04-25T11:42:42.55Z</time></trkpt><trkpt lat="42.6618" lon="12.6339037"><ele>395.0</ele><time>2026-04-25T11:42:43.55Z</time></trkpt><trkpt lat="42.6617945" lon="12.6337727"><ele>395.0</ele><time>2026-04-25T11:42:44.548Z</time></trkpt><trkpt lat="42.6617535" lon="12.6336585"><ele>395.0</ele><time>2026-04-25T11:42:45.553Z</time></trkpt><trkpt lat="42.6616769" lon="12.6335702"><ele>395.0</ele><time>2026-04-25T11:42:46.549Z</time></trkpt><trkpt lat="42.6615986" lon="12.6334945"><ele>395.0</ele><time>2026-04-25T11:42:47.551Z</time></trkpt><trkpt lat="42.6615251" lon="12.6334275"><ele>395.0</ele><time>2026-04-25T11:42:48.549Z</time></trkpt><trkpt lat="42.6614377" lon="12.6333345"><ele>394.99999999999994</ele><time>2026-04-25T11:42:49.551Z</time></trkpt><trkpt lat="42.6613756" lon="12.6332526"><ele>395.0</ele><time>2026-04-25T11:42:50.542Z</time></trkpt><trkpt lat="42.6613122" lon="12.6331746"><ele>395.0</ele><time>2026-04-25T11:42:51.547Z</time></trkpt><trkpt lat="42.6612351" lon="12.633155"><ele>395.0</ele><time>2026-04-25T11:42:52.553Z</time></trkpt><trkpt lat="42.6611431" lon="12.63317"><ele>394.99999999999994</ele><time>2026-04-25T11:42:53.549Z</time></trkpt><trkpt lat="42.6610661" lon="12.6332147"><ele>395.0</ele><time>2026-04-25T11:42:54.545Z</time></trkpt><trkpt lat="42.6610055" lon="12.6333144"><ele>391.25</ele><time>2026-04-25T11:42:55.546Z</time></trkpt><trkpt lat="42.660932" lon="12.6334486"><ele>387.5</ele><time>2026-04-25T11:42:56.552Z</time></trkpt><trkpt lat="42.6608535" lon="12.6335759"><ele>383.75</ele><time>2026-04-25T11:42:57.535Z</time></trkpt><trkpt lat="42.6607758" lon="12.6337081"><ele>380.0</ele><time>2026-04-25T11:42:58.541Z</time></trkpt><trkpt lat="42.660704" lon="12.6338402"><ele>379.8</ele><time>2026-04-25T11:42:59.541Z</time></trkpt><trkpt lat="42.6606346" lon="12.633963"><ele>379.6</ele><time>2026-04-25T11:43:00.545Z</time></trkpt><trkpt lat="42.6605604" lon="12.6340797"><ele>379.4</ele><time>2026-04-25T11:43:01.544Z</time></trkpt><trkpt lat="42.660497" lon="12.6341904"><ele>379.2</ele><time>2026-04-25T11:43:02.542Z</time></trkpt><trkpt lat="42.6604345" lon="12.6342913"><ele>379.0</ele><time>2026-04-25T11:43:03.537Z</time></trkpt><trkpt lat="42.6603786" lon="12.6343853"><ele>378.8333333333333</ele><time>2026-04-25T11:43:04.54Z</time></trkpt><trkpt lat="42.6603272" lon="12.6344845"><ele>378.66666666666663</ele><time>2026-04-25T11:43:05.537Z</time></trkpt><trkpt lat="42.6602774" lon="12.6345788"><ele>378.5</ele><time>2026-04-25T11:43:06.539Z</time></trkpt><trkpt lat="42.660245" lon="12.6346642"><ele>378.3333333333333</ele><time>2026-04-25T11:43:07.537Z</time></trkpt><trkpt lat="42.6602193" lon="12.6348013"><ele>378.1666666666667</ele><time>2026-04-25T11:43:09.545Z</time></trkpt><trkpt lat="42.6602147" lon="12.6348868"><ele>378.0</ele><time>2026-04-25T11:43:11.542Z</time></trkpt><trkpt lat="42.6602129" lon="12.6349834"><ele>377.79999999999995</ele><time>2026-04-25T11:43:35.543Z</time></trkpt><trkpt lat="42.6601856" lon="12.635115"><ele>377.6</ele><time>2026-04-25T11:43:38.54Z</time></trkpt><trkpt lat="42.6601539" lon="12.6352469"><ele>377.4</ele><time>2026-04-25T11:43:40.543Z</time></trkpt><trkpt lat="42.6600594" lon="12.6353589"><ele>377.20000000000005</ele><time>2026-04-25T11:43:42.545Z</time></trkpt><trkpt lat="42.6599934" lon="12.6354202"><ele>377.0</ele><time>2026-04-25T11:43:43.543Z</time></trkpt><trkpt lat="42.6599121" lon="12.6354884"><ele>376.8</ele><time>2026-04-25T11:43:44.539Z</time></trkpt><trkpt lat="42.6598343" lon="12.6355676"><ele>376.6</ele><time>2026-04-25T11:43:45.54Z</time></trkpt><trkpt lat="42.6597401" lon="12.6356274"><ele>376.40000000000003</ele><time>2026-04-25T11:43:46.55Z</time></trkpt><trkpt lat="42.6596367" lon="12.6356695"><ele>376.20000000000005</ele><time>2026-04-25T11:43:47.542Z</time></trkpt><trkpt lat="42.6595291" lon="12.6357017"><ele>376.0</ele><time>2026-04-25T11:43:48.544Z</time></trkpt><trkpt lat="42.6594229" lon="12.6357365"><ele>376.0</ele><time>2026-04-25T11:43:49.546Z</time></trkpt><trkpt lat="42.6593184" lon="12.6357643"><ele>376.0</ele><time>2026-04-25T11:43:50.549Z</time></trkpt><trkpt lat="42.6592141" lon="12.635798"><ele>376.0</ele><time>2026-04-25T11:43:51.543Z</time></trkpt><trkpt lat="42.659098" lon="12.6358239"><ele>376.0</ele><time>2026-04-25T11:43:52.541Z</time></trkpt><trkpt lat="42.6589748" lon="12.6358391"><ele>376.0</ele><time>2026-04-25T11:43:53.551Z</time></trkpt><trkpt lat="42.6588593" lon="12.6358449"><ele>376.0</ele><time>2026-04-25T11:43:54.542Z</time></trkpt><trkpt lat="42.658741" lon="12.6358424"><ele>376.0</ele><time>2026-04-25T11:43:55.564Z</time></trkpt><trkpt lat="42.6586083" lon="12.6358204"><ele>376.0</ele><time>2026-04-25T11:43:56.545Z</time></trkpt><trkpt lat="42.6584645" lon="12.6357935"><ele>374.75</ele><time>2026-04-25T11:43:57.539Z</time></trkpt><trkpt lat="42.658319" lon="12.635785"><ele>373.5</ele><time>2026-04-25T11:43:58.545Z</time></trkpt><trkpt lat="42.6581785" lon="12.635771"><ele>372.25</ele><time>2026-04-25T11:43:59.539Z</time></trkpt><trkpt lat="42.6580409" lon="12.6357596"><ele>371.0</ele><time>2026-04-25T11:44:00.545Z</time></trkpt><trkpt lat="42.6579151" lon="12.6357466"><ele>371.0</ele><time>2026-04-25T11:44:01.546Z</time></trkpt><trkpt lat="42.6577971" lon="12.6357327"><ele>371.0</ele><time>2026-04-25T11:44:02.535Z</time></trkpt><trkpt lat="42.657686" lon="12.6357231"><ele>371.0</ele><time>2026-04-25T11:44:03.539Z</time></trkpt><trkpt lat="42.6575912" lon="12.6357151"><ele>371.0</ele><time>2026-04-25T11:44:04.54Z</time></trkpt><trkpt lat="42.657496" lon="12.6357143"><ele>371.0</ele><time>2026-04-25T11:44:05.542Z</time></trkpt><trkpt lat="42.6574081" lon="12.6357132"><ele>370.0</ele><time>2026-04-25T11:44:06.541Z</time></trkpt><trkpt lat="42.6573186" lon="12.6357344"><ele>369.0</ele><time>2026-04-25T11:44:07.539Z</time></trkpt><trkpt lat="42.6572414" lon="12.6357904"><ele>368.0</ele><time>2026-04-25T11:44:08.542Z</time></trkpt><trkpt lat="42.657157" lon="12.6358627"><ele>367.0</ele><time>2026-04-25T11:44:09.542Z</time></trkpt><trkpt lat="42.6570591" lon="12.6359548"><ele>366.0</ele><time>2026-04-25T11:44:10.549Z</time></trkpt><trkpt lat="42.6569651" lon="12.6360676"><ele>365.0</ele><time>2026-04-25T11:44:11.544Z</time></trkpt><trkpt lat="42.6568792" lon="12.6361706"><ele>364.0</ele><time>2026-04-25T11:44:12.536Z</time></trkpt><trkpt lat="42.656789" lon="12.6362435"><ele>363.0</ele><time>2026-04-25T11:44:13.545Z</time></trkpt><trkpt lat="42.6566976" lon="12.6363034"><ele>362.0</ele><time>2026-04-25T11:44:14.576Z</time></trkpt><trkpt lat="42.6566083" lon="12.6363327"><ele>361.0</ele><time>2026-04-25T11:44:15.547Z</time></trkpt><trkpt lat="42.6565209" lon="12.6363308"><ele>361.0</ele><time>2026-04-25T11:44:16.541Z</time></trkpt><trkpt lat="42.656456" lon="12.6362945"><ele>361.0</ele><time>2026-04-25T11:44:17.545Z</time></trkpt><trkpt lat="42.6564021" lon="12.636238"><ele>361.0</ele><time>2026-04-25T11:44:18.54Z</time></trkpt><trkpt lat="42.6563364" lon="12.6361444"><ele>361.0</ele><time>2026-04-25T11:44:19.54Z</time></trkpt><trkpt lat="42.6562616" lon="12.6360527"><ele>361.0</ele><time>2026-04-25T11:44:20.548Z</time></trkpt><trkpt lat="42.6561677" lon="12.6359684"><ele>361.0</ele><time>2026-04-25T11:44:21.539Z</time></trkpt><trkpt lat="42.6560538" lon="12.635894"><ele>361.25</ele><time>2026-04-25T11:44:22.549Z</time></trkpt><trkpt lat="42.6559281" lon="12.6358391"><ele>361.5</ele><time>2026-04-25T11:44:23.553Z</time></trkpt><trkpt lat="42.6557957" lon="12.6357982"><ele>361.75</ele><time>2026-04-25T11:44:24.539Z</time></trkpt><trkpt lat="42.655656" lon="12.6357586"><ele>362.0</ele><time>2026-04-25T11:44:25.537Z</time></trkpt><trkpt lat="42.6555324" lon="12.6357267"><ele>362.0</ele><time>2026-04-25T11:44:26.549Z</time></trkpt><trkpt lat="42.6554166" lon="12.6356935"><ele>362.0</ele><time>2026-04-25T11:44:27.567Z</time></trkpt><trkpt lat="42.6553104" lon="12.6356651"><ele>362.0</ele><time>2026-04-25T11:44:28.546Z</time></trkpt><trkpt lat="42.6552177" lon="12.6356362"><ele>362.0</ele><time>2026-04-25T11:44:29.542Z</time></trkpt><trkpt lat="42.6551484" lon="12.6355976"><ele>362.0</ele><time>2026-04-25T11:44:30.542Z</time></trkpt><trkpt lat="42.6550688" lon="12.6354753"><ele>361.40000000000003</ele><time>2026-04-25T11:44:32.554Z</time></trkpt><trkpt lat="42.6550397" lon="12.6353859"><ele>360.8</ele><time>2026-04-25T11:44:33.541Z</time></trkpt><trkpt lat="42.6550063" lon="12.6352745"><ele>360.2</ele><time>2026-04-25T11:44:34.542Z</time></trkpt><trkpt lat="42.6549836" lon="12.6351088"><ele>359.6</ele><time>2026-04-25T11:44:35.545Z</time></trkpt><trkpt lat="42.6549518" lon="12.6349284"><ele>359.0</ele><time>2026-04-25T11:44:36.552Z</time></trkpt><trkpt lat="42.6549026" lon="12.6347471"><ele>360.5</ele><time>2026-04-25T11:44:37.541Z</time></trkpt><trkpt lat="42.6548456" lon="12.6345787"><ele>362.0</ele><time>2026-04-25T11:44:38.54Z</time></trkpt><trkpt lat="42.6547874" lon="12.6344162"><ele>363.5</ele><time>2026-04-25T11:44:39.54Z</time></trkpt><trkpt lat="42.6547419" lon="12.6342644"><ele>365.0</ele><time>2026-04-25T11:44:40.54Z</time></trkpt><trkpt lat="42.6546898" lon="12.6341435"><ele>365.0</ele><time>2026-04-25T11:44:41.569Z</time></trkpt><trkpt lat="42.6546132" lon="12.6340435"><ele>365.0</ele><time>2026-04-25T11:44:42.538Z</time></trkpt><trkpt lat="42.6545119" lon="12.633975"><ele>365.0</ele><time>2026-04-25T11:44:43.536Z</time></trkpt><trkpt lat="42.6543938" lon="12.6339587"><ele>365.0</ele><time>2026-04-25T11:44:44.539Z</time></trkpt><trkpt lat="42.654258" lon="12.6340006"><ele>365.0</ele><time>2026-04-25T11:44:45.547Z</time></trkpt><trkpt lat="42.6541066" lon="12.6340367"><ele>365.0</ele><time>2026-04-25T11:44:46.541Z</time></trkpt><trkpt lat="42.6539542" lon="12.6340535"><ele>365.0</ele><time>2026-04-25T11:44:47.547Z</time></trkpt><trkpt lat="42.6537742" lon="12.6340437"><ele>364.5</ele><time>2026-04-25T11:44:48.54Z</time></trkpt><trkpt lat="42.6536074" lon="12.6340324"><ele>364.0</ele><time>2026-04-25T11:44:49.558Z</time></trkpt><trkpt lat="42.6534623" lon="12.6340173"><ele>363.5</ele><time>2026-04-25T11:44:50.543Z</time></trkpt><trkpt lat="42.6533282" lon="12.6340017"><ele>363.0</ele><time>2026-04-25T11:44:51.541Z</time></trkpt><trkpt lat="42.6531985" lon="12.6339732"><ele>363.0</ele><time>2026-04-25T11:44:52.548Z</time></trkpt><trkpt lat="42.6530993" lon="12.6339247"><ele>363.0</ele><time>2026-04-25T11:44:53.559Z</time></trkpt><trkpt lat="42.6530112" lon="12.6338641"><ele>363.0</ele><time>2026-04-25T11:44:54.537Z</time></trkpt><trkpt lat="42.6529185" lon="12.6337971"><ele>363.0</ele><time>2026-04-25T11:44:55.546Z</time></trkpt><trkpt lat="42.6528019" lon="12.6337596"><ele>363.0</ele><time>2026-04-25T11:44:56.551Z</time></trkpt><trkpt lat="42.6526749" lon="12.6337255"><ele>363.0</ele><time>2026-04-25T11:44:57.563Z</time></trkpt><trkpt lat="42.6525326" lon="12.633663"><ele>363.0</ele><time>2026-04-25T11:44:58.543Z</time></trkpt><trkpt lat="42.6523886" lon="12.6335848"><ele>363.0</ele><time>2026-04-25T11:44:59.542Z</time></trkpt><trkpt lat="42.652244" lon="12.6335089"><ele>367.3333333333333</ele><time>2026-04-25T11:45:00.545Z</time></trkpt><trkpt lat="42.6521015" lon="12.6334365"><ele>371.66666666666663</ele><time>2026-04-25T11:45:01.531Z</time></trkpt><trkpt lat="42.6519519" lon="12.6333762"><ele>376.0</ele><time>2026-04-25T11:45:02.554Z</time></trkpt><trkpt lat="42.6518073" lon="12.6333286"><ele>378.75</ele><time>2026-04-25T11:45:03.541Z</time></trkpt><trkpt lat="42.6516634" lon="12.633288"><ele>381.5</ele><time>2026-04-25T11:45:04.548Z</time></trkpt><trkpt lat="42.6515189" lon="12.6332495"><ele>384.25</ele><time>2026-04-25T11:45:05.54Z</time></trkpt><trkpt lat="42.6513833" lon="12.6332283"><ele>387.0</ele><time>2026-04-25T11:45:06.541Z</time></trkpt><trkpt lat="42.6512468" lon="12.6332259"><ele>387.0</ele><time>2026-04-25T11:45:07.55Z</time></trkpt><trkpt lat="42.6511279" lon="12.6332392"><ele>387.0</ele><time>2026-04-25T11:45:08.539Z</time></trkpt><trkpt lat="42.6510356" lon="12.6332496"><ele>387.0</ele><time>2026-04-25T11:45:09.544Z</time></trkpt><trkpt lat="42.6509687" lon="12.6332598"><ele>387.0</ele><time>2026-04-25T11:45:10.535Z</time></trkpt><trkpt lat="42.6509017" lon="12.6332068"><ele>387.0</ele><time>2026-04-25T11:45:12.544Z</time></trkpt><trkpt lat="42.6508996" lon="12.6331149"><ele>387.0</ele><time>2026-04-25T11:45:14.545Z</time></trkpt><trkpt lat="42.6510257" lon="12.6330432"><ele>387.0</ele><time>2026-04-25T11:45:16.54Z</time></trkpt><trkpt lat="42.6511135" lon="12.632995"><ele>387.0</ele><time>2026-04-25T11:45:17.558Z</time></trkpt><trkpt lat="42.6512042" lon="12.6329508"><ele>387.0</ele><time>2026-04-25T11:45:18.544Z</time></trkpt><trkpt lat="42.651307" lon="12.6328855"><ele>387.0</ele><time>2026-04-25T11:45:19.541Z</time></trkpt><trkpt lat="42.6514064" lon="12.632814"><ele>387.0</ele><time>2026-04-25T11:45:20.539Z</time></trkpt><trkpt lat="42.6515038" lon="12.6327497"><ele>393.0</ele><time>2026-04-25T11:45:21.551Z</time></trkpt><trkpt lat="42.6515975" lon="12.6326636"><ele>399.0</ele><time>2026-04-25T11:45:22.538Z</time></trkpt><trkpt lat="42.6516714" lon="12.6325656"><ele>405.0</ele><time>2026-04-25T11:45:23.543Z</time></trkpt><trkpt lat="42.6517426" lon="12.6324477"><ele>411.0</ele><time>2026-04-25T11:45:24.54Z</time></trkpt><trkpt lat="42.6518053" lon="12.6323352"><ele>417.0</ele><time>2026-04-25T11:45:25.553Z</time></trkpt><trkpt lat="42.6518706" lon="12.6322507"><ele>417.40000000000003</ele><time>2026-04-25T11:45:26.538Z</time></trkpt><trkpt lat="42.6519569" lon="12.6321996"><ele>417.8</ele><time>2026-04-25T11:45:27.537Z</time></trkpt><trkpt lat="42.6520554" lon="12.6321606"><ele>418.2</ele><time>2026-04-25T11:45:28.543Z</time></trkpt><trkpt lat="42.6521267" lon="12.6321012"><ele>418.6</ele><time>2026-04-25T11:45:29.55Z</time></trkpt><trkpt lat="42.6521922" lon="12.6320188"><ele>419.0</ele><time>2026-04-25T11:45:30.544Z</time></trkpt><trkpt lat="42.6522463" lon="12.6319038"><ele>419.0</ele><time>2026-04-25T11:45:31.539Z</time></trkpt><trkpt lat="42.652289" lon="12.6317613"><ele>419.0</ele><time>2026-04-25T11:45:32.541Z</time></trkpt><trkpt lat="42.6523221" lon="12.631623"><ele>419.0</ele><time>2026-04-25T11:45:33.58Z</time></trkpt><trkpt lat="42.6523658" lon="12.6314841"><ele>419.0</ele><time>2026-04-25T11:45:34.541Z</time></trkpt><trkpt lat="42.65241" lon="12.6313765"><ele>419.0</ele><time>2026-04-25T11:45:35.54Z</time></trkpt><trkpt lat="42.6524552" lon="12.6312688"><ele>419.0</ele><time>2026-04-25T11:45:36.54Z</time></trkpt><trkpt lat="42.6524921" lon="12.6311593"><ele>419.0</ele><time>2026-04-25T11:45:37.555Z</time></trkpt><trkpt lat="42.6525053" lon="12.6310505"><ele>419.0</ele><time>2026-04-25T11:45:38.544Z</time></trkpt><trkpt lat="42.6524823" lon="12.6309373"><ele>419.0</ele><time>2026-04-25T11:45:39.543Z</time></trkpt><trkpt lat="42.6524463" lon="12.6308108"><ele>419.0</ele><time>2026-04-25T11:45:40.542Z</time></trkpt><trkpt lat="42.6523972" lon="12.6306828"><ele>422.25</ele><time>2026-04-25T11:45:41.538Z</time></trkpt><trkpt lat="42.6523582" lon="12.6305523"><ele>425.5</ele><time>2026-04-25T11:45:42.541Z</time></trkpt><trkpt lat="42.6523371" lon="12.6303977"><ele>428.75</ele><time>2026-04-25T11:45:43.543Z</time></trkpt><trkpt lat="42.6523306" lon="12.6302462"><ele>432.0</ele><time>2026-04-25T11:45:44.542Z</time></trkpt><trkpt lat="42.6523104" lon="12.6300781"><ele>433.0</ele><time>2026-04-25T11:45:45.543Z</time></trkpt><trkpt lat="42.6523128" lon="12.6299127"><ele>434.00000000000006</ele><time>2026-04-25T11:45:46.538Z</time></trkpt><trkpt lat="42.6522951" lon="12.6297646"><ele>435.00000000000006</ele><time>2026-04-25T11:45:47.565Z</time></trkpt><trkpt lat="42.6522833" lon="12.6296407"><ele>436.0</ele><time>2026-04-25T11:45:48.542Z</time></trkpt><trkpt lat="42.6522881" lon="12.6295323"><ele>437.0</ele><time>2026-04-25T11:45:49.544Z</time></trkpt><trkpt lat="42.6523133" lon="12.62944"><ele>441.8</ele><time>2026-04-25T11:45:50.572Z</time></trkpt><trkpt lat="42.6523679" lon="12.6293464"><ele>446.6</ele><time>2026-04-25T11:45:51.54Z</time></trkpt><trkpt lat="42.6524341" lon="12.6292474"><ele>451.40000000000003</ele><time>2026-04-25T11:45:52.545Z</time></trkpt><trkpt lat="42.6525157" lon="12.6291476"><ele>456.20000000000005</ele><time>2026-04-25T11:45:53.539Z</time></trkpt><trkpt lat="42.6526076" lon="12.6290506"><ele>461.0</ele><time>2026-04-25T11:45:54.548Z</time></trkpt><trkpt lat="42.6526933" lon="12.6289739"><ele>460.99999999999994</ele><time>2026-04-25T11:45:55.56Z</time></trkpt><trkpt lat="42.652782" lon="12.6289277"><ele>461.0</ele><time>2026-04-25T11:45:56.554Z</time></trkpt><trkpt lat="42.6528567" lon="12.6289178"><ele>461.0</ele><time>2026-04-25T11:45:57.54Z</time></trkpt><trkpt lat="42.6529338" lon="12.6289512"><ele>461.0</ele><time>2026-04-25T11:45:58.55Z</time></trkpt><trkpt lat="42.653004" lon="12.6290164"><ele>460.99999999999994</ele><time>2026-04-25T11:45:59.561Z</time></trkpt><trkpt lat="42.653084" lon="12.6290909"><ele>461.0</ele><time>2026-04-25T11:46:00.543Z</time></trkpt><trkpt lat="42.6531515" lon="12.6291712"><ele>461.66666666666663</ele><time>2026-04-25T11:46:01.543Z</time></trkpt><trkpt lat="42.6532327" lon="12.629242"><ele>462.3333333333333</ele><time>2026-04-25T11:46:02.543Z</time></trkpt><trkpt lat="42.6533128" lon="12.6292732"><ele>463.0</ele><time>2026-04-25T11:46:03.544Z</time></trkpt><trkpt lat="42.6533998" lon="12.6292617"><ele>463.66666666666663</ele><time>2026-04-25T11:46:04.537Z</time></trkpt><trkpt lat="42.6534787" lon="12.6292263"><ele>464.3333333333333</ele><time>2026-04-25T11:46:05.542Z</time></trkpt><trkpt lat="42.6535541" lon="12.629166"><ele>465.0</ele><time>2026-04-25T11:46:06.579Z</time></trkpt><trkpt lat="42.6536173" lon="12.6290869"><ele>465.0</ele><time>2026-04-25T11:46:07.55Z</time></trkpt><trkpt lat="42.6536725" lon="12.6289941"><ele>465.0</ele><time>2026-04-25T11:46:08.557Z</time></trkpt><trkpt lat="42.6537197" lon="12.6288764"><ele>465.0</ele><time>2026-04-25T11:46:09.548Z</time></trkpt><trkpt lat="42.6537604" lon="12.6287623"><ele>465.0</ele><time>2026-04-25T11:46:10.549Z</time></trkpt><trkpt lat="42.6538254" lon="12.6286718"><ele>465.0</ele><time>2026-04-25T11:46:11.545Z</time></trkpt><trkpt lat="42.6539183" lon="12.6286209"><ele>465.0</ele><time>2026-04-25T11:46:12.552Z</time></trkpt><trkpt lat="42.6540191" lon="12.6285976"><ele>465.0</ele><time>2026-04-25T11:46:13.541Z</time></trkpt><trkpt lat="42.6541051" lon="12.6285986"><ele>465.0</ele><time>2026-04-25T11:46:14.548Z</time></trkpt><trkpt lat="42.6541808" lon="12.6286532"><ele>465.0</ele><time>2026-04-25T11:46:15.541Z</time></trkpt><trkpt lat="42.6542652" lon="12.6287201"><ele>465.0</ele><time>2026-04-25T11:46:16.547Z</time></trkpt><trkpt lat="42.6543459" lon="12.6287984"><ele>465.0</ele><time>2026-04-25T11:46:17.555Z</time></trkpt><trkpt lat="42.6544362" lon="12.6288398"><ele>465.0</ele><time>2026-04-25T11:46:18.552Z</time></trkpt><trkpt lat="42.654535" lon="12.6288575"><ele>465.0</ele><time>2026-04-25T11:46:19.544Z</time></trkpt><trkpt lat="42.6546246" lon="12.6288418"><ele>465.0</ele><time>2026-04-25T11:46:20.537Z</time></trkpt><trkpt lat="42.6547065" lon="12.6287961"><ele>465.0</ele><time>2026-04-25T11:46:21.546Z</time></trkpt><trkpt lat="42.6547821" lon="12.6287182"><ele>470.4</ele><time>2026-04-25T11:46:22.548Z</time></trkpt><trkpt lat="42.6548496" lon="12.6286139"><ele>475.8</ele><time>2026-04-25T11:46:23.542Z</time></trkpt><trkpt lat="42.6549134" lon="12.6284947"><ele>481.20000000000005</ele><time>2026-04-25T11:46:24.537Z</time></trkpt><trkpt lat="42.6549799" lon="12.6283815"><ele>486.6</ele><time>2026-04-25T11:46:25.535Z</time></trkpt><trkpt lat="42.6550663" lon="12.6282676"><ele>492.0</ele><time>2026-04-25T11:46:26.541Z</time></trkpt><trkpt lat="42.6551638" lon="12.6281758"><ele>492.0</ele><time>2026-04-25T11:46:27.545Z</time></trkpt><trkpt lat="42.6552601" lon="12.6281177"><ele>492.00000000000006</ele><time>2026-04-25T11:46:28.546Z</time></trkpt><trkpt lat="42.6553523" lon="12.6280551"><ele>492.00000000000006</ele><time>2026-04-25T11:46:29.543Z</time></trkpt><trkpt lat="42.6554284" lon="12.6279893"><ele>492.0</ele><time>2026-04-25T11:46:30.55Z</time></trkpt><trkpt lat="42.6555357" lon="12.6279555"><ele>492.0</ele><time>2026-04-25T11:46:32.546Z</time></trkpt><trkpt lat="42.6555979" lon="12.6280152"><ele>495.0</ele><time>2026-04-25T11:46:34.539Z</time></trkpt><trkpt lat="42.6555882" lon="12.6281657"><ele>498.00000000000006</ele><time>2026-04-25T11:46:36.546Z</time></trkpt><trkpt lat="42.6555548" lon="12.6282564"><ele>501.00000000000006</ele><time>2026-04-25T11:46:37.539Z</time></trkpt><trkpt lat="42.6555267" lon="12.6283678"><ele>504.0</ele><time>2026-04-25T11:46:38.544Z</time></trkpt><trkpt lat="42.6554948" lon="12.6284932"><ele>507.0</ele><time>2026-04-25T11:46:39.549Z</time></trkpt><trkpt lat="42.6554617" lon="12.6286025"><ele>505.5</ele><time>2026-04-25T11:46:40.553Z</time></trkpt><trkpt lat="42.655441" lon="12.6287035"><ele>504.0</ele><time>2026-04-25T11:46:41.539Z</time></trkpt><trkpt lat="42.6554424" lon="12.6288059"><ele>502.5</ele><time>2026-04-25T11:46:42.538Z</time></trkpt><trkpt lat="42.6554608" lon="12.6288903"><ele>501.0</ele><time>2026-04-25T11:46:43.545Z</time></trkpt><trkpt lat="42.655515" lon="12.6289562"><ele>499.5</ele><time>2026-04-25T11:46:44.545Z</time></trkpt><trkpt lat="42.655602" lon="12.6290225"><ele>498.0</ele><time>2026-04-25T11:46:45.541Z</time></trkpt><trkpt lat="42.6556861" lon="12.629086"><ele>498.0</ele><time>2026-04-25T11:46:46.542Z</time></trkpt><trkpt lat="42.6557567" lon="12.6291546"><ele>497.99999999999994</ele><time>2026-04-25T11:46:47.544Z</time></trkpt><trkpt lat="42.655848" lon="12.6292458"><ele>497.99999999999994</ele><time>2026-04-25T11:46:48.544Z</time></trkpt><trkpt lat="42.6559232" lon="12.6293099"><ele>498.0</ele><time>2026-04-25T11:46:49.544Z</time></trkpt><trkpt lat="42.6560121" lon="12.6293567"><ele>498.0</ele><time>2026-04-25T11:46:50.541Z</time></trkpt><trkpt lat="42.6560896" lon="12.6294106"><ele>500.1666666666667</ele><time>2026-04-25T11:46:51.573Z</time></trkpt><trkpt lat="42.6561655" lon="12.6294437"><ele>502.33333333333337</ele><time>2026-04-25T11:46:52.544Z</time></trkpt><trkpt lat="42.6562462" lon="12.6294768"><ele>504.5</ele><time>2026-04-25T11:46:53.541Z</time></trkpt><trkpt lat="42.6563261" lon="12.629503"><ele>506.6666666666667</ele><time>2026-04-25T11:46:54.553Z</time></trkpt><trkpt lat="42.6564045" lon="12.6295028"><ele>508.83333333333337</ele><time>2026-04-25T11:46:55.568Z</time></trkpt><trkpt lat="42.6564967" lon="12.6294985"><ele>511.0</ele><time>2026-04-25T11:46:56.544Z</time></trkpt><trkpt lat="42.6566012" lon="12.6294828"><ele>511.0</ele><time>2026-04-25T11:46:57.541Z</time></trkpt><trkpt lat="42.6567211" lon="12.6294657"><ele>511.0</ele><time>2026-04-25T11:46:58.539Z</time></trkpt><trkpt lat="42.6568471" lon="12.6294536"><ele>511.0</ele><time>2026-04-25T11:46:59.556Z</time></trkpt><trkpt lat="42.6569704" lon="12.6294557"><ele>511.0</ele><time>2026-04-25T11:47:00.544Z</time></trkpt><trkpt lat="42.6570891" lon="12.6294856"><ele>505.5</ele><time>2026-04-25T11:47:01.544Z</time></trkpt><trkpt lat="42.6572209" lon="12.6295277"><ele>500.0</ele><time>2026-04-25T11:47:02.541Z</time></trkpt><trkpt lat="42.6573473" lon="12.6295829"><ele>494.5</ele><time>2026-04-25T11:47:03.547Z</time></trkpt><trkpt lat="42.6574824" lon="12.6296289"><ele>489.0</ele><time>2026-04-25T11:47:04.542Z</time></trkpt><trkpt lat="42.6576186" lon="12.6296753"><ele>489.0</ele><time>2026-04-25T11:47:05.545Z</time></trkpt><trkpt lat="42.6577444" lon="12.6297224"><ele>489.0</ele><time>2026-04-25T11:47:06.546Z</time></trkpt><trkpt lat="42.6578689" lon="12.6297582"><ele>489.0</ele><time>2026-04-25T11:47:07.536Z</time></trkpt><trkpt lat="42.6579927" lon="12.6297789"><ele>489.0</ele><time>2026-04-25T11:47:08.538Z</time></trkpt><trkpt lat="42.6581121" lon="12.6297811"><ele>491.0</ele><time>2026-04-25T11:47:09.555Z</time></trkpt><trkpt lat="42.6582263" lon="12.6297711"><ele>493.0</ele><time>2026-04-25T11:47:10.546Z</time></trkpt><trkpt lat="42.6583522" lon="12.6297463"><ele>495.0</ele><time>2026-04-25T11:47:11.537Z</time></trkpt><trkpt lat="42.6584832" lon="12.6297235"><ele>497.0</ele><time>2026-04-25T11:47:12.541Z</time></trkpt><trkpt lat="42.6586001" lon="12.6297063"><ele>495.40000000000003</ele><time>2026-04-25T11:47:13.544Z</time></trkpt><trkpt lat="42.6587085" lon="12.6296711"><ele>493.80000000000007</ele><time>2026-04-25T11:47:14.557Z</time></trkpt><trkpt lat="42.6587971" lon="12.6296173"><ele>492.2</ele><time>2026-04-25T11:47:15.544Z</time></trkpt><trkpt lat="42.6588831" lon="12.6295351"><ele>490.6</ele><time>2026-04-25T11:47:16.552Z</time></trkpt><trkpt lat="42.6589502" lon="12.629425"><ele>489.0</ele><time>2026-04-25T11:47:17.549Z</time></trkpt><trkpt lat="42.6590087" lon="12.6292931"><ele>493.6</ele><time>2026-04-25T11:47:18.546Z</time></trkpt><trkpt lat="42.6590721" lon="12.629175"><ele>498.2</ele><time>2026-04-25T11:47:19.542Z</time></trkpt><trkpt lat="42.6591329" lon="12.629068"><ele>502.80000000000007</ele><time>2026-04-25T11:47:20.544Z</time></trkpt><trkpt lat="42.6592199" lon="12.6289843"><ele>507.40000000000003</ele><time>2026-04-25T11:47:21.547Z</time></trkpt><trkpt lat="42.6593183" lon="12.628926"><ele>512.0</ele><time>2026-04-25T11:47:22.543Z</time></trkpt><trkpt lat="42.6594164" lon="12.6288822"><ele>507.99999999999994</ele><time>2026-04-25T11:47:23.545Z</time></trkpt><trkpt lat="42.659506" lon="12.6288343"><ele>504.0</ele><time>2026-04-25T11:47:24.543Z</time></trkpt><trkpt lat="42.6595651" lon="12.6287984"><ele>500.0</ele><time>2026-04-25T11:47:25.551Z</time></trkpt><trkpt lat="42.6596164" lon="12.6287428"><ele>496.0</ele><time>2026-04-25T11:47:26.55Z</time></trkpt><trkpt lat="42.6596313" lon="12.6285953"><ele>491.99999999999994</ele><time>2026-04-25T11:47:28.544Z</time></trkpt><trkpt lat="42.6596024" lon="12.6285189"><ele>488.0</ele><time>2026-04-25T11:47:29.553Z</time></trkpt><trkpt lat="42.6595508" lon="12.6284238"><ele>487.79999999999995</ele><time>2026-04-25T11:47:30.547Z</time></trkpt><trkpt lat="42.6594885" lon="12.6283135"><ele>487.59999999999997</ele><time>2026-04-25T11:47:31.54Z</time></trkpt><trkpt lat="42.6594249" lon="12.6281895"><ele>487.40000000000003</ele><time>2026-04-25T11:47:32.545Z</time></trkpt><trkpt lat="42.6593715" lon="12.6280709"><ele>487.20000000000005</ele><time>2026-04-25T11:47:33.569Z</time></trkpt><trkpt lat="42.6593206" lon="12.6279381"><ele>487.0</ele><time>2026-04-25T11:47:34.538Z</time></trkpt><trkpt lat="42.6592491" lon="12.6278134"><ele>491.8</ele><time>2026-04-25T11:47:35.541Z</time></trkpt><trkpt lat="42.6591734" lon="12.6277179"><ele>496.6</ele><time>2026-04-25T11:47:36.547Z</time></trkpt><trkpt lat="42.6590894" lon="12.6276406"><ele>501.40000000000003</ele><time>2026-04-25T11:47:37.544Z</time></trkpt><trkpt lat="42.6589935" lon="12.627586"><ele>506.20000000000005</ele><time>2026-04-25T11:47:38.541Z</time></trkpt><trkpt lat="42.6588838" lon="12.6275671"><ele>511.0</ele><time>2026-04-25T11:47:39.549Z</time></trkpt><trkpt lat="42.658778" lon="12.6275535"><ele>511.0</ele><time>2026-04-25T11:47:40.542Z</time></trkpt><trkpt lat="42.6586681" lon="12.6275292"><ele>511.0</ele><time>2026-04-25T11:47:41.539Z</time></trkpt><trkpt lat="42.6585442" lon="12.6275004"><ele>511.0</ele><time>2026-04-25T11:47:42.54Z</time></trkpt><trkpt lat="42.6584236" lon="12.6274659"><ele>511.0</ele><time>2026-04-25T11:47:43.547Z</time></trkpt><trkpt lat="42.6583039" lon="12.6274577"><ele>514.4</ele><time>2026-04-25T11:47:44.546Z</time></trkpt><trkpt lat="42.6581864" lon="12.6274526"><ele>517.8</ele><time>2026-04-25T11:47:45.545Z</time></trkpt><trkpt lat="42.6580695" lon="12.6274603"><ele>521.1999999999999</ele><time>2026-04-25T11:47:46.541Z</time></trkpt><trkpt lat="42.6579689" lon="12.6274831"><ele>524.6</ele><time>2026-04-25T11:47:47.565Z</time></trkpt><trkpt lat="42.6578712" lon="12.6275244"><ele>528.0</ele><time>2026-04-25T11:47:48.533Z</time></trkpt><trkpt lat="42.6577828" lon="12.6275629"><ele>529.0</ele><time>2026-04-25T11:47:49.542Z</time></trkpt><trkpt lat="42.6577019" lon="12.6275807"><ele>530.0</ele><time>2026-04-25T11:47:50.548Z</time></trkpt><trkpt lat="42.6576175" lon="12.6275582"><ele>531.0</ele><time>2026-04-25T11:47:51.542Z</time></trkpt><trkpt lat="42.6575519" lon="12.6275092"><ele>532.0</ele><time>2026-04-25T11:47:52.544Z</time></trkpt><trkpt lat="42.6575011" lon="12.6274489"><ele>533.0</ele><time>2026-04-25T11:47:53.539Z</time></trkpt><trkpt lat="42.6574537" lon="12.6273678"><ele>534.0</ele><time>2026-04-25T11:47:54.543Z</time></trkpt><trkpt lat="42.6574202" lon="12.627284"><ele>534.0</ele><time>2026-04-25T11:47:55.558Z</time></trkpt><trkpt lat="42.6573882" lon="12.6272003"><ele>534.0</ele><time>2026-04-25T11:47:56.542Z</time></trkpt><trkpt lat="42.6573416" lon="12.6271112"><ele>534.0</ele><time>2026-04-25T11:47:57.545Z</time></trkpt><trkpt lat="42.6572887" lon="12.6270164"><ele>534.0</ele><time>2026-04-25T11:47:58.55Z</time></trkpt><trkpt lat="42.6572191" lon="12.6269309"><ele>534.0</ele><time>2026-04-25T11:47:59.571Z</time></trkpt><trkpt lat="42.6571323" lon="12.6268491"><ele>534.0</ele><time>2026-04-25T11:48:00.543Z</time></trkpt><trkpt lat="42.6570287" lon="12.626777"><ele>535.0</ele><time>2026-04-25T11:48:01.547Z</time></trkpt><trkpt lat="42.6569225" lon="12.6267125"><ele>536.0</ele><time>2026-04-25T11:48:02.546Z</time></trkpt><trkpt lat="42.6568069" lon="12.6266571"><ele>537.0</ele><time>2026-04-25T11:48:03.546Z</time></trkpt><trkpt lat="42.6566904" lon="12.6266075"><ele>538.0</ele><time>2026-04-25T11:48:04.548Z</time></trkpt><trkpt lat="42.656566" lon="12.626561"><ele>538.0</ele><time>2026-04-25T11:48:05.569Z</time></trkpt><trkpt lat="42.6564355" lon="12.6265096"><ele>538.0</ele><time>2026-04-25T11:48:06.552Z</time></trkpt><trkpt lat="42.6563027" lon="12.6264529"><ele>538.0</ele><time>2026-04-25T11:48:07.543Z</time></trkpt><trkpt lat="42.6561755" lon="12.6263714"><ele>538.0</ele><time>2026-04-25T11:48:08.543Z</time></trkpt><trkpt lat="42.6560658" lon="12.6262668"><ele>536.75</ele><time>2026-04-25T11:48:09.546Z</time></trkpt><trkpt lat="42.6559508" lon="12.6261675"><ele>535.5</ele><time>2026-04-25T11:48:10.548Z</time></trkpt><trkpt lat="42.6558371" lon="12.6260707"><ele>534.25</ele><time>2026-04-25T11:48:11.551Z</time></trkpt><trkpt lat="42.655711" lon="12.6259797"><ele>533.0</ele><time>2026-04-25T11:48:12.578Z</time></trkpt><trkpt lat="42.655587" lon="12.6259061"><ele>536.5</ele><time>2026-04-25T11:48:13.547Z</time></trkpt><trkpt lat="42.6554666" lon="12.6258365"><ele>540.0</ele><time>2026-04-25T11:48:14.539Z</time></trkpt><trkpt lat="42.6553533" lon="12.6257814"><ele>543.5</ele><time>2026-04-25T11:48:15.537Z</time></trkpt><trkpt lat="42.6552218" lon="12.6257543"><ele>547.0</ele><time>2026-04-25T11:48:16.551Z</time></trkpt><trkpt lat="42.655084" lon="12.6257334"><ele>547.5</ele><time>2026-04-25T11:48:17.563Z</time></trkpt><trkpt lat="42.6549607" lon="12.625698"><ele>548.0</ele><time>2026-04-25T11:48:18.546Z</time></trkpt><trkpt lat="42.654832" lon="12.6256416"><ele>548.5</ele><time>2026-04-25T11:48:19.549Z</time></trkpt><trkpt lat="42.654698" lon="12.6255877"><ele>549.0</ele><time>2026-04-25T11:48:20.548Z</time></trkpt><trkpt lat="42.6545647" lon="12.6255286"><ele>549.25</ele><time>2026-04-25T11:48:21.541Z</time></trkpt><trkpt lat="42.6544301" lon="12.6254766"><ele>549.5</ele><time>2026-04-25T11:48:22.542Z</time></trkpt><trkpt lat="42.654298" lon="12.6254289"><ele>549.75</ele><time>2026-04-25T11:48:23.571Z</time></trkpt><trkpt lat="42.6541782" lon="12.6253777"><ele>550.0</ele><time>2026-04-25T11:48:24.549Z</time></trkpt><trkpt lat="42.6540609" lon="12.6253396"><ele>550.25</ele><time>2026-04-25T11:48:25.544Z</time></trkpt><trkpt lat="42.6539452" lon="12.6253104"><ele>550.5</ele><time>2026-04-25T11:48:26.545Z</time></trkpt><trkpt lat="42.6538134" lon="12.6252937"><ele>550.75</ele><time>2026-04-25T11:48:27.562Z</time></trkpt><trkpt lat="42.6536725" lon="12.6252719"><ele>551.0</ele><time>2026-04-25T11:48:28.542Z</time></trkpt><trkpt lat="42.6535435" lon="12.6252438"><ele>552.25</ele><time>2026-04-25T11:48:29.542Z</time></trkpt><trkpt lat="42.6534187" lon="12.6252139"><ele>553.5</ele><time>2026-04-25T11:48:30.541Z</time></trkpt><trkpt lat="42.6533031" lon="12.625188"><ele>554.75</ele><time>2026-04-25T11:48:31.569Z</time></trkpt><trkpt lat="42.6531932" lon="12.6251534"><ele>556.0</ele><time>2026-04-25T11:48:32.546Z</time></trkpt><trkpt lat="42.6531018" lon="12.6251148"><ele>556.0</ele><time>2026-04-25T11:48:33.551Z</time></trkpt><trkpt lat="42.653012" lon="12.6250787"><ele>556.0</ele><time>2026-04-25T11:48:34.543Z</time></trkpt><trkpt lat="42.6529317" lon="12.6250425"><ele>556.0</ele><time>2026-04-25T11:48:35.576Z</time></trkpt><trkpt lat="42.6528542" lon="12.6250104"><ele>556.0</ele><time>2026-04-25T11:48:36.558Z</time></trkpt><trkpt lat="42.6527794" lon="12.6249814"><ele>556.0</ele><time>2026-04-25T11:48:37.545Z</time></trkpt><trkpt lat="42.6527186" lon="12.6249468"><ele>556.0</ele><time>2026-04-25T11:48:38.541Z</time></trkpt><trkpt lat="42.6526462" lon="12.6248294"><ele>557.8333333333334</ele><time>2026-04-25T11:48:40.547Z</time></trkpt><trkpt lat="42.6526299" lon="12.6247463"><ele>559.6666666666667</ele><time>2026-04-25T11:48:41.547Z</time></trkpt><trkpt lat="42.6526041" lon="12.6246179"><ele>561.5</ele><time>2026-04-25T11:48:42.544Z</time></trkpt><trkpt lat="42.6525893" lon="12.6244968"><ele>563.3333333333334</ele><time>2026-04-25T11:48:43.539Z</time></trkpt><trkpt lat="42.6525789" lon="12.6243661"><ele>565.1666666666666</ele><time>2026-04-25T11:48:44.539Z</time></trkpt><trkpt lat="42.6525733" lon="12.6242341"><ele>567.0</ele><time>2026-04-25T11:48:45.54Z</time></trkpt><trkpt lat="42.6525635" lon="12.6241114"><ele>567.0</ele><time>2026-04-25T11:48:46.541Z</time></trkpt><trkpt lat="42.6525447" lon="12.6239902"><ele>567.0</ele><time>2026-04-25T11:48:47.539Z</time></trkpt><trkpt lat="42.6525003" lon="12.6238675"><ele>567.0</ele><time>2026-04-25T11:48:48.55Z</time></trkpt><trkpt lat="42.6524382" lon="12.6237577"><ele>567.0</ele><time>2026-04-25T11:48:49.544Z</time></trkpt><trkpt lat="42.6523741" lon="12.6236587"><ele>567.0</ele><time>2026-04-25T11:48:50.537Z</time></trkpt><trkpt lat="42.6523067" lon="12.6235811"><ele>566.0</ele><time>2026-04-25T11:48:51.544Z</time></trkpt><trkpt lat="42.6522647" lon="12.6235"><ele>565.0</ele><time>2026-04-25T11:48:52.539Z</time></trkpt><trkpt lat="42.6522363" lon="12.6234042"><ele>564.0</ele><time>2026-04-25T11:48:53.539Z</time></trkpt><trkpt lat="42.6522188" lon="12.6233044"><ele>563.0</ele><time>2026-04-25T11:48:54.538Z</time></trkpt><trkpt lat="42.6522076" lon="12.6231862"><ele>562.0</ele><time>2026-04-25T11:48:55.545Z</time></trkpt><trkpt lat="42.652203" lon="12.6230584"><ele>561.0</ele><time>2026-04-25T11:48:56.542Z</time></trkpt><trkpt lat="42.6522112" lon="12.6229233"><ele>560.1666666666666</ele><time>2026-04-25T11:48:57.537Z</time></trkpt><trkpt lat="42.6522161" lon="12.6227953"><ele>559.3333333333334</ele><time>2026-04-25T11:48:58.539Z</time></trkpt><trkpt lat="42.6522102" lon="12.622673"><ele>558.5</ele><time>2026-04-25T11:48:59.545Z</time></trkpt><trkpt lat="42.6521864" lon="12.622566"><ele>557.6666666666667</ele><time>2026-04-25T11:49:00.545Z</time></trkpt><trkpt lat="42.6521494" lon="12.6224737"><ele>556.8333333333334</ele><time>2026-04-25T11:49:01.545Z</time></trkpt><trkpt lat="42.6520938" lon="12.6223933"><ele>556.0</ele><time>2026-04-25T11:49:02.544Z</time></trkpt><trkpt lat="42.6520374" lon="12.6223268"><ele>556.0</ele><time>2026-04-25T11:49:03.537Z</time></trkpt><trkpt lat="42.6519917" lon="12.6222527"><ele>556.0</ele><time>2026-04-25T11:49:04.536Z</time></trkpt><trkpt lat="42.6519478" lon="12.6221611"><ele>556.0</ele><time>2026-04-25T11:49:05.542Z</time></trkpt><trkpt lat="42.6519219" lon="12.6220485"><ele>556.0</ele><time>2026-04-25T11:49:06.538Z</time></trkpt><trkpt lat="42.6519084" lon="12.6219191"><ele>556.0</ele><time>2026-04-25T11:49:07.542Z</time></trkpt><trkpt lat="42.6518931" lon="12.6217909"><ele>556.0</ele><time>2026-04-25T11:49:08.538Z</time></trkpt><trkpt lat="42.6518701" lon="12.62166"><ele>561.4</ele><time>2026-04-25T11:49:09.543Z</time></trkpt><trkpt lat="42.6518327" lon="12.6215333"><ele>566.8</ele><time>2026-04-25T11:49:10.566Z</time></trkpt><trkpt lat="42.6517852" lon="12.621405"><ele>572.1999999999999</ele><time>2026-04-25T11:49:11.54Z</time></trkpt><trkpt lat="42.6517287" lon="12.621303"><ele>577.6</ele><time>2026-04-25T11:49:12.549Z</time></trkpt><trkpt lat="42.6516688" lon="12.621203"><ele>583.0</ele><time>2026-04-25T11:49:13.54Z</time></trkpt><trkpt lat="42.6516145" lon="12.6211191"><ele>583.0</ele><time>2026-04-25T11:49:14.539Z</time></trkpt><trkpt lat="42.6515844" lon="12.6210406"><ele>583.0</ele><time>2026-04-25T11:49:15.545Z</time></trkpt><trkpt lat="42.65156" lon="12.62095"><ele>583.0</ele><time>2026-04-25T11:49:16.546Z</time></trkpt><trkpt lat="42.6515579" lon="12.6208546"><ele>583.0</ele><time>2026-04-25T11:49:17.536Z</time></trkpt><trkpt lat="42.6515853" lon="12.6207541"><ele>583.0</ele><time>2026-04-25T11:49:18.539Z</time></trkpt><trkpt lat="42.6516236" lon="12.6206368"><ele>583.0</ele><time>2026-04-25T11:49:19.551Z</time></trkpt><trkpt lat="42.6516706" lon="12.6205228"><ele>583.0</ele><time>2026-04-25T11:49:20.546Z</time></trkpt><trkpt lat="42.6517193" lon="12.6204196"><ele>583.0</ele><time>2026-04-25T11:49:21.547Z</time></trkpt><trkpt lat="42.6517597" lon="12.6203211"><ele>583.0</ele><time>2026-04-25T11:49:22.544Z</time></trkpt><trkpt lat="42.6518148" lon="12.6202285"><ele>583.0</ele><time>2026-04-25T11:49:23.541Z</time></trkpt><trkpt lat="42.6518871" lon="12.6201528"><ele>583.0</ele><time>2026-04-25T11:49:24.534Z</time></trkpt><trkpt lat="42.651962" lon="12.6200802"><ele>583.0</ele><time>2026-04-25T11:49:25.545Z</time></trkpt><trkpt lat="42.6520515" lon="12.619993"><ele>585.0</ele><time>2026-04-25T11:49:26.54Z</time></trkpt><trkpt lat="42.6521405" lon="12.6198877"><ele>587.0</ele><time>2026-04-25T11:49:27.543Z</time></trkpt><trkpt lat="42.6522223" lon="12.6197695"><ele>589.0</ele><time>2026-04-25T11:49:28.544Z</time></trkpt><trkpt lat="42.6523147" lon="12.6196648"><ele>591.0</ele><time>2026-04-25T11:49:29.55Z</time></trkpt><trkpt lat="42.6524256" lon="12.6195887"><ele>591.0</ele><time>2026-04-25T11:49:30.539Z</time></trkpt><trkpt lat="42.6525425" lon="12.6195199"><ele>591.0</ele><time>2026-04-25T11:49:31.548Z</time></trkpt><trkpt lat="42.652664" lon="12.6194389"><ele>591.0</ele><time>2026-04-25T11:49:32.549Z</time></trkpt><trkpt lat="42.6527821" lon="12.6193557"><ele>591.0</ele><time>2026-04-25T11:49:33.543Z</time></trkpt><trkpt lat="42.6528931" lon="12.6192792"><ele>592.4</ele><time>2026-04-25T11:49:34.543Z</time></trkpt><trkpt lat="42.6529912" lon="12.6192043"><ele>593.8</ele><time>2026-04-25T11:49:35.544Z</time></trkpt><trkpt lat="42.6530872" lon="12.6191307"><ele>595.1999999999999</ele><time>2026-04-25T11:49:36.542Z</time></trkpt><trkpt lat="42.6531734" lon="12.6190515"><ele>596.6</ele><time>2026-04-25T11:49:37.544Z</time></trkpt><trkpt lat="42.6532651" lon="12.6189795"><ele>598.0</ele><time>2026-04-25T11:49:38.543Z</time></trkpt><trkpt lat="42.6533547" lon="12.6189293"><ele>598.0</ele><time>2026-04-25T11:49:39.57Z</time></trkpt><trkpt lat="42.6534578" lon="12.6188868"><ele>598.0</ele><time>2026-04-25T11:49:40.55Z</time></trkpt><trkpt lat="42.6535655" lon="12.618843"><ele>598.0</ele><time>2026-04-25T11:49:41.546Z</time></trkpt><trkpt lat="42.6536748" lon="12.6187981"><ele>598.0</ele><time>2026-04-25T11:49:42.547Z</time></trkpt><trkpt lat="42.6537896" lon="12.6187567"><ele>596.8</ele><time>2026-04-25T11:49:43.539Z</time></trkpt><trkpt lat="42.6539008" lon="12.6187258"><ele>595.5999999999999</ele><time>2026-04-25T11:49:44.538Z</time></trkpt><trkpt lat="42.6540026" lon="12.6186961"><ele>594.4000000000001</ele><time>2026-04-25T11:49:45.541Z</time></trkpt><trkpt lat="42.6541002" lon="12.6186582"><ele>593.2</ele><time>2026-04-25T11:49:46.54Z</time></trkpt><trkpt lat="42.6542044" lon="12.6186055"><ele>592.0</ele><time>2026-04-25T11:49:47.545Z</time></trkpt><trkpt lat="42.6543086" lon="12.6185354"><ele>592.0</ele><time>2026-04-25T11:49:48.546Z</time></trkpt><trkpt lat="42.6544123" lon="12.6184801"><ele>592.0</ele><time>2026-04-25T11:49:49.545Z</time></trkpt><trkpt lat="42.6545064" lon="12.6184298"><ele>592.0</ele><time>2026-04-25T11:49:50.541Z</time></trkpt><trkpt lat="42.6545993" lon="12.6183713"><ele>592.0</ele><time>2026-04-25T11:49:51.536Z</time></trkpt><trkpt lat="42.6546755" lon="12.6182965"><ele>592.0</ele><time>2026-04-25T11:49:52.541Z</time></trkpt><trkpt lat="42.6547351" lon="12.6182061"><ele>588.2</ele><time>2026-04-25T11:49:53.541Z</time></trkpt><trkpt lat="42.6547779" lon="12.6181421"><ele>584.4000000000001</ele><time>2026-04-25T11:49:54.534Z</time></trkpt><trkpt lat="42.6548898" lon="12.6181128"><ele>580.5999999999999</ele><time>2026-04-25T11:49:56.543Z</time></trkpt><trkpt lat="42.6549577" lon="12.6181565"><ele>576.8</ele><time>2026-04-25T11:49:57.536Z</time></trkpt><trkpt lat="42.6550463" lon="12.6182165"><ele>573.0</ele><time>2026-04-25T11:49:58.54Z</time></trkpt><trkpt lat="42.6551563" lon="12.6182949"><ele>573.0</ele><time>2026-04-25T11:49:59.544Z</time></trkpt><trkpt lat="42.6552703" lon="12.6183583"><ele>573.0</ele><time>2026-04-25T11:50:00.543Z</time></trkpt><trkpt lat="42.6553807" lon="12.6184107"><ele>573.0</ele><time>2026-04-25T11:50:01.534Z</time></trkpt><trkpt lat="42.6554837" lon="12.6184501"><ele>573.0</ele><time>2026-04-25T11:50:02.541Z</time></trkpt><trkpt lat="42.6555896" lon="12.6184676"><ele>572.6</ele><time>2026-04-25T11:50:03.572Z</time></trkpt><trkpt lat="42.6556895" lon="12.6184709"><ele>572.1999999999999</ele><time>2026-04-25T11:50:04.544Z</time></trkpt><trkpt lat="42.6557838" lon="12.6184796"><ele>571.8</ele><time>2026-04-25T11:50:05.549Z</time></trkpt><trkpt lat="42.6558699" lon="12.6184615"><ele>571.4</ele><time>2026-04-25T11:50:06.541Z</time></trkpt><trkpt lat="42.6559539" lon="12.6184109"><ele>571.0</ele><time>2026-04-25T11:50:07.541Z</time></trkpt><trkpt lat="42.6560539" lon="12.6183289"><ele>567.5</ele><time>2026-04-25T11:50:08.542Z</time></trkpt><trkpt lat="42.6561569" lon="12.6182388"><ele>564.0</ele><time>2026-04-25T11:50:09.541Z</time></trkpt><trkpt lat="42.6562756" lon="12.6181558"><ele>560.5</ele><time>2026-04-25T11:50:10.542Z</time></trkpt><trkpt lat="42.6563899" lon="12.6180687"><ele>557.0</ele><time>2026-04-25T11:50:11.546Z</time></trkpt><trkpt lat="42.6564894" lon="12.6179933"><ele>557.0</ele><time>2026-04-25T11:50:12.541Z</time></trkpt><trkpt lat="42.6565894" lon="12.6179423"><ele>557.0</ele><time>2026-04-25T11:50:13.538Z</time></trkpt><trkpt lat="42.6566884" lon="12.6179104"><ele>557.0</ele><time>2026-04-25T11:50:14.545Z</time></trkpt><trkpt lat="42.6567817" lon="12.6178704"><ele>557.0</ele><time>2026-04-25T11:50:15.538Z</time></trkpt><trkpt lat="42.6568768" lon="12.6178326"><ele>557.0</ele><time>2026-04-25T11:50:16.539Z</time></trkpt><trkpt lat="42.6569546" lon="12.6177621"><ele>559.4</ele><time>2026-04-25T11:50:17.538Z</time></trkpt><trkpt lat="42.657023" lon="12.6176916"><ele>561.8000000000001</ele><time>2026-04-25T11:50:18.544Z</time></trkpt><trkpt lat="42.6570817" lon="12.6176233"><ele>564.2</ele><time>2026-04-25T11:50:19.534Z</time></trkpt><trkpt lat="42.6571408" lon="12.6175283"><ele>566.6</ele><time>2026-04-25T11:50:20.54Z</time></trkpt><trkpt lat="42.6572074" lon="12.6174228"><ele>569.0</ele><time>2026-04-25T11:50:21.532Z</time></trkpt><trkpt lat="42.6572916" lon="12.6173197"><ele>569.0</ele><time>2026-04-25T11:50:22.538Z</time></trkpt><trkpt lat="42.6573826" lon="12.6172401"><ele>569.0</ele><time>2026-04-25T11:50:23.544Z</time></trkpt><trkpt lat="42.6574868" lon="12.6171688"><ele>569.0</ele><time>2026-04-25T11:50:24.547Z</time></trkpt><trkpt lat="42.6575919" lon="12.6170932"><ele>569.0</ele><time>2026-04-25T11:50:25.554Z</time></trkpt><trkpt lat="42.6576961" lon="12.6170105"><ele>568.5</ele><time>2026-04-25T11:50:26.542Z</time></trkpt><trkpt lat="42.6578052" lon="12.6169153"><ele>568.0</ele><time>2026-04-25T11:50:27.543Z</time></trkpt><trkpt lat="42.6579026" lon="12.6168056"><ele>567.5</ele><time>2026-04-25T11:50:28.549Z</time></trkpt><trkpt lat="42.6579971" lon="12.6166862"><ele>567.0</ele><time>2026-04-25T11:50:29.544Z</time></trkpt><trkpt lat="42.6580944" lon="12.6165877"><ele>567.0</ele><time>2026-04-25T11:50:30.543Z</time></trkpt><trkpt lat="42.6581789" lon="12.6164809"><ele>567.0</ele><time>2026-04-25T11:50:31.538Z</time></trkpt><trkpt lat="42.6582536" lon="12.6163874"><ele>567.0</ele><time>2026-04-25T11:50:32.547Z</time></trkpt><trkpt lat="42.658316" lon="12.6162911"><ele>567.0</ele><time>2026-04-25T11:50:33.538Z</time></trkpt><trkpt lat="42.6583642" lon="12.6161738"><ele>567.0</ele><time>2026-04-25T11:50:34.561Z</time></trkpt><trkpt lat="42.6584011" lon="12.6160263"><ele>574.5</ele><time>2026-04-25T11:50:35.541Z</time></trkpt><trkpt lat="42.6584451" lon="12.6158491"><ele>582.0</ele><time>2026-04-25T11:50:36.54Z</time></trkpt><trkpt lat="42.6584803" lon="12.6156536"><ele>589.5</ele><time>2026-04-25T11:50:37.544Z</time></trkpt><trkpt lat="42.6585225" lon="12.6154568"><ele>597.0</ele><time>2026-04-25T11:50:38.539Z</time></trkpt><trkpt lat="42.6585648" lon="12.6152632"><ele>594.0</ele><time>2026-04-25T11:50:39.541Z</time></trkpt><trkpt lat="42.6586034" lon="12.6150661"><ele>591.0</ele><time>2026-04-25T11:50:40.536Z</time></trkpt><trkpt lat="42.6586358" lon="12.6148746"><ele>588.0</ele><time>2026-04-25T11:50:41.544Z</time></trkpt><trkpt lat="42.658662" lon="12.6147062"><ele>585.0</ele><time>2026-04-25T11:50:42.538Z</time></trkpt><trkpt lat="42.6586924" lon="12.614554"><ele>587.8</ele><time>2026-04-25T11:50:43.537Z</time></trkpt><trkpt lat="42.6587336" lon="12.6144244"><ele>590.6</ele><time>2026-04-25T11:50:44.546Z</time></trkpt><trkpt lat="42.6587945" lon="12.6142996"><ele>593.4</ele><time>2026-04-25T11:50:45.537Z</time></trkpt><trkpt lat="42.6588759" lon="12.6141956"><ele>596.2</ele><time>2026-04-25T11:50:46.543Z</time></trkpt><trkpt lat="42.6589636" lon="12.6141007"><ele>599.0</ele><time>2026-04-25T11:50:47.538Z</time></trkpt><trkpt lat="42.6590463" lon="12.6140106"><ele>599.0</ele><time>2026-04-25T11:50:48.546Z</time></trkpt><trkpt lat="42.6591075" lon="12.6139247"><ele>599.0</ele><time>2026-04-25T11:50:49.536Z</time></trkpt><trkpt lat="42.6591481" lon="12.6138125"><ele>599.0</ele><time>2026-04-25T11:50:50.541Z</time></trkpt><trkpt lat="42.6591545" lon="12.61369"><ele>599.0</ele><time>2026-04-25T11:50:51.547Z</time></trkpt><trkpt lat="42.6591414" lon="12.6135586"><ele>599.0</ele><time>2026-04-25T11:50:52.542Z</time></trkpt><trkpt lat="42.6591155" lon="12.613444"><ele>599.2</ele><time>2026-04-25T11:50:53.542Z</time></trkpt><trkpt lat="42.6591235" lon="12.613352"><ele>599.4</ele><time>2026-04-25T11:50:54.545Z</time></trkpt><trkpt lat="42.6592553" lon="12.6132668"><ele>599.6</ele><time>2026-04-25T11:50:56.544Z</time></trkpt><trkpt lat="42.6593452" lon="12.6132381"><ele>599.8</ele><time>2026-04-25T11:50:57.543Z</time></trkpt><trkpt lat="42.6594176" lon="12.613215"><ele>600.0</ele><time>2026-04-25T11:50:58.54Z</time></trkpt><trkpt lat="42.6594842" lon="12.6131432"><ele>600.0</ele><time>2026-04-25T11:50:59.539Z</time></trkpt><trkpt lat="42.6595519" lon="12.6130407"><ele>600.0</ele><time>2026-04-25T11:51:00.541Z</time></trkpt><trkpt lat="42.6596144" lon="12.6128947"><ele>600.0</ele><time>2026-04-25T11:51:01.546Z</time></trkpt><trkpt lat="42.659694" lon="12.6127393"><ele>600.0</ele><time>2026-04-25T11:51:02.541Z</time></trkpt><trkpt lat="42.6597693" lon="12.6125924"><ele>601.2</ele><time>2026-04-25T11:51:03.542Z</time></trkpt><trkpt lat="42.6598388" lon="12.6124517"><ele>602.4</ele><time>2026-04-25T11:51:04.548Z</time></trkpt><trkpt lat="42.6598995" lon="12.6123269"><ele>603.6</ele><time>2026-04-25T11:51:05.549Z</time></trkpt><trkpt lat="42.6599452" lon="12.6122082"><ele>604.8</ele><time>2026-04-25T11:51:06.542Z</time></trkpt><trkpt lat="42.6599833" lon="12.6121023"><ele>606.0</ele><time>2026-04-25T11:51:07.541Z</time></trkpt><trkpt lat="42.6600369" lon="12.6120236"><ele>606.8333333333334</ele><time>2026-04-25T11:51:08.554Z</time></trkpt><trkpt lat="42.6601022" lon="12.6119578"><ele>607.6666666666666</ele><time>2026-04-25T11:51:09.543Z</time></trkpt><trkpt lat="42.6601623" lon="12.6118951"><ele>608.5</ele><time>2026-04-25T11:51:10.539Z</time></trkpt><trkpt lat="42.6602253" lon="12.6118343"><ele>609.3333333333333</ele><time>2026-04-25T11:51:11.541Z</time></trkpt><trkpt lat="42.6603119" lon="12.6117809"><ele>610.1666666666666</ele><time>2026-04-25T11:51:12.541Z</time></trkpt><trkpt lat="42.6604009" lon="12.611726"><ele>611.0</ele><time>2026-04-25T11:51:13.54Z</time></trkpt><trkpt lat="42.6604772" lon="12.6116402"><ele>611.0</ele><time>2026-04-25T11:51:14.539Z</time></trkpt><trkpt lat="42.6605529" lon="12.6115368"><ele>611.0</ele><time>2026-04-25T11:51:15.544Z</time></trkpt><trkpt lat="42.6606061" lon="12.6114188"><ele>611.0</ele><time>2026-04-25T11:51:16.542Z</time></trkpt><trkpt lat="42.6606488" lon="12.6112846"><ele>611.0</ele><time>2026-04-25T11:51:17.544Z</time></trkpt><trkpt lat="42.6606844" lon="12.6111425"><ele>611.0</ele><time>2026-04-25T11:51:18.54Z</time></trkpt><trkpt lat="42.6607256" lon="12.6110145"><ele>613.3333333333333</ele><time>2026-04-25T11:51:19.537Z</time></trkpt><trkpt lat="42.6607797" lon="12.6109057"><ele>615.6666666666666</ele><time>2026-04-25T11:51:20.543Z</time></trkpt><trkpt lat="42.6608363" lon="12.6108273"><ele>618.0</ele><time>2026-04-25T11:51:21.544Z</time></trkpt><trkpt lat="42.6609009" lon="12.6107665"><ele>620.3333333333334</ele><time>2026-04-25T11:51:22.539Z</time></trkpt><trkpt lat="42.6609874" lon="12.6107277"><ele>622.6666666666667</ele><time>2026-04-25T11:51:23.547Z</time></trkpt><trkpt lat="42.661082" lon="12.6107051"><ele>625.0</ele><time>2026-04-25T11:51:24.541Z</time></trkpt><trkpt lat="42.6611725" lon="12.6106787"><ele>625.0000000000001</ele><time>2026-04-25T11:51:25.543Z</time></trkpt><trkpt lat="42.6612515" lon="12.6106768"><ele>625.0</ele><time>2026-04-25T11:51:26.543Z</time></trkpt><trkpt lat="42.6613262" lon="12.6107092"><ele>625.0</ele><time>2026-04-25T11:51:27.549Z</time></trkpt><trkpt lat="42.6613787" lon="12.610781"><ele>625.0</ele><time>2026-04-25T11:51:28.541Z</time></trkpt><trkpt lat="42.6614071" lon="12.6108721"><ele>625.0</ele><time>2026-04-25T11:51:29.539Z</time></trkpt><trkpt lat="42.661433" lon="12.6109514"><ele>625.0000000000001</ele><time>2026-04-25T11:51:30.533Z</time></trkpt><trkpt lat="42.6614722" lon="12.6110238"><ele>625.0</ele><time>2026-04-25T11:51:31.546Z</time></trkpt><trkpt lat="42.66153" lon="12.6110652"><ele>625.0</ele><time>2026-04-25T11:51:32.542Z</time></trkpt><trkpt lat="42.6616143" lon="12.6110768"><ele>625.0</ele><time>2026-04-25T11:51:33.542Z</time></trkpt><trkpt lat="42.6617047" lon="12.6110446"><ele>625.0</ele><time>2026-04-25T11:51:34.544Z</time></trkpt><trkpt lat="42.6617981" lon="12.6109745"><ele>625.0</ele><time>2026-04-25T11:51:35.537Z</time></trkpt><trkpt lat="42.6618951" lon="12.6109"><ele>625.0</ele><time>2026-04-25T11:51:36.539Z</time></trkpt><trkpt lat="42.6619939" lon="12.6108303"><ele>625.75</ele><time>2026-04-25T11:51:37.544Z</time></trkpt><trkpt lat="42.662111" lon="12.6107799"><ele>626.5</ele><time>2026-04-25T11:51:38.544Z</time></trkpt><trkpt lat="42.6622194" lon="12.6107313"><ele>627.25</ele><time>2026-04-25T11:51:39.546Z</time></trkpt><trkpt lat="42.6623249" lon="12.6106763"><ele>628.0</ele><time>2026-04-25T11:51:40.548Z</time></trkpt><trkpt lat="42.6624304" lon="12.6106269"><ele>628.0</ele><time>2026-04-25T11:51:41.54Z</time></trkpt><trkpt lat="42.6625288" lon="12.6106034"><ele>628.0</ele><time>2026-04-25T11:51:42.543Z</time></trkpt><trkpt lat="42.6626294" lon="12.6105913"><ele>628.0</ele><time>2026-04-25T11:51:43.54Z</time></trkpt><trkpt lat="42.6627465" lon="12.6105871"><ele>628.0</ele><time>2026-04-25T11:51:44.541Z</time></trkpt><trkpt lat="42.6628722" lon="12.610581"><ele>628.0</ele><time>2026-04-25T11:51:45.539Z</time></trkpt><trkpt lat="42.6629861" lon="12.610582"><ele>629.6</ele><time>2026-04-25T11:51:46.54Z</time></trkpt><trkpt lat="42.6631049" lon="12.6106205"><ele>631.1999999999999</ele><time>2026-04-25T11:51:47.545Z</time></trkpt><trkpt lat="42.6632166" lon="12.6106591"><ele>632.8</ele><time>2026-04-25T11:51:48.541Z</time></trkpt><trkpt lat="42.663308" lon="12.610678"><ele>634.4</ele><time>2026-04-25T11:51:49.549Z</time></trkpt><trkpt lat="42.6633932" lon="12.6106846"><ele>636.0</ele><time>2026-04-25T11:51:50.54Z</time></trkpt><trkpt lat="42.6634645" lon="12.6106772"><ele>636.0</ele><time>2026-04-25T11:51:51.534Z</time></trkpt><trkpt lat="42.6635262" lon="12.6106555"><ele>636.0</ele><time>2026-04-25T11:51:52.537Z</time></trkpt><trkpt lat="42.6635911" lon="12.6106408"><ele>636.0</ele><time>2026-04-25T11:51:54.545Z</time></trkpt><trkpt lat="42.6636491" lon="12.6105939"><ele>636.0</ele><time>2026-04-25T11:53:45.541Z</time></trkpt><trkpt lat="42.6637055" lon="12.6105006"><ele>636.0</ele><time>2026-04-25T11:53:47.55Z</time></trkpt><trkpt lat="42.6637746" lon="12.6103734"><ele>636.0</ele><time>2026-04-25T11:53:49.542Z</time></trkpt><trkpt lat="42.6638392" lon="12.6103287"><ele>635.1666666666666</ele><time>2026-04-25T11:53:50.541Z</time></trkpt><trkpt lat="42.6638906" lon="12.610277"><ele>634.3333333333334</ele><time>2026-04-25T11:53:51.543Z</time></trkpt><trkpt lat="42.6639423" lon="12.6102227"><ele>633.5</ele><time>2026-04-25T11:53:52.542Z</time></trkpt><trkpt lat="42.6639936" lon="12.6101493"><ele>632.6666666666667</ele><time>2026-04-25T11:53:53.547Z</time></trkpt><trkpt lat="42.6640364" lon="12.6100424"><ele>631.8333333333334</ele><time>2026-04-25T11:53:54.543Z</time></trkpt><trkpt lat="42.6640701" lon="12.6099197"><ele>631.0</ele><time>2026-04-25T11:53:55.55Z</time></trkpt><trkpt lat="42.6641012" lon="12.6098192"><ele>631.0</ele><time>2026-04-25T11:53:56.551Z</time></trkpt><trkpt lat="42.6641295" lon="12.6097279"><ele>631.0</ele><time>2026-04-25T11:53:57.541Z</time></trkpt><trkpt lat="42.6641429" lon="12.6096251"><ele>631.0</ele><time>2026-04-25T11:53:58.541Z</time></trkpt><trkpt lat="42.6641325" lon="12.6095382"><ele>631.0</ele><time>2026-04-25T11:53:59.564Z</time></trkpt><trkpt lat="42.664095" lon="12.6094381"><ele>631.0</ele><time>2026-04-25T11:54:00.541Z</time></trkpt><trkpt lat="42.6640613" lon="12.6093294"><ele>631.0</ele><time>2026-04-25T11:54:01.535Z</time></trkpt><trkpt lat="42.6640517" lon="12.6092122"><ele>630.4</ele><time>2026-04-25T11:54:02.545Z</time></trkpt><trkpt lat="42.6640474" lon="12.6090852"><ele>629.8</ele><time>2026-04-25T11:54:03.55Z</time></trkpt><trkpt lat="42.6640353" lon="12.6089715"><ele>629.1999999999999</ele><time>2026-04-25T11:54:04.542Z</time></trkpt><trkpt lat="42.6640334" lon="12.6088717"><ele>628.6</ele><time>2026-04-25T11:54:05.547Z</time></trkpt><trkpt lat="42.6640425" lon="12.6087845"><ele>628.0</ele><time>2026-04-25T11:54:06.544Z</time></trkpt><trkpt lat="42.6641454" lon="12.6086269"><ele>629.4</ele><time>2026-04-25T11:54:08.542Z</time></trkpt><trkpt lat="42.6642286" lon="12.6085653"><ele>630.8</ele><time>2026-04-25T11:54:09.546Z</time></trkpt><trkpt lat="42.6643124" lon="12.608513"><ele>632.2</ele><time>2026-04-25T11:54:10.54Z</time></trkpt><trkpt lat="42.664403" lon="12.6084473"><ele>633.6</ele><time>2026-04-25T11:54:11.544Z</time></trkpt><trkpt lat="42.6644828" lon="12.6083665"><ele>635.0</ele><time>2026-04-25T11:54:12.542Z</time></trkpt><trkpt lat="42.6645654" lon="12.6082744"><ele>630.25</ele><time>2026-04-25T11:54:13.537Z</time></trkpt><trkpt lat="42.6646576" lon="12.6081853"><ele>625.5</ele><time>2026-04-25T11:54:14.543Z</time></trkpt><trkpt lat="42.6647419" lon="12.6081131"><ele>620.75</ele><time>2026-04-25T11:54:15.559Z</time></trkpt><trkpt lat="42.6648458" lon="12.6080425"><ele>616.0</ele><time>2026-04-25T11:54:16.549Z</time></trkpt><trkpt lat="42.6649488" lon="12.6079418"><ele>614.0</ele><time>2026-04-25T11:54:17.548Z</time></trkpt><trkpt lat="42.6650463" lon="12.6078215"><ele>612.0</ele><time>2026-04-25T11:54:18.543Z</time></trkpt><trkpt lat="42.6651399" lon="12.6077092"><ele>610.0</ele><time>2026-04-25T11:54:19.549Z</time></trkpt><trkpt lat="42.6652296" lon="12.6076222"><ele>608.0</ele><time>2026-04-25T11:54:20.547Z</time></trkpt><trkpt lat="42.6653334" lon="12.6075403"><ele>608.0</ele><time>2026-04-25T11:54:21.542Z</time></trkpt><trkpt lat="42.6654233" lon="12.60746"><ele>608.0</ele><time>2026-04-25T11:54:22.541Z</time></trkpt><trkpt lat="42.6655093" lon="12.6073602"><ele>608.0</ele><time>2026-04-25T11:54:23.542Z</time></trkpt><trkpt lat="42.6655999" lon="12.6072554"><ele>608.0</ele><time>2026-04-25T11:54:24.542Z</time></trkpt><trkpt lat="42.6657138" lon="12.6071622"><ele>608.0</ele><time>2026-04-25T11:54:25.553Z</time></trkpt><trkpt lat="42.6658232" lon="12.6070978"><ele>608.0</ele><time>2026-04-25T11:54:26.538Z</time></trkpt><trkpt lat="42.6659346" lon="12.6070364"><ele>608.0</ele><time>2026-04-25T11:54:27.546Z</time></trkpt><trkpt lat="42.6660535" lon="12.6069786"><ele>608.0</ele><time>2026-04-25T11:54:28.539Z</time></trkpt><trkpt lat="42.6661659" lon="12.6069181"><ele>607.75</ele><time>2026-04-25T11:54:29.536Z</time></trkpt><trkpt lat="42.6662866" lon="12.6068649"><ele>607.5</ele><time>2026-04-25T11:54:30.555Z</time></trkpt><trkpt lat="42.6664008" lon="12.6068142"><ele>607.25</ele><time>2026-04-25T11:54:31.54Z</time></trkpt><trkpt lat="42.666522" lon="12.6067764"><ele>607.0</ele><time>2026-04-25T11:54:32.552Z</time></trkpt><trkpt lat="42.6666417" lon="12.606744"><ele>607.0</ele><time>2026-04-25T11:54:33.568Z</time></trkpt><trkpt lat="42.6667538" lon="12.606721"><ele>607.0</ele><time>2026-04-25T11:54:34.544Z</time></trkpt><trkpt lat="42.6668447" lon="12.6066844"><ele>607.0</ele><time>2026-04-25T11:54:35.545Z</time></trkpt><trkpt lat="42.6669146" lon="12.6066333"><ele>607.0</ele><time>2026-04-25T11:54:36.536Z</time></trkpt><trkpt lat="42.6669672" lon="12.6065669"><ele>607.0</ele><time>2026-04-25T11:54:37.541Z</time></trkpt><trkpt lat="42.667016" lon="12.6064941"><ele>607.0</ele><time>2026-04-25T11:54:38.547Z</time></trkpt><trkpt lat="42.6670677" lon="12.6064392"><ele>605.6</ele><time>2026-04-25T11:54:39.546Z</time></trkpt><trkpt lat="42.6671482" lon="12.6064151"><ele>604.2</ele><time>2026-04-25T11:54:40.541Z</time></trkpt><trkpt lat="42.6672581" lon="12.6063965"><ele>602.8</ele><time>2026-04-25T11:54:41.538Z</time></trkpt><trkpt lat="42.6673705" lon="12.6063566"><ele>601.4</ele><time>2026-04-25T11:54:42.546Z</time></trkpt><trkpt lat="42.6674989" lon="12.6062828"><ele>600.0</ele><time>2026-04-25T11:54:43.564Z</time></trkpt><trkpt lat="42.6676419" lon="12.6062007"><ele>601.0</ele><time>2026-04-25T11:54:44.551Z</time></trkpt><trkpt lat="42.6678048" lon="12.606119"><ele>602.0</ele><time>2026-04-25T11:54:45.541Z</time></trkpt><trkpt lat="42.6679771" lon="12.6060571"><ele>603.0</ele><time>2026-04-25T11:54:46.54Z</time></trkpt><trkpt lat="42.6681209" lon="12.6060166"><ele>603.0</ele><time>2026-04-25T11:54:47.569Z</time></trkpt><trkpt lat="42.6682479" lon="12.6059826"><ele>603.0</ele><time>2026-04-25T11:54:48.543Z</time></trkpt><trkpt lat="42.6683565" lon="12.6059878"><ele>603.0</ele><time>2026-04-25T11:54:49.543Z</time></trkpt><trkpt lat="42.668461" lon="12.6060161"><ele>603.0</ele><time>2026-04-25T11:54:50.54Z</time></trkpt><trkpt lat="42.6685653" lon="12.6060774"><ele>604.5</ele><time>2026-04-25T11:54:51.549Z</time></trkpt><trkpt lat="42.6686706" lon="12.6061588"><ele>606.0</ele><time>2026-04-25T11:54:52.541Z</time></trkpt><trkpt lat="42.6687774" lon="12.6062625"><ele>607.5</ele><time>2026-04-25T11:54:53.54Z</time></trkpt><trkpt lat="42.6688899" lon="12.606368"><ele>609.0</ele><time>2026-04-25T11:54:54.541Z</time></trkpt><trkpt lat="42.6690035" lon="12.6064638"><ele>611.5</ele><time>2026-04-25T11:54:55.55Z</time></trkpt><trkpt lat="42.6691259" lon="12.6065529"><ele>614.0</ele><time>2026-04-25T11:54:56.541Z</time></trkpt><trkpt lat="42.6692553" lon="12.6066343"><ele>616.5</ele><time>2026-04-25T11:54:57.541Z</time></trkpt><trkpt lat="42.6694066" lon="12.606706"><ele>619.0</ele><time>2026-04-25T11:54:58.54Z</time></trkpt><trkpt lat="42.6695673" lon="12.6067724"><ele>619.0</ele><time>2026-04-25T11:54:59.549Z</time></trkpt><trkpt lat="42.6697329" lon="12.6068506"><ele>619.0</ele><time>2026-04-25T11:55:00.541Z</time></trkpt><trkpt lat="42.6698937" lon="12.6069285"><ele>619.0</ele><time>2026-04-25T11:55:01.541Z</time></trkpt><trkpt lat="42.6700601" lon="12.6069952"><ele>623.0</ele><time>2026-04-25T11:55:02.542Z</time></trkpt><trkpt lat="42.6702243" lon="12.6070546"><ele>627.0</ele><time>2026-04-25T11:55:03.551Z</time></trkpt><trkpt lat="42.6703846" lon="12.6071137"><ele>631.0</ele><time>2026-04-25T11:55:04.549Z</time></trkpt><trkpt lat="42.6705414" lon="12.6071772"><ele>631.0</ele><time>2026-04-25T11:55:05.535Z</time></trkpt><trkpt lat="42.6706886" lon="12.6072449"><ele>631.0</ele><time>2026-04-25T11:55:06.539Z</time></trkpt><trkpt lat="42.6708308" lon="12.6073086"><ele>631.0</ele><time>2026-04-25T11:55:07.544Z</time></trkpt><trkpt lat="42.670977" lon="12.60737"><ele>631.5</ele><time>2026-04-25T11:55:08.54Z</time></trkpt><trkpt lat="42.6711149" lon="12.6074076"><ele>632.0</ele><time>2026-04-25T11:55:09.539Z</time></trkpt><trkpt lat="42.6712607" lon="12.6074391"><ele>632.5</ele><time>2026-04-25T11:55:10.541Z</time></trkpt><trkpt lat="42.6714101" lon="12.607442"><ele>633.0</ele><time>2026-04-25T11:55:11.558Z</time></trkpt><trkpt lat="42.6715751" lon="12.6074374"><ele>633.0</ele><time>2026-04-25T11:55:12.534Z</time></trkpt><trkpt lat="42.6717381" lon="12.6074355"><ele>633.0</ele><time>2026-04-25T11:55:13.545Z</time></trkpt><trkpt lat="42.6718799" lon="12.6074278"><ele>633.0</ele><time>2026-04-25T11:55:14.54Z</time></trkpt><trkpt lat="42.6720102" lon="12.6074252"><ele>633.0</ele><time>2026-04-25T11:55:15.561Z</time></trkpt><trkpt lat="42.6721246" lon="12.6074226"><ele>632.6</ele><time>2026-04-25T11:55:16.535Z</time></trkpt><trkpt lat="42.6722284" lon="12.6073914"><ele>632.1999999999999</ele><time>2026-04-25T11:55:17.542Z</time></trkpt><trkpt lat="42.67233" lon="12.6073786"><ele>631.8</ele><time>2026-04-25T11:55:18.544Z</time></trkpt><trkpt lat="42.6724229" lon="12.6073753"><ele>631.4</ele><time>2026-04-25T11:55:19.554Z</time></trkpt><trkpt lat="42.6725031" lon="12.6073823"><ele>631.0</ele><time>2026-04-25T11:55:20.541Z</time></trkpt><trkpt lat="42.6725749" lon="12.6073917"><ele>631.0</ele><time>2026-04-25T11:55:21.544Z</time></trkpt><trkpt lat="42.6726573" lon="12.6073755"><ele>631.0</ele><time>2026-04-25T11:55:23.54Z</time></trkpt><trkpt lat="42.6726966" lon="12.6072799"><ele>631.0</ele><time>2026-04-25T11:55:25.542Z</time></trkpt><trkpt lat="42.6726556" lon="12.607156"><ele>631.0</ele><time>2026-04-25T11:55:27.538Z</time></trkpt><trkpt lat="42.6726252" lon="12.607062"><ele>631.0</ele><time>2026-04-25T11:55:28.539Z</time></trkpt><trkpt lat="42.6725878" lon="12.6069409"><ele>631.0</ele><time>2026-04-25T11:55:29.539Z</time></trkpt><trkpt lat="42.6725844" lon="12.606828"><ele>630.5</ele><time>2026-04-25T11:55:30.592Z</time></trkpt><trkpt lat="42.672596" lon="12.6067085"><ele>630.0</ele><time>2026-04-25T11:55:31.535Z</time></trkpt><trkpt lat="42.6726219" lon="12.6065935"><ele>629.5</ele><time>2026-04-25T11:55:32.543Z</time></trkpt><trkpt lat="42.672625" lon="12.6064824"><ele>629.0</ele><time>2026-04-25T11:55:33.559Z</time></trkpt><trkpt lat="42.672602" lon="12.6063741"><ele>628.5</ele><time>2026-04-25T11:55:34.539Z</time></trkpt><trkpt lat="42.6725573" lon="12.6062801"><ele>628.0</ele><time>2026-04-25T11:55:35.539Z</time></trkpt><trkpt lat="42.6724974" lon="12.6062221"><ele>628.0</ele><time>2026-04-25T11:55:36.542Z</time></trkpt><trkpt lat="42.6724278" lon="12.6061639"><ele>628.0</ele><time>2026-04-25T11:55:37.553Z</time></trkpt><trkpt lat="42.6723635" lon="12.6060801"><ele>628.0</ele><time>2026-04-25T11:55:38.546Z</time></trkpt><trkpt lat="42.6722942" lon="12.6059642"><ele>628.0</ele><time>2026-04-25T11:55:39.546Z</time></trkpt><trkpt lat="42.6722099" lon="12.6058619"><ele>628.0</ele><time>2026-04-25T11:55:40.539Z</time></trkpt><trkpt lat="42.6721284" lon="12.605786"><ele>628.0</ele><time>2026-04-25T11:55:41.548Z</time></trkpt><trkpt lat="42.6720284" lon="12.6057013"><ele>628.0</ele><time>2026-04-25T11:55:42.55Z</time></trkpt><trkpt lat="42.6719135" lon="12.6056084"><ele>628.0</ele><time>2026-04-25T11:55:43.543Z</time></trkpt><trkpt lat="42.6718054" lon="12.6055197"><ele>628.0</ele><time>2026-04-25T11:55:44.548Z</time></trkpt><trkpt lat="42.6717125" lon="12.6054449"><ele>628.0</ele><time>2026-04-25T11:55:45.542Z</time></trkpt><trkpt lat="42.671636" lon="12.6053749"><ele>628.0</ele><time>2026-04-25T11:55:46.54Z</time></trkpt><trkpt lat="42.6715881" lon="12.6053036"><ele>628.0</ele><time>2026-04-25T11:55:47.54Z</time></trkpt><trkpt lat="42.6715673" lon="12.6051532"><ele>628.0</ele><time>2026-04-25T11:55:49.545Z</time></trkpt><trkpt lat="42.6715668" lon="12.6050235"><ele>628.0</ele><time>2026-04-25T11:55:50.538Z</time></trkpt><trkpt lat="42.6715874" lon="12.6048949"><ele>630.0</ele><time>2026-04-25T11:55:51.546Z</time></trkpt><trkpt lat="42.6716249" lon="12.6047595"><ele>632.0</ele><time>2026-04-25T11:55:52.54Z</time></trkpt><trkpt lat="42.6716741" lon="12.6046114"><ele>634.0</ele><time>2026-04-25T11:55:53.541Z</time></trkpt><trkpt lat="42.671728" lon="12.6044659"><ele>636.0</ele><time>2026-04-25T11:55:54.542Z</time></trkpt><trkpt lat="42.6717756" lon="12.6043301"><ele>637.0</ele><time>2026-04-25T11:55:55.55Z</time></trkpt><trkpt lat="42.6718313" lon="12.6042276"><ele>638.0</ele><time>2026-04-25T11:55:56.538Z</time></trkpt><trkpt lat="42.6719127" lon="12.6041385"><ele>639.0</ele><time>2026-04-25T11:55:57.545Z</time></trkpt><trkpt lat="42.6720157" lon="12.6040564"><ele>640.0</ele><time>2026-04-25T11:55:58.544Z</time></trkpt><trkpt lat="42.6721079" lon="12.6039729"><ele>641.0</ele><time>2026-04-25T11:55:59.543Z</time></trkpt><trkpt lat="42.6722004" lon="12.6038942"><ele>641.0</ele><time>2026-04-25T11:56:00.549Z</time></trkpt><trkpt lat="42.6722838" lon="12.60382"><ele>641.0</ele><time>2026-04-25T11:56:01.544Z</time></trkpt><trkpt lat="42.6723592" lon="12.6037593"><ele>641.0</ele><time>2026-04-25T11:56:02.543Z</time></trkpt><trkpt lat="42.6724211" lon="12.6037147"><ele>641.0</ele><time>2026-04-25T11:56:03.548Z</time></trkpt><trkpt lat="42.6724948" lon="12.6036968"><ele>641.0</ele><time>2026-04-25T11:56:04.549Z</time></trkpt><trkpt lat="42.6726135" lon="12.6037174"><ele>641.0</ele><time>2026-04-25T11:56:06.544Z</time></trkpt><trkpt lat="42.6727326" lon="12.6036855"><ele>641.0</ele><time>2026-04-25T11:56:08.54Z</time></trkpt><trkpt lat="42.6728308" lon="12.6036287"><ele>657.0</ele><time>2026-04-25T11:56:10.559Z</time></trkpt><trkpt lat="42.6727784" lon="12.6036795"><ele>643.0</ele><time>2026-04-25T11:57:26.544Z</time></trkpt><trkpt lat="42.6727117" lon="12.6036915"><ele>641.0</ele><time>2026-04-25T11:57:29.551Z</time></trkpt></trkseg><trkseg><trkpt lat="42.672629" lon="12.6037212"><ele>641.0</ele><time>2026-04-25T12:37:21.544Z</time></trkpt><trkpt lat="42.6725549" lon="12.6037156"><ele>641.0</ele><time>2026-04-25T12:37:23.554Z</time></trkpt><trkpt lat="42.6724788" lon="12.6036878"><ele>641.0</ele><time>2026-04-25T12:37:26.543Z</time></trkpt><trkpt lat="42.6724071" lon="12.6037103"><ele>641.0</ele><time>2026-04-25T12:37:28.545Z</time></trkpt><trkpt lat="42.6723478" lon="12.6037563"><ele>641.0</ele><time>2026-04-25T12:37:29.557Z</time></trkpt><trkpt lat="42.6722922" lon="12.6038125"><ele>641.0</ele><time>2026-04-25T12:37:30.55Z</time></trkpt><trkpt lat="42.6722398" lon="12.6038734"><ele>641.0</ele><time>2026-04-25T12:37:31.549Z</time></trkpt><trkpt lat="42.6721479" lon="12.6039524"><ele>641.0</ele><time>2026-04-25T12:37:33.545Z</time></trkpt><trkpt lat="42.6720513" lon="12.6040305"><ele>641.0</ele><time>2026-04-25T12:37:35.545Z</time></trkpt><trkpt lat="42.6719697" lon="12.6041136"><ele>641.0</ele><time>2026-04-25T12:37:37.546Z</time></trkpt><trkpt lat="42.671888" lon="12.6041894"><ele>641.0</ele><time>2026-04-25T12:37:39.544Z</time></trkpt><trkpt lat="42.6718192" lon="12.6042883"><ele>641.0</ele><time>2026-04-25T12:37:41.544Z</time></trkpt><trkpt lat="42.6717533" lon="12.6043864"><ele>640.1666666666666</ele><time>2026-04-25T12:37:43.547Z</time></trkpt><trkpt lat="42.6716955" lon="12.6045385"><ele>639.3333333333333</ele><time>2026-04-25T12:37:45.547Z</time></trkpt><trkpt lat="42.6716574" lon="12.6046288"><ele>638.5</ele><time>2026-04-25T12:37:46.551Z</time></trkpt><trkpt lat="42.6716168" lon="12.6047204"><ele>637.6666666666666</ele><time>2026-04-25T12:37:47.539Z</time></trkpt><trkpt lat="42.671579" lon="12.6048104"><ele>636.8333333333334</ele><time>2026-04-25T12:37:48.553Z</time></trkpt><trkpt lat="42.6715484" lon="12.6049059"><ele>636.0</ele><time>2026-04-25T12:37:49.543Z</time></trkpt><trkpt lat="42.6715284" lon="12.6050076"><ele>636.0</ele><time>2026-04-25T12:37:50.553Z</time></trkpt><trkpt lat="42.6715197" lon="12.6051152"><ele>636.0</ele><time>2026-04-25T12:37:51.544Z</time></trkpt><trkpt lat="42.6715212" lon="12.6052104"><ele>636.0</ele><time>2026-04-25T12:37:52.544Z</time></trkpt><trkpt lat="42.6715721" lon="12.6053536"><ele>636.0</ele><time>2026-04-25T12:37:54.544Z</time></trkpt><trkpt lat="42.6716395" lon="12.6054186"><ele>636.0</ele><time>2026-04-25T12:37:55.541Z</time></trkpt><trkpt lat="42.6717145" lon="12.6054713"><ele>636.0</ele><time>2026-04-25T12:37:56.574Z</time></trkpt><trkpt lat="42.6717958" lon="12.6055237"><ele>635.0</ele><time>2026-04-25T12:37:57.544Z</time></trkpt><trkpt lat="42.6718924" lon="12.60562"><ele>634.0</ele><time>2026-04-25T12:37:58.568Z</time></trkpt><trkpt lat="42.6719864" lon="12.6057035"><ele>633.0</ele><time>2026-04-25T12:37:59.55Z</time></trkpt><trkpt lat="42.6720784" lon="12.6057961"><ele>632.0</ele><time>2026-04-25T12:38:00.544Z</time></trkpt><trkpt lat="42.672156" lon="12.605876"><ele>631.0</ele><time>2026-04-25T12:38:01.544Z</time></trkpt><trkpt lat="42.6722243" lon="12.605955"><ele>631.0</ele><time>2026-04-25T12:38:02.54Z</time></trkpt><trkpt lat="42.6722854" lon="12.6060524"><ele>631.0</ele><time>2026-04-25T12:38:03.542Z</time></trkpt><trkpt lat="42.672363" lon="12.6061597"><ele>631.0</ele><time>2026-04-25T12:38:04.539Z</time></trkpt><trkpt lat="42.6724442" lon="12.6062414"><ele>631.0</ele><time>2026-04-25T12:38:05.544Z</time></trkpt><trkpt lat="42.6725088" lon="12.606304"><ele>631.0</ele><time>2026-04-25T12:38:06.54Z</time></trkpt><trkpt lat="42.6725544" lon="12.6063812"><ele>631.0</ele><time>2026-04-25T12:38:07.555Z</time></trkpt><trkpt lat="42.672582" lon="12.6064633"><ele>631.0</ele><time>2026-04-25T12:38:08.543Z</time></trkpt><trkpt lat="42.6725874" lon="12.6065722"><ele>631.0</ele><time>2026-04-25T12:38:09.545Z</time></trkpt><trkpt lat="42.6725793" lon="12.6066903"><ele>631.0</ele><time>2026-04-25T12:38:10.54Z</time></trkpt><trkpt lat="42.6725644" lon="12.6068166"><ele>631.0</ele><time>2026-04-25T12:38:11.544Z</time></trkpt><trkpt lat="42.672561" lon="12.6069452"><ele>631.0</ele><time>2026-04-25T12:38:12.538Z</time></trkpt><trkpt lat="42.6725748" lon="12.6070554"><ele>631.0</ele><time>2026-04-25T12:38:13.546Z</time></trkpt><trkpt lat="42.6726045" lon="12.6071605"><ele>631.0</ele><time>2026-04-25T12:38:14.573Z</time></trkpt><trkpt lat="42.6726422" lon="12.6072336"><ele>631.0</ele><time>2026-04-25T12:38:15.549Z</time></trkpt><trkpt lat="42.6727235" lon="12.607345"><ele>631.0</ele><time>2026-04-25T12:38:17.553Z</time></trkpt><trkpt lat="42.6728294" lon="12.607426"><ele>631.0</ele><time>2026-04-25T12:38:19.559Z</time></trkpt><trkpt lat="42.6728971" lon="12.6074597"><ele>630.3333333333334</ele><time>2026-04-25T12:38:20.553Z</time></trkpt><trkpt lat="42.6729772" lon="12.6074928"><ele>629.6666666666667</ele><time>2026-04-25T12:38:21.553Z</time></trkpt><trkpt lat="42.673055" lon="12.6075169"><ele>629.0</ele><time>2026-04-25T12:38:22.546Z</time></trkpt><trkpt lat="42.6731363" lon="12.6075449"><ele>628.3333333333334</ele><time>2026-04-25T12:38:23.549Z</time></trkpt><trkpt lat="42.6732183" lon="12.6075724"><ele>627.6666666666666</ele><time>2026-04-25T12:38:24.56Z</time></trkpt><trkpt lat="42.6733063" lon="12.6076019"><ele>627.0</ele><time>2026-04-25T12:38:25.549Z</time></trkpt><trkpt lat="42.6733913" lon="12.6076026"><ele>627.0</ele><time>2026-04-25T12:38:26.562Z</time></trkpt><trkpt lat="42.6734838" lon="12.6075857"><ele>627.0</ele><time>2026-04-25T12:38:27.548Z</time></trkpt><trkpt lat="42.6735811" lon="12.6075757"><ele>627.0</ele><time>2026-04-25T12:38:28.548Z</time></trkpt><trkpt lat="42.6736751" lon="12.6075527"><ele>627.0</ele><time>2026-04-25T12:38:29.556Z</time></trkpt><trkpt lat="42.6737685" lon="12.6075295"><ele>627.0</ele><time>2026-04-25T12:38:30.547Z</time></trkpt><trkpt lat="42.6738511" lon="12.6074994"><ele>625.6666666666666</ele><time>2026-04-25T12:38:31.566Z</time></trkpt><trkpt lat="42.6739348" lon="12.6074895"><ele>624.3333333333334</ele><time>2026-04-25T12:38:32.552Z</time></trkpt><trkpt lat="42.6740233" lon="12.6074978"><ele>623.0</ele><time>2026-04-25T12:38:33.544Z</time></trkpt><trkpt lat="42.674112" lon="12.6075128"><ele>621.6666666666667</ele><time>2026-04-25T12:38:34.548Z</time></trkpt><trkpt lat="42.674197" lon="12.6075323"><ele>620.3333333333334</ele><time>2026-04-25T12:38:35.552Z</time></trkpt><trkpt lat="42.674276" lon="12.607557"><ele>619.0</ele><time>2026-04-25T12:38:36.55Z</time></trkpt><trkpt lat="42.6743498" lon="12.6075826"><ele>619.0</ele><time>2026-04-25T12:38:37.549Z</time></trkpt><trkpt lat="42.6744157" lon="12.6076065"><ele>619.0</ele><time>2026-04-25T12:38:38.561Z</time></trkpt><trkpt lat="42.6745314" lon="12.6076081"><ele>619.0</ele><time>2026-04-25T12:38:40.554Z</time></trkpt><trkpt lat="42.6746502" lon="12.6075928"><ele>619.0</ele><time>2026-04-25T12:38:42.548Z</time></trkpt><trkpt lat="42.674714" lon="12.6075702"><ele>619.0</ele><time>2026-04-25T12:38:43.554Z</time></trkpt><trkpt lat="42.674784" lon="12.60756"><ele>619.0</ele><time>2026-04-25T12:38:44.547Z</time></trkpt><trkpt lat="42.6749076" lon="12.6075604"><ele>618.3333333333334</ele><time>2026-04-25T12:38:46.554Z</time></trkpt><trkpt lat="42.6750278" lon="12.6076065"><ele>617.6666666666667</ele><time>2026-04-25T12:38:48.548Z</time></trkpt><trkpt lat="42.6750915" lon="12.6076363"><ele>617.0</ele><time>2026-04-25T12:38:49.545Z</time></trkpt><trkpt lat="42.6751524" lon="12.6076662"><ele>616.3333333333334</ele><time>2026-04-25T12:38:50.549Z</time></trkpt><trkpt lat="42.6752121" lon="12.6076993"><ele>615.6666666666666</ele><time>2026-04-25T12:38:51.581Z</time></trkpt><trkpt lat="42.6753217" lon="12.6077547"><ele>615.0</ele><time>2026-04-25T12:38:53.548Z</time></trkpt><trkpt lat="42.675426" lon="12.6078235"><ele>611.6666666666666</ele><time>2026-04-25T12:38:55.547Z</time></trkpt><trkpt lat="42.6755211" lon="12.6078948"><ele>608.3333333333334</ele><time>2026-04-25T12:38:57.552Z</time></trkpt><trkpt lat="42.6755889" lon="12.6079298"><ele>605.0</ele><time>2026-04-25T12:38:59.571Z</time></trkpt><trkpt lat="42.6756621" lon="12.6079691"><ele>601.6666666666667</ele><time>2026-04-25T12:39:02.553Z</time></trkpt><trkpt lat="42.6757322" lon="12.6079552"><ele>598.3333333333334</ele><time>2026-04-25T12:39:05.55Z</time></trkpt><trkpt lat="42.6758032" lon="12.6079242"><ele>595.0</ele><time>2026-04-25T12:39:07.547Z</time></trkpt><trkpt lat="42.6758434" lon="12.6078422"><ele>595.0</ele><time>2026-04-25T12:39:09.551Z</time></trkpt><trkpt lat="42.6758863" lon="12.6077754"><ele>595.0</ele><time>2026-04-25T12:39:11.55Z</time></trkpt><trkpt lat="42.6759457" lon="12.6077335"><ele>595.0</ele><time>2026-04-25T12:39:14.551Z</time></trkpt><trkpt lat="42.6760021" lon="12.6077849"><ele>595.0</ele><time>2026-04-25T12:39:17.553Z</time></trkpt><trkpt lat="42.6760016" lon="12.6078888"><ele>595.0</ele><time>2026-04-25T12:39:20.547Z</time></trkpt><trkpt lat="42.6759604" lon="12.6080008"><ele>595.0</ele><time>2026-04-25T12:39:22.552Z</time></trkpt><trkpt lat="42.6759201" lon="12.6081421"><ele>595.0</ele><time>2026-04-25T12:39:24.558Z</time></trkpt><trkpt lat="42.67587" lon="12.608265"><ele>595.0</ele><time>2026-04-25T12:39:26.549Z</time></trkpt><trkpt lat="42.6757909" lon="12.608367"><ele>595.0</ele><time>2026-04-25T12:39:28.551Z</time></trkpt><trkpt lat="42.6756928" lon="12.6084613"><ele>595.0</ele><time>2026-04-25T12:39:30.564Z</time></trkpt><trkpt lat="42.6756131" lon="12.6085426"><ele>595.0</ele><time>2026-04-25T12:39:32.545Z</time></trkpt><trkpt lat="42.6755888" lon="12.6086689"><ele>595.5</ele><time>2026-04-25T12:39:34.548Z</time></trkpt><trkpt lat="42.6756397" lon="12.6087675"><ele>596.0</ele><time>2026-04-25T12:39:35.555Z</time></trkpt><trkpt lat="42.6756949" lon="12.6088541"><ele>596.5</ele><time>2026-04-25T12:39:36.551Z</time></trkpt><trkpt lat="42.6757668" lon="12.6089229"><ele>597.0</ele><time>2026-04-25T12:39:37.557Z</time></trkpt><trkpt lat="42.6758476" lon="12.6089922"><ele>597.5</ele><time>2026-04-25T12:39:38.549Z</time></trkpt><trkpt lat="42.675931" lon="12.609041"><ele>598.0</ele><time>2026-04-25T12:39:39.559Z</time></trkpt><trkpt lat="42.676029" lon="12.6090885"><ele>595.6666666666667</ele><time>2026-04-25T12:39:40.548Z</time></trkpt><trkpt lat="42.6761142" lon="12.609113"><ele>593.3333333333334</ele><time>2026-04-25T12:39:41.551Z</time></trkpt><trkpt lat="42.6761975" lon="12.6091364"><ele>591.0</ele><time>2026-04-25T12:39:42.552Z</time></trkpt><trkpt lat="42.6762696" lon="12.6091265"><ele>588.6666666666666</ele><time>2026-04-25T12:39:43.552Z</time></trkpt><trkpt lat="42.6763464" lon="12.6091124"><ele>586.3333333333333</ele><time>2026-04-25T12:39:44.547Z</time></trkpt><trkpt lat="42.676423" lon="12.6090944"><ele>584.0</ele><time>2026-04-25T12:39:45.546Z</time></trkpt><trkpt lat="42.6764913" lon="12.6090848"><ele>584.0</ele><time>2026-04-25T12:39:46.55Z</time></trkpt><trkpt lat="42.6765619" lon="12.6090988"><ele>584.0</ele><time>2026-04-25T12:39:47.549Z</time></trkpt><trkpt lat="42.6766198" lon="12.6091373"><ele>584.0</ele><time>2026-04-25T12:39:48.551Z</time></trkpt><trkpt lat="42.6767037" lon="12.6092798"><ele>584.0</ele><time>2026-04-25T12:39:50.553Z</time></trkpt><trkpt lat="42.676737" lon="12.6093537"><ele>584.0</ele><time>2026-04-25T12:39:51.551Z</time></trkpt><trkpt lat="42.6767698" lon="12.6094362"><ele>584.0</ele><time>2026-04-25T12:39:52.558Z</time></trkpt><trkpt lat="42.6768415" lon="12.6095807"><ele>582.3333333333333</ele><time>2026-04-25T12:39:54.551Z</time></trkpt><trkpt lat="42.6768925" lon="12.6096682"><ele>580.6666666666666</ele><time>2026-04-25T12:39:55.546Z</time></trkpt><trkpt lat="42.6769457" lon="12.6097678"><ele>579.0</ele><time>2026-04-25T12:39:56.551Z</time></trkpt><trkpt lat="42.6769859" lon="12.6098647"><ele>577.3333333333334</ele><time>2026-04-25T12:39:57.553Z</time></trkpt><trkpt lat="42.6770166" lon="12.6099482"><ele>575.6666666666667</ele><time>2026-04-25T12:39:58.552Z</time></trkpt><trkpt lat="42.6770434" lon="12.6100296"><ele>574.0</ele><time>2026-04-25T12:39:59.564Z</time></trkpt><trkpt lat="42.6770747" lon="12.6101039"><ele>574.0</ele><time>2026-04-25T12:40:00.546Z</time></trkpt><trkpt lat="42.6771718" lon="12.61023"><ele>574.0</ele><time>2026-04-25T12:40:02.553Z</time></trkpt><trkpt lat="42.6772526" lon="12.610308"><ele>574.0</ele><time>2026-04-25T12:40:03.551Z</time></trkpt><trkpt lat="42.6773357" lon="12.6103831"><ele>574.0</ele><time>2026-04-25T12:40:04.548Z</time></trkpt><trkpt lat="42.6774124" lon="12.6104286"><ele>574.0</ele><time>2026-04-25T12:40:05.549Z</time></trkpt><trkpt lat="42.6774851" lon="12.6104312"><ele>574.0</ele><time>2026-04-25T12:40:06.549Z</time></trkpt><trkpt lat="42.6775656" lon="12.6104248"><ele>574.0</ele><time>2026-04-25T12:40:07.556Z</time></trkpt><trkpt lat="42.6776417" lon="12.6104156"><ele>574.0</ele><time>2026-04-25T12:40:08.549Z</time></trkpt><trkpt lat="42.6777129" lon="12.6103809"><ele>574.0</ele><time>2026-04-25T12:40:09.55Z</time></trkpt><trkpt lat="42.6777953" lon="12.6103212"><ele>574.0</ele><time>2026-04-25T12:40:10.554Z</time></trkpt><trkpt lat="42.6778745" lon="12.610223"><ele>574.0</ele><time>2026-04-25T12:40:11.552Z</time></trkpt><trkpt lat="42.6779529" lon="12.6101126"><ele>574.0</ele><time>2026-04-25T12:40:12.564Z</time></trkpt><trkpt lat="42.6780318" lon="12.6099927"><ele>574.0</ele><time>2026-04-25T12:40:13.548Z</time></trkpt><trkpt lat="42.678103" lon="12.609862"><ele>574.0</ele><time>2026-04-25T12:40:14.552Z</time></trkpt><trkpt lat="42.6781609" lon="12.6097357"><ele>574.0</ele><time>2026-04-25T12:40:15.586Z</time></trkpt><trkpt lat="42.6782233" lon="12.6096282"><ele>574.0</ele><time>2026-04-25T12:40:16.547Z</time></trkpt><trkpt lat="42.6782883" lon="12.6095384"><ele>574.8</ele><time>2026-04-25T12:40:17.55Z</time></trkpt><trkpt lat="42.6783456" lon="12.6094517"><ele>575.5999999999999</ele><time>2026-04-25T12:40:18.552Z</time></trkpt><trkpt lat="42.6784246" lon="12.6093772"><ele>576.4</ele><time>2026-04-25T12:40:19.547Z</time></trkpt><trkpt lat="42.6785041" lon="12.6093003"><ele>577.1999999999999</ele><time>2026-04-25T12:40:20.548Z</time></trkpt><trkpt lat="42.6785982" lon="12.609244"><ele>578.0</ele><time>2026-04-25T12:40:21.55Z</time></trkpt><trkpt lat="42.6786813" lon="12.6092087"><ele>578.0</ele><time>2026-04-25T12:40:22.573Z</time></trkpt><trkpt lat="42.6787437" lon="12.6091787"><ele>578.0</ele><time>2026-04-25T12:40:23.549Z</time></trkpt><trkpt lat="42.6788173" lon="12.6091612"><ele>578.0</ele><time>2026-04-25T12:40:24.557Z</time></trkpt><trkpt lat="42.6788918" lon="12.6091466"><ele>578.0</ele><time>2026-04-25T12:40:25.573Z</time></trkpt><trkpt lat="42.6789808" lon="12.6091409"><ele>578.0</ele><time>2026-04-25T12:40:26.552Z</time></trkpt><trkpt lat="42.6790658" lon="12.6091167"><ele>578.0</ele><time>2026-04-25T12:40:27.547Z</time></trkpt><trkpt lat="42.6791575" lon="12.6090708"><ele>578.0</ele><time>2026-04-25T12:40:28.556Z</time></trkpt><trkpt lat="42.6792507" lon="12.6090134"><ele>578.0</ele><time>2026-04-25T12:40:29.55Z</time></trkpt><trkpt lat="42.6793269" lon="12.6089575"><ele>578.0</ele><time>2026-04-25T12:40:30.585Z</time></trkpt><trkpt lat="42.679399" lon="12.6088959"><ele>578.0</ele><time>2026-04-25T12:40:31.555Z</time></trkpt><trkpt lat="42.6794669" lon="12.6088307"><ele>578.0</ele><time>2026-04-25T12:40:32.555Z</time></trkpt><trkpt lat="42.6795223" lon="12.608747"><ele>578.0</ele><time>2026-04-25T12:40:33.543Z</time></trkpt><trkpt lat="42.6795687" lon="12.6086363"><ele>580.0</ele><time>2026-04-25T12:40:34.55Z</time></trkpt><trkpt lat="42.679613" lon="12.6084778"><ele>582.0</ele><time>2026-04-25T12:40:35.556Z</time></trkpt><trkpt lat="42.679648" lon="12.6083054"><ele>584.0</ele><time>2026-04-25T12:40:36.552Z</time></trkpt><trkpt lat="42.6796832" lon="12.6081572"><ele>586.0</ele><time>2026-04-25T12:40:37.567Z</time></trkpt><trkpt lat="42.6797228" lon="12.6080297"><ele>586.0</ele><time>2026-04-25T12:40:38.548Z</time></trkpt><trkpt lat="42.6797733" lon="12.6079195"><ele>586.0</ele><time>2026-04-25T12:40:39.548Z</time></trkpt><trkpt lat="42.6798223" lon="12.6078215"><ele>586.0</ele><time>2026-04-25T12:40:40.55Z</time></trkpt><trkpt lat="42.6798821" lon="12.6077343"><ele>586.0</ele><time>2026-04-25T12:40:41.554Z</time></trkpt><trkpt lat="42.6799403" lon="12.6076603"><ele>586.0</ele><time>2026-04-25T12:40:42.546Z</time></trkpt><trkpt lat="42.6800009" lon="12.6075828"><ele>586.0</ele><time>2026-04-25T12:40:43.547Z</time></trkpt><trkpt lat="42.6800956" lon="12.6075148"><ele>587.75</ele><time>2026-04-25T12:40:44.548Z</time></trkpt><trkpt lat="42.680208" lon="12.6074365"><ele>589.5</ele><time>2026-04-25T12:40:45.562Z</time></trkpt><trkpt lat="42.6803252" lon="12.6073359"><ele>591.25</ele><time>2026-04-25T12:40:46.547Z</time></trkpt><trkpt lat="42.6804367" lon="12.6072159"><ele>593.0</ele><time>2026-04-25T12:40:47.55Z</time></trkpt><trkpt lat="42.6805315" lon="12.6071051"><ele>593.0</ele><time>2026-04-25T12:40:48.552Z</time></trkpt><trkpt lat="42.6806134" lon="12.6069955"><ele>593.0</ele><time>2026-04-25T12:40:49.552Z</time></trkpt><trkpt lat="42.6807015" lon="12.6068898"><ele>593.0</ele><time>2026-04-25T12:40:50.546Z</time></trkpt><trkpt lat="42.6807812" lon="12.6067705"><ele>593.0</ele><time>2026-04-25T12:40:51.556Z</time></trkpt><trkpt lat="42.680858" lon="12.6066353"><ele>590.25</ele><time>2026-04-25T12:40:52.557Z</time></trkpt><trkpt lat="42.6809398" lon="12.6064954"><ele>587.5</ele><time>2026-04-25T12:40:53.554Z</time></trkpt><trkpt lat="42.6810202" lon="12.6063501"><ele>584.75</ele><time>2026-04-25T12:40:54.549Z</time></trkpt><trkpt lat="42.6811106" lon="12.6061906"><ele>582.0</ele><time>2026-04-25T12:40:55.548Z</time></trkpt><trkpt lat="42.6811936" lon="12.606048"><ele>579.8000000000001</ele><time>2026-04-25T12:40:56.555Z</time></trkpt><trkpt lat="42.681267" lon="12.6059461"><ele>577.6</ele><time>2026-04-25T12:40:57.549Z</time></trkpt><trkpt lat="42.6813373" lon="12.6058715"><ele>575.4000000000001</ele><time>2026-04-25T12:40:58.55Z</time></trkpt><trkpt lat="42.6814071" lon="12.6058236"><ele>573.2</ele><time>2026-04-25T12:40:59.559Z</time></trkpt><trkpt lat="42.6814871" lon="12.6057814"><ele>571.0</ele><time>2026-04-25T12:41:00.553Z</time></trkpt><trkpt lat="42.6815855" lon="12.6057518"><ele>571.0</ele><time>2026-04-25T12:41:01.55Z</time></trkpt><trkpt lat="42.6816742" lon="12.6057143"><ele>571.0</ele><time>2026-04-25T12:41:02.555Z</time></trkpt><trkpt lat="42.6817591" lon="12.6056906"><ele>571.0</ele><time>2026-04-25T12:41:03.554Z</time></trkpt><trkpt lat="42.6818343" lon="12.6056863"><ele>571.0</ele><time>2026-04-25T12:41:04.548Z</time></trkpt><trkpt lat="42.6819024" lon="12.6056834"><ele>571.0</ele><time>2026-04-25T12:41:05.553Z</time></trkpt><trkpt lat="42.6820208" lon="12.6056876"><ele>571.0</ele><time>2026-04-25T12:41:07.561Z</time></trkpt><trkpt lat="42.6821381" lon="12.6057117"><ele>569.8</ele><time>2026-04-25T12:41:09.549Z</time></trkpt><trkpt lat="42.6822403" lon="12.6057311"><ele>568.6</ele><time>2026-04-25T12:41:11.551Z</time></trkpt><trkpt lat="42.6823436" lon="12.6057823"><ele>567.4</ele><time>2026-04-25T12:41:13.549Z</time></trkpt><trkpt lat="42.6823989" lon="12.6058338"><ele>566.2</ele><time>2026-04-25T12:41:14.551Z</time></trkpt><trkpt lat="42.6824917" lon="12.6058916"><ele>565.0</ele><time>2026-04-25T12:41:16.551Z</time></trkpt><trkpt lat="42.6825725" lon="12.6059263"><ele>565.0</ele><time>2026-04-25T12:41:18.556Z</time></trkpt><trkpt lat="42.6826603" lon="12.6059265"><ele>565.0</ele><time>2026-04-25T12:41:20.553Z</time></trkpt><trkpt lat="42.6827458" lon="12.6059295"><ele>565.0</ele><time>2026-04-25T12:41:22.564Z</time></trkpt><trkpt lat="42.6828207" lon="12.6059271"><ele>565.0</ele><time>2026-04-25T12:41:54.551Z</time></trkpt><trkpt lat="42.6828875" lon="12.6058587"><ele>565.0</ele><time>2026-04-25T12:41:57.553Z</time></trkpt><trkpt lat="42.6829086" lon="12.6057574"><ele>565.0</ele><time>2026-04-25T12:42:00.553Z</time></trkpt><trkpt lat="42.6829342" lon="12.6056739"><ele>563.6666666666667</ele><time>2026-04-25T12:42:02.556Z</time></trkpt><trkpt lat="42.682961" lon="12.605574"><ele>562.3333333333334</ele><time>2026-04-25T12:42:04.549Z</time></trkpt><trkpt lat="42.6829903" lon="12.6054779"><ele>561.0</ele><time>2026-04-25T12:42:06.563Z</time></trkpt><trkpt lat="42.6830116" lon="12.6053878"><ele>559.6666666666666</ele><time>2026-04-25T12:42:08.557Z</time></trkpt><trkpt lat="42.6830371" lon="12.6052718"><ele>558.3333333333333</ele><time>2026-04-25T12:42:10.559Z</time></trkpt><trkpt lat="42.6830472" lon="12.6051683"><ele>557.0</ele><time>2026-04-25T12:42:12.552Z</time></trkpt><trkpt lat="42.6830427" lon="12.6050476"><ele>555.8333333333333</ele><time>2026-04-25T12:42:14.555Z</time></trkpt><trkpt lat="42.6830184" lon="12.6049181"><ele>554.6666666666666</ele><time>2026-04-25T12:42:16.558Z</time></trkpt><trkpt lat="42.6829791" lon="12.6047672"><ele>553.5</ele><time>2026-04-25T12:42:18.549Z</time></trkpt><trkpt lat="42.6829377" lon="12.6046924"><ele>552.3333333333334</ele><time>2026-04-25T12:42:19.554Z</time></trkpt><trkpt lat="42.682902" lon="12.6046145"><ele>551.1666666666667</ele><time>2026-04-25T12:42:20.55Z</time></trkpt><trkpt lat="42.6828556" lon="12.6045503"><ele>550.0</ele><time>2026-04-25T12:42:21.559Z</time></trkpt><trkpt lat="42.6828165" lon="12.6044829"><ele>547.2</ele><time>2026-04-25T12:42:22.551Z</time></trkpt><trkpt lat="42.6827487" lon="12.6043551"><ele>544.4</ele><time>2026-04-25T12:42:24.552Z</time></trkpt><trkpt lat="42.6827018" lon="12.6042278"><ele>541.6</ele><time>2026-04-25T12:42:26.554Z</time></trkpt><trkpt lat="42.6827141" lon="12.6040561"><ele>538.8</ele><time>2026-04-25T12:42:28.549Z</time></trkpt><trkpt lat="42.6827256" lon="12.6039595"><ele>536.0</ele><time>2026-04-25T12:42:29.552Z</time></trkpt><trkpt lat="42.6827317" lon="12.603864"><ele>536.0</ele><time>2026-04-25T12:42:30.582Z</time></trkpt><trkpt lat="42.6827348" lon="12.6037779"><ele>536.0</ele><time>2026-04-25T12:42:31.554Z</time></trkpt><trkpt lat="42.6827329" lon="12.6036272"><ele>536.0</ele><time>2026-04-25T12:42:33.556Z</time></trkpt><trkpt lat="42.6827385" lon="12.6035216"><ele>536.0</ele><time>2026-04-25T12:42:35.556Z</time></trkpt><trkpt lat="42.6827662" lon="12.60344"><ele>536.0</ele><time>2026-04-25T12:42:37.552Z</time></trkpt><trkpt lat="42.6828369" lon="12.6033549"><ele>536.0</ele><time>2026-04-25T12:42:39.558Z</time></trkpt><trkpt lat="42.6829245" lon="12.6032609"><ele>535.7142857142858</ele><time>2026-04-25T12:42:41.551Z</time></trkpt><trkpt lat="42.682972" lon="12.6032029"><ele>535.4285714285714</ele><time>2026-04-25T12:42:42.553Z</time></trkpt><trkpt lat="42.6830229" lon="12.6031449"><ele>535.1428571428571</ele><time>2026-04-25T12:42:43.56Z</time></trkpt><trkpt lat="42.6830706" lon="12.6030786"><ele>534.8571428571429</ele><time>2026-04-25T12:42:44.55Z</time></trkpt><trkpt lat="42.6831188" lon="12.6030099"><ele>534.5714285714286</ele><time>2026-04-25T12:42:45.553Z</time></trkpt><trkpt lat="42.6831755" lon="12.6029524"><ele>534.2857142857143</ele><time>2026-04-25T12:42:46.554Z</time></trkpt><trkpt lat="42.6832344" lon="12.602885"><ele>534.0</ele><time>2026-04-25T12:42:47.549Z</time></trkpt><trkpt lat="42.6832935" lon="12.6028144"><ele>531.6666666666666</ele><time>2026-04-25T12:42:48.553Z</time></trkpt><trkpt lat="42.683351" lon="12.6027397"><ele>529.3333333333334</ele><time>2026-04-25T12:42:49.561Z</time></trkpt><trkpt lat="42.6833954" lon="12.6026607"><ele>527.0</ele><time>2026-04-25T12:42:50.556Z</time></trkpt><trkpt lat="42.6834485" lon="12.602594"><ele>524.6666666666667</ele><time>2026-04-25T12:42:51.551Z</time></trkpt><trkpt lat="42.6834993" lon="12.6025321"><ele>522.3333333333334</ele><time>2026-04-25T12:42:52.547Z</time></trkpt><trkpt lat="42.6835786" lon="12.6024048"><ele>520.0</ele><time>2026-04-25T12:42:54.553Z</time></trkpt><trkpt lat="42.6836689" lon="12.6023004"><ele>520.0</ele><time>2026-04-25T12:42:56.552Z</time></trkpt><trkpt lat="42.6837432" lon="12.6022061"><ele>520.0</ele><time>2026-04-25T12:42:58.554Z</time></trkpt><trkpt lat="42.6838199" lon="12.6021397"><ele>520.0</ele><time>2026-04-25T12:43:00.557Z</time></trkpt><trkpt lat="42.683889" lon="12.6020771"><ele>520.0</ele><time>2026-04-25T12:43:02.558Z</time></trkpt><trkpt lat="42.6839577" lon="12.6020224"><ele>520.0</ele><time>2026-04-25T12:43:04.553Z</time></trkpt><trkpt lat="42.6840283" lon="12.6019704"><ele>520.0</ele><time>2026-04-25T12:43:06.552Z</time></trkpt><trkpt lat="42.6841094" lon="12.6019299"><ele>516.1666666666667</ele><time>2026-04-25T12:43:08.551Z</time></trkpt><trkpt lat="42.6841965" lon="12.6019063"><ele>512.3333333333334</ele><time>2026-04-25T12:43:10.552Z</time></trkpt><trkpt lat="42.684259" lon="12.6018561"><ele>508.5</ele><time>2026-04-25T12:43:12.551Z</time></trkpt><trkpt lat="42.684333" lon="12.6018357"><ele>504.66666666666663</ele><time>2026-04-25T12:43:14.55Z</time></trkpt><trkpt lat="42.6844088" lon="12.601825"><ele>500.8333333333333</ele><time>2026-04-25T12:43:16.552Z</time></trkpt><trkpt lat="42.684492" lon="12.6018283"><ele>497.0</ele><time>2026-04-25T12:43:18.574Z</time></trkpt><trkpt lat="42.6845739" lon="12.601809"><ele>495.66666666666663</ele><time>2026-04-25T12:43:20.547Z</time></trkpt><trkpt lat="42.6846562" lon="12.6018097"><ele>494.3333333333333</ele><time>2026-04-25T12:43:22.547Z</time></trkpt><trkpt lat="42.6847303" lon="12.6018108"><ele>493.0</ele><time>2026-04-25T12:43:24.552Z</time></trkpt><trkpt lat="42.6848035" lon="12.601804"><ele>491.66666666666663</ele><time>2026-04-25T12:43:26.552Z</time></trkpt><trkpt lat="42.6848695" lon="12.6017924"><ele>490.3333333333333</ele><time>2026-04-25T12:43:28.554Z</time></trkpt><trkpt lat="42.684957" lon="12.6017794"><ele>489.0</ele><time>2026-04-25T12:43:31.549Z</time></trkpt><trkpt lat="42.6850307" lon="12.6017701"><ele>489.0</ele><time>2026-04-25T12:43:34.545Z</time></trkpt><trkpt lat="42.6850924" lon="12.6017272"><ele>489.00000000000006</ele><time>2026-04-25T12:43:37.554Z</time></trkpt><trkpt lat="42.6851746" lon="12.6016748"><ele>489.0</ele><time>2026-04-25T12:43:40.554Z</time></trkpt><trkpt lat="42.6852412" lon="12.6016415"><ele>489.0</ele><time>2026-04-25T12:43:42.542Z</time></trkpt><trkpt lat="42.6853054" lon="12.6016098"><ele>489.00000000000006</ele><time>2026-04-25T12:43:44.561Z</time></trkpt><trkpt lat="42.6853695" lon="12.6016128"><ele>489.0</ele><time>2026-04-25T12:43:46.549Z</time></trkpt><trkpt lat="42.6854365" lon="12.6016297"><ele>489.0</ele><time>2026-04-25T12:43:48.541Z</time></trkpt><trkpt lat="42.6855019" lon="12.6016365"><ele>487.5</ele><time>2026-04-25T12:43:50.553Z</time></trkpt><trkpt lat="42.6855823" lon="12.6016683"><ele>486.0</ele><time>2026-04-25T12:43:52.551Z</time></trkpt><trkpt lat="42.6856625" lon="12.6017024"><ele>484.5</ele><time>2026-04-25T12:43:54.55Z</time></trkpt><trkpt lat="42.6857505" lon="12.6017437"><ele>483.0</ele><time>2026-04-25T12:43:56.547Z</time></trkpt><trkpt lat="42.6858377" lon="12.6017457"><ele>481.5</ele><time>2026-04-25T12:43:58.549Z</time></trkpt><trkpt lat="42.6859225" lon="12.6017863"><ele>480.0</ele><time>2026-04-25T12:44:00.555Z</time></trkpt><trkpt lat="42.686001" lon="12.6018354"><ele>480.0</ele><time>2026-04-25T12:44:02.55Z</time></trkpt><trkpt lat="42.6860525" lon="12.6019174"><ele>480.0</ele><time>2026-04-25T12:44:04.547Z</time></trkpt><trkpt lat="42.6861145" lon="12.6019879"><ele>480.0</ele><time>2026-04-25T12:44:06.555Z</time></trkpt><trkpt lat="42.6861885" lon="12.6020398"><ele>480.0</ele><time>2026-04-25T12:44:08.542Z</time></trkpt><trkpt lat="42.6862754" lon="12.6020404"><ele>480.0</ele><time>2026-04-25T12:44:10.551Z</time></trkpt><trkpt lat="42.6863599" lon="12.6020209"><ele>480.0</ele><time>2026-04-25T12:44:12.554Z</time></trkpt><trkpt lat="42.6864435" lon="12.6020022"><ele>479.0</ele><time>2026-04-25T12:44:14.542Z</time></trkpt><trkpt lat="42.6865242" lon="12.6019604"><ele>478.0</ele><time>2026-04-25T12:44:16.552Z</time></trkpt><trkpt lat="42.6865827" lon="12.601906"><ele>477.0</ele><time>2026-04-25T12:44:18.545Z</time></trkpt><trkpt lat="42.6866347" lon="12.6017942"><ele>476.0</ele><time>2026-04-25T12:44:20.551Z</time></trkpt><trkpt lat="42.6866869" lon="12.6017042"><ele>475.0</ele><time>2026-04-25T12:44:21.541Z</time></trkpt><trkpt lat="42.686752" lon="12.6016079"><ele>474.0</ele><time>2026-04-25T12:44:22.548Z</time></trkpt><trkpt lat="42.6868119" lon="12.601508"><ele>474.0</ele><time>2026-04-25T12:44:23.553Z</time></trkpt><trkpt lat="42.6868792" lon="12.6014191"><ele>474.0</ele><time>2026-04-25T12:44:24.553Z</time></trkpt><trkpt lat="42.6869535" lon="12.6013393"><ele>474.0</ele><time>2026-04-25T12:44:25.553Z</time></trkpt><trkpt lat="42.6870492" lon="12.6012862"><ele>474.0</ele><time>2026-04-25T12:44:26.545Z</time></trkpt><trkpt lat="42.6871597" lon="12.6012165"><ele>474.0</ele><time>2026-04-25T12:44:27.549Z</time></trkpt><trkpt lat="42.6872707" lon="12.6011279"><ele>475.0</ele><time>2026-04-25T12:44:28.548Z</time></trkpt><trkpt lat="42.6873837" lon="12.6010397"><ele>476.0</ele><time>2026-04-25T12:44:29.545Z</time></trkpt><trkpt lat="42.687495" lon="12.6009421"><ele>477.0</ele><time>2026-04-25T12:44:30.552Z</time></trkpt><trkpt lat="42.6876065" lon="12.6008605"><ele>478.0</ele><time>2026-04-25T12:44:31.552Z</time></trkpt><trkpt lat="42.687706" lon="12.6007798"><ele>476.2</ele><time>2026-04-25T12:44:32.552Z</time></trkpt><trkpt lat="42.687811" lon="12.600707"><ele>474.4</ele><time>2026-04-25T12:44:33.546Z</time></trkpt><trkpt lat="42.6879103" lon="12.6006326"><ele>472.59999999999997</ele><time>2026-04-25T12:44:34.548Z</time></trkpt><trkpt lat="42.6880011" lon="12.6005697"><ele>470.79999999999995</ele><time>2026-04-25T12:44:35.552Z</time></trkpt><trkpt lat="42.6880917" lon="12.6005271"><ele>469.0</ele><time>2026-04-25T12:44:36.555Z</time></trkpt><trkpt lat="42.6881859" lon="12.6004911"><ele>469.00000000000006</ele><time>2026-04-25T12:44:37.553Z</time></trkpt><trkpt lat="42.6882794" lon="12.6004508"><ele>469.0</ele><time>2026-04-25T12:44:38.55Z</time></trkpt><trkpt lat="42.6883691" lon="12.6004035"><ele>469.0</ele><time>2026-04-25T12:44:39.569Z</time></trkpt><trkpt lat="42.6884572" lon="12.6003721"><ele>469.0</ele><time>2026-04-25T12:44:40.551Z</time></trkpt><trkpt lat="42.6885361" lon="12.6003436"><ele>469.00000000000006</ele><time>2026-04-25T12:44:41.546Z</time></trkpt><trkpt lat="42.6886165" lon="12.60033"><ele>469.0</ele><time>2026-04-25T12:44:42.554Z</time></trkpt><trkpt lat="42.6887128" lon="12.6003143"><ele>469.75</ele><time>2026-04-25T12:44:43.551Z</time></trkpt><trkpt lat="42.6888213" lon="12.6003261"><ele>470.5</ele><time>2026-04-25T12:44:44.557Z</time></trkpt><trkpt lat="42.688928" lon="12.6003623"><ele>471.25</ele><time>2026-04-25T12:44:45.552Z</time></trkpt><trkpt lat="42.6890408" lon="12.6003961"><ele>472.0</ele><time>2026-04-25T12:44:46.548Z</time></trkpt><trkpt lat="42.6891619" lon="12.6004223"><ele>472.0</ele><time>2026-04-25T12:44:47.55Z</time></trkpt><trkpt lat="42.6892896" lon="12.600462"><ele>472.0</ele><time>2026-04-25T12:44:48.552Z</time></trkpt><trkpt lat="42.6894135" lon="12.6005131"><ele>472.0</ele><time>2026-04-25T12:44:49.577Z</time></trkpt><trkpt lat="42.6895303" lon="12.6005686"><ele>472.0</ele><time>2026-04-25T12:44:50.551Z</time></trkpt><trkpt lat="42.6896345" lon="12.6006274"><ele>472.0</ele><time>2026-04-25T12:44:51.553Z</time></trkpt><trkpt lat="42.6897381" lon="12.6006737"><ele>472.00000000000006</ele><time>2026-04-25T12:44:52.548Z</time></trkpt><trkpt lat="42.6898442" lon="12.6007103"><ele>472.00000000000006</ele><time>2026-04-25T12:44:53.549Z</time></trkpt><trkpt lat="42.6899453" lon="12.6007362"><ele>472.0</ele><time>2026-04-25T12:44:54.57Z</time></trkpt><trkpt lat="42.6900378" lon="12.6007739"><ele>472.0</ele><time>2026-04-25T12:44:55.554Z</time></trkpt><trkpt lat="42.6901308" lon="12.600811"><ele>472.0</ele><time>2026-04-25T12:44:56.558Z</time></trkpt><trkpt lat="42.6902137" lon="12.6008814"><ele>472.00000000000006</ele><time>2026-04-25T12:44:57.547Z</time></trkpt><trkpt lat="42.6903007" lon="12.6009481"><ele>472.00000000000006</ele><time>2026-04-25T12:44:58.547Z</time></trkpt><trkpt lat="42.6903733" lon="12.6010361"><ele>472.0</ele><time>2026-04-25T12:44:59.55Z</time></trkpt><trkpt lat="42.6904467" lon="12.6011258"><ele>472.0</ele><time>2026-04-25T12:45:00.55Z</time></trkpt><trkpt lat="42.6905258" lon="12.6012212"><ele>470.40000000000003</ele><time>2026-04-25T12:45:01.548Z</time></trkpt><trkpt lat="42.6906159" lon="12.6013086"><ele>468.80000000000007</ele><time>2026-04-25T12:45:02.541Z</time></trkpt><trkpt lat="42.6906959" lon="12.6014073"><ele>467.2</ele><time>2026-04-25T12:45:03.552Z</time></trkpt><trkpt lat="42.6907687" lon="12.6015097"><ele>465.6</ele><time>2026-04-25T12:45:04.548Z</time></trkpt><trkpt lat="42.6908425" lon="12.6016167"><ele>464.0</ele><time>2026-04-25T12:45:05.55Z</time></trkpt><trkpt lat="42.6909259" lon="12.6017114"><ele>464.0</ele><time>2026-04-25T12:45:06.55Z</time></trkpt><trkpt lat="42.691007" lon="12.6017984"><ele>464.0</ele><time>2026-04-25T12:45:07.554Z</time></trkpt><trkpt lat="42.6910984" lon="12.6018731"><ele>464.0</ele><time>2026-04-25T12:45:08.553Z</time></trkpt><trkpt lat="42.6911902" lon="12.6019428"><ele>464.0</ele><time>2026-04-25T12:45:09.553Z</time></trkpt><trkpt lat="42.6912745" lon="12.6020119"><ele>464.0</ele><time>2026-04-25T12:45:10.554Z</time></trkpt><trkpt lat="42.6913569" lon="12.6020584"><ele>463.16666666666663</ele><time>2026-04-25T12:45:11.553Z</time></trkpt><trkpt lat="42.691431" lon="12.6020973"><ele>462.3333333333333</ele><time>2026-04-25T12:45:12.553Z</time></trkpt><trkpt lat="42.6915004" lon="12.6021339"><ele>461.5</ele><time>2026-04-25T12:45:13.547Z</time></trkpt><trkpt lat="42.6915621" lon="12.6021919"><ele>460.66666666666663</ele><time>2026-04-25T12:45:14.553Z</time></trkpt><trkpt lat="42.6916218" lon="12.6022661"><ele>459.8333333333333</ele><time>2026-04-25T12:45:15.557Z</time></trkpt><trkpt lat="42.691676" lon="12.6023632"><ele>459.0</ele><time>2026-04-25T12:45:16.554Z</time></trkpt><trkpt lat="42.6917329" lon="12.602474"><ele>459.0</ele><time>2026-04-25T12:45:17.559Z</time></trkpt><trkpt lat="42.6917841" lon="12.6026126"><ele>459.0</ele><time>2026-04-25T12:45:18.549Z</time></trkpt><trkpt lat="42.6918433" lon="12.6027496"><ele>459.0</ele><time>2026-04-25T12:45:19.553Z</time></trkpt><trkpt lat="42.6919012" lon="12.6028789"><ele>459.0</ele><time>2026-04-25T12:45:20.546Z</time></trkpt><trkpt lat="42.6919531" lon="12.6029958"><ele>459.0</ele><time>2026-04-25T12:45:21.545Z</time></trkpt><trkpt lat="42.6920058" lon="12.6030998"><ele>458.79999999999995</ele><time>2026-04-25T12:45:22.553Z</time></trkpt><trkpt lat="42.6920743" lon="12.6031905"><ele>458.59999999999997</ele><time>2026-04-25T12:45:23.547Z</time></trkpt><trkpt lat="42.6921394" lon="12.6032791"><ele>458.4</ele><time>2026-04-25T12:45:24.556Z</time></trkpt><trkpt lat="42.6922075" lon="12.6033665"><ele>458.2</ele><time>2026-04-25T12:45:25.552Z</time></trkpt><trkpt lat="42.6922794" lon="12.6034554"><ele>458.0</ele><time>2026-04-25T12:45:26.55Z</time></trkpt><trkpt lat="42.6923402" lon="12.603548"><ele>457.99999999999994</ele><time>2026-04-25T12:45:27.566Z</time></trkpt><trkpt lat="42.6923943" lon="12.6036332"><ele>458.0</ele><time>2026-04-25T12:45:28.547Z</time></trkpt><trkpt lat="42.692445" lon="12.6037048"><ele>458.0</ele><time>2026-04-25T12:45:29.548Z</time></trkpt><trkpt lat="42.6924952" lon="12.6037715"><ele>458.0</ele><time>2026-04-25T12:45:30.552Z</time></trkpt><trkpt lat="42.6925513" lon="12.6038448"><ele>457.99999999999994</ele><time>2026-04-25T12:45:31.545Z</time></trkpt><trkpt lat="42.6926292" lon="12.6039076"><ele>458.0</ele><time>2026-04-25T12:45:32.551Z</time></trkpt><trkpt lat="42.6927144" lon="12.6039772"><ele>458.79999999999995</ele><time>2026-04-25T12:45:33.55Z</time></trkpt><trkpt lat="42.6927988" lon="12.6040379"><ele>459.59999999999997</ele><time>2026-04-25T12:45:34.556Z</time></trkpt><trkpt lat="42.6928717" lon="12.6041043"><ele>460.40000000000003</ele><time>2026-04-25T12:45:35.554Z</time></trkpt><trkpt lat="42.6929418" lon="12.6041866"><ele>461.20000000000005</ele><time>2026-04-25T12:45:36.549Z</time></trkpt><trkpt lat="42.6930076" lon="12.6042794"><ele>462.0</ele><time>2026-04-25T12:45:37.548Z</time></trkpt><trkpt lat="42.6930731" lon="12.6043851"><ele>458.0</ele><time>2026-04-25T12:45:38.553Z</time></trkpt><trkpt lat="42.6931363" lon="12.6044981"><ele>454.0</ele><time>2026-04-25T12:45:39.549Z</time></trkpt><trkpt lat="42.6932088" lon="12.6046241"><ele>450.0</ele><time>2026-04-25T12:45:40.546Z</time></trkpt><trkpt lat="42.6932865" lon="12.6047533"><ele>446.0</ele><time>2026-04-25T12:45:41.559Z</time></trkpt><trkpt lat="42.6933628" lon="12.6048784"><ele>446.0</ele><time>2026-04-25T12:45:42.554Z</time></trkpt><trkpt lat="42.6934471" lon="12.6050027"><ele>446.0</ele><time>2026-04-25T12:45:43.546Z</time></trkpt><trkpt lat="42.6935305" lon="12.6051236"><ele>446.0</ele><time>2026-04-25T12:45:44.547Z</time></trkpt><trkpt lat="42.6936213" lon="12.605233"><ele>446.0</ele><time>2026-04-25T12:45:45.549Z</time></trkpt><trkpt lat="42.6937027" lon="12.605343"><ele>446.0</ele><time>2026-04-25T12:45:46.549Z</time></trkpt><trkpt lat="42.6937811" lon="12.6054559"><ele>446.0</ele><time>2026-04-25T12:45:47.557Z</time></trkpt><trkpt lat="42.6938581" lon="12.6055655"><ele>446.0</ele><time>2026-04-25T12:45:48.548Z</time></trkpt><trkpt lat="42.6939457" lon="12.6056801"><ele>446.0</ele><time>2026-04-25T12:45:49.554Z</time></trkpt><trkpt lat="42.6940338" lon="12.6057856"><ele>446.0</ele><time>2026-04-25T12:45:50.555Z</time></trkpt><trkpt lat="42.6941326" lon="12.6058862"><ele>446.0</ele><time>2026-04-25T12:45:51.554Z</time></trkpt><trkpt lat="42.6942303" lon="12.6059966"><ele>446.0</ele><time>2026-04-25T12:45:52.545Z</time></trkpt><trkpt lat="42.6943399" lon="12.6061048"><ele>446.0</ele><time>2026-04-25T12:45:53.551Z</time></trkpt><trkpt lat="42.6944451" lon="12.6062112"><ele>446.0</ele><time>2026-04-25T12:45:54.545Z</time></trkpt><trkpt lat="42.6945302" lon="12.6063358"><ele>446.0</ele><time>2026-04-25T12:45:55.548Z</time></trkpt><trkpt lat="42.6946075" lon="12.6064839"><ele>446.0</ele><time>2026-04-25T12:45:56.546Z</time></trkpt><trkpt lat="42.6946948" lon="12.6065901"><ele>446.0</ele><time>2026-04-25T12:45:57.549Z</time></trkpt><trkpt lat="42.6947944" lon="12.6066865"><ele>446.0</ele><time>2026-04-25T12:45:58.55Z</time></trkpt><trkpt lat="42.6949003" lon="12.6067671"><ele>446.0</ele><time>2026-04-25T12:45:59.555Z</time></trkpt><trkpt lat="42.6949773" lon="12.606849"><ele>446.0</ele><time>2026-04-25T12:46:00.549Z</time></trkpt><trkpt lat="42.6950581" lon="12.6069523"><ele>446.0</ele><time>2026-04-25T12:46:01.548Z</time></trkpt><trkpt lat="42.6951495" lon="12.6070654"><ele>445.0</ele><time>2026-04-25T12:46:02.548Z</time></trkpt><trkpt lat="42.6952215" lon="12.6071931"><ele>444.0</ele><time>2026-04-25T12:46:03.547Z</time></trkpt><trkpt lat="42.6953" lon="12.6073288"><ele>443.0</ele><time>2026-04-25T12:46:04.547Z</time></trkpt><trkpt lat="42.6953893" lon="12.6074573"><ele>442.0</ele><time>2026-04-25T12:46:05.555Z</time></trkpt><trkpt lat="42.6954828" lon="12.6075802"><ele>441.0</ele><time>2026-04-25T12:46:06.547Z</time></trkpt><trkpt lat="42.6955725" lon="12.607695"><ele>440.0</ele><time>2026-04-25T12:46:07.55Z</time></trkpt><trkpt lat="42.6956564" lon="12.6078075"><ele>439.0</ele><time>2026-04-25T12:46:08.546Z</time></trkpt><trkpt lat="42.6957231" lon="12.6079254"><ele>438.0</ele><time>2026-04-25T12:46:09.554Z</time></trkpt><trkpt lat="42.6957955" lon="12.6080446"><ele>438.0</ele><time>2026-04-25T12:46:10.556Z</time></trkpt><trkpt lat="42.6958748" lon="12.6081473"><ele>438.0</ele><time>2026-04-25T12:46:11.549Z</time></trkpt><trkpt lat="42.6959558" lon="12.6082625"><ele>438.0</ele><time>2026-04-25T12:46:12.552Z</time></trkpt><trkpt lat="42.6960387" lon="12.6083623"><ele>438.0</ele><time>2026-04-25T12:46:13.55Z</time></trkpt><trkpt lat="42.6961325" lon="12.608453"><ele>440.25</ele><time>2026-04-25T12:46:14.55Z</time></trkpt><trkpt lat="42.69623" lon="12.6085534"><ele>442.5</ele><time>2026-04-25T12:46:15.555Z</time></trkpt><trkpt lat="42.6963353" lon="12.6086524"><ele>444.75</ele><time>2026-04-25T12:46:16.547Z</time></trkpt><trkpt lat="42.6964412" lon="12.6087554"><ele>447.0</ele><time>2026-04-25T12:46:17.546Z</time></trkpt><trkpt lat="42.6965622" lon="12.6088358"><ele>446.0</ele><time>2026-04-25T12:46:18.548Z</time></trkpt><trkpt lat="42.6966889" lon="12.6088541"><ele>445.0</ele><time>2026-04-25T12:46:19.547Z</time></trkpt><trkpt lat="42.6968117" lon="12.6088247"><ele>444.0</ele><time>2026-04-25T12:46:20.549Z</time></trkpt><trkpt lat="42.6969301" lon="12.6087834"><ele>443.0</ele><time>2026-04-25T12:46:21.548Z</time></trkpt><trkpt lat="42.6970204" lon="12.6087527"><ele>442.99999999999994</ele><time>2026-04-25T12:46:22.551Z</time></trkpt><trkpt lat="42.6970923" lon="12.6087225"><ele>443.0</ele><time>2026-04-25T12:46:23.554Z</time></trkpt><trkpt lat="42.6971991" lon="12.6086666"><ele>443.0</ele><time>2026-04-25T12:46:25.549Z</time></trkpt><trkpt lat="42.6972696" lon="12.6086406"><ele>443.0</ele><time>2026-04-25T12:46:27.556Z</time></trkpt><trkpt lat="42.6973384" lon="12.6086132"><ele>442.99999999999994</ele><time>2026-04-25T12:47:02.547Z</time></trkpt><trkpt lat="42.6974387" lon="12.608541"><ele>443.0</ele><time>2026-04-25T12:47:04.548Z</time></trkpt><trkpt lat="42.6975125" lon="12.6085003"><ele>442.99999999999994</ele><time>2026-04-25T12:47:05.558Z</time></trkpt><trkpt lat="42.6975833" lon="12.6084594"><ele>443.0</ele><time>2026-04-25T12:47:06.554Z</time></trkpt><trkpt lat="42.6976416" lon="12.6084076"><ele>443.0</ele><time>2026-04-25T12:47:07.553Z</time></trkpt><trkpt lat="42.6976939" lon="12.6083501"><ele>443.0</ele><time>2026-04-25T12:47:08.554Z</time></trkpt><trkpt lat="42.6977242" lon="12.6082748"><ele>442.99999999999994</ele><time>2026-04-25T12:47:09.56Z</time></trkpt><trkpt lat="42.6977378" lon="12.6081572"><ele>443.0</ele><time>2026-04-25T12:47:10.553Z</time></trkpt><trkpt lat="42.6977363" lon="12.6080152"><ele>443.0</ele><time>2026-04-25T12:47:11.553Z</time></trkpt><trkpt lat="42.6977479" lon="12.6078702"><ele>442.99999999999994</ele><time>2026-04-25T12:47:12.552Z</time></trkpt><trkpt lat="42.6977826" lon="12.6077319"><ele>442.99999999999994</ele><time>2026-04-25T12:47:13.561Z</time></trkpt><trkpt lat="42.6978308" lon="12.6075868"><ele>443.0</ele><time>2026-04-25T12:47:14.545Z</time></trkpt><trkpt lat="42.6978792" lon="12.6074597"><ele>443.0</ele><time>2026-04-25T12:47:15.549Z</time></trkpt><trkpt lat="42.6979126" lon="12.6073472"><ele>442.8333333333333</ele><time>2026-04-25T12:47:16.555Z</time></trkpt><trkpt lat="42.6979493" lon="12.6072652"><ele>442.66666666666663</ele><time>2026-04-25T12:47:17.551Z</time></trkpt><trkpt lat="42.6980017" lon="12.6072052"><ele>442.5</ele><time>2026-04-25T12:47:18.559Z</time></trkpt><trkpt lat="42.6980672" lon="12.6071607"><ele>442.33333333333337</ele><time>2026-04-25T12:47:19.538Z</time></trkpt><trkpt lat="42.6981526" lon="12.6071365"><ele>442.1666666666667</ele><time>2026-04-25T12:47:20.547Z</time></trkpt><trkpt lat="42.6982466" lon="12.6071228"><ele>442.0</ele><time>2026-04-25T12:47:21.555Z</time></trkpt><trkpt lat="42.6983428" lon="12.6071276"><ele>442.00000000000006</ele><time>2026-04-25T12:47:22.552Z</time></trkpt><trkpt lat="42.698428" lon="12.60713"><ele>442.0</ele><time>2026-04-25T12:47:23.552Z</time></trkpt><trkpt lat="42.6985163" lon="12.6071245"><ele>442.0</ele><time>2026-04-25T12:47:24.565Z</time></trkpt><trkpt lat="42.6986044" lon="12.6071125"><ele>442.0</ele><time>2026-04-25T12:47:25.55Z</time></trkpt><trkpt lat="42.6986877" lon="12.6071069"><ele>442.00000000000006</ele><time>2026-04-25T12:47:26.545Z</time></trkpt><trkpt lat="42.698772" lon="12.6071053"><ele>442.0</ele><time>2026-04-25T12:47:27.548Z</time></trkpt><trkpt lat="42.6988537" lon="12.6071129"><ele>440.1666666666667</ele><time>2026-04-25T12:47:28.552Z</time></trkpt><trkpt lat="42.6989317" lon="12.6071129"><ele>438.33333333333337</ele><time>2026-04-25T12:47:29.549Z</time></trkpt><trkpt lat="42.6989962" lon="12.6071142"><ele>436.5</ele><time>2026-04-25T12:47:30.552Z</time></trkpt><trkpt lat="42.6990718" lon="12.6071177"><ele>434.66666666666663</ele><time>2026-04-25T12:47:31.551Z</time></trkpt><trkpt lat="42.6991875" lon="12.6071224"><ele>432.8333333333333</ele><time>2026-04-25T12:47:33.551Z</time></trkpt><trkpt lat="42.6992506" lon="12.6070978"><ele>431.0</ele><time>2026-04-25T12:47:34.544Z</time></trkpt><trkpt lat="42.6993271" lon="12.6070573"><ele>431.0</ele><time>2026-04-25T12:47:35.563Z</time></trkpt><trkpt lat="42.6994019" lon="12.6069955"><ele>431.0</ele><time>2026-04-25T12:47:36.549Z</time></trkpt><trkpt lat="42.6994707" lon="12.6069217"><ele>431.0</ele><time>2026-04-25T12:47:37.559Z</time></trkpt><trkpt lat="42.6995242" lon="12.606837"><ele>431.0</ele><time>2026-04-25T12:47:38.55Z</time></trkpt><trkpt lat="42.699571" lon="12.6067342"><ele>431.0</ele><time>2026-04-25T12:47:39.548Z</time></trkpt><trkpt lat="42.6996083" lon="12.6065959"><ele>433.0</ele><time>2026-04-25T12:47:40.552Z</time></trkpt><trkpt lat="42.6996367" lon="12.6064441"><ele>435.0</ele><time>2026-04-25T12:47:41.552Z</time></trkpt><trkpt lat="42.6996668" lon="12.6062987"><ele>437.0</ele><time>2026-04-25T12:47:42.549Z</time></trkpt><trkpt lat="42.6996973" lon="12.6061699"><ele>439.0</ele><time>2026-04-25T12:47:43.548Z</time></trkpt><trkpt lat="42.6997459" lon="12.6060545"><ele>441.0</ele><time>2026-04-25T12:47:44.552Z</time></trkpt><trkpt lat="42.6998097" lon="12.6059366"><ele>441.6</ele><time>2026-04-25T12:47:45.541Z</time></trkpt><trkpt lat="42.6998769" lon="12.6058392"><ele>442.20000000000005</ele><time>2026-04-25T12:47:46.545Z</time></trkpt><trkpt lat="42.6999543" lon="12.605771"><ele>442.79999999999995</ele><time>2026-04-25T12:47:47.541Z</time></trkpt><trkpt lat="42.7000296" lon="12.6057112"><ele>443.4</ele><time>2026-04-25T12:47:48.543Z</time></trkpt><trkpt lat="42.7001035" lon="12.6056633"><ele>444.0</ele><time>2026-04-25T12:47:49.544Z</time></trkpt><trkpt lat="42.7001929" lon="12.6056165"><ele>445.0</ele><time>2026-04-25T12:47:50.554Z</time></trkpt><trkpt lat="42.7002884" lon="12.605554"><ele>446.0</ele><time>2026-04-25T12:47:51.54Z</time></trkpt><trkpt lat="42.7003853" lon="12.6054865"><ele>447.0</ele><time>2026-04-25T12:47:52.532Z</time></trkpt><trkpt lat="42.7004687" lon="12.6053983"><ele>448.0</ele><time>2026-04-25T12:47:53.542Z</time></trkpt><trkpt lat="42.7005571" lon="12.6053035"><ele>449.0</ele><time>2026-04-25T12:47:54.541Z</time></trkpt><trkpt lat="42.700639" lon="12.6052215"><ele>449.0</ele><time>2026-04-25T12:47:55.543Z</time></trkpt><trkpt lat="42.7007294" lon="12.6051514"><ele>449.0</ele><time>2026-04-25T12:47:56.541Z</time></trkpt><trkpt lat="42.7008179" lon="12.6050834"><ele>449.0</ele><time>2026-04-25T12:47:57.545Z</time></trkpt><trkpt lat="42.7009057" lon="12.6050206"><ele>449.0</ele><time>2026-04-25T12:47:58.546Z</time></trkpt><trkpt lat="42.7009922" lon="12.6049528"><ele>449.0</ele><time>2026-04-25T12:47:59.561Z</time></trkpt><trkpt lat="42.7010811" lon="12.6048865"><ele>451.99999999999994</ele><time>2026-04-25T12:48:00.541Z</time></trkpt><trkpt lat="42.7011546" lon="12.6048145"><ele>455.0</ele><time>2026-04-25T12:48:01.541Z</time></trkpt><trkpt lat="42.701227" lon="12.6047457"><ele>458.0</ele><time>2026-04-25T12:48:02.536Z</time></trkpt><trkpt lat="42.7012871" lon="12.6046889"><ele>461.0</ele><time>2026-04-25T12:48:03.542Z</time></trkpt><trkpt lat="42.7013742" lon="12.6046254"><ele>463.99999999999994</ele><time>2026-04-25T12:48:05.539Z</time></trkpt><trkpt lat="42.7014516" lon="12.6046127"><ele>467.0</ele><time>2026-04-25T12:48:07.541Z</time></trkpt><trkpt lat="42.7015089" lon="12.6046761"><ele>467.0</ele><time>2026-04-25T12:48:09.545Z</time></trkpt><trkpt lat="42.7015264" lon="12.6048137"><ele>467.00000000000006</ele><time>2026-04-25T12:48:11.575Z</time></trkpt><trkpt lat="42.7015007" lon="12.6049595"><ele>467.00000000000006</ele><time>2026-04-25T12:48:13.548Z</time></trkpt><trkpt lat="42.7014947" lon="12.6051055"><ele>467.0</ele><time>2026-04-25T12:48:15.539Z</time></trkpt><trkpt lat="42.7015502" lon="12.6052188"><ele>467.0</ele><time>2026-04-25T12:48:17.551Z</time></trkpt><trkpt lat="42.7016555" lon="12.6052974"><ele>466.99999999999994</ele><time>2026-04-25T12:48:19.545Z</time></trkpt><trkpt lat="42.7017196" lon="12.6053133"><ele>467.0</ele><time>2026-04-25T12:48:20.544Z</time></trkpt><trkpt lat="42.7018225" lon="12.6053848"><ele>467.0</ele><time>2026-04-25T12:48:22.543Z</time></trkpt><trkpt lat="42.7018793" lon="12.6054428"><ele>467.0</ele><time>2026-04-25T12:48:23.552Z</time></trkpt><trkpt lat="42.7019373" lon="12.6055012"><ele>466.99999999999994</ele><time>2026-04-25T12:48:24.555Z</time></trkpt><trkpt lat="42.701998" lon="12.6055673"><ele>467.0</ele><time>2026-04-25T12:48:25.541Z</time></trkpt><trkpt lat="42.7020639" lon="12.6056357"><ele>472.0</ele><time>2026-04-25T12:48:26.544Z</time></trkpt><trkpt lat="42.7021328" lon="12.6057008"><ele>477.00000000000006</ele><time>2026-04-25T12:48:27.547Z</time></trkpt><trkpt lat="42.7022138" lon="12.6057624"><ele>482.00000000000006</ele><time>2026-04-25T12:48:28.542Z</time></trkpt><trkpt lat="42.7022961" lon="12.6058178"><ele>487.0</ele><time>2026-04-25T12:48:29.548Z</time></trkpt><trkpt lat="42.7023914" lon="12.605865"><ele>492.0</ele><time>2026-04-25T12:48:30.541Z</time></trkpt><trkpt lat="42.702488" lon="12.6058957"><ele>492.0</ele><time>2026-04-25T12:48:31.538Z</time></trkpt><trkpt lat="42.7025843" lon="12.6059199"><ele>492.0</ele><time>2026-04-25T12:48:32.536Z</time></trkpt><trkpt lat="42.7026917" lon="12.6059339"><ele>492.0</ele><time>2026-04-25T12:48:33.54Z</time></trkpt><trkpt lat="42.7028131" lon="12.6059407"><ele>492.0</ele><time>2026-04-25T12:48:34.54Z</time></trkpt><trkpt lat="42.7029412" lon="12.6059463"><ele>493.40000000000003</ele><time>2026-04-25T12:48:35.537Z</time></trkpt><trkpt lat="42.7030514" lon="12.605954"><ele>494.80000000000007</ele><time>2026-04-25T12:48:36.539Z</time></trkpt><trkpt lat="42.7031468" lon="12.6059659"><ele>496.2</ele><time>2026-04-25T12:48:37.533Z</time></trkpt><trkpt lat="42.7032382" lon="12.605974"><ele>497.6</ele><time>2026-04-25T12:48:38.535Z</time></trkpt><trkpt lat="42.7033289" lon="12.6059913"><ele>499.0</ele><time>2026-04-25T12:48:39.538Z</time></trkpt><trkpt lat="42.7034225" lon="12.6060235"><ele>499.0</ele><time>2026-04-25T12:48:40.546Z</time></trkpt><trkpt lat="42.7035144" lon="12.6060648"><ele>499.0</ele><time>2026-04-25T12:48:41.544Z</time></trkpt><trkpt lat="42.7036012" lon="12.6061128"><ele>499.0</ele><time>2026-04-25T12:48:42.546Z</time></trkpt><trkpt lat="42.7036788" lon="12.6061657"><ele>499.0</ele><time>2026-04-25T12:48:43.548Z</time></trkpt><trkpt lat="42.7037515" lon="12.6062312"><ele>499.0</ele><time>2026-04-25T12:48:44.541Z</time></trkpt><trkpt lat="42.7038183" lon="12.6063171"><ele>501.1666666666667</ele><time>2026-04-25T12:48:45.543Z</time></trkpt><trkpt lat="42.7038772" lon="12.6064068"><ele>503.33333333333337</ele><time>2026-04-25T12:48:46.54Z</time></trkpt><trkpt lat="42.703934" lon="12.6065034"><ele>505.5</ele><time>2026-04-25T12:48:47.542Z</time></trkpt><trkpt lat="42.7039892" lon="12.6066016"><ele>507.66666666666663</ele><time>2026-04-25T12:48:48.541Z</time></trkpt><trkpt lat="42.7040415" lon="12.606703"><ele>509.8333333333333</ele><time>2026-04-25T12:48:49.541Z</time></trkpt><trkpt lat="42.7040839" lon="12.6067986"><ele>512.0</ele><time>2026-04-25T12:48:50.538Z</time></trkpt><trkpt lat="42.7041337" lon="12.6068875"><ele>511.99999999999994</ele><time>2026-04-25T12:48:51.549Z</time></trkpt><trkpt lat="42.7041786" lon="12.6069685"><ele>512.0</ele><time>2026-04-25T12:48:52.543Z</time></trkpt><trkpt lat="42.7042203" lon="12.6070353"><ele>512.0</ele><time>2026-04-25T12:48:53.539Z</time></trkpt><trkpt lat="42.7042706" lon="12.6071011"><ele>512.0</ele><time>2026-04-25T12:48:55.54Z</time></trkpt><trkpt lat="42.7043317" lon="12.6071843"><ele>511.99999999999994</ele><time>2026-04-25T12:48:58.551Z</time></trkpt><trkpt lat="42.7044086" lon="12.6072214"><ele>512.0</ele><time>2026-04-25T12:49:01.544Z</time></trkpt><trkpt lat="42.7044944" lon="12.6072838"><ele>513.8000000000001</ele><time>2026-04-25T12:49:29.544Z</time></trkpt><trkpt lat="42.704547" lon="12.607345"><ele>515.6</ele><time>2026-04-25T12:49:30.547Z</time></trkpt><trkpt lat="42.7046003" lon="12.6074238"><ele>517.4000000000001</ele><time>2026-04-25T12:49:31.548Z</time></trkpt><trkpt lat="42.7046685" lon="12.6075073"><ele>519.2</ele><time>2026-04-25T12:49:32.547Z</time></trkpt><trkpt lat="42.704744" lon="12.6076011"><ele>521.0</ele><time>2026-04-25T12:49:33.544Z</time></trkpt><trkpt lat="42.7048393" lon="12.6076938"><ele>521.0</ele><time>2026-04-25T12:49:34.543Z</time></trkpt><trkpt lat="42.7049354" lon="12.6077849"><ele>521.0</ele><time>2026-04-25T12:49:35.537Z</time></trkpt><trkpt lat="42.7050219" lon="12.6078681"><ele>521.0</ele><time>2026-04-25T12:49:36.547Z</time></trkpt><trkpt lat="42.705106" lon="12.6079498"><ele>521.0</ele><time>2026-04-25T12:49:37.548Z</time></trkpt><trkpt lat="42.7052051" lon="12.60804"><ele>521.0</ele><time>2026-04-25T12:49:38.548Z</time></trkpt><trkpt lat="42.7053251" lon="12.6081437"><ele>519.25</ele><time>2026-04-25T12:49:39.542Z</time></trkpt><trkpt lat="42.7054548" lon="12.6082183"><ele>517.5</ele><time>2026-04-25T12:49:40.547Z</time></trkpt><trkpt lat="42.7055948" lon="12.6082718"><ele>515.75</ele><time>2026-04-25T12:49:41.542Z</time></trkpt><trkpt lat="42.7057348" lon="12.6083065"><ele>514.0</ele><time>2026-04-25T12:49:42.544Z</time></trkpt><trkpt lat="42.7058575" lon="12.6083556"><ele>514.0</ele><time>2026-04-25T12:49:43.548Z</time></trkpt><trkpt lat="42.7059738" lon="12.6084406"><ele>514.0</ele><time>2026-04-25T12:49:44.542Z</time></trkpt><trkpt lat="42.7060771" lon="12.6085325"><ele>514.0</ele><time>2026-04-25T12:49:45.542Z</time></trkpt><trkpt lat="42.7061777" lon="12.6086098"><ele>514.0</ele><time>2026-04-25T12:49:46.543Z</time></trkpt><trkpt lat="42.7062654" lon="12.6086852"><ele>514.4</ele><time>2026-04-25T12:49:47.552Z</time></trkpt><trkpt lat="42.7063554" lon="12.6087605"><ele>514.8</ele><time>2026-04-25T12:49:48.546Z</time></trkpt><trkpt lat="42.706444" lon="12.6088323"><ele>515.2</ele><time>2026-04-25T12:49:49.53Z</time></trkpt><trkpt lat="42.70653" lon="12.6089007"><ele>515.6</ele><time>2026-04-25T12:49:50.545Z</time></trkpt><trkpt lat="42.7066143" lon="12.6089861"><ele>516.0</ele><time>2026-04-25T12:49:51.539Z</time></trkpt><trkpt lat="42.7067071" lon="12.6090797"><ele>516.0</ele><time>2026-04-25T12:49:52.544Z</time></trkpt><trkpt lat="42.7068084" lon="12.6091665"><ele>516.0</ele><time>2026-04-25T12:49:53.547Z</time></trkpt><trkpt lat="42.7069112" lon="12.6092447"><ele>516.0</ele><time>2026-04-25T12:49:54.549Z</time></trkpt><trkpt lat="42.707014" lon="12.6092994"><ele>516.0</ele><time>2026-04-25T12:49:55.543Z</time></trkpt><trkpt lat="42.7071076" lon="12.6093517"><ele>516.0</ele><time>2026-04-25T12:49:56.553Z</time></trkpt><trkpt lat="42.7071998" lon="12.6093965"><ele>516.8333333333334</ele><time>2026-04-25T12:49:57.542Z</time></trkpt><trkpt lat="42.7072768" lon="12.609426"><ele>517.6666666666666</ele><time>2026-04-25T12:49:58.547Z</time></trkpt><trkpt lat="42.7073401" lon="12.6094625"><ele>518.5</ele><time>2026-04-25T12:49:59.543Z</time></trkpt><trkpt lat="42.7074352" lon="12.6094961"><ele>519.3333333333333</ele><time>2026-04-25T12:50:01.54Z</time></trkpt><trkpt lat="42.7075171" lon="12.6095376"><ele>520.1666666666666</ele><time>2026-04-25T12:50:03.548Z</time></trkpt><trkpt lat="42.7075787" lon="12.609591"><ele>521.0</ele><time>2026-04-25T12:50:04.541Z</time></trkpt><trkpt lat="42.7076879" lon="12.6096749"><ele>519.25</ele><time>2026-04-25T12:50:05.572Z</time></trkpt><trkpt lat="42.7078091" lon="12.6097742"><ele>517.5</ele><time>2026-04-25T12:50:06.544Z</time></trkpt><trkpt lat="42.7079352" lon="12.6098862"><ele>515.75</ele><time>2026-04-25T12:50:07.548Z</time></trkpt><trkpt lat="42.7080506" lon="12.6100191"><ele>514.0</ele><time>2026-04-25T12:50:08.549Z</time></trkpt><trkpt lat="42.7081541" lon="12.6101649"><ele>514.0</ele><time>2026-04-25T12:50:09.548Z</time></trkpt><trkpt lat="42.7082515" lon="12.6103008"><ele>514.0</ele><time>2026-04-25T12:50:10.549Z</time></trkpt><trkpt lat="42.7083524" lon="12.610427"><ele>514.0</ele><time>2026-04-25T12:50:11.541Z</time></trkpt><trkpt lat="42.7084551" lon="12.6105291"><ele>514.0</ele><time>2026-04-25T12:50:12.545Z</time></trkpt><trkpt lat="42.7085662" lon="12.6106298"><ele>511.75</ele><time>2026-04-25T12:50:13.545Z</time></trkpt><trkpt lat="42.7086758" lon="12.6107187"><ele>509.5</ele><time>2026-04-25T12:50:14.544Z</time></trkpt><trkpt lat="42.70879" lon="12.6107905"><ele>507.25</ele><time>2026-04-25T12:50:15.543Z</time></trkpt><trkpt lat="42.7089162" lon="12.610842"><ele>505.0</ele><time>2026-04-25T12:50:16.55Z</time></trkpt><trkpt lat="42.7090503" lon="12.6108836"><ele>505.0</ele><time>2026-04-25T12:50:17.545Z</time></trkpt><trkpt lat="42.709186" lon="12.610915"><ele>505.0</ele><time>2026-04-25T12:50:18.542Z</time></trkpt><trkpt lat="42.7093251" lon="12.6109459"><ele>505.0</ele><time>2026-04-25T12:50:19.549Z</time></trkpt><trkpt lat="42.7094666" lon="12.6109861"><ele>505.0</ele><time>2026-04-25T12:50:20.543Z</time></trkpt><trkpt lat="42.7096051" lon="12.6110275"><ele>501.6666666666667</ele><time>2026-04-25T12:50:21.539Z</time></trkpt><trkpt lat="42.709745" lon="12.6110732"><ele>498.33333333333337</ele><time>2026-04-25T12:50:22.553Z</time></trkpt><trkpt lat="42.7098905" lon="12.6111228"><ele>495.0</ele><time>2026-04-25T12:50:23.551Z</time></trkpt><trkpt lat="42.7100448" lon="12.6111974"><ele>495.0</ele><time>2026-04-25T12:50:24.547Z</time></trkpt><trkpt lat="42.7101928" lon="12.6112887"><ele>495.0</ele><time>2026-04-25T12:50:25.55Z</time></trkpt><trkpt lat="42.7103294" lon="12.6113679"><ele>495.0</ele><time>2026-04-25T12:50:26.54Z</time></trkpt><trkpt lat="42.710463" lon="12.6114497"><ele>493.0</ele><time>2026-04-25T12:50:27.537Z</time></trkpt><trkpt lat="42.7105922" lon="12.6115149"><ele>491.0</ele><time>2026-04-25T12:50:28.54Z</time></trkpt><trkpt lat="42.7107141" lon="12.6115745"><ele>489.0</ele><time>2026-04-25T12:50:29.549Z</time></trkpt><trkpt lat="42.7108241" lon="12.6116393"><ele>487.0</ele><time>2026-04-25T12:50:30.536Z</time></trkpt><trkpt lat="42.7109132" lon="12.6117383"><ele>487.0</ele><time>2026-04-25T12:50:31.539Z</time></trkpt><trkpt lat="42.7109944" lon="12.6118504"><ele>487.0</ele><time>2026-04-25T12:50:32.543Z</time></trkpt><trkpt lat="42.7110597" lon="12.6119885"><ele>487.0</ele><time>2026-04-25T12:50:33.551Z</time></trkpt><trkpt lat="42.7111042" lon="12.6121505"><ele>487.0</ele><time>2026-04-25T12:50:34.541Z</time></trkpt><trkpt lat="42.7111488" lon="12.6123024"><ele>485.25</ele><time>2026-04-25T12:50:35.542Z</time></trkpt><trkpt lat="42.711217" lon="12.612435"><ele>483.5</ele><time>2026-04-25T12:50:36.549Z</time></trkpt><trkpt lat="42.7113165" lon="12.6125305"><ele>481.75</ele><time>2026-04-25T12:50:37.543Z</time></trkpt><trkpt lat="42.7114275" lon="12.6125749"><ele>480.0</ele><time>2026-04-25T12:50:38.548Z</time></trkpt><trkpt lat="42.7115614" lon="12.6125809"><ele>480.0</ele><time>2026-04-25T12:50:39.547Z</time></trkpt><trkpt lat="42.711709" lon="12.6125386"><ele>480.0</ele><time>2026-04-25T12:50:40.546Z</time></trkpt><trkpt lat="42.7118582" lon="12.612448"><ele>480.0</ele><time>2026-04-25T12:50:41.555Z</time></trkpt><trkpt lat="42.7119985" lon="12.6123456"><ele>478.0</ele><time>2026-04-25T12:50:42.542Z</time></trkpt><trkpt lat="42.712124" lon="12.6122201"><ele>476.0</ele><time>2026-04-25T12:50:43.543Z</time></trkpt><trkpt lat="42.7122389" lon="12.6120559"><ele>474.0</ele><time>2026-04-25T12:50:44.541Z</time></trkpt><trkpt lat="42.712323" lon="12.6118744"><ele>474.0</ele><time>2026-04-25T12:50:45.549Z</time></trkpt><trkpt lat="42.7123938" lon="12.6116779"><ele>474.0</ele><time>2026-04-25T12:50:46.559Z</time></trkpt><trkpt lat="42.7124551" lon="12.6114811"><ele>474.0</ele><time>2026-04-25T12:50:47.542Z</time></trkpt><trkpt lat="42.7125187" lon="12.6112929"><ele>475.5</ele><time>2026-04-25T12:50:48.539Z</time></trkpt><trkpt lat="42.7126007" lon="12.6111478"><ele>477.0</ele><time>2026-04-25T12:50:49.551Z</time></trkpt><trkpt lat="42.7127099" lon="12.6110406"><ele>478.5</ele><time>2026-04-25T12:50:50.567Z</time></trkpt><trkpt lat="42.7128294" lon="12.6109588"><ele>480.0</ele><time>2026-04-25T12:50:51.545Z</time></trkpt><trkpt lat="42.7129522" lon="12.6108663"><ele>474.0</ele><time>2026-04-25T12:50:52.544Z</time></trkpt><trkpt lat="42.713039" lon="12.6107365"><ele>468.0</ele><time>2026-04-25T12:50:53.546Z</time></trkpt><trkpt lat="42.7130886" lon="12.6105592"><ele>462.0</ele><time>2026-04-25T12:50:54.542Z</time></trkpt><trkpt lat="42.7131229" lon="12.6103527"><ele>456.0</ele><time>2026-04-25T12:50:55.543Z</time></trkpt><trkpt lat="42.7131376" lon="12.6101194"><ele>456.33333333333337</ele><time>2026-04-25T12:50:56.543Z</time></trkpt><trkpt lat="42.7131855" lon="12.6099012"><ele>456.6666666666667</ele><time>2026-04-25T12:50:57.539Z</time></trkpt><trkpt lat="42.7132656" lon="12.6096882"><ele>457.0</ele><time>2026-04-25T12:50:58.552Z</time></trkpt><trkpt lat="42.7133756" lon="12.609487"><ele>457.0</ele><time>2026-04-25T12:50:59.544Z</time></trkpt><trkpt lat="42.7134979" lon="12.6092959"><ele>457.0</ele><time>2026-04-25T12:51:00.539Z</time></trkpt><trkpt lat="42.7136285" lon="12.6091046"><ele>457.0</ele><time>2026-04-25T12:51:01.543Z</time></trkpt><trkpt lat="42.7137526" lon="12.6089289"><ele>456.0</ele><time>2026-04-25T12:51:02.559Z</time></trkpt><trkpt lat="42.7138591" lon="12.6087787"><ele>455.0</ele><time>2026-04-25T12:51:03.541Z</time></trkpt><trkpt lat="42.7139594" lon="12.6086418"><ele>454.0</ele><time>2026-04-25T12:51:04.54Z</time></trkpt><trkpt lat="42.7140502" lon="12.6085288"><ele>453.0</ele><time>2026-04-25T12:51:05.54Z</time></trkpt><trkpt lat="42.7141476" lon="12.608471"><ele>455.25</ele><time>2026-04-25T12:51:06.54Z</time></trkpt><trkpt lat="42.7142586" lon="12.6084571"><ele>457.5</ele><time>2026-04-25T12:51:07.546Z</time></trkpt><trkpt lat="42.7143677" lon="12.6085074"><ele>459.75</ele><time>2026-04-25T12:51:08.536Z</time></trkpt><trkpt lat="42.7144597" lon="12.6085949"><ele>462.0</ele><time>2026-04-25T12:51:09.55Z</time></trkpt><trkpt lat="42.7145399" lon="12.6087324"><ele>462.0</ele><time>2026-04-25T12:51:10.536Z</time></trkpt><trkpt lat="42.7145998" lon="12.6089275"><ele>462.0</ele><time>2026-04-25T12:51:11.542Z</time></trkpt><trkpt lat="42.7146611" lon="12.6091616"><ele>462.0</ele><time>2026-04-25T12:51:12.541Z</time></trkpt><trkpt lat="42.7147358" lon="12.6094185"><ele>459.33333333333337</ele><time>2026-04-25T12:51:13.543Z</time></trkpt><trkpt lat="42.7148158" lon="12.6096796"><ele>456.6666666666667</ele><time>2026-04-25T12:51:14.569Z</time></trkpt><trkpt lat="42.714901" lon="12.6099283"><ele>454.0</ele><time>2026-04-25T12:51:15.539Z</time></trkpt><trkpt lat="42.7149769" lon="12.6101434"><ele>455.0</ele><time>2026-04-25T12:51:16.543Z</time></trkpt><trkpt lat="42.7150722" lon="12.610344"><ele>456.0</ele><time>2026-04-25T12:51:17.54Z</time></trkpt><trkpt lat="42.7151696" lon="12.6105311"><ele>457.0</ele><time>2026-04-25T12:51:18.54Z</time></trkpt><trkpt lat="42.7152813" lon="12.6106928"><ele>457.0</ele><time>2026-04-25T12:51:19.542Z</time></trkpt><trkpt lat="42.7154169" lon="12.6108294"><ele>457.0</ele><time>2026-04-25T12:51:20.546Z</time></trkpt><trkpt lat="42.7155517" lon="12.610931"><ele>457.0</ele><time>2026-04-25T12:51:21.542Z</time></trkpt><trkpt lat="42.7157006" lon="12.6110106"><ele>457.0</ele><time>2026-04-25T12:51:22.54Z</time></trkpt><trkpt lat="42.7158642" lon="12.6110621"><ele>457.0</ele><time>2026-04-25T12:51:23.557Z</time></trkpt><trkpt lat="42.7160326" lon="12.6111062"><ele>457.0</ele><time>2026-04-25T12:51:24.544Z</time></trkpt><trkpt lat="42.7161774" lon="12.6111575"><ele>459.5</ele><time>2026-04-25T12:51:25.549Z</time></trkpt><trkpt lat="42.7163149" lon="12.611227"><ele>462.0</ele><time>2026-04-25T12:51:26.545Z</time></trkpt><trkpt lat="42.7164399" lon="12.6113238"><ele>464.5</ele><time>2026-04-25T12:51:27.541Z</time></trkpt><trkpt lat="42.7165355" lon="12.6114557"><ele>467.0</ele><time>2026-04-25T12:51:28.543Z</time></trkpt><trkpt lat="42.7165918" lon="12.6116234"><ele>467.0</ele><time>2026-04-25T12:51:29.544Z</time></trkpt><trkpt lat="42.7166107" lon="12.6118086"><ele>467.0</ele><time>2026-04-25T12:51:30.544Z</time></trkpt><trkpt lat="42.7166069" lon="12.6120314"><ele>467.0</ele><time>2026-04-25T12:51:31.536Z</time></trkpt><trkpt lat="42.716578" lon="12.61226"><ele>467.0</ele><time>2026-04-25T12:51:32.541Z</time></trkpt><trkpt lat="42.7165516" lon="12.6125142"><ele>467.0</ele><time>2026-04-25T12:51:33.541Z</time></trkpt><trkpt lat="42.7165348" lon="12.6128089"><ele>467.0</ele><time>2026-04-25T12:51:34.54Z</time></trkpt><trkpt lat="42.7165137" lon="12.613087"><ele>467.0</ele><time>2026-04-25T12:51:35.542Z</time></trkpt><trkpt lat="42.7164785" lon="12.613348"><ele>467.0</ele><time>2026-04-25T12:51:36.538Z</time></trkpt><trkpt lat="42.7164184" lon="12.6135773"><ele>467.0</ele><time>2026-04-25T12:51:37.542Z</time></trkpt><trkpt lat="42.7163465" lon="12.6137939"><ele>467.0</ele><time>2026-04-25T12:51:38.542Z</time></trkpt><trkpt lat="42.7162808" lon="12.6140117"><ele>467.0</ele><time>2026-04-25T12:51:39.538Z</time></trkpt><trkpt lat="42.71624" lon="12.6142504"><ele>467.0</ele><time>2026-04-25T12:51:40.541Z</time></trkpt><trkpt lat="42.7162155" lon="12.6144967"><ele>467.3333333333333</ele><time>2026-04-25T12:51:41.571Z</time></trkpt><trkpt lat="42.7162121" lon="12.6147299"><ele>467.66666666666663</ele><time>2026-04-25T12:51:42.544Z</time></trkpt><trkpt lat="42.7162056" lon="12.6149474"><ele>468.0</ele><time>2026-04-25T12:51:43.543Z</time></trkpt><trkpt lat="42.716202" lon="12.6151301"><ele>468.0</ele><time>2026-04-25T12:51:44.539Z</time></trkpt><trkpt lat="42.7162202" lon="12.6152946"><ele>468.0</ele><time>2026-04-25T12:51:45.549Z</time></trkpt><trkpt lat="42.7162703" lon="12.6154543"><ele>468.0</ele><time>2026-04-25T12:51:46.548Z</time></trkpt><trkpt lat="42.7163424" lon="12.6156137"><ele>468.0</ele><time>2026-04-25T12:51:47.562Z</time></trkpt><trkpt lat="42.7164757" lon="12.6157457"><ele>465.0</ele><time>2026-04-25T12:51:48.539Z</time></trkpt><trkpt lat="42.7166234" lon="12.615888"><ele>462.0</ele><time>2026-04-25T12:51:49.541Z</time></trkpt><trkpt lat="42.7167624" lon="12.6160212"><ele>459.0</ele><time>2026-04-25T12:51:50.539Z</time></trkpt><trkpt lat="42.7168753" lon="12.6161641"><ele>458.0</ele><time>2026-04-25T12:51:51.546Z</time></trkpt><trkpt lat="42.7169736" lon="12.616311"><ele>457.0</ele><time>2026-04-25T12:51:52.542Z</time></trkpt><trkpt lat="42.7170374" lon="12.6164908"><ele>456.0</ele><time>2026-04-25T12:51:53.544Z</time></trkpt><trkpt lat="42.7170692" lon="12.6166983"><ele>455.0</ele><time>2026-04-25T12:51:54.539Z</time></trkpt><trkpt lat="42.7170769" lon="12.6169296"><ele>454.5</ele><time>2026-04-25T12:51:55.54Z</time></trkpt><trkpt lat="42.7170668" lon="12.6171544"><ele>454.0</ele><time>2026-04-25T12:51:56.54Z</time></trkpt><trkpt lat="42.7170612" lon="12.617344"><ele>453.5</ele><time>2026-04-25T12:51:57.555Z</time></trkpt><trkpt lat="42.7170878" lon="12.6175152"><ele>453.0</ele><time>2026-04-25T12:51:58.54Z</time></trkpt><trkpt lat="42.7171426" lon="12.6176871"><ele>453.0</ele><time>2026-04-25T12:51:59.54Z</time></trkpt><trkpt lat="42.7172455" lon="12.6178328"><ele>453.0</ele><time>2026-04-25T12:52:00.543Z</time></trkpt><trkpt lat="42.7173824" lon="12.6179259"><ele>453.0</ele><time>2026-04-25T12:52:01.545Z</time></trkpt><trkpt lat="42.7175371" lon="12.6180037"><ele>453.0</ele><time>2026-04-25T12:52:02.563Z</time></trkpt><trkpt lat="42.7176732" lon="12.6180595"><ele>453.0</ele><time>2026-04-25T12:52:03.542Z</time></trkpt><trkpt lat="42.7177887" lon="12.6181511"><ele>453.0</ele><time>2026-04-25T12:52:04.549Z</time></trkpt><trkpt lat="42.7178671" lon="12.6182716"><ele>453.0</ele><time>2026-04-25T12:52:05.545Z</time></trkpt><trkpt lat="42.7179078" lon="12.6184345"><ele>450.75</ele><time>2026-04-25T12:52:06.543Z</time></trkpt><trkpt lat="42.717917" lon="12.6186248"><ele>448.5</ele><time>2026-04-25T12:52:07.542Z</time></trkpt><trkpt lat="42.7178998" lon="12.6188189"><ele>446.25</ele><time>2026-04-25T12:52:08.538Z</time></trkpt><trkpt lat="42.717885" lon="12.6189909"><ele>444.0</ele><time>2026-04-25T12:52:09.545Z</time></trkpt><trkpt lat="42.7179133" lon="12.6191773"><ele>442.66666666666663</ele><time>2026-04-25T12:52:10.544Z</time></trkpt><trkpt lat="42.718001" lon="12.6193756"><ele>441.3333333333333</ele><time>2026-04-25T12:52:11.551Z</time></trkpt><trkpt lat="42.7181165" lon="12.6195795"><ele>440.0</ele><time>2026-04-25T12:52:12.545Z</time></trkpt><trkpt lat="42.7182322" lon="12.6197719"><ele>440.0</ele><time>2026-04-25T12:52:13.543Z</time></trkpt><trkpt lat="42.7183441" lon="12.6199447"><ele>440.0</ele><time>2026-04-25T12:52:14.543Z</time></trkpt><trkpt lat="42.718474" lon="12.6200885"><ele>440.0</ele><time>2026-04-25T12:52:15.55Z</time></trkpt><trkpt lat="42.7186312" lon="12.6201942"><ele>435.66666666666663</ele><time>2026-04-25T12:52:16.555Z</time></trkpt><trkpt lat="42.7187951" lon="12.6202811"><ele>431.33333333333337</ele><time>2026-04-25T12:52:17.543Z</time></trkpt><trkpt lat="42.7189411" lon="12.6204156"><ele>427.0</ele><time>2026-04-25T12:52:18.541Z</time></trkpt><trkpt lat="42.7190763" lon="12.6205665"><ele>427.0</ele><time>2026-04-25T12:52:19.548Z</time></trkpt><trkpt lat="42.7191886" lon="12.6207178"><ele>427.0</ele><time>2026-04-25T12:52:20.546Z</time></trkpt><trkpt lat="42.719269" lon="12.620857"><ele>427.0</ele><time>2026-04-25T12:52:21.543Z</time></trkpt><trkpt lat="42.7193195" lon="12.6209992"><ele>427.0</ele><time>2026-04-25T12:52:22.544Z</time></trkpt><trkpt lat="42.7193325" lon="12.6211856"><ele>426.6666666666667</ele><time>2026-04-25T12:52:23.542Z</time></trkpt><trkpt lat="42.7193383" lon="12.6214053"><ele>426.33333333333337</ele><time>2026-04-25T12:52:24.542Z</time></trkpt><trkpt lat="42.7193339" lon="12.6216359"><ele>426.0</ele><time>2026-04-25T12:52:25.553Z</time></trkpt><trkpt lat="42.7193435" lon="12.6218769"><ele>427.33333333333337</ele><time>2026-04-25T12:52:26.552Z</time></trkpt><trkpt lat="42.7193461" lon="12.622102"><ele>428.6666666666667</ele><time>2026-04-25T12:52:27.553Z</time></trkpt><trkpt lat="42.7193623" lon="12.6223143"><ele>430.0</ele><time>2026-04-25T12:52:28.553Z</time></trkpt><trkpt lat="42.7194032" lon="12.6225154"><ele>423.6666666666667</ele><time>2026-04-25T12:52:29.543Z</time></trkpt><trkpt lat="42.719466" lon="12.6227187"><ele>417.33333333333337</ele><time>2026-04-25T12:52:30.543Z</time></trkpt><trkpt lat="42.7195629" lon="12.6228991"><ele>411.0</ele><time>2026-04-25T12:52:31.561Z</time></trkpt><trkpt lat="42.7196764" lon="12.6230714"><ele>411.0</ele><time>2026-04-25T12:52:32.542Z</time></trkpt><trkpt lat="42.7197773" lon="12.6232444"><ele>411.0</ele><time>2026-04-25T12:52:33.538Z</time></trkpt><trkpt lat="42.7198437" lon="12.6234499"><ele>411.0</ele><time>2026-04-25T12:52:34.548Z</time></trkpt><trkpt lat="42.7198794" lon="12.6236633"><ele>410.33333333333337</ele><time>2026-04-25T12:52:35.545Z</time></trkpt><trkpt lat="42.7198912" lon="12.6238928"><ele>409.6666666666667</ele><time>2026-04-25T12:52:36.539Z</time></trkpt><trkpt lat="42.7198824" lon="12.6241452"><ele>409.0</ele><time>2026-04-25T12:52:37.545Z</time></trkpt><trkpt lat="42.719873" lon="12.6243737"><ele>406.33333333333337</ele><time>2026-04-25T12:52:38.546Z</time></trkpt><trkpt lat="42.7198498" lon="12.6245845"><ele>403.66666666666663</ele><time>2026-04-25T12:52:39.547Z</time></trkpt><trkpt lat="42.7198051" lon="12.6247912"><ele>401.0</ele><time>2026-04-25T12:52:40.542Z</time></trkpt><trkpt lat="42.7197279" lon="12.6250105"><ele>401.0</ele><time>2026-04-25T12:52:41.536Z</time></trkpt><trkpt lat="42.7196424" lon="12.6252236"><ele>401.0</ele><time>2026-04-25T12:52:42.547Z</time></trkpt><trkpt lat="42.719558" lon="12.6254322"><ele>401.0</ele><time>2026-04-25T12:52:43.563Z</time></trkpt><trkpt lat="42.7194664" lon="12.6256429"><ele>402.0</ele><time>2026-04-25T12:52:44.542Z</time></trkpt><trkpt lat="42.7193691" lon="12.6258426"><ele>403.0</ele><time>2026-04-25T12:52:45.548Z</time></trkpt><trkpt lat="42.7192653" lon="12.626027"><ele>404.0</ele><time>2026-04-25T12:52:46.54Z</time></trkpt><trkpt lat="42.7191759" lon="12.6262116"><ele>400.66666666666663</ele><time>2026-04-25T12:52:47.543Z</time></trkpt><trkpt lat="42.719101" lon="12.6264075"><ele>397.33333333333337</ele><time>2026-04-25T12:52:48.549Z</time></trkpt><trkpt lat="42.7190454" lon="12.626607"><ele>394.0</ele><time>2026-04-25T12:52:49.541Z</time></trkpt><trkpt lat="42.7190221" lon="12.6268044"><ele>393.0</ele><time>2026-04-25T12:52:50.56Z</time></trkpt><trkpt lat="42.7190287" lon="12.6270157"><ele>392.0</ele><time>2026-04-25T12:52:51.545Z</time></trkpt><trkpt lat="42.7190492" lon="12.6272378"><ele>391.0</ele><time>2026-04-25T12:52:52.542Z</time></trkpt><trkpt lat="42.7191244" lon="12.6274244"><ele>391.0</ele><time>2026-04-25T12:52:53.542Z</time></trkpt><trkpt lat="42.7192186" lon="12.6275811"><ele>391.0</ele><time>2026-04-25T12:52:54.539Z</time></trkpt><trkpt lat="42.7193386" lon="12.6277171"><ele>391.0</ele><time>2026-04-25T12:52:55.542Z</time></trkpt><trkpt lat="42.7194691" lon="12.6278299"><ele>389.33333333333337</ele><time>2026-04-25T12:52:56.541Z</time></trkpt><trkpt lat="42.7196203" lon="12.6279374"><ele>387.66666666666663</ele><time>2026-04-25T12:52:57.545Z</time></trkpt><trkpt lat="42.7197629" lon="12.6280503"><ele>386.0</ele><time>2026-04-25T12:52:58.554Z</time></trkpt><trkpt lat="42.7198837" lon="12.6281964"><ele>386.0</ele><time>2026-04-25T12:52:59.536Z</time></trkpt><trkpt lat="42.7199775" lon="12.6283728"><ele>386.0</ele><time>2026-04-25T12:53:00.531Z</time></trkpt><trkpt lat="42.7200492" lon="12.6285787"><ele>386.0</ele><time>2026-04-25T12:53:01.539Z</time></trkpt><trkpt lat="42.7201031" lon="12.6288128"><ele>386.3333333333333</ele><time>2026-04-25T12:53:02.546Z</time></trkpt><trkpt lat="42.720135" lon="12.6290754"><ele>386.66666666666663</ele><time>2026-04-25T12:53:03.536Z</time></trkpt><trkpt lat="42.7201472" lon="12.6293194"><ele>387.0</ele><time>2026-04-25T12:53:04.539Z</time></trkpt><trkpt lat="42.7201604" lon="12.62955"><ele>386.25</ele><time>2026-04-25T12:53:05.544Z</time></trkpt><trkpt lat="42.7201754" lon="12.6297593"><ele>385.5</ele><time>2026-04-25T12:53:06.546Z</time></trkpt><trkpt lat="42.7201945" lon="12.6299438"><ele>384.75</ele><time>2026-04-25T12:53:07.544Z</time></trkpt><trkpt lat="42.7202054" lon="12.6301104"><ele>384.0</ele><time>2026-04-25T12:53:08.542Z</time></trkpt><trkpt lat="42.7202103" lon="12.6302458"><ele>383.3333333333333</ele><time>2026-04-25T12:53:09.54Z</time></trkpt><trkpt lat="42.720209" lon="12.6303583"><ele>382.6666666666667</ele><time>2026-04-25T12:53:10.541Z</time></trkpt><trkpt lat="42.7202406" lon="12.630457"><ele>382.0</ele><time>2026-04-25T12:53:12.539Z</time></trkpt><trkpt lat="42.7202974" lon="12.6304027"><ele>381.33333333333337</ele><time>2026-04-25T12:53:15.543Z</time></trkpt><trkpt lat="42.7203099" lon="12.6302963"><ele>380.6666666666667</ele><time>2026-04-25T12:53:18.544Z</time></trkpt><trkpt lat="42.7203166" lon="12.6301963"><ele>380.0</ele><time>2026-04-25T12:53:21.545Z</time></trkpt><trkpt lat="42.7203328" lon="12.6300866"><ele>379.5</ele><time>2026-04-25T12:53:24.548Z</time></trkpt><trkpt lat="42.7203533" lon="12.6299968"><ele>379.0</ele><time>2026-04-25T12:53:27.543Z</time></trkpt><trkpt lat="42.7203711" lon="12.6299055"><ele>378.5</ele><time>2026-04-25T12:53:31.54Z</time></trkpt><trkpt lat="42.7204034" lon="12.6298204"><ele>378.0</ele><time>2026-04-25T12:53:37.542Z</time></trkpt><trkpt lat="42.7203894" lon="12.6297293"><ele>377.5</ele><time>2026-04-25T12:55:18.551Z</time></trkpt><trkpt lat="42.7203988" lon="12.6295894"><ele>377.0</ele><time>2026-04-25T12:55:20.543Z</time></trkpt><trkpt lat="42.7204184" lon="12.6294748"><ele>377.0</ele><time>2026-04-25T12:55:21.551Z</time></trkpt><trkpt lat="42.7204271" lon="12.6293665"><ele>377.0</ele><time>2026-04-25T12:55:22.549Z</time></trkpt><trkpt lat="42.7204322" lon="12.6292653"><ele>377.0</ele><time>2026-04-25T12:55:23.551Z</time></trkpt><trkpt lat="42.7204361" lon="12.6291168"><ele>377.0</ele><time>2026-04-25T12:55:24.547Z</time></trkpt><trkpt lat="42.7204398" lon="12.6289646"><ele>377.0</ele><time>2026-04-25T12:55:25.574Z</time></trkpt><trkpt lat="42.7204505" lon="12.6288376"><ele>377.0</ele><time>2026-04-25T12:55:26.543Z</time></trkpt><trkpt lat="42.7204827" lon="12.628747"><ele>377.0</ele><time>2026-04-25T12:55:27.558Z</time></trkpt><trkpt lat="42.7205343" lon="12.62866"><ele>377.0</ele><time>2026-04-25T12:55:28.539Z</time></trkpt><trkpt lat="42.7206013" lon="12.6286052"><ele>377.0</ele><time>2026-04-25T12:55:29.541Z</time></trkpt><trkpt lat="42.7206832" lon="12.6285693"><ele>377.0</ele><time>2026-04-25T12:55:30.549Z</time></trkpt><trkpt lat="42.7207735" lon="12.6285945"><ele>377.0</ele><time>2026-04-25T12:55:31.544Z</time></trkpt><trkpt lat="42.7208586" lon="12.6286258"><ele>376.99999999999994</ele><time>2026-04-25T12:55:32.551Z</time></trkpt><trkpt lat="42.7209444" lon="12.6286495"><ele>377.0</ele><time>2026-04-25T12:55:33.552Z</time></trkpt><trkpt lat="42.7210236" lon="12.6286597"><ele>377.0</ele><time>2026-04-25T12:55:34.548Z</time></trkpt><trkpt lat="42.7210951" lon="12.6286643"><ele>377.0</ele><time>2026-04-25T12:55:35.546Z</time></trkpt><trkpt lat="42.7211614" lon="12.6286423"><ele>377.0</ele><time>2026-04-25T12:55:36.556Z</time></trkpt><trkpt lat="42.7212239" lon="12.6286046"><ele>376.99999999999994</ele><time>2026-04-25T12:55:37.566Z</time></trkpt><trkpt lat="42.7212639" lon="12.6285315"><ele>377.0</ele><time>2026-04-25T12:55:38.548Z</time></trkpt><trkpt lat="42.7212776" lon="12.6284398"><ele>378.0</ele><time>2026-04-25T12:55:39.567Z</time></trkpt><trkpt lat="42.7212753" lon="12.6283207"><ele>379.0</ele><time>2026-04-25T12:55:40.545Z</time></trkpt><trkpt lat="42.7212657" lon="12.6281978"><ele>380.0</ele><time>2026-04-25T12:55:41.545Z</time></trkpt><trkpt lat="42.7212523" lon="12.628065"><ele>381.0</ele><time>2026-04-25T12:55:42.547Z</time></trkpt><trkpt lat="42.7212402" lon="12.6279265"><ele>382.0</ele><time>2026-04-25T12:55:43.547Z</time></trkpt><trkpt lat="42.7212169" lon="12.627772"><ele>384.25</ele><time>2026-04-25T12:55:44.554Z</time></trkpt><trkpt lat="42.7211922" lon="12.6276205"><ele>386.5</ele><time>2026-04-25T12:55:45.542Z</time></trkpt><trkpt lat="42.7211602" lon="12.6274605"><ele>388.75</ele><time>2026-04-25T12:55:46.545Z</time></trkpt><trkpt lat="42.7211319" lon="12.6272993"><ele>391.0</ele><time>2026-04-25T12:55:47.537Z</time></trkpt><trkpt lat="42.7211003" lon="12.6271393"><ele>391.0</ele><time>2026-04-25T12:55:48.542Z</time></trkpt><trkpt lat="42.7210808" lon="12.6269836"><ele>391.0</ele><time>2026-04-25T12:55:49.55Z</time></trkpt><trkpt lat="42.7210757" lon="12.6268256"><ele>391.0</ele><time>2026-04-25T12:55:50.541Z</time></trkpt><trkpt lat="42.7210793" lon="12.6266685"><ele>391.0</ele><time>2026-04-25T12:55:51.543Z</time></trkpt><trkpt lat="42.721092" lon="12.6265078"><ele>393.25</ele><time>2026-04-25T12:55:52.549Z</time></trkpt><trkpt lat="42.7211083" lon="12.6263446"><ele>395.5</ele><time>2026-04-25T12:55:53.54Z</time></trkpt><trkpt lat="42.7211345" lon="12.6261808"><ele>397.75</ele><time>2026-04-25T12:55:54.56Z</time></trkpt><trkpt lat="42.7211592" lon="12.6260148"><ele>400.0</ele><time>2026-04-25T12:55:55.544Z</time></trkpt><trkpt lat="42.7211887" lon="12.6258488"><ele>400.25</ele><time>2026-04-25T12:55:56.544Z</time></trkpt><trkpt lat="42.7212111" lon="12.6256768"><ele>400.5</ele><time>2026-04-25T12:55:57.55Z</time></trkpt><trkpt lat="42.7212415" lon="12.6254994"><ele>400.75</ele><time>2026-04-25T12:55:58.545Z</time></trkpt><trkpt lat="42.7212658" lon="12.6253204"><ele>401.0</ele><time>2026-04-25T12:55:59.551Z</time></trkpt><trkpt lat="42.721288" lon="12.6251512"><ele>401.0</ele><time>2026-04-25T12:56:00.548Z</time></trkpt><trkpt lat="42.7213071" lon="12.6249749"><ele>401.0</ele><time>2026-04-25T12:56:01.547Z</time></trkpt><trkpt lat="42.7213117" lon="12.6248139"><ele>401.0</ele><time>2026-04-25T12:56:02.549Z</time></trkpt><trkpt lat="42.7213044" lon="12.6246576"><ele>401.0</ele><time>2026-04-25T12:56:03.545Z</time></trkpt><trkpt lat="42.7212818" lon="12.6245092"><ele>401.75</ele><time>2026-04-25T12:56:04.556Z</time></trkpt><trkpt lat="42.7212482" lon="12.6243528"><ele>402.5</ele><time>2026-04-25T12:56:05.543Z</time></trkpt><trkpt lat="42.7212164" lon="12.6241906"><ele>403.25</ele><time>2026-04-25T12:56:06.54Z</time></trkpt><trkpt lat="42.7211911" lon="12.6240316"><ele>404.0</ele><time>2026-04-25T12:56:07.549Z</time></trkpt><trkpt lat="42.7211689" lon="12.6238755"><ele>404.0</ele><time>2026-04-25T12:56:08.552Z</time></trkpt><trkpt lat="42.7211619" lon="12.6237031"><ele>404.0</ele><time>2026-04-25T12:56:09.541Z</time></trkpt><trkpt lat="42.7211647" lon="12.6235375"><ele>404.0</ele><time>2026-04-25T12:56:10.575Z</time></trkpt><trkpt lat="42.7211668" lon="12.6233505"><ele>404.0</ele><time>2026-04-25T12:56:11.548Z</time></trkpt><trkpt lat="42.7211666" lon="12.6231501"><ele>402.75</ele><time>2026-04-25T12:56:12.544Z</time></trkpt><trkpt lat="42.7211461" lon="12.622958"><ele>401.5</ele><time>2026-04-25T12:56:13.549Z</time></trkpt><trkpt lat="42.7211272" lon="12.6227671"><ele>400.25</ele><time>2026-04-25T12:56:14.544Z</time></trkpt><trkpt lat="42.7210883" lon="12.6225946"><ele>399.0</ele><time>2026-04-25T12:56:15.566Z</time></trkpt><trkpt lat="42.7210386" lon="12.6224404"><ele>399.0</ele><time>2026-04-25T12:56:16.539Z</time></trkpt><trkpt lat="42.7209802" lon="12.6222983"><ele>399.0</ele><time>2026-04-25T12:56:17.545Z</time></trkpt><trkpt lat="42.7209163" lon="12.6221535"><ele>399.0</ele><time>2026-04-25T12:56:18.54Z</time></trkpt><trkpt lat="42.7208638" lon="12.6219978"><ele>399.0</ele><time>2026-04-25T12:56:19.539Z</time></trkpt><trkpt lat="42.7208167" lon="12.6218503"><ele>399.6</ele><time>2026-04-25T12:56:20.54Z</time></trkpt><trkpt lat="42.7207886" lon="12.6217051"><ele>400.2</ele><time>2026-04-25T12:56:21.545Z</time></trkpt><trkpt lat="42.7207822" lon="12.6215607"><ele>400.8</ele><time>2026-04-25T12:56:22.542Z</time></trkpt><trkpt lat="42.720791" lon="12.6214235"><ele>401.40000000000003</ele><time>2026-04-25T12:56:23.571Z</time></trkpt><trkpt lat="42.7208286" lon="12.6213008"><ele>402.0</ele><time>2026-04-25T12:56:24.548Z</time></trkpt><trkpt lat="42.7208745" lon="12.6211702"><ele>403.25</ele><time>2026-04-25T12:56:25.545Z</time></trkpt><trkpt lat="42.7209215" lon="12.6210385"><ele>404.5</ele><time>2026-04-25T12:56:26.543Z</time></trkpt><trkpt lat="42.7209587" lon="12.6209021"><ele>405.75</ele><time>2026-04-25T12:56:27.543Z</time></trkpt><trkpt lat="42.720976" lon="12.6207474"><ele>407.0</ele><time>2026-04-25T12:56:28.542Z</time></trkpt><trkpt lat="42.7209646" lon="12.6205713"><ele>407.0</ele><time>2026-04-25T12:56:29.542Z</time></trkpt><trkpt lat="42.7209404" lon="12.620389"><ele>407.0</ele><time>2026-04-25T12:56:30.54Z</time></trkpt><trkpt lat="42.7209039" lon="12.6202077"><ele>407.0</ele><time>2026-04-25T12:56:31.545Z</time></trkpt><trkpt lat="42.7208622" lon="12.6200366"><ele>407.0</ele><time>2026-04-25T12:56:32.547Z</time></trkpt><trkpt lat="42.7208297" lon="12.6198776"><ele>407.25</ele><time>2026-04-25T12:56:33.54Z</time></trkpt><trkpt lat="42.7207945" lon="12.6197285"><ele>407.5</ele><time>2026-04-25T12:56:34.544Z</time></trkpt><trkpt lat="42.7207822" lon="12.6195555"><ele>407.75</ele><time>2026-04-25T12:56:35.547Z</time></trkpt><trkpt lat="42.7207777" lon="12.6193679"><ele>408.0</ele><time>2026-04-25T12:56:36.546Z</time></trkpt><trkpt lat="42.7207637" lon="12.6191802"><ele>408.75</ele><time>2026-04-25T12:56:37.542Z</time></trkpt><trkpt lat="42.7207527" lon="12.6190025"><ele>409.5</ele><time>2026-04-25T12:56:38.573Z</time></trkpt><trkpt lat="42.7207445" lon="12.6188377"><ele>410.25</ele><time>2026-04-25T12:56:39.545Z</time></trkpt><trkpt lat="42.720733" lon="12.6186823"><ele>411.0</ele><time>2026-04-25T12:56:40.545Z</time></trkpt><trkpt lat="42.7207254" lon="12.618516"><ele>411.75</ele><time>2026-04-25T12:56:41.551Z</time></trkpt><trkpt lat="42.7207151" lon="12.6183514"><ele>412.5</ele><time>2026-04-25T12:56:42.545Z</time></trkpt><trkpt lat="42.7207041" lon="12.6181838"><ele>413.25</ele><time>2026-04-25T12:56:43.543Z</time></trkpt><trkpt lat="42.7206953" lon="12.6180131"><ele>414.0</ele><time>2026-04-25T12:56:44.545Z</time></trkpt><trkpt lat="42.7206896" lon="12.6178385"><ele>414.6</ele><time>2026-04-25T12:56:45.547Z</time></trkpt><trkpt lat="42.7206784" lon="12.6176736"><ele>415.2</ele><time>2026-04-25T12:56:46.546Z</time></trkpt><trkpt lat="42.7206747" lon="12.6175288"><ele>415.8</ele><time>2026-04-25T12:56:47.544Z</time></trkpt><trkpt lat="42.7206949" lon="12.6173896"><ele>416.40000000000003</ele><time>2026-04-25T12:56:48.544Z</time></trkpt><trkpt lat="42.7207343" lon="12.6172465"><ele>417.0</ele><time>2026-04-25T12:56:49.542Z</time></trkpt><trkpt lat="42.7207934" lon="12.6170905"><ele>418.0</ele><time>2026-04-25T12:56:50.543Z</time></trkpt><trkpt lat="42.7208618" lon="12.6169427"><ele>419.0</ele><time>2026-04-25T12:56:51.546Z</time></trkpt><trkpt lat="42.720938" lon="12.6168103"><ele>420.0</ele><time>2026-04-25T12:56:52.544Z</time></trkpt><trkpt lat="42.7209994" lon="12.6166687"><ele>421.0</ele><time>2026-04-25T12:56:53.539Z</time></trkpt><trkpt lat="42.7210407" lon="12.6165122"><ele>421.0</ele><time>2026-04-25T12:56:54.541Z</time></trkpt><trkpt lat="42.7210592" lon="12.616335"><ele>421.0</ele><time>2026-04-25T12:56:55.55Z</time></trkpt><trkpt lat="42.7210765" lon="12.6161552"><ele>421.0</ele><time>2026-04-25T12:56:56.54Z</time></trkpt><trkpt lat="42.7211011" lon="12.6159792"><ele>421.0</ele><time>2026-04-25T12:56:57.553Z</time></trkpt><trkpt lat="42.7211291" lon="12.6158154"><ele>423.20000000000005</ele><time>2026-04-25T12:56:58.537Z</time></trkpt><trkpt lat="42.7211539" lon="12.6156752"><ele>425.40000000000003</ele><time>2026-04-25T12:56:59.541Z</time></trkpt><trkpt lat="42.7211654" lon="12.6155689"><ele>427.6</ele><time>2026-04-25T12:57:00.546Z</time></trkpt><trkpt lat="42.7211851" lon="12.6154784"><ele>429.8</ele><time>2026-04-25T12:57:01.542Z</time></trkpt><trkpt lat="42.7212593" lon="12.615367"><ele>432.0</ele><time>2026-04-25T12:57:03.549Z</time></trkpt><trkpt lat="42.7213818" lon="12.6153344"><ele>432.0</ele><time>2026-04-25T12:57:05.547Z</time></trkpt><trkpt lat="42.7214661" lon="12.6153445"><ele>432.00000000000006</ele><time>2026-04-25T12:57:06.545Z</time></trkpt><trkpt lat="42.7215606" lon="12.6153461"><ele>432.00000000000006</ele><time>2026-04-25T12:57:07.547Z</time></trkpt><trkpt lat="42.7216654" lon="12.6153447"><ele>432.0</ele><time>2026-04-25T12:57:08.544Z</time></trkpt><trkpt lat="42.7217493" lon="12.6153077"><ele>432.0</ele><time>2026-04-25T12:57:09.546Z</time></trkpt><trkpt lat="42.7218214" lon="12.6152388"><ele>436.0</ele><time>2026-04-25T12:57:10.542Z</time></trkpt><trkpt lat="42.7218994" lon="12.6151592"><ele>440.00000000000006</ele><time>2026-04-25T12:57:11.544Z</time></trkpt><trkpt lat="42.7219775" lon="12.6150674"><ele>444.00000000000006</ele><time>2026-04-25T12:57:12.551Z</time></trkpt><trkpt lat="42.722062" lon="12.6149789"><ele>448.0</ele><time>2026-04-25T12:57:13.545Z</time></trkpt><trkpt lat="42.7221433" lon="12.6148958"><ele>452.0</ele><time>2026-04-25T12:57:14.541Z</time></trkpt><trkpt lat="42.7222158" lon="12.6148388"><ele>452.0</ele><time>2026-04-25T12:57:15.539Z</time></trkpt><trkpt lat="42.7222846" lon="12.6148097"><ele>452.00000000000006</ele><time>2026-04-25T12:57:16.542Z</time></trkpt><trkpt lat="42.7223929" lon="12.6148639"><ele>452.00000000000006</ele><time>2026-04-25T12:57:18.537Z</time></trkpt><trkpt lat="42.7224579" lon="12.6149412"><ele>452.0</ele><time>2026-04-25T12:57:19.543Z</time></trkpt><trkpt lat="42.7225321" lon="12.6150391"><ele>452.0</ele><time>2026-04-25T12:57:20.539Z</time></trkpt><trkpt lat="42.7226017" lon="12.6151472"><ele>452.0</ele><time>2026-04-25T12:57:21.54Z</time></trkpt><trkpt lat="42.7226726" lon="12.6152726"><ele>452.00000000000006</ele><time>2026-04-25T12:57:22.538Z</time></trkpt><trkpt lat="42.7227322" lon="12.6153994"><ele>452.00000000000006</ele><time>2026-04-25T12:57:23.54Z</time></trkpt><trkpt lat="42.7227708" lon="12.6155158"><ele>452.0</ele><time>2026-04-25T12:57:24.544Z</time></trkpt><trkpt lat="42.7228116" lon="12.6156118"><ele>452.0</ele><time>2026-04-25T12:57:25.536Z</time></trkpt><trkpt lat="42.7228597" lon="12.6156946"><ele>454.6</ele><time>2026-04-25T12:57:26.538Z</time></trkpt><trkpt lat="42.7229293" lon="12.6157199"><ele>457.20000000000005</ele><time>2026-04-25T12:57:27.538Z</time></trkpt><trkpt lat="42.7230191" lon="12.6157089"><ele>459.8</ele><time>2026-04-25T12:57:28.542Z</time></trkpt><trkpt lat="42.7231195" lon="12.6156905"><ele>462.4</ele><time>2026-04-25T12:57:29.546Z</time></trkpt><trkpt lat="42.7232366" lon="12.6156664"><ele>465.0</ele><time>2026-04-25T12:57:30.547Z</time></trkpt><trkpt lat="42.7233538" lon="12.6156424"><ele>465.0</ele><time>2026-04-25T12:57:31.557Z</time></trkpt><trkpt lat="42.72348" lon="12.6156274"><ele>465.0</ele><time>2026-04-25T12:57:32.537Z</time></trkpt><trkpt lat="42.7236046" lon="12.6156245"><ele>465.0</ele><time>2026-04-25T12:57:33.544Z</time></trkpt><trkpt lat="42.7237444" lon="12.6156308"><ele>465.0</ele><time>2026-04-25T12:57:34.541Z</time></trkpt><trkpt lat="42.7238855" lon="12.6156514"><ele>469.0</ele><time>2026-04-25T12:57:35.551Z</time></trkpt><trkpt lat="42.724013" lon="12.6156899"><ele>473.0</ele><time>2026-04-25T12:57:36.535Z</time></trkpt><trkpt lat="42.724135" lon="12.6157263"><ele>477.0</ele><time>2026-04-25T12:57:37.545Z</time></trkpt><trkpt lat="42.7242607" lon="12.6157539"><ele>481.0</ele><time>2026-04-25T12:57:38.544Z</time></trkpt><trkpt lat="42.7243655" lon="12.6157823"><ele>482.6</ele><time>2026-04-25T12:57:39.54Z</time></trkpt><trkpt lat="42.7244774" lon="12.6158025"><ele>484.20000000000005</ele><time>2026-04-25T12:57:40.542Z</time></trkpt><trkpt lat="42.7245776" lon="12.615806"><ele>485.79999999999995</ele><time>2026-04-25T12:57:41.542Z</time></trkpt><trkpt lat="42.7246799" lon="12.6158021"><ele>487.4</ele><time>2026-04-25T12:57:42.546Z</time></trkpt><trkpt lat="42.7247707" lon="12.6157916"><ele>489.0</ele><time>2026-04-25T12:57:43.536Z</time></trkpt><trkpt lat="42.7248658" lon="12.615764"><ele>489.0</ele><time>2026-04-25T12:57:44.542Z</time></trkpt><trkpt lat="42.7249561" lon="12.6157249"><ele>489.0</ele><time>2026-04-25T12:57:45.554Z</time></trkpt><trkpt lat="42.725045" lon="12.6156916"><ele>489.0</ele><time>2026-04-25T12:57:46.541Z</time></trkpt><trkpt lat="42.725129" lon="12.6156484"><ele>489.0</ele><time>2026-04-25T12:57:47.54Z</time></trkpt><trkpt lat="42.7252173" lon="12.6156078"><ele>489.0</ele><time>2026-04-25T12:57:48.545Z</time></trkpt><trkpt lat="42.7253069" lon="12.6155513"><ele>488.4</ele><time>2026-04-25T12:57:49.543Z</time></trkpt><trkpt lat="42.7253909" lon="12.6154867"><ele>487.79999999999995</ele><time>2026-04-25T12:57:50.544Z</time></trkpt><trkpt lat="42.7254802" lon="12.6154056"><ele>487.20000000000005</ele><time>2026-04-25T12:57:51.54Z</time></trkpt><trkpt lat="42.7255772" lon="12.6153223"><ele>486.6</ele><time>2026-04-25T12:57:52.542Z</time></trkpt><trkpt lat="42.7256668" lon="12.6152273"><ele>486.0</ele><time>2026-04-25T12:57:53.543Z</time></trkpt><trkpt lat="42.7257459" lon="12.6151353"><ele>488.6666666666667</ele><time>2026-04-25T12:57:54.544Z</time></trkpt><trkpt lat="42.725811" lon="12.61504"><ele>491.33333333333337</ele><time>2026-04-25T12:57:55.541Z</time></trkpt><trkpt lat="42.7258542" lon="12.6149384"><ele>494.0</ele><time>2026-04-25T12:57:56.543Z</time></trkpt><trkpt lat="42.725883" lon="12.6148311"><ele>496.6666666666667</ele><time>2026-04-25T12:57:57.542Z</time></trkpt><trkpt lat="42.7259011" lon="12.6147125"><ele>499.33333333333337</ele><time>2026-04-25T12:57:58.541Z</time></trkpt><trkpt lat="42.7259025" lon="12.6146059"><ele>502.0</ele><time>2026-04-25T12:57:59.542Z</time></trkpt><trkpt lat="42.7259029" lon="12.6145037"><ele>505.33333333333337</ele><time>2026-04-25T12:58:00.544Z</time></trkpt><trkpt lat="42.7259122" lon="12.6143992"><ele>508.6666666666667</ele><time>2026-04-25T12:58:01.551Z</time></trkpt><trkpt lat="42.7259312" lon="12.6142968"><ele>512.0</ele><time>2026-04-25T12:58:02.533Z</time></trkpt><trkpt lat="42.7259478" lon="12.6142086"><ele>515.3333333333334</ele><time>2026-04-25T12:58:03.539Z</time></trkpt><trkpt lat="42.7260336" lon="12.6141008"><ele>518.6666666666666</ele><time>2026-04-25T12:58:05.541Z</time></trkpt><trkpt lat="42.726097" lon="12.6140785"><ele>522.0</ele><time>2026-04-25T12:58:06.534Z</time></trkpt><trkpt lat="42.7261663" lon="12.6140757"><ele>522.1666666666666</ele><time>2026-04-25T12:58:07.541Z</time></trkpt><trkpt lat="42.7262544" lon="12.614107"><ele>522.3333333333334</ele><time>2026-04-25T12:58:08.539Z</time></trkpt><trkpt lat="42.7263605" lon="12.6141343"><ele>522.5</ele><time>2026-04-25T12:58:09.542Z</time></trkpt><trkpt lat="42.7264531" lon="12.6141735"><ele>522.6666666666667</ele><time>2026-04-25T12:58:10.541Z</time></trkpt><trkpt lat="42.7265187" lon="12.6141994"><ele>522.8333333333334</ele><time>2026-04-25T12:58:11.548Z</time></trkpt><trkpt lat="42.7265733" lon="12.6142515"><ele>523.0</ele><time>2026-04-25T12:58:12.539Z</time></trkpt><trkpt lat="42.7266277" lon="12.6143297"><ele>523.0</ele><time>2026-04-25T12:58:13.538Z</time></trkpt><trkpt lat="42.7266575" lon="12.6144235"><ele>523.0</ele><time>2026-04-25T12:58:14.537Z</time></trkpt><trkpt lat="42.7266671" lon="12.6145526"><ele>523.0</ele><time>2026-04-25T12:58:15.54Z</time></trkpt><trkpt lat="42.7266865" lon="12.6147033"><ele>523.0</ele><time>2026-04-25T12:58:16.541Z</time></trkpt><trkpt lat="42.7267019" lon="12.6148466"><ele>523.0</ele><time>2026-04-25T12:58:17.538Z</time></trkpt><trkpt lat="42.726732" lon="12.6149824"><ele>521.8333333333334</ele><time>2026-04-25T12:58:18.539Z</time></trkpt><trkpt lat="42.7267679" lon="12.6151161"><ele>520.6666666666667</ele><time>2026-04-25T12:58:19.541Z</time></trkpt><trkpt lat="42.7268052" lon="12.6152274"><ele>519.5</ele><time>2026-04-25T12:58:20.542Z</time></trkpt><trkpt lat="42.7268448" lon="12.6153191"><ele>518.3333333333334</ele><time>2026-04-25T12:58:21.541Z</time></trkpt><trkpt lat="42.7268803" lon="12.6153977"><ele>517.1666666666666</ele><time>2026-04-25T12:58:22.539Z</time></trkpt><trkpt lat="42.7269217" lon="12.6154676"><ele>516.0</ele><time>2026-04-25T12:58:23.54Z</time></trkpt><trkpt lat="42.7269687" lon="12.6155373"><ele>520.4285714285713</ele><time>2026-04-25T12:58:24.548Z</time></trkpt><trkpt lat="42.7270119" lon="12.6156201"><ele>524.8571428571429</ele><time>2026-04-25T12:58:25.54Z</time></trkpt><trkpt lat="42.7270442" lon="12.6157046"><ele>529.2857142857142</ele><time>2026-04-25T12:58:26.535Z</time></trkpt><trkpt lat="42.7270706" lon="12.6157884"><ele>533.7142857142857</ele><time>2026-04-25T12:58:27.541Z</time></trkpt><trkpt lat="42.7270946" lon="12.6158705"><ele>538.1428571428571</ele><time>2026-04-25T12:58:30.538Z</time></trkpt><trkpt lat="42.7270799" lon="12.6159811"><ele>542.5714285714286</ele><time>2026-04-25T12:59:40.542Z</time></trkpt><trkpt lat="42.7271131" lon="12.616063"><ele>547.0</ele><time>2026-04-25T12:59:42.541Z</time></trkpt><trkpt lat="42.7271622" lon="12.616149"><ele>545.5</ele><time>2026-04-25T12:59:44.549Z</time></trkpt><trkpt lat="42.7272248" lon="12.616246"><ele>544.0</ele><time>2026-04-25T12:59:46.541Z</time></trkpt><trkpt lat="42.7272721" lon="12.6163569"><ele>542.5</ele><time>2026-04-25T12:59:48.544Z</time></trkpt><trkpt lat="42.7273173" lon="12.6164634"><ele>541.0</ele><time>2026-04-25T12:59:50.543Z</time></trkpt><trkpt lat="42.727355" lon="12.6165471"><ele>539.5</ele><time>2026-04-25T12:59:52.545Z</time></trkpt><trkpt lat="42.7273751" lon="12.6166342"><ele>538.0</ele><time>2026-04-25T13:00:11.545Z</time></trkpt><trkpt lat="42.7273027" lon="12.6166807"><ele>538.0</ele><time>2026-04-25T13:00:15.541Z</time></trkpt><trkpt lat="42.7272921" lon="12.6167627"><ele>538.0</ele><time>2026-04-25T13:08:15.544Z</time></trkpt><trkpt lat="42.7272494" lon="12.6168406"><ele>538.0</ele><time>2026-04-25T13:08:18.564Z</time></trkpt><trkpt lat="42.7271911" lon="12.6168782"><ele>538.0</ele><time>2026-04-25T13:08:20.536Z</time></trkpt><trkpt lat="42.7271199" lon="12.6169247"><ele>538.0</ele><time>2026-04-25T13:08:22.547Z</time></trkpt><trkpt lat="42.7270285" lon="12.6169181"><ele>538.0</ele><time>2026-04-25T13:08:25.543Z</time></trkpt><trkpt lat="42.726963" lon="12.6168222"><ele>538.0</ele><time>2026-04-25T13:08:28.543Z</time></trkpt><trkpt lat="42.7268974" lon="12.6167476"><ele>538.0</ele><time>2026-04-25T13:08:30.545Z</time></trkpt><trkpt lat="42.7268401" lon="12.61668"><ele>538.0</ele><time>2026-04-25T13:08:32.538Z</time></trkpt><trkpt lat="42.7268021" lon="12.616596"><ele>538.0</ele><time>2026-04-25T13:08:34.562Z</time></trkpt><trkpt lat="42.7267842" lon="12.6164864"><ele>538.0</ele><time>2026-04-25T13:08:37.54Z</time></trkpt><trkpt lat="42.7267898" lon="12.616395"><ele>538.0</ele><time>2026-04-25T13:08:41.544Z</time></trkpt><trkpt lat="42.7268085" lon="12.6162785"><ele>539.2857142857143</ele><time>2026-04-25T13:08:44.543Z</time></trkpt><trkpt lat="42.7268357" lon="12.6161874"><ele>540.5714285714287</ele><time>2026-04-25T13:08:47.554Z</time></trkpt><trkpt lat="42.7268626" lon="12.6161072"><ele>541.8571428571429</ele><time>2026-04-25T13:08:50.558Z</time></trkpt><trkpt lat="42.7269331" lon="12.6160613"><ele>543.1428571428571</ele><time>2026-04-25T13:08:54.551Z</time></trkpt><trkpt lat="42.7269998" lon="12.6160393"><ele>544.4285714285713</ele><time>2026-04-25T13:08:56.543Z</time></trkpt><trkpt lat="42.7270598" lon="12.6160004"><ele>545.7142857142857</ele><time>2026-04-25T13:08:58.552Z</time></trkpt><trkpt lat="42.7270896" lon="12.6158902"><ele>547.0</ele><time>2026-04-25T13:09:01.542Z</time></trkpt><trkpt lat="42.7270642" lon="12.6157789"><ele>547.0</ele><time>2026-04-25T13:09:04.541Z</time></trkpt><trkpt lat="42.7270169" lon="12.6156694"><ele>547.0</ele><time>2026-04-25T13:09:07.544Z</time></trkpt><trkpt lat="42.7269605" lon="12.6155541"><ele>547.0</ele><time>2026-04-25T13:09:09.542Z</time></trkpt><trkpt lat="42.7269181" lon="12.6154851"><ele>547.0</ele><time>2026-04-25T13:09:10.54Z</time></trkpt><trkpt lat="42.7268777" lon="12.615414"><ele>547.0</ele><time>2026-04-25T13:09:11.54Z</time></trkpt><trkpt lat="42.726838" lon="12.6153328"><ele>547.0</ele><time>2026-04-25T13:09:12.539Z</time></trkpt><trkpt lat="42.7268065" lon="12.6152428"><ele>541.6666666666667</ele><time>2026-04-25T13:09:13.54Z</time></trkpt><trkpt lat="42.726777" lon="12.6151368"><ele>536.3333333333334</ele><time>2026-04-25T13:09:14.555Z</time></trkpt><trkpt lat="42.7267488" lon="12.6150243"><ele>531.0</ele><time>2026-04-25T13:09:15.534Z</time></trkpt><trkpt lat="42.7267228" lon="12.6149179"><ele>525.6666666666666</ele><time>2026-04-25T13:09:16.54Z</time></trkpt><trkpt lat="42.7267057" lon="12.6148105"><ele>520.3333333333333</ele><time>2026-04-25T13:09:17.54Z</time></trkpt><trkpt lat="42.726693" lon="12.6147121"><ele>515.0</ele><time>2026-04-25T13:09:18.542Z</time></trkpt><trkpt lat="42.726678" lon="12.614594"><ele>516.3333333333333</ele><time>2026-04-25T13:09:19.55Z</time></trkpt><trkpt lat="42.726668" lon="12.6144767"><ele>517.6666666666666</ele><time>2026-04-25T13:09:20.541Z</time></trkpt><trkpt lat="42.7266458" lon="12.6143707"><ele>519.0</ele><time>2026-04-25T13:09:21.54Z</time></trkpt><trkpt lat="42.7266037" lon="12.6142804"><ele>520.3333333333334</ele><time>2026-04-25T13:09:22.544Z</time></trkpt><trkpt lat="42.7265607" lon="12.6142102"><ele>521.6666666666667</ele><time>2026-04-25T13:09:23.535Z</time></trkpt><trkpt lat="42.7264689" lon="12.6141697"><ele>523.0</ele><time>2026-04-25T13:09:25.539Z</time></trkpt><trkpt lat="42.7263422" lon="12.6141443"><ele>523.0</ele><time>2026-04-25T13:09:27.565Z</time></trkpt><trkpt lat="42.7262684" lon="12.6141216"><ele>523.0</ele><time>2026-04-25T13:09:28.543Z</time></trkpt><trkpt lat="42.7261967" lon="12.6141014"><ele>523.0</ele><time>2026-04-25T13:09:29.54Z</time></trkpt><trkpt lat="42.7261302" lon="12.6140917"><ele>523.0</ele><time>2026-04-25T13:09:30.539Z</time></trkpt><trkpt lat="42.7260246" lon="12.6140983"><ele>523.0</ele><time>2026-04-25T13:09:32.539Z</time></trkpt><trkpt lat="42.7259648" lon="12.6141452"><ele>523.0</ele><time>2026-04-25T13:09:34.546Z</time></trkpt><trkpt lat="42.7259325" lon="12.6142404"><ele>522.8</ele><time>2026-04-25T13:09:36.541Z</time></trkpt><trkpt lat="42.7258969" lon="12.6143901"><ele>522.5999999999999</ele><time>2026-04-25T13:09:38.531Z</time></trkpt><trkpt lat="42.7258763" lon="12.614538"><ele>522.4000000000001</ele><time>2026-04-25T13:09:40.55Z</time></trkpt><trkpt lat="42.7258821" lon="12.6147094"><ele>522.2</ele><time>2026-04-25T13:09:42.544Z</time></trkpt><trkpt lat="42.7258742" lon="12.6147957"><ele>522.0</ele><time>2026-04-25T13:09:43.54Z</time></trkpt><trkpt lat="42.725856" lon="12.6148798"><ele>519.1428571428571</ele><time>2026-04-25T13:09:44.549Z</time></trkpt><trkpt lat="42.7258306" lon="12.6149666"><ele>516.2857142857142</ele><time>2026-04-25T13:09:45.541Z</time></trkpt><trkpt lat="42.7257947" lon="12.615045"><ele>513.4285714285713</ele><time>2026-04-25T13:09:46.546Z</time></trkpt><trkpt lat="42.7257542" lon="12.6151109"><ele>510.57142857142856</ele><time>2026-04-25T13:09:47.542Z</time></trkpt><trkpt lat="42.7257078" lon="12.6151763"><ele>507.71428571428567</ele><time>2026-04-25T13:09:48.579Z</time></trkpt><trkpt lat="42.7256172" lon="12.6152798"><ele>504.8571428571428</ele><time>2026-04-25T13:09:50.548Z</time></trkpt><trkpt lat="42.7255587" lon="12.6153176"><ele>501.99999999999994</ele><time>2026-04-25T13:09:51.549Z</time></trkpt><trkpt lat="42.7254961" lon="12.6153513"><ele>499.40000000000003</ele><time>2026-04-25T13:09:52.556Z</time></trkpt><trkpt lat="42.7254319" lon="12.615398"><ele>496.80000000000007</ele><time>2026-04-25T13:09:53.546Z</time></trkpt><trkpt lat="42.7253295" lon="12.6154784"><ele>494.2</ele><time>2026-04-25T13:09:55.546Z</time></trkpt><trkpt lat="42.7252291" lon="12.6155747"><ele>491.6</ele><time>2026-04-25T13:09:57.552Z</time></trkpt><trkpt lat="42.7251677" lon="12.6156207"><ele>489.0</ele><time>2026-04-25T13:09:58.545Z</time></trkpt><trkpt lat="42.7251001" lon="12.6156563"><ele>489.0</ele><time>2026-04-25T13:09:59.548Z</time></trkpt><trkpt lat="42.7250203" lon="12.6156812"><ele>489.0</ele><time>2026-04-25T13:10:00.558Z</time></trkpt><trkpt lat="42.7249438" lon="12.6157116"><ele>489.0</ele><time>2026-04-25T13:10:01.553Z</time></trkpt><trkpt lat="42.7248641" lon="12.615731"><ele>489.0</ele><time>2026-04-25T13:10:02.548Z</time></trkpt><trkpt lat="42.7247952" lon="12.6157585"><ele>489.0</ele><time>2026-04-25T13:10:03.553Z</time></trkpt><trkpt lat="42.724724" lon="12.6157804"><ele>489.0</ele><time>2026-04-25T13:10:04.572Z</time></trkpt><trkpt lat="42.7246498" lon="12.6158141"><ele>489.0</ele><time>2026-04-25T13:10:05.555Z</time></trkpt><trkpt lat="42.7245827" lon="12.6158413"><ele>489.0</ele><time>2026-04-25T13:10:06.543Z</time></trkpt><trkpt lat="42.724507" lon="12.6158543"><ele>489.0</ele><time>2026-04-25T13:10:07.544Z</time></trkpt><trkpt lat="42.7244173" lon="12.6158566"><ele>489.0</ele><time>2026-04-25T13:10:08.561Z</time></trkpt><trkpt lat="42.7243362" lon="12.6158501"><ele>489.0</ele><time>2026-04-25T13:10:09.546Z</time></trkpt><trkpt lat="42.7242423" lon="12.6158206"><ele>489.0</ele><time>2026-04-25T13:10:10.547Z</time></trkpt><trkpt lat="42.7241572" lon="12.6157994"><ele>487.4</ele><time>2026-04-25T13:10:11.556Z</time></trkpt><trkpt lat="42.7240646" lon="12.6157621"><ele>485.79999999999995</ele><time>2026-04-25T13:10:12.545Z</time></trkpt><trkpt lat="42.7239719" lon="12.6157424"><ele>484.20000000000005</ele><time>2026-04-25T13:10:13.552Z</time></trkpt><trkpt lat="42.7238761" lon="12.6157243"><ele>482.6</ele><time>2026-04-25T13:10:14.539Z</time></trkpt><trkpt lat="42.723779" lon="12.6157109"><ele>481.0</ele><time>2026-04-25T13:10:15.547Z</time></trkpt><trkpt lat="42.7236758" lon="12.6157065"><ele>481.0</ele><time>2026-04-25T13:10:16.577Z</time></trkpt><trkpt lat="42.7235661" lon="12.6157141"><ele>481.0</ele><time>2026-04-25T13:10:17.547Z</time></trkpt><trkpt lat="42.7234554" lon="12.6157248"><ele>481.0</ele><time>2026-04-25T13:10:18.541Z</time></trkpt><trkpt lat="42.7233484" lon="12.6157434"><ele>481.0</ele><time>2026-04-25T13:10:19.546Z</time></trkpt><trkpt lat="42.7232414" lon="12.6157781"><ele>481.0</ele><time>2026-04-25T13:10:20.57Z</time></trkpt><trkpt lat="42.7231326" lon="12.6158154"><ele>477.8</ele><time>2026-04-25T13:10:21.556Z</time></trkpt><trkpt lat="42.7230227" lon="12.6158728"><ele>474.6</ele><time>2026-04-25T13:10:22.551Z</time></trkpt><trkpt lat="42.7229227" lon="12.6159323"><ele>471.4</ele><time>2026-04-25T13:10:23.564Z</time></trkpt><trkpt lat="42.7228328" lon="12.6159913"><ele>468.2</ele><time>2026-04-25T13:10:24.571Z</time></trkpt><trkpt lat="42.7227665" lon="12.6160138"><ele>465.0</ele><time>2026-04-25T13:10:25.549Z</time></trkpt><trkpt lat="42.7226738" lon="12.6159179"><ele>461.75</ele><time>2026-04-25T13:10:27.552Z</time></trkpt><trkpt lat="42.7226558" lon="12.6157226"><ele>458.5</ele><time>2026-04-25T13:10:28.548Z</time></trkpt><trkpt lat="42.7225975" lon="12.6155714"><ele>455.25</ele><time>2026-04-25T13:10:29.553Z</time></trkpt><trkpt lat="42.7225311" lon="12.6154199"><ele>452.0</ele><time>2026-04-25T13:10:30.557Z</time></trkpt><trkpt lat="42.7224665" lon="12.6152733"><ele>452.0</ele><time>2026-04-25T13:10:31.551Z</time></trkpt><trkpt lat="42.7223855" lon="12.615143"><ele>452.0</ele><time>2026-04-25T13:10:32.55Z</time></trkpt><trkpt lat="42.7222941" lon="12.6150286"><ele>452.0</ele><time>2026-04-25T13:10:33.553Z</time></trkpt><trkpt lat="42.7221871" lon="12.6149405"><ele>452.0</ele><time>2026-04-25T13:10:34.551Z</time></trkpt><trkpt lat="42.7220828" lon="12.6148876"><ele>452.0</ele><time>2026-04-25T13:10:35.547Z</time></trkpt><trkpt lat="42.7220013" lon="12.61487"><ele>452.00000000000006</ele><time>2026-04-25T13:10:36.548Z</time></trkpt><trkpt lat="42.7219208" lon="12.6148543"><ele>452.00000000000006</ele><time>2026-04-25T13:10:37.541Z</time></trkpt><trkpt lat="42.7218183" lon="12.614832"><ele>452.0</ele><time>2026-04-25T13:10:38.553Z</time></trkpt><trkpt lat="42.7217166" lon="12.6147907"><ele>452.0</ele><time>2026-04-25T13:10:39.536Z</time></trkpt><trkpt lat="42.7217248" lon="12.6149743"><ele>449.66666666666663</ele><time>2026-04-25T13:10:40.553Z</time></trkpt><trkpt lat="42.7217222" lon="12.6151202"><ele>447.3333333333333</ele><time>2026-04-25T13:10:41.544Z</time></trkpt><trkpt lat="42.72169" lon="12.615227"><ele>445.0</ele><time>2026-04-25T13:10:42.539Z</time></trkpt><trkpt lat="42.7216362" lon="12.6153093"><ele>442.66666666666663</ele><time>2026-04-25T13:10:43.547Z</time></trkpt><trkpt lat="42.7215582" lon="12.6153432"><ele>440.3333333333333</ele><time>2026-04-25T13:10:44.554Z</time></trkpt><trkpt lat="42.7214764" lon="12.61537"><ele>438.0</ele><time>2026-04-25T13:10:45.534Z</time></trkpt><trkpt lat="42.7214002" lon="12.615399"><ele>436.79999999999995</ele><time>2026-04-25T13:10:46.551Z</time></trkpt><trkpt lat="42.7212904" lon="12.6154314"><ele>435.59999999999997</ele><time>2026-04-25T13:10:48.545Z</time></trkpt><trkpt lat="42.721206" lon="12.6155407"><ele>434.40000000000003</ele><time>2026-04-25T13:10:50.574Z</time></trkpt><trkpt lat="42.7211765" lon="12.6156528"><ele>433.20000000000005</ele><time>2026-04-25T13:10:51.558Z</time></trkpt><trkpt lat="42.7211623" lon="12.6157885"><ele>432.0</ele><time>2026-04-25T13:10:52.546Z</time></trkpt><trkpt lat="42.7211367" lon="12.6159531"><ele>432.0</ele><time>2026-04-25T13:10:53.552Z</time></trkpt><trkpt lat="42.7211027" lon="12.6161135"><ele>432.00000000000006</ele><time>2026-04-25T13:10:54.554Z</time></trkpt><trkpt lat="42.7210701" lon="12.6162537"><ele>432.00000000000006</ele><time>2026-04-25T13:10:55.541Z</time></trkpt><trkpt lat="42.7210463" lon="12.6163801"><ele>432.0</ele><time>2026-04-25T13:10:56.552Z</time></trkpt><trkpt lat="42.7210234" lon="12.6165077"><ele>432.0</ele><time>2026-04-25T13:10:57.543Z</time></trkpt><trkpt lat="42.7209907" lon="12.616638"><ele>429.25</ele><time>2026-04-25T13:10:58.544Z</time></trkpt><trkpt lat="42.7209465" lon="12.6167703"><ele>426.5</ele><time>2026-04-25T13:10:59.545Z</time></trkpt><trkpt lat="42.7208852" lon="12.616907"><ele>423.75</ele><time>2026-04-25T13:11:00.559Z</time></trkpt><trkpt lat="42.7208173" lon="12.617037"><ele>421.0</ele><time>2026-04-25T13:11:01.54Z</time></trkpt><trkpt lat="42.7207555" lon="12.61717"><ele>420.20000000000005</ele><time>2026-04-25T13:11:02.544Z</time></trkpt><trkpt lat="42.7207005" lon="12.6173073"><ele>419.40000000000003</ele><time>2026-04-25T13:11:03.563Z</time></trkpt><trkpt lat="42.7206697" lon="12.617442"><ele>418.6</ele><time>2026-04-25T13:11:04.561Z</time></trkpt><trkpt lat="42.7206665" lon="12.6175901"><ele>417.8</ele><time>2026-04-25T13:11:05.544Z</time></trkpt><trkpt lat="42.7206781" lon="12.6177499"><ele>417.0</ele><time>2026-04-25T13:11:06.544Z</time></trkpt><trkpt lat="42.7206903" lon="12.6179325"><ele>416.25</ele><time>2026-04-25T13:11:07.55Z</time></trkpt><trkpt lat="42.7207" lon="12.6181179"><ele>415.5</ele><time>2026-04-25T13:11:08.555Z</time></trkpt><trkpt lat="42.7207105" lon="12.6183008"><ele>414.75</ele><time>2026-04-25T13:11:09.551Z</time></trkpt><trkpt lat="42.7207269" lon="12.61849"><ele>414.0</ele><time>2026-04-25T13:11:10.54Z</time></trkpt><trkpt lat="42.7207397" lon="12.6186814"><ele>413.25</ele><time>2026-04-25T13:11:11.542Z</time></trkpt><trkpt lat="42.7207581" lon="12.6188611"><ele>412.5</ele><time>2026-04-25T13:11:12.554Z</time></trkpt><trkpt lat="42.7207707" lon="12.619033"><ele>411.75</ele><time>2026-04-25T13:11:13.551Z</time></trkpt><trkpt lat="42.7207779" lon="12.6192018"><ele>411.0</ele><time>2026-04-25T13:11:14.546Z</time></trkpt><trkpt lat="42.7207846" lon="12.6193809"><ele>410.25</ele><time>2026-04-25T13:11:15.549Z</time></trkpt><trkpt lat="42.7207971" lon="12.619555"><ele>409.5</ele><time>2026-04-25T13:11:16.555Z</time></trkpt><trkpt lat="42.7208138" lon="12.6197138"><ele>408.75</ele><time>2026-04-25T13:11:17.55Z</time></trkpt><trkpt lat="42.7208464" lon="12.6198678"><ele>408.0</ele><time>2026-04-25T13:11:18.541Z</time></trkpt><trkpt lat="42.7208885" lon="12.6200288"><ele>408.0</ele><time>2026-04-25T13:11:19.562Z</time></trkpt><trkpt lat="42.7209327" lon="12.6201981"><ele>408.0</ele><time>2026-04-25T13:11:20.548Z</time></trkpt><trkpt lat="42.7209622" lon="12.6203789"><ele>408.0</ele><time>2026-04-25T13:11:21.562Z</time></trkpt><trkpt lat="42.7209759" lon="12.6205502"><ele>408.0</ele><time>2026-04-25T13:11:22.54Z</time></trkpt><trkpt lat="42.7209814" lon="12.6207029"><ele>407.79999999999995</ele><time>2026-04-25T13:11:23.551Z</time></trkpt><trkpt lat="42.7209702" lon="12.6208412"><ele>407.6</ele><time>2026-04-25T13:11:24.543Z</time></trkpt><trkpt lat="42.7209408" lon="12.6209727"><ele>407.4</ele><time>2026-04-25T13:11:25.555Z</time></trkpt><trkpt lat="42.7208928" lon="12.6211069"><ele>407.20000000000005</ele><time>2026-04-25T13:11:26.546Z</time></trkpt><trkpt lat="42.7208377" lon="12.6212442"><ele>407.0</ele><time>2026-04-25T13:11:27.54Z</time></trkpt><trkpt lat="42.7207989" lon="12.6213864"><ele>406.0</ele><time>2026-04-25T13:11:28.553Z</time></trkpt><trkpt lat="42.7207781" lon="12.621528"><ele>405.0</ele><time>2026-04-25T13:11:29.562Z</time></trkpt><trkpt lat="42.7207771" lon="12.6216607"><ele>404.0</ele><time>2026-04-25T13:11:30.539Z</time></trkpt><trkpt lat="42.7208007" lon="12.621807"><ele>403.0</ele><time>2026-04-25T13:11:31.567Z</time></trkpt><trkpt lat="42.7208449" lon="12.6219663"><ele>402.0</ele><time>2026-04-25T13:11:32.544Z</time></trkpt><trkpt lat="42.7209" lon="12.6221253"><ele>401.25</ele><time>2026-04-25T13:11:33.55Z</time></trkpt><trkpt lat="42.7209691" lon="12.6222717"><ele>400.5</ele><time>2026-04-25T13:11:34.555Z</time></trkpt><trkpt lat="42.7210367" lon="12.6224204"><ele>399.75</ele><time>2026-04-25T13:11:35.544Z</time></trkpt><trkpt lat="42.7210876" lon="12.6225839"><ele>399.0</ele><time>2026-04-25T13:11:36.547Z</time></trkpt><trkpt lat="42.7211122" lon="12.6227477"><ele>402.25</ele><time>2026-04-25T13:11:37.548Z</time></trkpt><trkpt lat="42.7211224" lon="12.6229309"><ele>405.5</ele><time>2026-04-25T13:11:38.56Z</time></trkpt><trkpt lat="42.721128" lon="12.6231232"><ele>408.75</ele><time>2026-04-25T13:11:39.539Z</time></trkpt><trkpt lat="42.7211379" lon="12.6233086"><ele>412.0</ele><time>2026-04-25T13:11:40.545Z</time></trkpt><trkpt lat="42.7211411" lon="12.6234913"><ele>410.0</ele><time>2026-04-25T13:11:41.54Z</time></trkpt><trkpt lat="42.7211408" lon="12.6236687"><ele>408.0</ele><time>2026-04-25T13:11:42.572Z</time></trkpt><trkpt lat="42.7211403" lon="12.6238444"><ele>406.0</ele><time>2026-04-25T13:11:43.56Z</time></trkpt><trkpt lat="42.7211507" lon="12.6240201"><ele>404.0</ele><time>2026-04-25T13:11:44.543Z</time></trkpt><trkpt lat="42.7211678" lon="12.6241904"><ele>404.0</ele><time>2026-04-25T13:11:45.541Z</time></trkpt><trkpt lat="42.7211998" lon="12.6243613"><ele>404.0</ele><time>2026-04-25T13:11:46.572Z</time></trkpt><trkpt lat="42.7212298" lon="12.6245313"><ele>404.0</ele><time>2026-04-25T13:11:47.556Z</time></trkpt><trkpt lat="42.7212471" lon="12.6246962"><ele>404.0</ele><time>2026-04-25T13:11:48.551Z</time></trkpt><trkpt lat="42.7212469" lon="12.6248857"><ele>403.75</ele><time>2026-04-25T13:11:49.566Z</time></trkpt><trkpt lat="42.7212417" lon="12.6250725"><ele>403.5</ele><time>2026-04-25T13:11:50.551Z</time></trkpt><trkpt lat="42.7212216" lon="12.6252694"><ele>403.25</ele><time>2026-04-25T13:11:51.564Z</time></trkpt><trkpt lat="42.721186" lon="12.6254665"><ele>403.0</ele><time>2026-04-25T13:11:52.545Z</time></trkpt><trkpt lat="42.7211568" lon="12.6256676"><ele>403.0</ele><time>2026-04-25T13:11:53.55Z</time></trkpt><trkpt lat="42.7211334" lon="12.6258755"><ele>403.0</ele><time>2026-04-25T13:11:54.554Z</time></trkpt><trkpt lat="42.7211114" lon="12.6260791"><ele>403.0</ele><time>2026-04-25T13:11:55.556Z</time></trkpt><trkpt lat="42.7210923" lon="12.626264"><ele>403.0</ele><time>2026-04-25T13:11:56.539Z</time></trkpt><trkpt lat="42.7210671" lon="12.6264378"><ele>400.0</ele><time>2026-04-25T13:11:57.559Z</time></trkpt><trkpt lat="42.7210603" lon="12.6266083"><ele>397.0</ele><time>2026-04-25T13:11:58.545Z</time></trkpt><trkpt lat="42.7210574" lon="12.626791"><ele>394.0</ele><time>2026-04-25T13:11:59.573Z</time></trkpt><trkpt lat="42.7210652" lon="12.6269713"><ele>391.0</ele><time>2026-04-25T13:12:00.546Z</time></trkpt><trkpt lat="42.721081" lon="12.62715"><ele>391.0</ele><time>2026-04-25T13:12:01.543Z</time></trkpt><trkpt lat="42.7211143" lon="12.6273288"><ele>391.0</ele><time>2026-04-25T13:12:02.547Z</time></trkpt><trkpt lat="42.7211608" lon="12.627502"><ele>391.0</ele><time>2026-04-25T13:12:03.552Z</time></trkpt><trkpt lat="42.7212048" lon="12.6276784"><ele>391.0</ele><time>2026-04-25T13:12:04.562Z</time></trkpt><trkpt lat="42.7212391" lon="12.6278536"><ele>389.20000000000005</ele><time>2026-04-25T13:12:05.549Z</time></trkpt><trkpt lat="42.7212642" lon="12.6280294"><ele>387.40000000000003</ele><time>2026-04-25T13:12:06.545Z</time></trkpt><trkpt lat="42.7212843" lon="12.6281855"><ele>385.6</ele><time>2026-04-25T13:12:07.543Z</time></trkpt><trkpt lat="42.7212928" lon="12.6283189"><ele>383.8</ele><time>2026-04-25T13:12:08.545Z</time></trkpt><trkpt lat="42.7212871" lon="12.6284311"><ele>382.0</ele><time>2026-04-25T13:12:09.548Z</time></trkpt><trkpt lat="42.7212595" lon="12.6285157"><ele>382.0</ele><time>2026-04-25T13:12:10.548Z</time></trkpt><trkpt lat="42.721213" lon="12.628576"><ele>382.0</ele><time>2026-04-25T13:12:11.556Z</time></trkpt><trkpt lat="42.7211554" lon="12.6286144"><ele>382.0</ele><time>2026-04-25T13:12:12.551Z</time></trkpt><trkpt lat="42.7210805" lon="12.6286299"><ele>382.0</ele><time>2026-04-25T13:12:13.55Z</time></trkpt><trkpt lat="42.7209861" lon="12.6286243"><ele>382.0</ele><time>2026-04-25T13:12:14.539Z</time></trkpt><trkpt lat="42.7208808" lon="12.6285947"><ele>382.0</ele><time>2026-04-25T13:12:15.558Z</time></trkpt><trkpt lat="42.7207798" lon="12.6285635"><ele>381.6</ele><time>2026-04-25T13:12:16.577Z</time></trkpt><trkpt lat="42.7206953" lon="12.6285597"><ele>381.20000000000005</ele><time>2026-04-25T13:12:17.547Z</time></trkpt><trkpt lat="42.7206024" lon="12.6285906"><ele>380.8</ele><time>2026-04-25T13:12:18.544Z</time></trkpt><trkpt lat="42.7205229" lon="12.6286694"><ele>380.4</ele><time>2026-04-25T13:12:19.551Z</time></trkpt><trkpt lat="42.7204666" lon="12.6287914"><ele>380.0</ele><time>2026-04-25T13:12:20.56Z</time></trkpt><trkpt lat="42.7204405" lon="12.628936"><ele>379.25</ele><time>2026-04-25T13:12:21.534Z</time></trkpt><trkpt lat="42.7204284" lon="12.6290858"><ele>378.5</ele><time>2026-04-25T13:12:22.541Z</time></trkpt><trkpt lat="42.7204174" lon="12.6292397"><ele>377.75</ele><time>2026-04-25T13:12:23.55Z</time></trkpt><trkpt lat="42.7203985" lon="12.6294009"><ele>377.0</ele><time>2026-04-25T13:12:24.567Z</time></trkpt><trkpt lat="42.7203755" lon="12.6295665"><ele>376.40000000000003</ele><time>2026-04-25T13:12:25.543Z</time></trkpt><trkpt lat="42.7203601" lon="12.6297261"><ele>375.8</ele><time>2026-04-25T13:12:26.552Z</time></trkpt><trkpt lat="42.7203525" lon="12.6298639"><ele>375.2</ele><time>2026-04-25T13:12:27.54Z</time></trkpt><trkpt lat="42.7203484" lon="12.6299887"><ele>374.6</ele><time>2026-04-25T13:12:28.543Z</time></trkpt><trkpt lat="42.7203396" lon="12.6300955"><ele>374.0</ele><time>2026-04-25T13:12:29.551Z</time></trkpt><trkpt lat="42.7203313" lon="12.6301912"><ele>374.0</ele><time>2026-04-25T13:12:30.547Z</time></trkpt><trkpt lat="42.7203221" lon="12.6302843"><ele>374.0</ele><time>2026-04-25T13:12:31.564Z</time></trkpt><trkpt lat="42.720303" lon="12.6303987"><ele>374.0</ele><time>2026-04-25T13:12:33.544Z</time></trkpt><trkpt lat="42.7202485" lon="12.6303374"><ele>374.0</ele><time>2026-04-25T13:12:42.538Z</time></trkpt><trkpt lat="42.7202411" lon="12.6302182"><ele>374.0</ele><time>2026-04-25T13:12:43.542Z</time></trkpt><trkpt lat="42.7202371" lon="12.6300724"><ele>374.0</ele><time>2026-04-25T13:12:44.557Z</time></trkpt><trkpt lat="42.7202231" lon="12.629914"><ele>377.33333333333337</ele><time>2026-04-25T13:12:45.54Z</time></trkpt><trkpt lat="42.7202099" lon="12.6297081"><ele>380.6666666666667</ele><time>2026-04-25T13:12:46.546Z</time></trkpt><trkpt lat="42.7201992" lon="12.6295056"><ele>384.0</ele><time>2026-04-25T13:12:47.559Z</time></trkpt><trkpt lat="42.7201816" lon="12.6292922"><ele>384.5</ele><time>2026-04-25T13:12:48.548Z</time></trkpt><trkpt lat="42.720168" lon="12.6290865"><ele>385.0</ele><time>2026-04-25T13:12:49.543Z</time></trkpt><trkpt lat="42.7201496" lon="12.6288993"><ele>385.5</ele><time>2026-04-25T13:12:50.54Z</time></trkpt><trkpt lat="42.7201171" lon="12.6287236"><ele>386.0</ele><time>2026-04-25T13:12:51.549Z</time></trkpt><trkpt lat="42.7200733" lon="12.6285487"><ele>386.0</ele><time>2026-04-25T13:12:52.551Z</time></trkpt><trkpt lat="42.7200182" lon="12.628386"><ele>386.0</ele><time>2026-04-25T13:12:53.542Z</time></trkpt><trkpt lat="42.7199356" lon="12.6282276"><ele>386.0</ele><time>2026-04-25T13:12:54.543Z</time></trkpt><trkpt lat="42.7198304" lon="12.6280872"><ele>386.0</ele><time>2026-04-25T13:12:55.54Z</time></trkpt><trkpt lat="42.7197148" lon="12.6279607"><ele>386.0</ele><time>2026-04-25T13:12:56.55Z</time></trkpt><trkpt lat="42.7195865" lon="12.6278638"><ele>386.0</ele><time>2026-04-25T13:12:57.544Z</time></trkpt><trkpt lat="42.7194609" lon="12.6277746"><ele>386.0</ele><time>2026-04-25T13:12:58.548Z</time></trkpt><trkpt lat="42.719345" lon="12.6276698"><ele>386.0</ele><time>2026-04-25T13:12:59.549Z</time></trkpt><trkpt lat="42.7192475" lon="12.6275399"><ele>387.25</ele><time>2026-04-25T13:13:00.56Z</time></trkpt><trkpt lat="42.719165" lon="12.6273909"><ele>388.5</ele><time>2026-04-25T13:13:01.549Z</time></trkpt><trkpt lat="42.7191056" lon="12.6272279"><ele>389.75</ele><time>2026-04-25T13:13:02.546Z</time></trkpt><trkpt lat="42.719065" lon="12.6270438"><ele>391.0</ele><time>2026-04-25T13:13:03.544Z</time></trkpt><trkpt lat="42.7190483" lon="12.6268424"><ele>392.0</ele><time>2026-04-25T13:13:04.549Z</time></trkpt><trkpt lat="42.7190642" lon="12.6266455"><ele>393.0</ele><time>2026-04-25T13:13:05.547Z</time></trkpt><trkpt lat="42.7191147" lon="12.6264467"><ele>394.0</ele><time>2026-04-25T13:13:06.556Z</time></trkpt><trkpt lat="42.7191902" lon="12.6262504"><ele>394.0</ele><time>2026-04-25T13:13:07.553Z</time></trkpt><trkpt lat="42.7192875" lon="12.6260518"><ele>394.0</ele><time>2026-04-25T13:13:08.544Z</time></trkpt><trkpt lat="42.7194004" lon="12.6258424"><ele>394.0</ele><time>2026-04-25T13:13:09.537Z</time></trkpt><trkpt lat="42.7195156" lon="12.625626"><ele>394.0</ele><time>2026-04-25T13:13:10.567Z</time></trkpt><trkpt lat="42.7196165" lon="12.6253991"><ele>394.0</ele><time>2026-04-25T13:13:11.566Z</time></trkpt><trkpt lat="42.7197027" lon="12.6251918"><ele>394.0</ele><time>2026-04-25T13:13:12.538Z</time></trkpt><trkpt lat="42.7197795" lon="12.6250002"><ele>396.33333333333337</ele><time>2026-04-25T13:13:13.55Z</time></trkpt><trkpt lat="42.7198514" lon="12.6248009"><ele>398.66666666666663</ele><time>2026-04-25T13:13:14.543Z</time></trkpt><trkpt lat="42.7199003" lon="12.6246003"><ele>401.0</ele><time>2026-04-25T13:13:15.548Z</time></trkpt><trkpt lat="42.7199394" lon="12.6243688"><ele>403.66666666666663</ele><time>2026-04-25T13:13:16.569Z</time></trkpt><trkpt lat="42.7199567" lon="12.6241372"><ele>406.33333333333337</ele><time>2026-04-25T13:13:17.541Z</time></trkpt><trkpt lat="42.7199601" lon="12.6239114"><ele>409.0</ele><time>2026-04-25T13:13:18.548Z</time></trkpt><trkpt lat="42.7199504" lon="12.6236942"><ele>409.6666666666667</ele><time>2026-04-25T13:13:19.55Z</time></trkpt><trkpt lat="42.7199233" lon="12.623492"><ele>410.33333333333337</ele><time>2026-04-25T13:13:20.577Z</time></trkpt><trkpt lat="42.7198661" lon="12.6232987"><ele>411.0</ele><time>2026-04-25T13:13:21.551Z</time></trkpt><trkpt lat="42.7197835" lon="12.623115"><ele>411.0</ele><time>2026-04-25T13:13:22.537Z</time></trkpt><trkpt lat="42.719673" lon="12.6229466"><ele>411.0</ele><time>2026-04-25T13:13:23.541Z</time></trkpt><trkpt lat="42.719566" lon="12.6227957"><ele>411.0</ele><time>2026-04-25T13:13:24.556Z</time></trkpt><trkpt lat="42.7194808" lon="12.6226257"><ele>410.0</ele><time>2026-04-25T13:13:25.542Z</time></trkpt><trkpt lat="42.719424" lon="12.6224434"><ele>409.0</ele><time>2026-04-25T13:13:26.541Z</time></trkpt><trkpt lat="42.7193949" lon="12.6222383"><ele>408.0</ele><time>2026-04-25T13:13:27.546Z</time></trkpt><trkpt lat="42.7193956" lon="12.6220145"><ele>414.0</ele><time>2026-04-25T13:13:28.545Z</time></trkpt><trkpt lat="42.7193994" lon="12.6217788"><ele>420.0</ele><time>2026-04-25T13:13:29.538Z</time></trkpt><trkpt lat="42.7193999" lon="12.6215534"><ele>426.0</ele><time>2026-04-25T13:13:30.55Z</time></trkpt><trkpt lat="42.7193908" lon="12.6213514"><ele>426.0</ele><time>2026-04-25T13:13:31.554Z</time></trkpt><trkpt lat="42.7193787" lon="12.6211697"><ele>426.0</ele><time>2026-04-25T13:13:32.549Z</time></trkpt><trkpt lat="42.7193686" lon="12.6210137"><ele>426.0</ele><time>2026-04-25T13:13:33.54Z</time></trkpt><trkpt lat="42.7193359" lon="12.6208717"><ele>426.0</ele><time>2026-04-25T13:13:34.543Z</time></trkpt><trkpt lat="42.7192551" lon="12.620735"><ele>426.33333333333337</ele><time>2026-04-25T13:13:35.539Z</time></trkpt><trkpt lat="42.7191459" lon="12.62059"><ele>426.6666666666667</ele><time>2026-04-25T13:13:36.572Z</time></trkpt><trkpt lat="42.7190347" lon="12.6204317"><ele>427.0</ele><time>2026-04-25T13:13:37.55Z</time></trkpt><trkpt lat="42.7189162" lon="12.6202967"><ele>426.0</ele><time>2026-04-25T13:13:38.544Z</time></trkpt><trkpt lat="42.7187911" lon="12.6201872"><ele>425.0</ele><time>2026-04-25T13:13:39.557Z</time></trkpt><trkpt lat="42.7186491" lon="12.6200814"><ele>424.0</ele><time>2026-04-25T13:13:40.545Z</time></trkpt><trkpt lat="42.7185116" lon="12.6199907"><ele>429.33333333333337</ele><time>2026-04-25T13:13:41.547Z</time></trkpt><trkpt lat="42.7183799" lon="12.6198814"><ele>434.66666666666663</ele><time>2026-04-25T13:13:42.57Z</time></trkpt><trkpt lat="42.7182592" lon="12.6197274"><ele>440.0</ele><time>2026-04-25T13:13:43.559Z</time></trkpt><trkpt lat="42.7181711" lon="12.6195406"><ele>439.3333333333333</ele><time>2026-04-25T13:13:44.544Z</time></trkpt><trkpt lat="42.7180875" lon="12.6193482"><ele>438.66666666666663</ele><time>2026-04-25T13:13:45.536Z</time></trkpt><trkpt lat="42.7180149" lon="12.6191727"><ele>438.0</ele><time>2026-04-25T13:13:46.571Z</time></trkpt><trkpt lat="42.7179692" lon="12.618982"><ele>438.0</ele><time>2026-04-25T13:13:47.558Z</time></trkpt><trkpt lat="42.7179507" lon="12.6187975"><ele>438.0</ele><time>2026-04-25T13:13:48.542Z</time></trkpt><trkpt lat="42.7179509" lon="12.6186134"><ele>438.0</ele><time>2026-04-25T13:13:49.56Z</time></trkpt><trkpt lat="42.7179575" lon="12.6184487"><ele>438.0</ele><time>2026-04-25T13:13:50.543Z</time></trkpt><trkpt lat="42.7179341" lon="12.6182941"><ele>439.5</ele><time>2026-04-25T13:13:51.54Z</time></trkpt><trkpt lat="42.7178751" lon="12.6181706"><ele>441.0</ele><time>2026-04-25T13:13:52.57Z</time></trkpt><trkpt lat="42.7177754" lon="12.618075"><ele>442.5</ele><time>2026-04-25T13:13:53.55Z</time></trkpt><trkpt lat="42.7176501" lon="12.6180004"><ele>444.0</ele><time>2026-04-25T13:13:54.548Z</time></trkpt><trkpt lat="42.7175239" lon="12.6179369"><ele>446.25</ele><time>2026-04-25T13:13:55.549Z</time></trkpt><trkpt lat="42.7173993" lon="12.617867"><ele>448.5</ele><time>2026-04-25T13:13:56.566Z</time></trkpt><trkpt lat="42.7172855" lon="12.6177635"><ele>450.75</ele><time>2026-04-25T13:13:57.545Z</time></trkpt><trkpt lat="42.7172024" lon="12.6176499"><ele>453.0</ele><time>2026-04-25T13:13:58.54Z</time></trkpt><trkpt lat="42.7171453" lon="12.6175021"><ele>453.0</ele><time>2026-04-25T13:13:59.542Z</time></trkpt><trkpt lat="42.7171161" lon="12.6173367"><ele>453.0</ele><time>2026-04-25T13:14:00.573Z</time></trkpt><trkpt lat="42.7171036" lon="12.6171545"><ele>453.0</ele><time>2026-04-25T13:14:01.553Z</time></trkpt><trkpt lat="42.7171134" lon="12.6169657"><ele>453.0</ele><time>2026-04-25T13:14:02.542Z</time></trkpt><trkpt lat="42.7171237" lon="12.6167598"><ele>453.5</ele><time>2026-04-25T13:14:03.536Z</time></trkpt><trkpt lat="42.717104" lon="12.6165682"><ele>454.0</ele><time>2026-04-25T13:14:04.573Z</time></trkpt><trkpt lat="42.7170502" lon="12.6163994"><ele>454.5</ele><time>2026-04-25T13:14:05.549Z</time></trkpt><trkpt lat="42.7169792" lon="12.6162354"><ele>455.0</ele><time>2026-04-25T13:14:06.543Z</time></trkpt><trkpt lat="42.7168656" lon="12.6160801"><ele>456.3333333333333</ele><time>2026-04-25T13:14:07.555Z</time></trkpt><trkpt lat="42.7167246" lon="12.6159524"><ele>457.66666666666663</ele><time>2026-04-25T13:14:08.545Z</time></trkpt><trkpt lat="42.7165843" lon="12.6158294"><ele>459.0</ele><time>2026-04-25T13:14:09.553Z</time></trkpt><trkpt lat="42.7164519" lon="12.615708"><ele>459.0</ele><time>2026-04-25T13:14:10.548Z</time></trkpt><trkpt lat="42.7163503" lon="12.6155709"><ele>459.0</ele><time>2026-04-25T13:14:11.543Z</time></trkpt><trkpt lat="42.7162795" lon="12.6154075"><ele>459.0</ele><time>2026-04-25T13:14:12.542Z</time></trkpt><trkpt lat="42.7162538" lon="12.6152299"><ele>459.0</ele><time>2026-04-25T13:14:13.538Z</time></trkpt><trkpt lat="42.7162439" lon="12.6150331"><ele>461.66666666666663</ele><time>2026-04-25T13:14:14.562Z</time></trkpt><trkpt lat="42.7162494" lon="12.6148211"><ele>464.3333333333333</ele><time>2026-04-25T13:14:15.555Z</time></trkpt><trkpt lat="42.7162671" lon="12.6145913"><ele>467.0</ele><time>2026-04-25T13:14:16.552Z</time></trkpt><trkpt lat="42.7162766" lon="12.61436"><ele>467.0</ele><time>2026-04-25T13:14:17.55Z</time></trkpt><trkpt lat="42.7162962" lon="12.6141415"><ele>467.0</ele><time>2026-04-25T13:14:18.577Z</time></trkpt><trkpt lat="42.7163343" lon="12.6139188"><ele>467.0</ele><time>2026-04-25T13:14:19.552Z</time></trkpt><trkpt lat="42.7163988" lon="12.6137102"><ele>466.0</ele><time>2026-04-25T13:14:20.548Z</time></trkpt><trkpt lat="42.7164661" lon="12.6134913"><ele>465.0</ele><time>2026-04-25T13:14:21.55Z</time></trkpt><trkpt lat="42.7165183" lon="12.613263"><ele>464.0</ele><time>2026-04-25T13:14:22.567Z</time></trkpt><trkpt lat="42.7165568" lon="12.6129897"><ele>465.0</ele><time>2026-04-25T13:14:23.556Z</time></trkpt><trkpt lat="42.7165752" lon="12.6127089"><ele>466.0</ele><time>2026-04-25T13:14:24.551Z</time></trkpt><trkpt lat="42.7165949" lon="12.6124527"><ele>467.0</ele><time>2026-04-25T13:14:25.556Z</time></trkpt><trkpt lat="42.7166202" lon="12.6122216"><ele>467.0</ele><time>2026-04-25T13:14:26.558Z</time></trkpt><trkpt lat="42.7166495" lon="12.6120216"><ele>467.0</ele><time>2026-04-25T13:14:27.539Z</time></trkpt><trkpt lat="42.716665" lon="12.6118239"><ele>467.0</ele><time>2026-04-25T13:14:28.539Z</time></trkpt><trkpt lat="42.7166455" lon="12.611639"><ele>467.0</ele><time>2026-04-25T13:14:29.581Z</time></trkpt><trkpt lat="42.7165853" lon="12.6114648"><ele>467.0</ele><time>2026-04-25T13:14:30.547Z</time></trkpt><trkpt lat="42.7164868" lon="12.6113274"><ele>467.0</ele><time>2026-04-25T13:14:31.549Z</time></trkpt><trkpt lat="42.7163802" lon="12.6112243"><ele>467.0</ele><time>2026-04-25T13:14:32.543Z</time></trkpt><trkpt lat="42.7162356" lon="12.6111432"><ele>467.0</ele><time>2026-04-25T13:14:33.556Z</time></trkpt><trkpt lat="42.7160628" lon="12.6110961"><ele>463.66666666666663</ele><time>2026-04-25T13:14:34.54Z</time></trkpt><trkpt lat="42.7158916" lon="12.6110535"><ele>460.33333333333337</ele><time>2026-04-25T13:14:35.546Z</time></trkpt><trkpt lat="42.7157343" lon="12.6109911"><ele>457.0</ele><time>2026-04-25T13:14:36.545Z</time></trkpt><trkpt lat="42.7155892" lon="12.6109125"><ele>457.0</ele><time>2026-04-25T13:14:37.549Z</time></trkpt><trkpt lat="42.7154669" lon="12.6108023"><ele>457.0</ele><time>2026-04-25T13:14:38.545Z</time></trkpt><trkpt lat="42.715341" lon="12.6106713"><ele>457.0</ele><time>2026-04-25T13:14:39.542Z</time></trkpt><trkpt lat="42.7152252" lon="12.61052"><ele>456.0</ele><time>2026-04-25T13:14:40.558Z</time></trkpt><trkpt lat="42.7151192" lon="12.6103255"><ele>455.0</ele><time>2026-04-25T13:14:41.557Z</time></trkpt><trkpt lat="42.7150247" lon="12.6100981"><ele>454.0</ele><time>2026-04-25T13:14:42.546Z</time></trkpt><trkpt lat="42.714942" lon="12.6098516"><ele>454.0</ele><time>2026-04-25T13:14:43.555Z</time></trkpt><trkpt lat="42.7148621" lon="12.6096236"><ele>454.0</ele><time>2026-04-25T13:14:44.542Z</time></trkpt><trkpt lat="42.7147908" lon="12.6094049"><ele>454.0</ele><time>2026-04-25T13:14:45.546Z</time></trkpt><trkpt lat="42.7147296" lon="12.6092081"><ele>456.0</ele><time>2026-04-25T13:14:46.559Z</time></trkpt><trkpt lat="42.7146645" lon="12.6090217"><ele>458.0</ele><time>2026-04-25T13:14:47.551Z</time></trkpt><trkpt lat="42.7146085" lon="12.6088559"><ele>460.0</ele><time>2026-04-25T13:14:48.543Z</time></trkpt><trkpt lat="42.7145504" lon="12.608712"><ele>462.0</ele><time>2026-04-25T13:14:49.555Z</time></trkpt><trkpt lat="42.7144899" lon="12.6085862"><ele>463.0</ele><time>2026-04-25T13:14:50.544Z</time></trkpt><trkpt lat="42.7144094" lon="12.6084835"><ele>464.00000000000006</ele><time>2026-04-25T13:14:51.548Z</time></trkpt><trkpt lat="42.7143117" lon="12.6084265"><ele>465.00000000000006</ele><time>2026-04-25T13:14:52.544Z</time></trkpt><trkpt lat="42.7141972" lon="12.6084274"><ele>466.0</ele><time>2026-04-25T13:14:53.55Z</time></trkpt><trkpt lat="42.7141016" lon="12.6084882"><ele>467.0</ele><time>2026-04-25T13:14:54.543Z</time></trkpt><trkpt lat="42.7139962" lon="12.608584"><ele>462.3333333333333</ele><time>2026-04-25T13:14:55.559Z</time></trkpt><trkpt lat="42.7138973" lon="12.6087324"><ele>457.66666666666663</ele><time>2026-04-25T13:14:56.541Z</time></trkpt><trkpt lat="42.7137843" lon="12.6089053"><ele>453.0</ele><time>2026-04-25T13:14:57.56Z</time></trkpt><trkpt lat="42.7136675" lon="12.609073"><ele>453.33333333333337</ele><time>2026-04-25T13:14:58.541Z</time></trkpt><trkpt lat="42.7135452" lon="12.6092505"><ele>453.6666666666667</ele><time>2026-04-25T13:14:59.545Z</time></trkpt><trkpt lat="42.7134186" lon="12.6094265"><ele>454.0</ele><time>2026-04-25T13:15:00.569Z</time></trkpt><trkpt lat="42.7132988" lon="12.6096123"><ele>454.0</ele><time>2026-04-25T13:15:01.551Z</time></trkpt><trkpt lat="42.7132007" lon="12.6098246"><ele>454.0</ele><time>2026-04-25T13:15:02.544Z</time></trkpt><trkpt lat="42.7131438" lon="12.6100386"><ele>454.0</ele><time>2026-04-25T13:15:03.556Z</time></trkpt><trkpt lat="42.7131055" lon="12.6102539"><ele>454.5</ele><time>2026-04-25T13:15:04.552Z</time></trkpt><trkpt lat="42.7130806" lon="12.6104431"><ele>455.0</ele><time>2026-04-25T13:15:05.548Z</time></trkpt><trkpt lat="42.713046" lon="12.61061"><ele>455.5</ele><time>2026-04-25T13:15:06.543Z</time></trkpt><trkpt lat="42.7129781" lon="12.6107503"><ele>456.0</ele><time>2026-04-25T13:15:07.538Z</time></trkpt><trkpt lat="42.7128909" lon="12.6108713"><ele>456.0</ele><time>2026-04-25T13:15:08.542Z</time></trkpt><trkpt lat="42.7127799" lon="12.6109624"><ele>456.0</ele><time>2026-04-25T13:15:09.553Z</time></trkpt><trkpt lat="42.7126634" lon="12.6110564"><ele>456.0</ele><time>2026-04-25T13:15:10.543Z</time></trkpt><trkpt lat="42.7125733" lon="12.6111836"><ele>456.0</ele><time>2026-04-25T13:15:11.542Z</time></trkpt><trkpt lat="42.71249" lon="12.6113493"><ele>462.0</ele><time>2026-04-25T13:15:12.562Z</time></trkpt><trkpt lat="42.712409" lon="12.6115309"><ele>468.0</ele><time>2026-04-25T13:15:13.546Z</time></trkpt><trkpt lat="42.7123386" lon="12.6117297"><ele>474.0</ele><time>2026-04-25T13:15:14.542Z</time></trkpt><trkpt lat="42.7122611" lon="12.6119051"><ele>475.5</ele><time>2026-04-25T13:15:15.539Z</time></trkpt><trkpt lat="42.7121798" lon="12.6120608"><ele>477.0</ele><time>2026-04-25T13:15:16.551Z</time></trkpt><trkpt lat="42.7120788" lon="12.6122008"><ele>478.5</ele><time>2026-04-25T13:15:17.546Z</time></trkpt><trkpt lat="42.7119649" lon="12.6123256"><ele>480.0</ele><time>2026-04-25T13:15:18.542Z</time></trkpt><trkpt lat="42.71183" lon="12.6124295"><ele>480.0</ele><time>2026-04-25T13:15:19.543Z</time></trkpt><trkpt lat="42.7116987" lon="12.6125052"><ele>480.0</ele><time>2026-04-25T13:15:20.559Z</time></trkpt><trkpt lat="42.7115631" lon="12.612532"><ele>480.0</ele><time>2026-04-25T13:15:21.543Z</time></trkpt><trkpt lat="42.7114331" lon="12.6125172"><ele>480.0</ele><time>2026-04-25T13:15:22.544Z</time></trkpt><trkpt lat="42.7113068" lon="12.6124615"><ele>480.0</ele><time>2026-04-25T13:15:23.546Z</time></trkpt><trkpt lat="42.7112087" lon="12.6123632"><ele>480.0</ele><time>2026-04-25T13:15:24.562Z</time></trkpt><trkpt lat="42.7111444" lon="12.6122333"><ele>480.0</ele><time>2026-04-25T13:15:25.548Z</time></trkpt><trkpt lat="42.7111037" lon="12.6120749"><ele>480.0</ele><time>2026-04-25T13:15:26.545Z</time></trkpt><trkpt lat="42.7110796" lon="12.6119193"><ele>481.75</ele><time>2026-04-25T13:15:27.55Z</time></trkpt><trkpt lat="42.711024" lon="12.6117727"><ele>483.5</ele><time>2026-04-25T13:15:28.556Z</time></trkpt><trkpt lat="42.7109211" lon="12.6116564"><ele>485.25</ele><time>2026-04-25T13:15:29.543Z</time></trkpt><trkpt lat="42.7107931" lon="12.6115595"><ele>487.0</ele><time>2026-04-25T13:15:30.55Z</time></trkpt><trkpt lat="42.7106393" lon="12.6114734"><ele>487.0</ele><time>2026-04-25T13:15:31.548Z</time></trkpt><trkpt lat="42.7104838" lon="12.6113839"><ele>487.0</ele><time>2026-04-25T13:15:32.545Z</time></trkpt><trkpt lat="42.7103225" lon="12.6112953"><ele>487.0</ele><time>2026-04-25T13:15:33.551Z</time></trkpt><trkpt lat="42.7101429" lon="12.6111972"><ele>489.0</ele><time>2026-04-25T13:15:34.541Z</time></trkpt><trkpt lat="42.7099554" lon="12.6111187"><ele>491.0</ele><time>2026-04-25T13:15:35.541Z</time></trkpt><trkpt lat="42.7097648" lon="12.6110452"><ele>493.0</ele><time>2026-04-25T13:15:36.544Z</time></trkpt><trkpt lat="42.7095741" lon="12.6110015"><ele>497.0</ele><time>2026-04-25T13:15:37.545Z</time></trkpt><trkpt lat="42.7093936" lon="12.6109463"><ele>501.0</ele><time>2026-04-25T13:15:38.545Z</time></trkpt><trkpt lat="42.7092165" lon="12.6108989"><ele>505.0</ele><time>2026-04-25T13:15:39.539Z</time></trkpt><trkpt lat="42.7090403" lon="12.6108424"><ele>505.0</ele><time>2026-04-25T13:15:40.549Z</time></trkpt><trkpt lat="42.7088764" lon="12.610778"><ele>505.0</ele><time>2026-04-25T13:15:41.542Z</time></trkpt><trkpt lat="42.7087224" lon="12.6106959"><ele>505.0</ele><time>2026-04-25T13:15:42.546Z</time></trkpt><trkpt lat="42.7085703" lon="12.6105841"><ele>507.6666666666667</ele><time>2026-04-25T13:15:43.541Z</time></trkpt><trkpt lat="42.7084261" lon="12.6104526"><ele>510.33333333333337</ele><time>2026-04-25T13:15:44.572Z</time></trkpt><trkpt lat="42.7082995" lon="12.6103121"><ele>513.0</ele><time>2026-04-25T13:15:45.544Z</time></trkpt><trkpt lat="42.708192" lon="12.6101518"><ele>513.3333333333334</ele><time>2026-04-25T13:15:46.546Z</time></trkpt><trkpt lat="42.7080878" lon="12.6100027"><ele>513.6666666666667</ele><time>2026-04-25T13:15:47.549Z</time></trkpt><trkpt lat="42.7079721" lon="12.6098673"><ele>514.0</ele><time>2026-04-25T13:15:48.565Z</time></trkpt><trkpt lat="42.7078454" lon="12.6097576"><ele>515.75</ele><time>2026-04-25T13:15:49.54Z</time></trkpt><trkpt lat="42.7077159" lon="12.6096545"><ele>517.5</ele><time>2026-04-25T13:15:50.549Z</time></trkpt><trkpt lat="42.707609" lon="12.6095585"><ele>519.25</ele><time>2026-04-25T13:15:51.55Z</time></trkpt><trkpt lat="42.7075396" lon="12.6094458"><ele>521.0</ele><time>2026-04-25T13:15:52.547Z</time></trkpt><trkpt lat="42.7074871" lon="12.6092917"><ele>521.3333333333333</ele><time>2026-04-25T13:15:53.542Z</time></trkpt><trkpt lat="42.707446" lon="12.6090994"><ele>521.6666666666666</ele><time>2026-04-25T13:15:54.54Z</time></trkpt><trkpt lat="42.7074211" lon="12.6088824"><ele>522.0</ele><time>2026-04-25T13:15:55.547Z</time></trkpt><trkpt lat="42.7074094" lon="12.6086498"><ele>524.0</ele><time>2026-04-25T13:15:56.54Z</time></trkpt><trkpt lat="42.7073939" lon="12.6083901"><ele>526.0</ele><time>2026-04-25T13:15:57.543Z</time></trkpt><trkpt lat="42.7073795" lon="12.6081196"><ele>528.0</ele><time>2026-04-25T13:15:58.546Z</time></trkpt><trkpt lat="42.7073609" lon="12.6078251"><ele>530.6666666666666</ele><time>2026-04-25T13:15:59.54Z</time></trkpt><trkpt lat="42.7073451" lon="12.6075278"><ele>533.3333333333333</ele><time>2026-04-25T13:16:00.536Z</time></trkpt><trkpt lat="42.7073303" lon="12.6072467"><ele>536.0</ele><time>2026-04-25T13:16:01.544Z</time></trkpt><trkpt lat="42.7073249" lon="12.6070053"><ele>537.6666666666666</ele><time>2026-04-25T13:16:02.547Z</time></trkpt><trkpt lat="42.7073071" lon="12.6067765"><ele>539.3333333333334</ele><time>2026-04-25T13:16:03.547Z</time></trkpt><trkpt lat="42.7072882" lon="12.6065584"><ele>541.0</ele><time>2026-04-25T13:16:04.561Z</time></trkpt><trkpt lat="42.7072793" lon="12.6063727"><ele>541.0</ele><time>2026-04-25T13:16:05.545Z</time></trkpt><trkpt lat="42.7072757" lon="12.6061963"><ele>541.0</ele><time>2026-04-25T13:16:06.541Z</time></trkpt><trkpt lat="42.707295" lon="12.6060226"><ele>541.0</ele><time>2026-04-25T13:16:07.548Z</time></trkpt><trkpt lat="42.7073572" lon="12.6058565"><ele>541.0</ele><time>2026-04-25T13:16:08.541Z</time></trkpt><trkpt lat="42.7074384" lon="12.6057031"><ele>541.5</ele><time>2026-04-25T13:16:09.541Z</time></trkpt><trkpt lat="42.7075346" lon="12.6055765"><ele>542.0</ele><time>2026-04-25T13:16:10.557Z</time></trkpt><trkpt lat="42.7076541" lon="12.6054888"><ele>542.5</ele><time>2026-04-25T13:16:11.558Z</time></trkpt><trkpt lat="42.7077907" lon="12.6054255"><ele>543.0</ele><time>2026-04-25T13:16:12.537Z</time></trkpt><trkpt lat="42.7079407" lon="12.6053827"><ele>543.0</ele><time>2026-04-25T13:16:13.54Z</time></trkpt><trkpt lat="42.7080966" lon="12.6053565"><ele>543.0</ele><time>2026-04-25T13:16:14.55Z</time></trkpt><trkpt lat="42.7082633" lon="12.6053138"><ele>543.0</ele><time>2026-04-25T13:16:15.554Z</time></trkpt><trkpt lat="42.7084397" lon="12.6052599"><ele>546.3333333333334</ele><time>2026-04-25T13:16:16.542Z</time></trkpt><trkpt lat="42.7086183" lon="12.6051943"><ele>549.6666666666667</ele><time>2026-04-25T13:16:17.545Z</time></trkpt><trkpt lat="42.7087934" lon="12.6051209"><ele>553.0</ele><time>2026-04-25T13:16:18.545Z</time></trkpt><trkpt lat="42.708953" lon="12.605043"><ele>553.0</ele><time>2026-04-25T13:16:19.547Z</time></trkpt><trkpt lat="42.7090974" lon="12.6049421"><ele>553.0</ele><time>2026-04-25T13:16:20.542Z</time></trkpt><trkpt lat="42.709237" lon="12.6048064"><ele>553.0</ele><time>2026-04-25T13:16:21.542Z</time></trkpt><trkpt lat="42.7093786" lon="12.6046422"><ele>552.6666666666667</ele><time>2026-04-25T13:16:22.549Z</time></trkpt><trkpt lat="42.7095218" lon="12.6044938"><ele>552.3333333333334</ele><time>2026-04-25T13:16:23.543Z</time></trkpt><trkpt lat="42.709669" lon="12.6043541"><ele>552.0</ele><time>2026-04-25T13:16:24.548Z</time></trkpt><trkpt lat="42.7098077" lon="12.6042044"><ele>552.0</ele><time>2026-04-25T13:16:25.541Z</time></trkpt><trkpt lat="42.7099284" lon="12.6040336"><ele>552.0</ele><time>2026-04-25T13:16:26.543Z</time></trkpt><trkpt lat="42.7100449" lon="12.6038578"><ele>552.0</ele><time>2026-04-25T13:16:27.542Z</time></trkpt><trkpt lat="42.710157" lon="12.6036645"><ele>543.3333333333334</ele><time>2026-04-25T13:16:28.544Z</time></trkpt><trkpt lat="42.7102534" lon="12.6034448"><ele>534.6666666666667</ele><time>2026-04-25T13:16:29.55Z</time></trkpt><trkpt lat="42.7103391" lon="12.6032152"><ele>526.0</ele><time>2026-04-25T13:16:30.553Z</time></trkpt><trkpt lat="42.7104233" lon="12.602986"><ele>534.6666666666667</ele><time>2026-04-25T13:16:31.541Z</time></trkpt><trkpt lat="42.7105067" lon="12.6027481"><ele>543.3333333333334</ele><time>2026-04-25T13:16:32.548Z</time></trkpt><trkpt lat="42.7105816" lon="12.6025178"><ele>552.0</ele><time>2026-04-25T13:16:33.543Z</time></trkpt><trkpt lat="42.7106533" lon="12.6022943"><ele>552.0</ele><time>2026-04-25T13:16:34.543Z</time></trkpt><trkpt lat="42.7107191" lon="12.6020778"><ele>552.0</ele><time>2026-04-25T13:16:35.548Z</time></trkpt><trkpt lat="42.7107772" lon="12.6018841"><ele>552.0</ele><time>2026-04-25T13:16:36.541Z</time></trkpt><trkpt lat="42.7108249" lon="12.6017017"><ele>557.25</ele><time>2026-04-25T13:16:37.547Z</time></trkpt><trkpt lat="42.7108629" lon="12.6015086"><ele>562.5</ele><time>2026-04-25T13:16:38.543Z</time></trkpt><trkpt lat="42.7108722" lon="12.6013117"><ele>567.75</ele><time>2026-04-25T13:16:39.547Z</time></trkpt><trkpt lat="42.7108585" lon="12.601106"><ele>573.0</ele><time>2026-04-25T13:16:40.543Z</time></trkpt><trkpt lat="42.7108478" lon="12.600903"><ele>577.0</ele><time>2026-04-25T13:16:41.543Z</time></trkpt><trkpt lat="42.7108526" lon="12.600703"><ele>581.0</ele><time>2026-04-25T13:16:42.555Z</time></trkpt><trkpt lat="42.7108822" lon="12.6005003"><ele>585.0</ele><time>2026-04-25T13:16:43.542Z</time></trkpt><trkpt lat="42.7109342" lon="12.6003012"><ele>589.3333333333334</ele><time>2026-04-25T13:16:44.561Z</time></trkpt><trkpt lat="42.7110004" lon="12.6000987"><ele>593.6666666666667</ele><time>2026-04-25T13:16:45.541Z</time></trkpt><trkpt lat="42.7110644" lon="12.5998829"><ele>598.0</ele><time>2026-04-25T13:16:46.543Z</time></trkpt><trkpt lat="42.7111179" lon="12.5996373"><ele>589.0</ele><time>2026-04-25T13:16:47.551Z</time></trkpt><trkpt lat="42.7111793" lon="12.5993904"><ele>580.0</ele><time>2026-04-25T13:16:48.547Z</time></trkpt><trkpt lat="42.7112488" lon="12.5991427"><ele>571.0</ele><time>2026-04-25T13:16:49.547Z</time></trkpt><trkpt lat="42.7113258" lon="12.5988997"><ele>576.6666666666667</ele><time>2026-04-25T13:16:50.541Z</time></trkpt><trkpt lat="42.7114156" lon="12.5986562"><ele>582.3333333333334</ele><time>2026-04-25T13:16:51.537Z</time></trkpt><trkpt lat="42.7115133" lon="12.5984157"><ele>588.0</ele><time>2026-04-25T13:16:52.542Z</time></trkpt><trkpt lat="42.7115967" lon="12.5981845"><ele>588.0</ele><time>2026-04-25T13:16:53.547Z</time></trkpt><trkpt lat="42.7116594" lon="12.5979686"><ele>588.0</ele><time>2026-04-25T13:16:54.537Z</time></trkpt><trkpt lat="42.7117037" lon="12.5977644"><ele>588.0</ele><time>2026-04-25T13:16:55.534Z</time></trkpt><trkpt lat="42.7117111" lon="12.5975685"><ele>592.0</ele><time>2026-04-25T13:16:56.543Z</time></trkpt><trkpt lat="42.7117068" lon="12.5973613"><ele>596.0</ele><time>2026-04-25T13:16:57.542Z</time></trkpt><trkpt lat="42.711739" lon="12.5971473"><ele>600.0</ele><time>2026-04-25T13:16:58.552Z</time></trkpt><trkpt lat="42.7118037" lon="12.5969576"><ele>594.3333333333334</ele><time>2026-04-25T13:16:59.541Z</time></trkpt><trkpt lat="42.7118868" lon="12.596778"><ele>588.6666666666667</ele><time>2026-04-25T13:17:00.565Z</time></trkpt><trkpt lat="42.7120058" lon="12.5966237"><ele>583.0</ele><time>2026-04-25T13:17:01.541Z</time></trkpt><trkpt lat="42.7121272" lon="12.5964483"><ele>583.0</ele><time>2026-04-25T13:17:02.538Z</time></trkpt><trkpt lat="42.7122545" lon="12.5962563"><ele>583.0</ele><time>2026-04-25T13:17:03.545Z</time></trkpt><trkpt lat="42.712384" lon="12.5960321"><ele>583.0</ele><time>2026-04-25T13:17:04.544Z</time></trkpt><trkpt lat="42.7124945" lon="12.5958029"><ele>580.6666666666667</ele><time>2026-04-25T13:17:05.545Z</time></trkpt><trkpt lat="42.7126152" lon="12.59557"><ele>578.3333333333334</ele><time>2026-04-25T13:17:06.546Z</time></trkpt><trkpt lat="42.7127526" lon="12.5953395"><ele>576.0</ele><time>2026-04-25T13:17:07.542Z</time></trkpt><trkpt lat="42.7128996" lon="12.595134"><ele>583.0</ele><time>2026-04-25T13:17:08.543Z</time></trkpt><trkpt lat="42.7130398" lon="12.5949318"><ele>590.0</ele><time>2026-04-25T13:17:09.545Z</time></trkpt><trkpt lat="42.7131743" lon="12.5947297"><ele>597.0</ele><time>2026-04-25T13:17:10.55Z</time></trkpt><trkpt lat="42.7132939" lon="12.5945196"><ele>604.6666666666666</ele><time>2026-04-25T13:17:11.54Z</time></trkpt><trkpt lat="42.7133871" lon="12.5942959"><ele>612.3333333333333</ele><time>2026-04-25T13:17:12.541Z</time></trkpt><trkpt lat="42.7134781" lon="12.5940673"><ele>620.0</ele><time>2026-04-25T13:17:13.543Z</time></trkpt><trkpt lat="42.7135595" lon="12.5938303"><ele>616.0</ele><time>2026-04-25T13:17:14.557Z</time></trkpt><trkpt lat="42.7136389" lon="12.5936202"><ele>612.0</ele><time>2026-04-25T13:17:15.535Z</time></trkpt><trkpt lat="42.7136942" lon="12.5934317"><ele>608.0</ele><time>2026-04-25T13:17:16.545Z</time></trkpt><trkpt lat="42.7137143" lon="12.5932429"><ele>608.0</ele><time>2026-04-25T13:17:17.542Z</time></trkpt><trkpt lat="42.7137209" lon="12.5930422"><ele>608.0</ele><time>2026-04-25T13:17:18.546Z</time></trkpt><trkpt lat="42.713695" lon="12.5928153"><ele>608.0</ele><time>2026-04-25T13:17:19.544Z</time></trkpt><trkpt lat="42.7136779" lon="12.5925918"><ele>614.0</ele><time>2026-04-25T13:17:20.549Z</time></trkpt><trkpt lat="42.7136775" lon="12.5923553"><ele>620.0</ele><time>2026-04-25T13:17:21.544Z</time></trkpt><trkpt lat="42.7136751" lon="12.5921209"><ele>626.0</ele><time>2026-04-25T13:17:22.551Z</time></trkpt><trkpt lat="42.7136633" lon="12.5918879"><ele>630.0</ele><time>2026-04-25T13:17:23.548Z</time></trkpt><trkpt lat="42.713642" lon="12.5916579"><ele>634.0</ele><time>2026-04-25T13:17:24.548Z</time></trkpt><trkpt lat="42.7136453" lon="12.5914234"><ele>638.0</ele><time>2026-04-25T13:17:25.543Z</time></trkpt><trkpt lat="42.7136688" lon="12.5911873"><ele>640.3333333333333</ele><time>2026-04-25T13:17:26.58Z</time></trkpt><trkpt lat="42.7136711" lon="12.5909477"><ele>642.6666666666666</ele><time>2026-04-25T13:17:27.541Z</time></trkpt><trkpt lat="42.7136461" lon="12.590722"><ele>645.0</ele><time>2026-04-25T13:17:28.541Z</time></trkpt><trkpt lat="42.7135902" lon="12.5904875"><ele>646.0</ele><time>2026-04-25T13:17:29.54Z</time></trkpt><trkpt lat="42.7135175" lon="12.5902511"><ele>647.0</ele><time>2026-04-25T13:17:30.545Z</time></trkpt><trkpt lat="42.7134444" lon="12.5900148"><ele>648.0</ele><time>2026-04-25T13:17:31.541Z</time></trkpt><trkpt lat="42.713368" lon="12.5897912"><ele>648.0</ele><time>2026-04-25T13:17:32.543Z</time></trkpt><trkpt lat="42.7132724" lon="12.5895777"><ele>648.0</ele><time>2026-04-25T13:17:33.543Z</time></trkpt><trkpt lat="42.7131809" lon="12.5893768"><ele>648.0</ele><time>2026-04-25T13:17:34.541Z</time></trkpt><trkpt lat="42.7130857" lon="12.5891868"><ele>647.6666666666666</ele><time>2026-04-25T13:17:35.542Z</time></trkpt><trkpt lat="42.7129983" lon="12.5889995"><ele>647.3333333333333</ele><time>2026-04-25T13:17:36.54Z</time></trkpt><trkpt lat="42.7129072" lon="12.5888338"><ele>647.0</ele><time>2026-04-25T13:17:37.543Z</time></trkpt><trkpt lat="42.7128174" lon="12.5886928"><ele>648.75</ele><time>2026-04-25T13:17:38.548Z</time></trkpt><trkpt lat="42.7127385" lon="12.5885542"><ele>650.5</ele><time>2026-04-25T13:17:39.542Z</time></trkpt><trkpt lat="42.7126746" lon="12.588403"><ele>652.25</ele><time>2026-04-25T13:17:40.54Z</time></trkpt><trkpt lat="42.7126432" lon="12.588228"><ele>654.0</ele><time>2026-04-25T13:17:41.54Z</time></trkpt><trkpt lat="42.7126196" lon="12.5880384"><ele>654.0</ele><time>2026-04-25T13:17:42.547Z</time></trkpt><trkpt lat="42.7125958" lon="12.587857"><ele>654.0</ele><time>2026-04-25T13:17:43.547Z</time></trkpt><trkpt lat="42.7125692" lon="12.5877063"><ele>654.0</ele><time>2026-04-25T13:17:44.589Z</time></trkpt><trkpt lat="42.7125313" lon="12.5875816"><ele>654.0</ele><time>2026-04-25T13:17:45.548Z</time></trkpt><trkpt lat="42.7124614" lon="12.5874954"><ele>654.0</ele><time>2026-04-25T13:17:46.543Z</time></trkpt><trkpt lat="42.7123725" lon="12.5874573"><ele>653.6666666666666</ele><time>2026-04-25T13:17:47.539Z</time></trkpt><trkpt lat="42.7122797" lon="12.5874482"><ele>653.3333333333334</ele><time>2026-04-25T13:17:48.544Z</time></trkpt><trkpt lat="42.7121955" lon="12.5874761"><ele>653.0</ele><time>2026-04-25T13:17:49.542Z</time></trkpt><trkpt lat="42.7121214" lon="12.5875039"><ele>652.6666666666667</ele><time>2026-04-25T13:17:50.544Z</time></trkpt><trkpt lat="42.7120258" lon="12.5874916"><ele>652.3333333333334</ele><time>2026-04-25T13:17:52.545Z</time></trkpt><trkpt lat="42.7120852" lon="12.5874072"><ele>652.0</ele><time>2026-04-25T13:17:57.55Z</time></trkpt><trkpt lat="42.712154" lon="12.5874015"><ele>652.0</ele><time>2026-04-25T13:17:59.546Z</time></trkpt><trkpt lat="42.7122473" lon="12.5873795"><ele>652.0</ele><time>2026-04-25T13:18:27.54Z</time></trkpt><trkpt lat="42.7123436" lon="12.5873241"><ele>652.0</ele><time>2026-04-25T13:18:29.545Z</time></trkpt><trkpt lat="42.7124525" lon="12.5872595"><ele>652.0</ele><time>2026-04-25T13:18:31.546Z</time></trkpt><trkpt lat="42.7125558" lon="12.5871855"><ele>652.0</ele><time>2026-04-25T13:18:33.545Z</time></trkpt><trkpt lat="42.7126331" lon="12.5870807"><ele>652.4000000000001</ele><time>2026-04-25T13:18:35.548Z</time></trkpt><trkpt lat="42.7126543" lon="12.586953"><ele>652.8000000000001</ele><time>2026-04-25T13:18:37.546Z</time></trkpt><trkpt lat="42.7126173" lon="12.5868253"><ele>653.2</ele><time>2026-04-25T13:18:39.544Z</time></trkpt><trkpt lat="42.71255" lon="12.5866662"><ele>653.6</ele><time>2026-04-25T13:18:41.549Z</time></trkpt><trkpt lat="42.7125186" lon="12.5865562"><ele>654.0</ele><time>2026-04-25T13:18:42.544Z</time></trkpt><trkpt lat="42.7124925" lon="12.5864375"><ele>654.0</ele><time>2026-04-25T13:18:43.546Z</time></trkpt><trkpt lat="42.7124676" lon="12.5863064"><ele>654.0</ele><time>2026-04-25T13:18:44.542Z</time></trkpt><trkpt lat="42.7124518" lon="12.5861609"><ele>654.0</ele><time>2026-04-25T13:18:45.55Z</time></trkpt><trkpt lat="42.7124339" lon="12.5860081"><ele>654.0</ele><time>2026-04-25T13:18:46.565Z</time></trkpt><trkpt lat="42.7124069" lon="12.5858621"><ele>654.0</ele><time>2026-04-25T13:18:47.538Z</time></trkpt><trkpt lat="42.7123813" lon="12.5857103"><ele>655.2</ele><time>2026-04-25T13:18:48.548Z</time></trkpt><trkpt lat="42.7123492" lon="12.5855733"><ele>656.4000000000001</ele><time>2026-04-25T13:18:49.542Z</time></trkpt><trkpt lat="42.7123129" lon="12.5854477"><ele>657.6</ele><time>2026-04-25T13:18:50.604Z</time></trkpt><trkpt lat="42.7122811" lon="12.5853368"><ele>658.8</ele><time>2026-04-25T13:18:51.543Z</time></trkpt><trkpt lat="42.7122447" lon="12.5852382"><ele>660.0</ele><time>2026-04-25T13:18:52.545Z</time></trkpt><trkpt lat="42.7122013" lon="12.5851453"><ele>659.3333333333334</ele><time>2026-04-25T13:18:53.544Z</time></trkpt><trkpt lat="42.7121563" lon="12.5850509"><ele>658.6666666666666</ele><time>2026-04-25T13:18:54.542Z</time></trkpt><trkpt lat="42.7121096" lon="12.5849647"><ele>658.0</ele><time>2026-04-25T13:18:55.542Z</time></trkpt><trkpt lat="42.7120549" lon="12.5848848"><ele>657.3333333333333</ele><time>2026-04-25T13:18:56.546Z</time></trkpt><trkpt lat="42.7119954" lon="12.5848171"><ele>656.6666666666666</ele><time>2026-04-25T13:18:57.546Z</time></trkpt><trkpt lat="42.7119265" lon="12.5847573"><ele>656.0</ele><time>2026-04-25T13:18:58.542Z</time></trkpt><trkpt lat="42.7118433" lon="12.5846893"><ele>656.0</ele><time>2026-04-25T13:18:59.539Z</time></trkpt><trkpt lat="42.7117674" lon="12.5846117"><ele>656.0</ele><time>2026-04-25T13:19:00.559Z</time></trkpt><trkpt lat="42.7116958" lon="12.5845335"><ele>656.0</ele><time>2026-04-25T13:19:01.543Z</time></trkpt><trkpt lat="42.7116142" lon="12.5844643"><ele>656.0</ele><time>2026-04-25T13:19:02.541Z</time></trkpt><trkpt lat="42.7115286" lon="12.5844085"><ele>656.0</ele><time>2026-04-25T13:19:03.544Z</time></trkpt><trkpt lat="42.711436" lon="12.5843691"><ele>657.8333333333333</ele><time>2026-04-25T13:19:04.542Z</time></trkpt><trkpt lat="42.7113454" lon="12.5843277"><ele>659.6666666666666</ele><time>2026-04-25T13:19:05.556Z</time></trkpt><trkpt lat="42.7112607" lon="12.5842913"><ele>661.5</ele><time>2026-04-25T13:19:06.54Z</time></trkpt><trkpt lat="42.7111862" lon="12.5842459"><ele>663.3333333333334</ele><time>2026-04-25T13:19:07.544Z</time></trkpt><trkpt lat="42.7111224" lon="12.5841913"><ele>665.1666666666667</ele><time>2026-04-25T13:19:08.549Z</time></trkpt><trkpt lat="42.7110712" lon="12.5841386"><ele>667.0</ele><time>2026-04-25T13:19:09.541Z</time></trkpt><trkpt lat="42.710998" lon="12.5840619"><ele>667.0</ele><time>2026-04-25T13:19:11.546Z</time></trkpt><trkpt lat="42.7109286" lon="12.5839661"><ele>667.0</ele><time>2026-04-25T13:19:13.546Z</time></trkpt><trkpt lat="42.7108702" lon="12.5838232"><ele>667.0</ele><time>2026-04-25T13:19:15.548Z</time></trkpt><trkpt lat="42.7108527" lon="12.5837377"><ele>667.0</ele><time>2026-04-25T13:19:16.57Z</time></trkpt><trkpt lat="42.7108401" lon="12.583646"><ele>667.0</ele><time>2026-04-25T13:19:17.544Z</time></trkpt><trkpt lat="42.7108449" lon="12.5835587"><ele>667.0</ele><time>2026-04-25T13:19:18.541Z</time></trkpt><trkpt lat="42.7108644" lon="12.5834699"><ele>668.0</ele><time>2026-04-25T13:19:19.544Z</time></trkpt><trkpt lat="42.7108864" lon="12.5833879"><ele>669.0</ele><time>2026-04-25T13:19:20.562Z</time></trkpt><trkpt lat="42.7109128" lon="12.5832978"><ele>670.0</ele><time>2026-04-25T13:19:21.549Z</time></trkpt><trkpt lat="42.7109431" lon="12.5832181"><ele>671.0</ele><time>2026-04-25T13:19:22.547Z</time></trkpt><trkpt lat="42.7110132" lon="12.5831032"><ele>672.0</ele><time>2026-04-25T13:19:24.56Z</time></trkpt><trkpt lat="42.711061" lon="12.5830409"><ele>673.0</ele><time>2026-04-25T13:19:25.544Z</time></trkpt><trkpt lat="42.7111817" lon="12.5829518"><ele>673.5</ele><time>2026-04-25T13:19:27.542Z</time></trkpt><trkpt lat="42.7112558" lon="12.582898"><ele>674.0</ele><time>2026-04-25T13:19:28.551Z</time></trkpt><trkpt lat="42.7113257" lon="12.5828338"><ele>674.5</ele><time>2026-04-25T13:19:29.548Z</time></trkpt><trkpt lat="42.7113969" lon="12.5827794"><ele>675.0</ele><time>2026-04-25T13:19:30.545Z</time></trkpt><trkpt lat="42.7114627" lon="12.5827446"><ele>675.5</ele><time>2026-04-25T13:19:31.548Z</time></trkpt><trkpt lat="42.7115323" lon="12.5827001"><ele>676.0</ele><time>2026-04-25T13:19:32.551Z</time></trkpt><trkpt lat="42.7116116" lon="12.5826506"><ele>676.0</ele><time>2026-04-25T13:19:33.546Z</time></trkpt><trkpt lat="42.7116993" lon="12.5826022"><ele>676.0</ele><time>2026-04-25T13:19:34.544Z</time></trkpt><trkpt lat="42.7117893" lon="12.5825661"><ele>676.0</ele><time>2026-04-25T13:19:35.548Z</time></trkpt><trkpt lat="42.7118853" lon="12.5825185"><ele>676.0</ele><time>2026-04-25T13:19:36.564Z</time></trkpt><trkpt lat="42.7119907" lon="12.5824713"><ele>676.0</ele><time>2026-04-25T13:19:37.55Z</time></trkpt><trkpt lat="42.7120929" lon="12.5824214"><ele>678.0</ele><time>2026-04-25T13:19:38.549Z</time></trkpt><trkpt lat="42.7121924" lon="12.5823767"><ele>680.0</ele><time>2026-04-25T13:19:39.55Z</time></trkpt><trkpt lat="42.7122841" lon="12.5823411"><ele>682.0</ele><time>2026-04-25T13:19:40.556Z</time></trkpt><trkpt lat="42.7123764" lon="12.5823059"><ele>684.0</ele><time>2026-04-25T13:19:41.554Z</time></trkpt><trkpt lat="42.7124723" lon="12.5822626"><ele>686.0</ele><time>2026-04-25T13:19:42.546Z</time></trkpt><trkpt lat="42.7125804" lon="12.5822218"><ele>686.0</ele><time>2026-04-25T13:19:43.549Z</time></trkpt><trkpt lat="42.7126822" lon="12.5821764"><ele>686.0</ele><time>2026-04-25T13:19:44.547Z</time></trkpt><trkpt lat="42.7127803" lon="12.5821303"><ele>686.0</ele><time>2026-04-25T13:19:45.547Z</time></trkpt><trkpt lat="42.7128771" lon="12.5820886"><ele>686.0</ele><time>2026-04-25T13:19:46.538Z</time></trkpt><trkpt lat="42.712964" lon="12.5820511"><ele>686.0</ele><time>2026-04-25T13:19:47.553Z</time></trkpt><trkpt lat="42.7130319" lon="12.5820302"><ele>686.0</ele><time>2026-04-25T13:19:48.552Z</time></trkpt><trkpt lat="42.7130985" lon="12.5820032"><ele>686.0</ele><time>2026-04-25T13:19:49.573Z</time></trkpt><trkpt lat="42.7131675" lon="12.5819703"><ele>686.0</ele><time>2026-04-25T13:19:50.547Z</time></trkpt><trkpt lat="42.7132486" lon="12.5819378"><ele>686.0</ele><time>2026-04-25T13:19:51.539Z</time></trkpt><trkpt lat="42.7133372" lon="12.5819057"><ele>686.0</ele><time>2026-04-25T13:19:52.557Z</time></trkpt><trkpt lat="42.7134189" lon="12.5818876"><ele>686.0</ele><time>2026-04-25T13:19:53.548Z</time></trkpt><trkpt lat="42.7135053" lon="12.5818713"><ele>686.8</ele><time>2026-04-25T13:19:54.542Z</time></trkpt><trkpt lat="42.713592" lon="12.5818467"><ele>687.5999999999999</ele><time>2026-04-25T13:19:55.548Z</time></trkpt><trkpt lat="42.7136824" lon="12.5818242"><ele>688.4</ele><time>2026-04-25T13:19:56.55Z</time></trkpt><trkpt lat="42.7137736" lon="12.5818041"><ele>689.2</ele><time>2026-04-25T13:19:57.541Z</time></trkpt><trkpt lat="42.713869" lon="12.5817915"><ele>690.0</ele><time>2026-04-25T13:19:58.54Z</time></trkpt><trkpt lat="42.7139516" lon="12.5817748"><ele>690.0</ele><time>2026-04-25T13:19:59.546Z</time></trkpt><trkpt lat="42.7140366" lon="12.581767"><ele>690.0</ele><time>2026-04-25T13:20:00.55Z</time></trkpt><trkpt lat="42.7141236" lon="12.5817582"><ele>690.0</ele><time>2026-04-25T13:20:01.548Z</time></trkpt><trkpt lat="42.7142099" lon="12.5817583"><ele>690.0</ele><time>2026-04-25T13:20:02.542Z</time></trkpt><trkpt lat="42.7143034" lon="12.5817625"><ele>690.0</ele><time>2026-04-25T13:20:03.546Z</time></trkpt><trkpt lat="42.7144002" lon="12.5817733"><ele>690.0</ele><time>2026-04-25T13:20:04.551Z</time></trkpt><trkpt lat="42.714497" lon="12.5817976"><ele>690.0</ele><time>2026-04-25T13:20:05.536Z</time></trkpt><trkpt lat="42.7145919" lon="12.5818244"><ele>690.0</ele><time>2026-04-25T13:20:06.543Z</time></trkpt><trkpt lat="42.7146868" lon="12.5818452"><ele>690.0</ele><time>2026-04-25T13:20:07.552Z</time></trkpt><trkpt lat="42.7147798" lon="12.581872"><ele>690.0</ele><time>2026-04-25T13:20:08.547Z</time></trkpt><trkpt lat="42.7148635" lon="12.5819021"><ele>690.0</ele><time>2026-04-25T13:20:09.546Z</time></trkpt><trkpt lat="42.7149405" lon="12.5819379"><ele>690.0</ele><time>2026-04-25T13:20:10.543Z</time></trkpt><trkpt lat="42.715016" lon="12.5819771"><ele>690.0</ele><time>2026-04-25T13:20:11.543Z</time></trkpt><trkpt lat="42.7150899" lon="12.5820205"><ele>690.0</ele><time>2026-04-25T13:20:12.543Z</time></trkpt><trkpt lat="42.7151502" lon="12.5820771"><ele>690.0</ele><time>2026-04-25T13:20:13.545Z</time></trkpt><trkpt lat="42.715206" lon="12.5821441"><ele>690.0</ele><time>2026-04-25T13:20:14.547Z</time></trkpt><trkpt lat="42.71526" lon="12.5822167"><ele>690.0</ele><time>2026-04-25T13:20:15.551Z</time></trkpt><trkpt lat="42.715315" lon="12.5822989"><ele>691.8</ele><time>2026-04-25T13:20:16.542Z</time></trkpt><trkpt lat="42.7153621" lon="12.582407"><ele>693.6</ele><time>2026-04-25T13:20:17.549Z</time></trkpt><trkpt lat="42.7154127" lon="12.5825186"><ele>695.4000000000001</ele><time>2026-04-25T13:20:18.54Z</time></trkpt><trkpt lat="42.7154653" lon="12.5826248"><ele>697.2</ele><time>2026-04-25T13:20:19.548Z</time></trkpt><trkpt lat="42.7155185" lon="12.5827286"><ele>699.0</ele><time>2026-04-25T13:20:20.543Z</time></trkpt><trkpt lat="42.715573" lon="12.5828393"><ele>699.0</ele><time>2026-04-25T13:20:21.544Z</time></trkpt><trkpt lat="42.7156251" lon="12.5829467"><ele>699.0</ele><time>2026-04-25T13:20:22.546Z</time></trkpt><trkpt lat="42.7156719" lon="12.5830505"><ele>699.0</ele><time>2026-04-25T13:20:23.557Z</time></trkpt><trkpt lat="42.7157125" lon="12.5831523"><ele>699.0</ele><time>2026-04-25T13:20:24.548Z</time></trkpt><trkpt lat="42.7157597" lon="12.5832543"><ele>699.0</ele><time>2026-04-25T13:20:25.544Z</time></trkpt><trkpt lat="42.7157979" lon="12.5833526"><ele>699.0</ele><time>2026-04-25T13:20:26.54Z</time></trkpt><trkpt lat="42.715833" lon="12.5834577"><ele>699.0</ele><time>2026-04-25T13:20:27.542Z</time></trkpt><trkpt lat="42.7158686" lon="12.5835553"><ele>699.0</ele><time>2026-04-25T13:20:28.55Z</time></trkpt><trkpt lat="42.7159169" lon="12.5836397"><ele>699.0</ele><time>2026-04-25T13:20:29.572Z</time></trkpt><trkpt lat="42.7159468" lon="12.583719"><ele>699.0</ele><time>2026-04-25T13:20:30.56Z</time></trkpt><trkpt lat="42.7160197" lon="12.5837633"><ele>699.0</ele><time>2026-04-25T13:20:31.551Z</time></trkpt><trkpt lat="42.716073" lon="12.5838089"><ele>699.0</ele><time>2026-04-25T13:20:32.552Z</time></trkpt><trkpt lat="42.7161563" lon="12.5838671"><ele>702.0</ele><time>2026-04-25T13:20:34.555Z</time></trkpt><trkpt lat="42.7162584" lon="12.5839235"><ele>705.0</ele><time>2026-04-25T13:20:36.555Z</time></trkpt><trkpt lat="42.716406" lon="12.5839247"><ele>708.0</ele><time>2026-04-25T13:20:38.55Z</time></trkpt><trkpt lat="42.7164785" lon="12.583919"><ele>711.0</ele><time>2026-04-25T13:20:39.556Z</time></trkpt><trkpt lat="42.7165568" lon="12.5839199"><ele>714.0</ele><time>2026-04-25T13:20:40.555Z</time></trkpt><trkpt lat="42.7166344" lon="12.5839129"><ele>714.0</ele><time>2026-04-25T13:20:41.553Z</time></trkpt><trkpt lat="42.7167026" lon="12.5838926"><ele>714.0</ele><time>2026-04-25T13:20:42.554Z</time></trkpt><trkpt lat="42.7168124" lon="12.5838102"><ele>714.0</ele><time>2026-04-25T13:20:44.545Z</time></trkpt><trkpt lat="42.7169255" lon="12.583733"><ele>714.0</ele><time>2026-04-25T13:20:46.552Z</time></trkpt><trkpt lat="42.7170468" lon="12.5836367"><ele>711.2</ele><time>2026-04-25T13:20:48.551Z</time></trkpt><trkpt lat="42.717158" lon="12.5835904"><ele>708.4000000000001</ele><time>2026-04-25T13:20:50.544Z</time></trkpt><trkpt lat="42.7172594" lon="12.5835392"><ele>705.6</ele><time>2026-04-25T13:20:52.549Z</time></trkpt><trkpt lat="42.7173435" lon="12.5835471"><ele>702.8</ele><time>2026-04-25T13:20:54.553Z</time></trkpt><trkpt lat="42.7174334" lon="12.5835513"><ele>700.0</ele><time>2026-04-25T13:20:56.557Z</time></trkpt><trkpt lat="42.7175501" lon="12.583487"><ele>700.0</ele><time>2026-04-25T13:20:58.55Z</time></trkpt><trkpt lat="42.7176202" lon="12.5834537"><ele>700.0</ele><time>2026-04-25T13:20:59.556Z</time></trkpt><trkpt lat="42.7176972" lon="12.5834341"><ele>700.0</ele><time>2026-04-25T13:21:00.549Z</time></trkpt><trkpt lat="42.7177845" lon="12.5834355"><ele>700.0</ele><time>2026-04-25T13:21:01.547Z</time></trkpt><trkpt lat="42.7178575" lon="12.5834315"><ele>700.0</ele><time>2026-04-25T13:21:02.545Z</time></trkpt><trkpt lat="42.7179305" lon="12.5834302"><ele>700.0</ele><time>2026-04-25T13:21:03.55Z</time></trkpt><trkpt lat="42.7179995" lon="12.5833673"><ele>701.3333333333334</ele><time>2026-04-25T13:21:04.565Z</time></trkpt><trkpt lat="42.7180494" lon="12.5832694"><ele>702.6666666666667</ele><time>2026-04-25T13:21:05.549Z</time></trkpt><trkpt lat="42.7181075" lon="12.5832057"><ele>704.0</ele><time>2026-04-25T13:21:06.549Z</time></trkpt><trkpt lat="42.7181676" lon="12.5831426"><ele>705.3333333333334</ele><time>2026-04-25T13:21:07.549Z</time></trkpt><trkpt lat="42.7182353" lon="12.5830995"><ele>706.6666666666666</ele><time>2026-04-25T13:21:08.556Z</time></trkpt><trkpt lat="42.7183228" lon="12.5830418"><ele>708.0</ele><time>2026-04-25T13:21:09.55Z</time></trkpt><trkpt lat="42.7184125" lon="12.583014"><ele>708.0</ele><time>2026-04-25T13:21:10.569Z</time></trkpt><trkpt lat="42.7184751" lon="12.5829417"><ele>708.0</ele><time>2026-04-25T13:21:11.55Z</time></trkpt><trkpt lat="42.7185454" lon="12.5828583"><ele>708.0</ele><time>2026-04-25T13:21:12.546Z</time></trkpt><trkpt lat="42.718611" lon="12.5828021"><ele>708.0</ele><time>2026-04-25T13:21:13.536Z</time></trkpt><trkpt lat="42.7186996" lon="12.58275"><ele>708.0</ele><time>2026-04-25T13:21:14.54Z</time></trkpt><trkpt lat="42.7187935" lon="12.5827148"><ele>708.0</ele><time>2026-04-25T13:21:15.549Z</time></trkpt><trkpt lat="42.7188888" lon="12.5826903"><ele>705.2</ele><time>2026-04-25T13:21:16.543Z</time></trkpt><trkpt lat="42.7189699" lon="12.5826567"><ele>702.4</ele><time>2026-04-25T13:21:17.538Z</time></trkpt><trkpt lat="42.7190438" lon="12.5826328"><ele>699.6</ele><time>2026-04-25T13:21:18.541Z</time></trkpt><trkpt lat="42.7191414" lon="12.5826112"><ele>696.8000000000001</ele><time>2026-04-25T13:21:20.546Z</time></trkpt><trkpt lat="42.7192618" lon="12.5825949"><ele>694.0</ele><time>2026-04-25T13:21:22.54Z</time></trkpt><trkpt lat="42.7193325" lon="12.5825992"><ele>693.6666666666667</ele><time>2026-04-25T13:21:23.54Z</time></trkpt><trkpt lat="42.7194117" lon="12.5826028"><ele>693.3333333333334</ele><time>2026-04-25T13:21:24.552Z</time></trkpt><trkpt lat="42.7194917" lon="12.5826198"><ele>693.0</ele><time>2026-04-25T13:21:25.541Z</time></trkpt><trkpt lat="42.7195837" lon="12.5826552"><ele>692.6666666666666</ele><time>2026-04-25T13:21:26.555Z</time></trkpt><trkpt lat="42.7196598" lon="12.5826806"><ele>692.3333333333333</ele><time>2026-04-25T13:21:27.546Z</time></trkpt><trkpt lat="42.7197312" lon="12.5827015"><ele>692.0</ele><time>2026-04-25T13:21:28.551Z</time></trkpt><trkpt lat="42.7197981" lon="12.5827289"><ele>692.0</ele><time>2026-04-25T13:21:29.547Z</time></trkpt><trkpt lat="42.7199078" lon="12.5827648"><ele>692.0</ele><time>2026-04-25T13:21:31.543Z</time></trkpt><trkpt lat="42.720006" lon="12.5828062"><ele>692.0</ele><time>2026-04-25T13:21:33.548Z</time></trkpt><trkpt lat="42.7200698" lon="12.5828525"><ele>692.0</ele><time>2026-04-25T13:21:35.548Z</time></trkpt><trkpt lat="42.7201348" lon="12.5829023"><ele>692.0</ele><time>2026-04-25T13:21:37.541Z</time></trkpt><trkpt lat="42.7201935" lon="12.5829661"><ele>692.0</ele><time>2026-04-25T13:21:39.541Z</time></trkpt><trkpt lat="42.7202613" lon="12.5830404"><ele>694.2</ele><time>2026-04-25T13:21:41.547Z</time></trkpt><trkpt lat="42.7203523" lon="12.5830972"><ele>696.4000000000001</ele><time>2026-04-25T13:21:43.554Z</time></trkpt><trkpt lat="42.7204592" lon="12.5831337"><ele>698.5999999999999</ele><time>2026-04-25T13:21:45.545Z</time></trkpt><trkpt lat="42.7205736" lon="12.5831306"><ele>700.8</ele><time>2026-04-25T13:21:47.543Z</time></trkpt><trkpt lat="42.7206802" lon="12.5831571"><ele>703.0</ele><time>2026-04-25T13:21:49.543Z</time></trkpt><trkpt lat="42.7207721" lon="12.5832288"><ele>703.0</ele><time>2026-04-25T13:21:51.544Z</time></trkpt><trkpt lat="42.7208413" lon="12.5833115"><ele>703.0</ele><time>2026-04-25T13:21:53.546Z</time></trkpt><trkpt lat="42.7209236" lon="12.5834077"><ele>703.0</ele><time>2026-04-25T13:21:55.539Z</time></trkpt><trkpt lat="42.7210268" lon="12.5834831"><ele>703.0</ele><time>2026-04-25T13:21:57.543Z</time></trkpt><trkpt lat="42.7210883" lon="12.5835185"><ele>703.0</ele><time>2026-04-25T13:21:58.547Z</time></trkpt><trkpt lat="42.721147" lon="12.5835576"><ele>703.4</ele><time>2026-04-25T13:21:59.542Z</time></trkpt><trkpt lat="42.7212496" lon="12.5836251"><ele>703.8</ele><time>2026-04-25T13:22:01.548Z</time></trkpt><trkpt lat="42.7213551" lon="12.5836341"><ele>704.2</ele><time>2026-04-25T13:22:03.546Z</time></trkpt><trkpt lat="42.7214513" lon="12.5835966"><ele>704.6</ele><time>2026-04-25T13:22:05.544Z</time></trkpt><trkpt lat="42.7215013" lon="12.5835058"><ele>705.0</ele><time>2026-04-25T13:22:07.565Z</time></trkpt><trkpt lat="42.7215513" lon="12.5833947"><ele>705.0</ele><time>2026-04-25T13:22:09.559Z</time></trkpt><trkpt lat="42.7216153" lon="12.5832578"><ele>705.0</ele><time>2026-04-25T13:22:11.538Z</time></trkpt><trkpt lat="42.7216553" lon="12.5831648"><ele>705.0</ele><time>2026-04-25T13:22:12.541Z</time></trkpt><trkpt lat="42.7217072" lon="12.5830673"><ele>705.0</ele><time>2026-04-25T13:22:13.541Z</time></trkpt><trkpt lat="42.721762" lon="12.582952"><ele>705.0</ele><time>2026-04-25T13:22:14.546Z</time></trkpt><trkpt lat="42.7218128" lon="12.5828628"><ele>705.0</ele><time>2026-04-25T13:22:15.549Z</time></trkpt><trkpt lat="42.7218555" lon="12.5827693"><ele>705.0</ele><time>2026-04-25T13:22:16.535Z</time></trkpt><trkpt lat="42.7218973" lon="12.5826875"><ele>705.0</ele><time>2026-04-25T13:22:17.544Z</time></trkpt><trkpt lat="42.7219348" lon="12.5826142"><ele>705.0</ele><time>2026-04-25T13:22:18.539Z</time></trkpt><trkpt lat="42.7219925" lon="12.5825215"><ele>705.0</ele><time>2026-04-25T13:22:20.541Z</time></trkpt><trkpt lat="42.7220591" lon="12.5824566"><ele>705.0</ele><time>2026-04-25T13:22:22.545Z</time></trkpt><trkpt lat="42.7221616" lon="12.5824002"><ele>705.0</ele><time>2026-04-25T13:22:24.546Z</time></trkpt><trkpt lat="42.7222824" lon="12.5823885"><ele>705.0</ele><time>2026-04-25T13:22:26.539Z</time></trkpt><trkpt lat="42.7223466" lon="12.5823916"><ele>705.0</ele><time>2026-04-25T13:22:27.549Z</time></trkpt><trkpt lat="42.7224798" lon="12.5824085"><ele>705.0</ele><time>2026-04-25T13:22:29.548Z</time></trkpt><trkpt lat="42.7225616" lon="12.5824167"><ele>705.0</ele><time>2026-04-25T13:22:30.555Z</time></trkpt><trkpt lat="42.7226443" lon="12.5824261"><ele>705.0</ele><time>2026-04-25T13:22:31.543Z</time></trkpt><trkpt lat="42.7227258" lon="12.5824227"><ele>705.0</ele><time>2026-04-25T13:22:32.548Z</time></trkpt><trkpt lat="42.7228052" lon="12.5824095"><ele>705.0</ele><time>2026-04-25T13:22:33.564Z</time></trkpt><trkpt lat="42.7228906" lon="12.5824031"><ele>705.0</ele><time>2026-04-25T13:22:34.547Z</time></trkpt><trkpt lat="42.7229652" lon="12.5824053"><ele>705.0</ele><time>2026-04-25T13:22:35.543Z</time></trkpt><trkpt lat="42.7230426" lon="12.5824092"><ele>705.0</ele><time>2026-04-25T13:22:36.542Z</time></trkpt><trkpt lat="42.7231161" lon="12.5824183"><ele>705.7142857142857</ele><time>2026-04-25T13:22:37.545Z</time></trkpt><trkpt lat="42.7231878" lon="12.5824258"><ele>706.4285714285714</ele><time>2026-04-25T13:22:38.547Z</time></trkpt><trkpt lat="42.7232567" lon="12.582443"><ele>707.1428571428571</ele><time>2026-04-25T13:22:39.544Z</time></trkpt><trkpt lat="42.7233271" lon="12.5824671"><ele>707.8571428571429</ele><time>2026-04-25T13:22:40.543Z</time></trkpt><trkpt lat="42.7233899" lon="12.582484"><ele>708.5714285714286</ele><time>2026-04-25T13:22:41.533Z</time></trkpt><trkpt lat="42.7234524" lon="12.5824973"><ele>709.2857142857142</ele><time>2026-04-25T13:22:42.541Z</time></trkpt><trkpt lat="42.7235208" lon="12.582494"><ele>710.0</ele><time>2026-04-25T13:22:43.559Z</time></trkpt><trkpt lat="42.7235836" lon="12.5824706"><ele>711.4</ele><time>2026-04-25T13:22:44.543Z</time></trkpt><trkpt lat="42.7237049" lon="12.5824188"><ele>712.8</ele><time>2026-04-25T13:22:46.555Z</time></trkpt><trkpt lat="42.7238075" lon="12.5823671"><ele>714.2</ele><time>2026-04-25T13:22:48.547Z</time></trkpt><trkpt lat="42.7238898" lon="12.5823054"><ele>715.6</ele><time>2026-04-25T13:22:50.548Z</time></trkpt><trkpt lat="42.7239921" lon="12.5822462"><ele>717.0</ele><time>2026-04-25T13:22:52.537Z</time></trkpt><trkpt lat="42.7240783" lon="12.5822508"><ele>717.0</ele><time>2026-04-25T13:22:54.544Z</time></trkpt><trkpt lat="42.724157" lon="12.5823122"><ele>717.0</ele><time>2026-04-25T13:22:56.558Z</time></trkpt><trkpt lat="42.7242196" lon="12.5823695"><ele>717.0</ele><time>2026-04-25T13:22:58.547Z</time></trkpt><trkpt lat="42.7242848" lon="12.5824463"><ele>717.0</ele><time>2026-04-25T13:23:00.556Z</time></trkpt><trkpt lat="42.7243576" lon="12.5825435"><ele>717.0</ele><time>2026-04-25T13:23:02.545Z</time></trkpt><trkpt lat="42.7244344" lon="12.5826172"><ele>717.0</ele><time>2026-04-25T13:23:04.542Z</time></trkpt><trkpt lat="42.7245342" lon="12.5826868"><ele>718.5</ele><time>2026-04-25T13:23:06.579Z</time></trkpt><trkpt lat="42.7246436" lon="12.5827441"><ele>720.0</ele><time>2026-04-25T13:23:08.541Z</time></trkpt><trkpt lat="42.7247271" lon="12.5827683"><ele>721.5</ele><time>2026-04-25T13:23:09.551Z</time></trkpt><trkpt lat="42.7248141" lon="12.5827872"><ele>723.0</ele><time>2026-04-25T13:23:10.543Z</time></trkpt><trkpt lat="42.7248921" lon="12.5827967"><ele>724.5</ele><time>2026-04-25T13:23:11.544Z</time></trkpt><trkpt lat="42.724959" lon="12.5828071"><ele>726.0</ele><time>2026-04-25T13:23:12.545Z</time></trkpt><trkpt lat="42.7250288" lon="12.5828109"><ele>725.9999999999999</ele><time>2026-04-25T13:23:13.54Z</time></trkpt><trkpt lat="42.7250922" lon="12.5828127"><ele>726.0</ele><time>2026-04-25T13:23:14.549Z</time></trkpt><trkpt lat="42.7251578" lon="12.582817"><ele>726.0</ele><time>2026-04-25T13:23:15.549Z</time></trkpt><trkpt lat="42.7252224" lon="12.5828189"><ele>726.0</ele><time>2026-04-25T13:23:16.545Z</time></trkpt><trkpt lat="42.7252949" lon="12.5828223"><ele>726.0</ele><time>2026-04-25T13:23:17.546Z</time></trkpt><trkpt lat="42.7253666" lon="12.582829"><ele>725.9999999999999</ele><time>2026-04-25T13:23:18.544Z</time></trkpt><trkpt lat="42.7254484" lon="12.5828374"><ele>726.0</ele><time>2026-04-25T13:23:19.554Z</time></trkpt><trkpt lat="42.7255324" lon="12.5828493"><ele>723.5</ele><time>2026-04-25T13:23:20.536Z</time></trkpt><trkpt lat="42.7256154" lon="12.5828591"><ele>721.0</ele><time>2026-04-25T13:23:21.536Z</time></trkpt><trkpt lat="42.7257012" lon="12.5828778"><ele>718.5</ele><time>2026-04-25T13:23:22.561Z</time></trkpt><trkpt lat="42.7257824" lon="12.5828956"><ele>716.0</ele><time>2026-04-25T13:23:23.545Z</time></trkpt><trkpt lat="42.7258672" lon="12.5829166"><ele>713.5</ele><time>2026-04-25T13:23:24.541Z</time></trkpt><trkpt lat="42.7259473" lon="12.5829402"><ele>711.0</ele><time>2026-04-25T13:23:25.533Z</time></trkpt><trkpt lat="42.7260228" lon="12.5829672"><ele>712.8333333333334</ele><time>2026-04-25T13:23:26.545Z</time></trkpt><trkpt lat="42.7260988" lon="12.5829961"><ele>714.6666666666666</ele><time>2026-04-25T13:23:27.542Z</time></trkpt><trkpt lat="42.7261746" lon="12.5830272"><ele>716.5</ele><time>2026-04-25T13:23:28.548Z</time></trkpt><trkpt lat="42.7262578" lon="12.5830601"><ele>718.3333333333333</ele><time>2026-04-25T13:23:29.54Z</time></trkpt><trkpt lat="42.726348" lon="12.5831091"><ele>720.1666666666666</ele><time>2026-04-25T13:23:30.538Z</time></trkpt><trkpt lat="42.7264364" lon="12.5831564"><ele>722.0</ele><time>2026-04-25T13:23:31.542Z</time></trkpt><trkpt lat="42.7265229" lon="12.5832065"><ele>722.0</ele><time>2026-04-25T13:23:32.536Z</time></trkpt><trkpt lat="42.7266076" lon="12.5832554"><ele>722.0</ele><time>2026-04-25T13:23:33.547Z</time></trkpt><trkpt lat="42.7266955" lon="12.5832953"><ele>722.0</ele><time>2026-04-25T13:23:34.546Z</time></trkpt><trkpt lat="42.7267823" lon="12.5833443"><ele>722.0</ele><time>2026-04-25T13:23:35.541Z</time></trkpt><trkpt lat="42.7268669" lon="12.5833863"><ele>722.0</ele><time>2026-04-25T13:23:36.536Z</time></trkpt><trkpt lat="42.726947" lon="12.5834222"><ele>723.0</ele><time>2026-04-25T13:23:37.555Z</time></trkpt><trkpt lat="42.7270325" lon="12.5834608"><ele>724.0</ele><time>2026-04-25T13:23:38.546Z</time></trkpt><trkpt lat="42.7271146" lon="12.5835031"><ele>725.0</ele><time>2026-04-25T13:23:39.538Z</time></trkpt><trkpt lat="42.72719" lon="12.583532"><ele>726.0</ele><time>2026-04-25T13:23:40.544Z</time></trkpt><trkpt lat="42.7272674" lon="12.5835584"><ele>727.0</ele><time>2026-04-25T13:23:41.543Z</time></trkpt><trkpt lat="42.7273448" lon="12.5835738"><ele>728.0</ele><time>2026-04-25T13:23:42.531Z</time></trkpt><trkpt lat="42.7274159" lon="12.5835815"><ele>728.0</ele><time>2026-04-25T13:23:43.538Z</time></trkpt><trkpt lat="42.7274909" lon="12.5835866"><ele>728.0</ele><time>2026-04-25T13:23:44.538Z</time></trkpt><trkpt lat="42.7275597" lon="12.5835804"><ele>728.0</ele><time>2026-04-25T13:23:45.545Z</time></trkpt><trkpt lat="42.727639" lon="12.5835513"><ele>728.0</ele><time>2026-04-25T13:23:47.543Z</time></trkpt><trkpt lat="42.7276943" lon="12.5834774"><ele>728.0</ele><time>2026-04-25T13:23:49.545Z</time></trkpt><trkpt lat="42.7277482" lon="12.5833505"><ele>728.0</ele><time>2026-04-25T13:23:51.553Z</time></trkpt><trkpt lat="42.7277972" lon="12.5832227"><ele>724.75</ele><time>2026-04-25T13:23:53.541Z</time></trkpt><trkpt lat="42.727827" lon="12.583075"><ele>721.5</ele><time>2026-04-25T13:23:55.545Z</time></trkpt><trkpt lat="42.7279435" lon="12.5830377"><ele>718.25</ele><time>2026-04-25T13:23:58.547Z</time></trkpt><trkpt lat="42.7280585" lon="12.5830515"><ele>715.0</ele><time>2026-04-25T13:24:00.554Z</time></trkpt><trkpt lat="42.7281822" lon="12.5830667"><ele>715.0</ele><time>2026-04-25T13:24:02.555Z</time></trkpt><trkpt lat="42.72829" lon="12.5830602"><ele>715.0</ele><time>2026-04-25T13:24:04.551Z</time></trkpt><trkpt lat="42.7283837" lon="12.5830618"><ele>715.0</ele><time>2026-04-25T13:24:06.552Z</time></trkpt><trkpt lat="42.7285073" lon="12.5830585"><ele>715.0</ele><time>2026-04-25T13:24:08.551Z</time></trkpt><trkpt lat="42.7286057" lon="12.5830346"><ele>715.0</ele><time>2026-04-25T13:24:10.554Z</time></trkpt><trkpt lat="42.7286766" lon="12.5829826"><ele>716.5</ele><time>2026-04-25T13:24:12.549Z</time></trkpt><trkpt lat="42.7287319" lon="12.5829201"><ele>718.0</ele><time>2026-04-25T13:24:14.555Z</time></trkpt><trkpt lat="42.7287868" lon="12.5828321"><ele>719.5</ele><time>2026-04-25T13:24:16.551Z</time></trkpt><trkpt lat="42.7288264" lon="12.5827498"><ele>721.0</ele><time>2026-04-25T13:24:18.552Z</time></trkpt><trkpt lat="42.7289048" lon="12.5826453"><ele>722.5</ele><time>2026-04-25T13:24:21.555Z</time></trkpt><trkpt lat="42.7289807" lon="12.5825774"><ele>724.0</ele><time>2026-04-25T13:24:23.551Z</time></trkpt><trkpt lat="42.7290562" lon="12.582509"><ele>724.0</ele><time>2026-04-25T13:24:25.554Z</time></trkpt><trkpt lat="42.7291154" lon="12.5824419"><ele>724.0</ele><time>2026-04-25T13:24:27.542Z</time></trkpt><trkpt lat="42.7291888" lon="12.5824287"><ele>724.0</ele><time>2026-04-25T13:24:30.556Z</time></trkpt><trkpt lat="42.7292788" lon="12.5824508"><ele>724.0</ele><time>2026-04-25T13:24:32.549Z</time></trkpt><trkpt lat="42.7293345" lon="12.5825419"><ele>724.0</ele><time>2026-04-25T13:24:34.539Z</time></trkpt><trkpt lat="42.7293668" lon="12.582639"><ele>724.0</ele><time>2026-04-25T13:24:36.548Z</time></trkpt><trkpt lat="42.7294098" lon="12.5828148"><ele>723.6666666666667</ele><time>2026-04-25T13:24:38.543Z</time></trkpt><trkpt lat="42.7294431" lon="12.5829166"><ele>723.3333333333334</ele><time>2026-04-25T13:24:39.545Z</time></trkpt><trkpt lat="42.7294696" lon="12.5830187"><ele>723.0</ele><time>2026-04-25T13:24:40.555Z</time></trkpt><trkpt lat="42.729526" lon="12.5831928"><ele>722.6666666666666</ele><time>2026-04-25T13:24:42.554Z</time></trkpt><trkpt lat="42.7295568" lon="12.5832768"><ele>722.3333333333333</ele><time>2026-04-25T13:24:43.554Z</time></trkpt><trkpt lat="42.7295868" lon="12.5833688"><ele>722.0</ele><time>2026-04-25T13:24:44.548Z</time></trkpt><trkpt lat="42.7296154" lon="12.5834574"><ele>722.0</ele><time>2026-04-25T13:24:45.55Z</time></trkpt><trkpt lat="42.7296664" lon="12.5836145"><ele>722.0</ele><time>2026-04-25T13:24:47.549Z</time></trkpt><trkpt lat="42.7297028" lon="12.5837086"><ele>722.0</ele><time>2026-04-25T13:24:48.551Z</time></trkpt><trkpt lat="42.7297738" lon="12.5838233"><ele>722.0</ele><time>2026-04-25T13:24:50.551Z</time></trkpt><trkpt lat="42.7298604" lon="12.5839868"><ele>719.2</ele><time>2026-04-25T13:24:52.555Z</time></trkpt><trkpt lat="42.7299129" lon="12.5840628"><ele>716.4000000000001</ele><time>2026-04-25T13:24:53.545Z</time></trkpt><trkpt lat="42.7299666" lon="12.5841489"><ele>713.5999999999999</ele><time>2026-04-25T13:24:54.554Z</time></trkpt><trkpt lat="42.7300618" lon="12.5842856"><ele>710.8</ele><time>2026-04-25T13:24:56.553Z</time></trkpt><trkpt lat="42.7301234" lon="12.5843728"><ele>708.0</ele><time>2026-04-25T13:24:57.551Z</time></trkpt><trkpt lat="42.7301741" lon="12.584432"><ele>707.2</ele><time>2026-04-25T13:24:58.538Z</time></trkpt><trkpt lat="42.7302296" lon="12.5845073"><ele>706.4</ele><time>2026-04-25T13:24:59.551Z</time></trkpt><trkpt lat="42.7303339" lon="12.5846192"><ele>705.6</ele><time>2026-04-25T13:25:01.548Z</time></trkpt><trkpt lat="42.7303927" lon="12.584664"><ele>704.8000000000001</ele><time>2026-04-25T13:25:02.551Z</time></trkpt><trkpt lat="42.7305146" lon="12.5847352"><ele>704.0</ele><time>2026-04-25T13:25:04.549Z</time></trkpt><trkpt lat="42.7305949" lon="12.5847858"><ele>704.0</ele><time>2026-04-25T13:25:06.551Z</time></trkpt><trkpt lat="42.7307546" lon="12.5848307"><ele>704.0</ele><time>2026-04-25T13:25:08.55Z</time></trkpt><trkpt lat="42.7308202" lon="12.5848495"><ele>704.0</ele><time>2026-04-25T13:25:09.556Z</time></trkpt><trkpt lat="42.7308989" lon="12.5848685"><ele>704.0</ele><time>2026-04-25T13:25:10.546Z</time></trkpt><trkpt lat="42.7309771" lon="12.5848842"><ele>704.0</ele><time>2026-04-25T13:25:11.555Z</time></trkpt><trkpt lat="42.7310501" lon="12.5849028"><ele>705.0</ele><time>2026-04-25T13:25:12.551Z</time></trkpt><trkpt lat="42.731209" lon="12.5849441"><ele>706.0</ele><time>2026-04-25T13:25:14.554Z</time></trkpt><trkpt lat="42.7313079" lon="12.5849782"><ele>707.0</ele><time>2026-04-25T13:25:15.554Z</time></trkpt><trkpt lat="42.7313721" lon="12.5849949"><ele>708.0</ele><time>2026-04-25T13:25:16.551Z</time></trkpt><trkpt lat="42.7314625" lon="12.5850159"><ele>709.0</ele><time>2026-04-25T13:25:18.556Z</time></trkpt><trkpt lat="42.7315267" lon="12.5850333"><ele>709.0</ele><time>2026-04-25T13:25:19.554Z</time></trkpt><trkpt lat="42.7316052" lon="12.5850538"><ele>709.0</ele><time>2026-04-25T13:25:20.55Z</time></trkpt><trkpt lat="42.7316945" lon="12.5850745"><ele>709.0</ele><time>2026-04-25T13:25:21.564Z</time></trkpt><trkpt lat="42.7317883" lon="12.5850822"><ele>709.0</ele><time>2026-04-25T13:25:22.547Z</time></trkpt><trkpt lat="42.7318625" lon="12.5850839"><ele>709.0</ele><time>2026-04-25T13:25:23.547Z</time></trkpt><trkpt lat="42.7319704" lon="12.5850544"><ele>709.0</ele><time>2026-04-25T13:25:25.55Z</time></trkpt><trkpt lat="42.732034" lon="12.5850078"><ele>708.0</ele><time>2026-04-25T13:25:27.545Z</time></trkpt><trkpt lat="42.7320787" lon="12.5849109"><ele>707.0</ele><time>2026-04-25T13:25:29.552Z</time></trkpt><trkpt lat="42.7321078" lon="12.5847846"><ele>706.0</ele><time>2026-04-25T13:25:31.549Z</time></trkpt><trkpt lat="42.7321158" lon="12.5846772"><ele>705.0</ele><time>2026-04-25T13:25:32.556Z</time></trkpt><trkpt lat="42.7321423" lon="12.5845421"><ele>704.0</ele><time>2026-04-25T13:25:34.554Z</time></trkpt><trkpt lat="42.732179" lon="12.5843991"><ele>704.0</ele><time>2026-04-25T13:25:36.543Z</time></trkpt><trkpt lat="42.7322306" lon="12.5843201"><ele>704.0</ele><time>2026-04-25T13:25:39.545Z</time></trkpt><trkpt lat="42.7323417" lon="12.5843567"><ele>704.0</ele><time>2026-04-25T13:25:41.541Z</time></trkpt><trkpt lat="42.7324025" lon="12.5843831"><ele>704.0</ele><time>2026-04-25T13:25:42.545Z</time></trkpt><trkpt lat="42.7324595" lon="12.5844301"><ele>704.0</ele><time>2026-04-25T13:25:43.541Z</time></trkpt><trkpt lat="42.7325156" lon="12.5844818"><ele>704.0</ele><time>2026-04-25T13:25:44.538Z</time></trkpt><trkpt lat="42.7325692" lon="12.5845549"><ele>704.0</ele><time>2026-04-25T13:25:45.54Z</time></trkpt><trkpt lat="42.7326215" lon="12.5846355"><ele>704.0</ele><time>2026-04-25T13:25:46.555Z</time></trkpt><trkpt lat="42.7326622" lon="12.5847184"><ele>704.0</ele><time>2026-04-25T13:25:47.545Z</time></trkpt><trkpt lat="42.7327014" lon="12.5847927"><ele>704.0</ele><time>2026-04-25T13:25:48.544Z</time></trkpt><trkpt lat="42.7327397" lon="12.5848702"><ele>704.0</ele><time>2026-04-25T13:25:49.54Z</time></trkpt><trkpt lat="42.7327767" lon="12.5849475"><ele>704.0</ele><time>2026-04-25T13:25:50.542Z</time></trkpt><trkpt lat="42.7328198" lon="12.5850267"><ele>704.0</ele><time>2026-04-25T13:25:51.541Z</time></trkpt><trkpt lat="42.7328679" lon="12.5851052"><ele>705.1428571428571</ele><time>2026-04-25T13:25:52.545Z</time></trkpt><trkpt lat="42.7329113" lon="12.5851932"><ele>706.2857142857142</ele><time>2026-04-25T13:25:53.54Z</time></trkpt><trkpt lat="42.7329526" lon="12.5852758"><ele>707.4285714285713</ele><time>2026-04-25T13:25:54.54Z</time></trkpt><trkpt lat="42.7329939" lon="12.5853462"><ele>708.5714285714286</ele><time>2026-04-25T13:25:55.532Z</time></trkpt><trkpt lat="42.7330515" lon="12.5854108"><ele>709.7142857142857</ele><time>2026-04-25T13:25:56.541Z</time></trkpt><trkpt lat="42.7331016" lon="12.5854645"><ele>710.8571428571428</ele><time>2026-04-25T13:25:57.545Z</time></trkpt><trkpt lat="42.7331627" lon="12.5855017"><ele>712.0</ele><time>2026-04-25T13:25:58.543Z</time></trkpt><trkpt lat="42.7332733" lon="12.5855728"><ele>708.5</ele><time>2026-04-25T13:26:00.544Z</time></trkpt><trkpt lat="42.7333912" lon="12.585618"><ele>705.0</ele><time>2026-04-25T13:26:02.542Z</time></trkpt><trkpt lat="42.7334595" lon="12.5856273"><ele>701.5</ele><time>2026-04-25T13:26:03.542Z</time></trkpt><trkpt lat="42.7335317" lon="12.5856127"><ele>698.0</ele><time>2026-04-25T13:26:04.555Z</time></trkpt><trkpt lat="42.7335904" lon="12.5855736"><ele>694.5</ele><time>2026-04-25T13:26:05.549Z</time></trkpt><trkpt lat="42.7336431" lon="12.5855222"><ele>691.0</ele><time>2026-04-25T13:26:06.544Z</time></trkpt><trkpt lat="42.7336889" lon="12.5854596"><ele>693.8</ele><time>2026-04-25T13:26:07.543Z</time></trkpt><trkpt lat="42.7337294" lon="12.5853152"><ele>696.5999999999999</ele><time>2026-04-25T13:26:09.544Z</time></trkpt><trkpt lat="42.7337574" lon="12.5851382"><ele>699.4</ele><time>2026-04-25T13:26:11.54Z</time></trkpt><trkpt lat="42.7337875" lon="12.5850493"><ele>702.2</ele><time>2026-04-25T13:26:12.546Z</time></trkpt><trkpt lat="42.7338277" lon="12.5849141"><ele>705.0</ele><time>2026-04-25T13:26:14.536Z</time></trkpt><trkpt lat="42.7338724" lon="12.5848494"><ele>705.0</ele><time>2026-04-25T13:26:16.545Z</time></trkpt><trkpt lat="42.7339479" lon="12.5848347"><ele>705.0</ele><time>2026-04-25T13:26:18.543Z</time></trkpt><trkpt lat="42.7340222" lon="12.5848974"><ele>705.0</ele><time>2026-04-25T13:26:20.546Z</time></trkpt><trkpt lat="42.7341006" lon="12.584971"><ele>705.0</ele><time>2026-04-25T13:26:22.549Z</time></trkpt><trkpt lat="42.7341969" lon="12.5850387"><ele>705.0</ele><time>2026-04-25T13:26:24.542Z</time></trkpt><trkpt lat="42.7342962" lon="12.5850977"><ele>705.0</ele><time>2026-04-25T13:26:26.542Z</time></trkpt><trkpt lat="42.7343877" lon="12.5851293"><ele>705.0</ele><time>2026-04-25T13:26:28.541Z</time></trkpt><trkpt lat="42.7344887" lon="12.5851322"><ele>705.0</ele><time>2026-04-25T13:26:30.547Z</time></trkpt><trkpt lat="42.7346017" lon="12.5851259"><ele>705.0</ele><time>2026-04-25T13:26:32.541Z</time></trkpt><trkpt lat="42.734725" lon="12.5850891"><ele>705.0</ele><time>2026-04-25T13:26:34.546Z</time></trkpt><trkpt lat="42.7347914" lon="12.5850627"><ele>704.0</ele><time>2026-04-25T13:26:35.546Z</time></trkpt><trkpt lat="42.7348545" lon="12.5850441"><ele>703.0</ele><time>2026-04-25T13:26:36.544Z</time></trkpt><trkpt lat="42.7349743" lon="12.5850025"><ele>702.0</ele><time>2026-04-25T13:26:38.552Z</time></trkpt><trkpt lat="42.7350377" lon="12.5849784"><ele>701.0</ele><time>2026-04-25T13:26:39.548Z</time></trkpt><trkpt lat="42.7351014" lon="12.5849579"><ele>700.0</ele><time>2026-04-25T13:26:40.548Z</time></trkpt><trkpt lat="42.7351645" lon="12.5849434"><ele>699.0</ele><time>2026-04-25T13:26:41.541Z</time></trkpt><trkpt lat="42.7352821" lon="12.5849241"><ele>696.2</ele><time>2026-04-25T13:26:43.543Z</time></trkpt><trkpt lat="42.7353836" lon="12.5848976"><ele>693.4000000000001</ele><time>2026-04-25T13:26:45.543Z</time></trkpt><trkpt lat="42.7354885" lon="12.5848698"><ele>690.6</ele><time>2026-04-25T13:26:47.548Z</time></trkpt><trkpt lat="42.7355919" lon="12.5848186"><ele>687.8</ele><time>2026-04-25T13:26:49.544Z</time></trkpt><trkpt lat="42.7356919" lon="12.5847271"><ele>685.0</ele><time>2026-04-25T13:26:51.542Z</time></trkpt><trkpt lat="42.7357366" lon="12.5846576"><ele>685.0</ele><time>2026-04-25T13:26:52.543Z</time></trkpt><trkpt lat="42.7357782" lon="12.5845903"><ele>685.0</ele><time>2026-04-25T13:26:53.549Z</time></trkpt><trkpt lat="42.7358149" lon="12.5845157"><ele>685.0</ele><time>2026-04-25T13:26:54.542Z</time></trkpt><trkpt lat="42.7358563" lon="12.5844402"><ele>685.0</ele><time>2026-04-25T13:26:55.543Z</time></trkpt><trkpt lat="42.7359019" lon="12.5843671"><ele>685.0</ele><time>2026-04-25T13:26:56.548Z</time></trkpt><trkpt lat="42.7359522" lon="12.5842994"><ele>685.0</ele><time>2026-04-25T13:26:57.541Z</time></trkpt><trkpt lat="42.7360202" lon="12.5842144"><ele>685.0</ele><time>2026-04-25T13:26:59.536Z</time></trkpt><trkpt lat="42.7361068" lon="12.5842079"><ele>685.8</ele><time>2026-04-25T13:27:02.545Z</time></trkpt><trkpt lat="42.7361997" lon="12.5842538"><ele>686.6</ele><time>2026-04-25T13:27:04.546Z</time></trkpt><trkpt lat="42.7362881" lon="12.5842816"><ele>687.4000000000001</ele><time>2026-04-25T13:27:06.544Z</time></trkpt><trkpt lat="42.7363779" lon="12.5842903"><ele>688.2</ele><time>2026-04-25T13:27:08.549Z</time></trkpt><trkpt lat="42.7364635" lon="12.5842567"><ele>689.0</ele><time>2026-04-25T13:27:10.541Z</time></trkpt><trkpt lat="42.73656" lon="12.5842181"><ele>689.0</ele><time>2026-04-25T13:27:12.565Z</time></trkpt><trkpt lat="42.736658" lon="12.5841618"><ele>689.0</ele><time>2026-04-25T13:27:14.551Z</time></trkpt><trkpt lat="42.7367505" lon="12.5841019"><ele>689.0</ele><time>2026-04-25T13:27:16.55Z</time></trkpt><trkpt lat="42.7368317" lon="12.5840198"><ele>689.0</ele><time>2026-04-25T13:27:18.544Z</time></trkpt><trkpt lat="42.7369098" lon="12.5839319"><ele>689.0</ele><time>2026-04-25T13:27:20.543Z</time></trkpt><trkpt lat="42.7369721" lon="12.5838453"><ele>687.6666666666666</ele><time>2026-04-25T13:27:22.545Z</time></trkpt><trkpt lat="42.7370461" lon="12.5838077"><ele>686.3333333333333</ele><time>2026-04-25T13:27:24.54Z</time></trkpt><trkpt lat="42.7371249" lon="12.5838339"><ele>685.0</ele><time>2026-04-25T13:27:26.545Z</time></trkpt><trkpt lat="42.737229" lon="12.5838784"><ele>683.6666666666666</ele><time>2026-04-25T13:27:28.547Z</time></trkpt><trkpt lat="42.7373123" lon="12.5838983"><ele>682.3333333333334</ele><time>2026-04-25T13:27:30.543Z</time></trkpt><trkpt lat="42.7373867" lon="12.5839019"><ele>681.0</ele><time>2026-04-25T13:27:32.549Z</time></trkpt><trkpt lat="42.737463" lon="12.5838723"><ele>681.0</ele><time>2026-04-25T13:27:34.558Z</time></trkpt><trkpt lat="42.7375504" lon="12.5838151"><ele>681.0</ele><time>2026-04-25T13:27:36.545Z</time></trkpt><trkpt lat="42.7376502" lon="12.5837608"><ele>681.0</ele><time>2026-04-25T13:27:38.538Z</time></trkpt><trkpt lat="42.7377664" lon="12.5837293"><ele>681.0</ele><time>2026-04-25T13:27:40.543Z</time></trkpt><trkpt lat="42.7378833" lon="12.5836863"><ele>681.0</ele><time>2026-04-25T13:27:42.556Z</time></trkpt><trkpt lat="42.7379982" lon="12.583619"><ele>690.0</ele><time>2026-04-25T13:27:44.542Z</time></trkpt><trkpt lat="42.7380978" lon="12.58355"><ele>690.0</ele><time>2026-04-25T13:27:46.543Z</time></trkpt><trkpt lat="42.7381809" lon="12.5834895"><ele>690.0</ele><time>2026-04-25T13:27:48.565Z</time></trkpt></trkseg><trkseg><trkpt lat="42.7382262" lon="12.5833221"><ele>690.0</ele><time>2026-04-25T13:39:03.558Z</time></trkpt><trkpt lat="42.7382832" lon="12.5834503"><ele>690.0</ele><time>2026-04-25T13:39:07.547Z</time></trkpt><trkpt lat="42.7382838" lon="12.5835396"><ele>690.0</ele><time>2026-04-25T13:39:08.545Z</time></trkpt><trkpt lat="42.7382595" lon="12.5836655"><ele>690.0</ele><time>2026-04-25T13:39:10.546Z</time></trkpt><trkpt lat="42.7381934" lon="12.583799"><ele>690.0</ele><time>2026-04-25T13:39:12.554Z</time></trkpt><trkpt lat="42.738148" lon="12.5838646"><ele>689.0</ele><time>2026-04-25T13:39:13.543Z</time></trkpt><trkpt lat="42.7380623" lon="12.5839785"><ele>688.0</ele><time>2026-04-25T13:39:15.544Z</time></trkpt><trkpt lat="42.7380128" lon="12.5840502"><ele>687.0</ele><time>2026-04-25T13:39:16.545Z</time></trkpt><trkpt lat="42.7379698" lon="12.5841303"><ele>686.0</ele><time>2026-04-25T13:39:17.545Z</time></trkpt><trkpt lat="42.7379317" lon="12.5842199"><ele>685.0</ele><time>2026-04-25T13:39:18.543Z</time></trkpt><trkpt lat="42.7378543" lon="12.5843472"><ele>685.0</ele><time>2026-04-25T13:39:20.541Z</time></trkpt><trkpt lat="42.7377669" lon="12.5844009"><ele>685.0</ele><time>2026-04-25T13:39:22.543Z</time></trkpt><trkpt lat="42.7376616" lon="12.584436"><ele>685.0</ele><time>2026-04-25T13:39:24.548Z</time></trkpt><trkpt lat="42.7375745" lon="12.5845651"><ele>685.0</ele><time>2026-04-25T13:39:26.546Z</time></trkpt><trkpt lat="42.7375331" lon="12.5846396"><ele>685.0</ele><time>2026-04-25T13:39:27.543Z</time></trkpt><trkpt lat="42.7374908" lon="12.5847035"><ele>684.0</ele><time>2026-04-25T13:39:28.574Z</time></trkpt><trkpt lat="42.7374233" lon="12.5848208"><ele>683.0</ele><time>2026-04-25T13:39:30.541Z</time></trkpt><trkpt lat="42.7374165" lon="12.5849261"><ele>682.0</ele><time>2026-04-25T13:39:32.545Z</time></trkpt><trkpt lat="42.7374992" lon="12.5850654"><ele>681.0</ele><time>2026-04-25T13:39:34.548Z</time></trkpt><trkpt lat="42.7375473" lon="12.5851589"><ele>680.0</ele><time>2026-04-25T13:39:35.544Z</time></trkpt><trkpt lat="42.7375952" lon="12.5852592"><ele>680.7142857142858</ele><time>2026-04-25T13:39:36.535Z</time></trkpt><trkpt lat="42.7376372" lon="12.5853579"><ele>681.4285714285713</ele><time>2026-04-25T13:39:37.54Z</time></trkpt><trkpt lat="42.7376829" lon="12.585438"><ele>682.1428571428571</ele><time>2026-04-25T13:39:38.551Z</time></trkpt><trkpt lat="42.7377194" lon="12.5855231"><ele>682.8571428571429</ele><time>2026-04-25T13:39:39.543Z</time></trkpt><trkpt lat="42.7377468" lon="12.5856174"><ele>683.5714285714287</ele><time>2026-04-25T13:39:40.541Z</time></trkpt><trkpt lat="42.737765" lon="12.5857095"><ele>684.2857142857142</ele><time>2026-04-25T13:39:41.55Z</time></trkpt><trkpt lat="42.7377722" lon="12.5858081"><ele>685.0</ele><time>2026-04-25T13:39:42.551Z</time></trkpt><trkpt lat="42.7377776" lon="12.5859065"><ele>685.0</ele><time>2026-04-25T13:39:43.545Z</time></trkpt><trkpt lat="42.7377835" lon="12.5860569"><ele>685.0</ele><time>2026-04-25T13:39:45.542Z</time></trkpt><trkpt lat="42.7377776" lon="12.5861638"><ele>685.0</ele><time>2026-04-25T13:39:47.548Z</time></trkpt><trkpt lat="42.73773" lon="12.5862491"><ele>685.0</ele><time>2026-04-25T13:39:50.544Z</time></trkpt><trkpt lat="42.7376619" lon="12.5862754"><ele>685.0</ele><time>2026-04-25T13:39:53.544Z</time></trkpt><trkpt lat="42.7376047" lon="12.5862202"><ele>685.0</ele><time>2026-04-25T13:39:55.542Z</time></trkpt><trkpt lat="42.737539" lon="12.5861174"><ele>685.0</ele><time>2026-04-25T13:39:57.547Z</time></trkpt><trkpt lat="42.7374794" lon="12.5860152"><ele>685.0</ele><time>2026-04-25T13:39:59.557Z</time></trkpt><trkpt lat="42.7373997" lon="12.5859357"><ele>685.0</ele><time>2026-04-25T13:40:01.579Z</time></trkpt><trkpt lat="42.7373057" lon="12.5858599"><ele>685.0</ele><time>2026-04-25T13:40:03.544Z</time></trkpt><trkpt lat="42.7372008" lon="12.5857957"><ele>685.0</ele><time>2026-04-25T13:40:05.542Z</time></trkpt><trkpt lat="42.7370868" lon="12.5857305"><ele>685.0</ele><time>2026-04-25T13:40:07.545Z</time></trkpt><trkpt lat="42.7370257" lon="12.5856887"><ele>685.0</ele><time>2026-04-25T13:40:08.545Z</time></trkpt><trkpt lat="42.7369129" lon="12.585635"><ele>685.0</ele><time>2026-04-25T13:40:10.544Z</time></trkpt><trkpt lat="42.7368129" lon="12.5856353"><ele>685.0</ele><time>2026-04-25T13:40:12.545Z</time></trkpt><trkpt lat="42.7367262" lon="12.5856994"><ele>685.0</ele><time>2026-04-25T13:40:14.544Z</time></trkpt><trkpt lat="42.736655" lon="12.5857901"><ele>685.0</ele><time>2026-04-25T13:40:16.542Z</time></trkpt><trkpt lat="42.7365906" lon="12.5858993"><ele>685.0</ele><time>2026-04-25T13:40:18.544Z</time></trkpt><trkpt lat="42.7365333" lon="12.5860311"><ele>685.0</ele><time>2026-04-25T13:40:20.545Z</time></trkpt><trkpt lat="42.7364971" lon="12.586107"><ele>685.0</ele><time>2026-04-25T13:40:21.545Z</time></trkpt><trkpt lat="42.7364406" lon="12.5862337"><ele>685.0</ele><time>2026-04-25T13:40:23.546Z</time></trkpt><trkpt lat="42.7364109" lon="12.5863867"><ele>687.4</ele><time>2026-04-25T13:40:25.544Z</time></trkpt><trkpt lat="42.7363999" lon="12.5865411"><ele>689.8</ele><time>2026-04-25T13:40:27.545Z</time></trkpt><trkpt lat="42.7364005" lon="12.5866941"><ele>692.2</ele><time>2026-04-25T13:40:29.564Z</time></trkpt><trkpt lat="42.7364063" lon="12.58685"><ele>694.6</ele><time>2026-04-25T13:40:31.549Z</time></trkpt><trkpt lat="42.7363999" lon="12.5869959"><ele>697.0</ele><time>2026-04-25T13:40:33.543Z</time></trkpt><trkpt lat="42.7363533" lon="12.5871151"><ele>696.6</ele><time>2026-04-25T13:40:35.571Z</time></trkpt><trkpt lat="42.7362972" lon="12.5872144"><ele>696.2</ele><time>2026-04-25T13:40:37.55Z</time></trkpt><trkpt lat="42.7362407" lon="12.5873012"><ele>695.8</ele><time>2026-04-25T13:40:39.547Z</time></trkpt><trkpt lat="42.7361627" lon="12.5873965"><ele>695.4</ele><time>2026-04-25T13:40:41.549Z</time></trkpt><trkpt lat="42.7360633" lon="12.5874809"><ele>695.0</ele><time>2026-04-25T13:40:43.559Z</time></trkpt><trkpt lat="42.7359454" lon="12.5875525"><ele>695.0</ele><time>2026-04-25T13:40:45.551Z</time></trkpt><trkpt lat="42.7358864" lon="12.5875844"><ele>695.0</ele><time>2026-04-25T13:40:46.554Z</time></trkpt><trkpt lat="42.7357999" lon="12.5876147"><ele>695.0</ele><time>2026-04-25T13:40:48.552Z</time></trkpt><trkpt lat="42.7357357" lon="12.5876944"><ele>695.0</ele><time>2026-04-25T13:40:51.552Z</time></trkpt><trkpt lat="42.7357356" lon="12.5878328"><ele>695.0</ele><time>2026-04-25T13:40:53.549Z</time></trkpt><trkpt lat="42.7357598" lon="12.5879555"><ele>695.0</ele><time>2026-04-25T13:40:55.555Z</time></trkpt><trkpt lat="42.7357913" lon="12.5880317"><ele>696.1666666666666</ele><time>2026-04-25T13:40:57.549Z</time></trkpt><trkpt lat="42.7358012" lon="12.5881309"><ele>697.3333333333333</ele><time>2026-04-25T13:41:00.579Z</time></trkpt><trkpt lat="42.7358084" lon="12.5882298"><ele>698.5</ele><time>2026-04-25T13:41:02.552Z</time></trkpt><trkpt lat="42.7358193" lon="12.5883575"><ele>699.6666666666666</ele><time>2026-04-25T13:41:04.553Z</time></trkpt><trkpt lat="42.7358194" lon="12.5884737"><ele>700.8333333333334</ele><time>2026-04-25T13:41:06.547Z</time></trkpt><trkpt lat="42.7358201" lon="12.588574"><ele>702.0</ele><time>2026-04-25T13:41:08.553Z</time></trkpt><trkpt lat="42.7358044" lon="12.5886614"><ele>703.8333333333334</ele><time>2026-04-25T13:41:11.551Z</time></trkpt><trkpt lat="42.7358083" lon="12.588753"><ele>705.6666666666666</ele><time>2026-04-25T13:41:13.556Z</time></trkpt><trkpt lat="42.7357452" lon="12.5888091"><ele>707.5</ele><time>2026-04-25T13:41:15.569Z</time></trkpt><trkpt lat="42.7356415" lon="12.5887738"><ele>709.3333333333333</ele><time>2026-04-25T13:41:17.555Z</time></trkpt><trkpt lat="42.7355832" lon="12.588737"><ele>711.1666666666666</ele><time>2026-04-25T13:41:18.552Z</time></trkpt><trkpt lat="42.735507" lon="12.5887053"><ele>713.0</ele><time>2026-04-25T13:41:19.548Z</time></trkpt><trkpt lat="42.7354312" lon="12.588677"><ele>711.1666666666666</ele><time>2026-04-25T13:41:20.558Z</time></trkpt><trkpt lat="42.7353529" lon="12.5886374"><ele>709.3333333333333</ele><time>2026-04-25T13:41:21.553Z</time></trkpt><trkpt lat="42.735274" lon="12.5886008"><ele>707.5</ele><time>2026-04-25T13:41:22.557Z</time></trkpt><trkpt lat="42.7352027" lon="12.5885667"><ele>705.6666666666666</ele><time>2026-04-25T13:41:23.555Z</time></trkpt><trkpt lat="42.7351275" lon="12.5885018"><ele>703.8333333333334</ele><time>2026-04-25T13:41:25.575Z</time></trkpt><trkpt lat="42.7350698" lon="12.5884624"><ele>702.0</ele><time>2026-04-25T13:41:26.548Z</time></trkpt><trkpt lat="42.7350048" lon="12.5884356"><ele>701.3333333333334</ele><time>2026-04-25T13:41:27.557Z</time></trkpt><trkpt lat="42.7348865" lon="12.5883836"><ele>700.6666666666666</ele><time>2026-04-25T13:41:29.558Z</time></trkpt><trkpt lat="42.7348264" lon="12.5883554"><ele>700.0</ele><time>2026-04-25T13:41:30.553Z</time></trkpt><trkpt lat="42.7347677" lon="12.588324"><ele>699.3333333333333</ele><time>2026-04-25T13:41:31.557Z</time></trkpt><trkpt lat="42.734708" lon="12.5882965"><ele>698.6666666666666</ele><time>2026-04-25T13:41:32.552Z</time></trkpt><trkpt lat="42.7346449" lon="12.5882616"><ele>698.0</ele><time>2026-04-25T13:41:33.559Z</time></trkpt><trkpt lat="42.7345743" lon="12.588257"><ele>698.0</ele><time>2026-04-25T13:41:35.559Z</time></trkpt><trkpt lat="42.7344844" lon="12.5882342"><ele>698.0</ele><time>2026-04-25T13:41:37.551Z</time></trkpt><trkpt lat="42.7343997" lon="12.5882505"><ele>698.0</ele><time>2026-04-25T13:41:39.558Z</time></trkpt><trkpt lat="42.7343412" lon="12.5882912"><ele>698.0</ele><time>2026-04-25T13:41:41.548Z</time></trkpt><trkpt lat="42.734295" lon="12.5883679"><ele>698.0</ele><time>2026-04-25T13:41:43.57Z</time></trkpt><trkpt lat="42.7342823" lon="12.5884763"><ele>698.0</ele><time>2026-04-25T13:41:45.554Z</time></trkpt><trkpt lat="42.7342984" lon="12.5886014"><ele>699.0</ele><time>2026-04-25T13:41:47.554Z</time></trkpt><trkpt lat="42.7343432" lon="12.5887323"><ele>700.0</ele><time>2026-04-25T13:41:49.558Z</time></trkpt><trkpt lat="42.7344048" lon="12.5888637"><ele>701.0</ele><time>2026-04-25T13:41:51.555Z</time></trkpt><trkpt lat="42.7344473" lon="12.588996"><ele>702.0</ele><time>2026-04-25T13:41:53.563Z</time></trkpt><trkpt lat="42.7344688" lon="12.5891198"><ele>703.0</ele><time>2026-04-25T13:41:55.555Z</time></trkpt><trkpt lat="42.7344689" lon="12.589242"><ele>703.0</ele><time>2026-04-25T13:41:57.549Z</time></trkpt><trkpt lat="42.7344732" lon="12.5893724"><ele>703.0</ele><time>2026-04-25T13:41:59.553Z</time></trkpt><trkpt lat="42.7344107" lon="12.5894813"><ele>703.0</ele><time>2026-04-25T13:42:01.556Z</time></trkpt><trkpt lat="42.734338" lon="12.5895036"><ele>703.0</ele><time>2026-04-25T13:42:02.553Z</time></trkpt><trkpt lat="42.7342645" lon="12.5895104"><ele>703.0</ele><time>2026-04-25T13:42:03.554Z</time></trkpt><trkpt lat="42.7341457" lon="12.589502"><ele>703.0</ele><time>2026-04-25T13:42:05.556Z</time></trkpt><trkpt lat="42.7340796" lon="12.5895011"><ele>703.0</ele><time>2026-04-25T13:42:06.557Z</time></trkpt><trkpt lat="42.7339783" lon="12.5894922"><ele>703.0</ele><time>2026-04-25T13:42:08.56Z</time></trkpt><trkpt lat="42.7338724" lon="12.5894954"><ele>703.0</ele><time>2026-04-25T13:42:10.559Z</time></trkpt><trkpt lat="42.7337702" lon="12.5895301"><ele>703.0</ele><time>2026-04-25T13:42:12.555Z</time></trkpt><trkpt lat="42.7336808" lon="12.5896285"><ele>704.2</ele><time>2026-04-25T13:42:14.553Z</time></trkpt><trkpt lat="42.7335964" lon="12.589728"><ele>705.4</ele><time>2026-04-25T13:42:16.552Z</time></trkpt><trkpt lat="42.7335032" lon="12.5898218"><ele>706.6</ele><time>2026-04-25T13:42:18.566Z</time></trkpt><trkpt lat="42.7334298" lon="12.5899318"><ele>707.8000000000001</ele><time>2026-04-25T13:42:20.555Z</time></trkpt><trkpt lat="42.7333667" lon="12.5900563"><ele>709.0</ele><time>2026-04-25T13:42:22.555Z</time></trkpt><trkpt lat="42.7332965" lon="12.5901708"><ele>709.0</ele><time>2026-04-25T13:42:24.555Z</time></trkpt><trkpt lat="42.7332177" lon="12.5902633"><ele>709.0</ele><time>2026-04-25T13:42:26.553Z</time></trkpt><trkpt lat="42.7331225" lon="12.5903423"><ele>709.0</ele><time>2026-04-25T13:42:28.547Z</time></trkpt><trkpt lat="42.7330193" lon="12.5904002"><ele>709.0</ele><time>2026-04-25T13:42:30.55Z</time></trkpt><trkpt lat="42.7329097" lon="12.5904458"><ele>709.0</ele><time>2026-04-25T13:42:32.549Z</time></trkpt><trkpt lat="42.7327964" lon="12.5904945"><ele>710.4000000000001</ele><time>2026-04-25T13:42:34.56Z</time></trkpt><trkpt lat="42.7327025" lon="12.5905525"><ele>711.8</ele><time>2026-04-25T13:42:36.566Z</time></trkpt><trkpt lat="42.7326309" lon="12.5906154"><ele>713.2</ele><time>2026-04-25T13:42:38.551Z</time></trkpt><trkpt lat="42.7325596" lon="12.5906782"><ele>714.5999999999999</ele><time>2026-04-25T13:42:40.551Z</time></trkpt><trkpt lat="42.7324837" lon="12.5907585"><ele>716.0</ele><time>2026-04-25T13:42:42.554Z</time></trkpt><trkpt lat="42.7324049" lon="12.5908362"><ele>716.0000000000001</ele><time>2026-04-25T13:42:44.554Z</time></trkpt><trkpt lat="42.7323409" lon="12.5909335"><ele>716.0</ele><time>2026-04-25T13:42:46.548Z</time></trkpt><trkpt lat="42.7322944" lon="12.5909955"><ele>716.0</ele><time>2026-04-25T13:42:48.559Z</time></trkpt><trkpt lat="42.7322611" lon="12.5910742"><ele>716.0</ele><time>2026-04-25T13:42:51.554Z</time></trkpt><trkpt lat="42.7321961" lon="12.5910806"><ele>716.0</ele><time>2026-04-25T13:43:08.555Z</time></trkpt><trkpt lat="42.7321128" lon="12.5910769"><ele>716.0000000000001</ele><time>2026-04-25T13:43:11.552Z</time></trkpt><trkpt lat="42.7320431" lon="12.5910671"><ele>716.0</ele><time>2026-04-25T13:43:13.556Z</time></trkpt><trkpt lat="42.7319544" lon="12.5910425"><ele>715.1666666666666</ele><time>2026-04-25T13:43:15.554Z</time></trkpt><trkpt lat="42.7318472" lon="12.5910073"><ele>714.3333333333333</ele><time>2026-04-25T13:43:17.555Z</time></trkpt><trkpt lat="42.7317498" lon="12.5909954"><ele>713.5</ele><time>2026-04-25T13:43:19.555Z</time></trkpt><trkpt lat="42.7316681" lon="12.591023"><ele>712.6666666666666</ele><time>2026-04-25T13:43:22.551Z</time></trkpt><trkpt lat="42.7316027" lon="12.5910972"><ele>711.8333333333334</ele><time>2026-04-25T13:43:25.551Z</time></trkpt><trkpt lat="42.7315535" lon="12.5911555"><ele>711.0</ele><time>2026-04-25T13:43:43.55Z</time></trkpt><trkpt lat="42.7314853" lon="12.5912184"><ele>710.8333333333334</ele><time>2026-04-25T13:43:45.555Z</time></trkpt><trkpt lat="42.7314241" lon="12.591317"><ele>710.6666666666666</ele><time>2026-04-25T13:43:47.553Z</time></trkpt><trkpt lat="42.7313808" lon="12.5914342"><ele>710.5</ele><time>2026-04-25T13:43:49.558Z</time></trkpt><trkpt lat="42.7313492" lon="12.5915611"><ele>710.3333333333333</ele><time>2026-04-25T13:43:51.552Z</time></trkpt><trkpt lat="42.7313317" lon="12.5916678"><ele>710.1666666666666</ele><time>2026-04-25T13:43:53.551Z</time></trkpt><trkpt lat="42.7313362" lon="12.5917727"><ele>710.0</ele><time>2026-04-25T13:43:56.557Z</time></trkpt><trkpt lat="42.7313059" lon="12.5918647"><ele>710.0</ele><time>2026-04-25T13:43:59.558Z</time></trkpt><trkpt lat="42.73127" lon="12.5919466"><ele>710.0</ele><time>2026-04-25T13:44:01.555Z</time></trkpt><trkpt lat="42.7312238" lon="12.5920055"><ele>710.0</ele><time>2026-04-25T13:44:03.554Z</time></trkpt><trkpt lat="42.7311683" lon="12.5920633"><ele>710.0</ele><time>2026-04-25T13:44:05.552Z</time></trkpt><trkpt lat="42.7311258" lon="12.5921273"><ele>710.0</ele><time>2026-04-25T13:44:07.551Z</time></trkpt><trkpt lat="42.7310745" lon="12.5922145"><ele>710.0</ele><time>2026-04-25T13:44:10.556Z</time></trkpt><trkpt lat="42.7310428" lon="12.5923035"><ele>710.0</ele><time>2026-04-25T13:44:41.558Z</time></trkpt><trkpt lat="42.7310048" lon="12.5924074"><ele>709.4285714285714</ele><time>2026-04-25T13:44:43.552Z</time></trkpt><trkpt lat="42.7309653" lon="12.5924869"><ele>708.8571428571429</ele><time>2026-04-25T13:44:45.551Z</time></trkpt><trkpt lat="42.7309268" lon="12.5925671"><ele>708.2857142857142</ele><time>2026-04-25T13:44:47.55Z</time></trkpt><trkpt lat="42.7308754" lon="12.5926422"><ele>707.7142857142858</ele><time>2026-04-25T13:44:49.551Z</time></trkpt><trkpt lat="42.7308407" lon="12.592729"><ele>707.1428571428572</ele><time>2026-04-25T13:44:51.57Z</time></trkpt><trkpt lat="42.7308011" lon="12.5928047"><ele>706.5714285714286</ele><time>2026-04-25T13:44:53.55Z</time></trkpt><trkpt lat="42.7307614" lon="12.5928738"><ele>706.0</ele><time>2026-04-25T13:44:55.552Z</time></trkpt><trkpt lat="42.7307184" lon="12.5929955"><ele>706.0</ele><time>2026-04-25T13:44:58.553Z</time></trkpt><trkpt lat="42.7306905" lon="12.5930964"><ele>706.0</ele><time>2026-04-25T13:45:00.557Z</time></trkpt><trkpt lat="42.7306472" lon="12.5931859"><ele>706.0</ele><time>2026-04-25T13:45:03.562Z</time></trkpt><trkpt lat="42.7305935" lon="12.59326"><ele>706.0</ele><time>2026-04-25T13:45:07.554Z</time></trkpt><trkpt lat="42.7305378" lon="12.5933391"><ele>706.0</ele><time>2026-04-25T13:45:14.553Z</time></trkpt><trkpt lat="42.7305016" lon="12.5934322"><ele>706.0</ele><time>2026-04-25T13:45:16.561Z</time></trkpt><trkpt lat="42.7304576" lon="12.5935003"><ele>706.0</ele><time>2026-04-25T13:45:18.556Z</time></trkpt><trkpt lat="42.730419" lon="12.593583"><ele>706.0</ele><time>2026-04-25T13:45:20.557Z</time></trkpt><trkpt lat="42.7304056" lon="12.5936777"><ele>706.0</ele><time>2026-04-25T13:45:22.553Z</time></trkpt><trkpt lat="42.7303995" lon="12.5937805"><ele>706.0</ele><time>2026-04-25T13:45:24.552Z</time></trkpt><trkpt lat="42.7304093" lon="12.5938826"><ele>706.0</ele><time>2026-04-25T13:45:26.554Z</time></trkpt><trkpt lat="42.7303726" lon="12.5939792"><ele>706.0</ele><time>2026-04-25T13:45:28.553Z</time></trkpt><trkpt lat="42.7303165" lon="12.5940727"><ele>705.5</ele><time>2026-04-25T13:45:30.549Z</time></trkpt><trkpt lat="42.7302492" lon="12.5941584"><ele>705.0</ele><time>2026-04-25T13:45:32.562Z</time></trkpt><trkpt lat="42.730194" lon="12.5942549"><ele>704.5</ele><time>2026-04-25T13:45:34.551Z</time></trkpt><trkpt lat="42.7301546" lon="12.5943311"><ele>704.0</ele><time>2026-04-25T13:45:36.555Z</time></trkpt><trkpt lat="42.7301248" lon="12.5944177"><ele>703.5</ele><time>2026-04-25T13:45:39.556Z</time></trkpt><trkpt lat="42.7300667" lon="12.594511"><ele>703.0</ele><time>2026-04-25T13:45:43.56Z</time></trkpt><trkpt lat="42.7300115" lon="12.5946081"><ele>703.0</ele><time>2026-04-25T13:45:46.551Z</time></trkpt><trkpt lat="42.7299459" lon="12.5946798"><ele>703.0</ele><time>2026-04-25T13:45:49.566Z</time></trkpt><trkpt lat="42.7299209" lon="12.5947862"><ele>703.0</ele><time>2026-04-25T13:45:51.549Z</time></trkpt><trkpt lat="42.7298946" lon="12.5948868"><ele>703.0</ele><time>2026-04-25T13:45:53.566Z</time></trkpt><trkpt lat="42.7298435" lon="12.5949736"><ele>703.0</ele><time>2026-04-25T13:45:55.552Z</time></trkpt><trkpt lat="42.7298081" lon="12.5950765"><ele>703.0</ele><time>2026-04-25T13:45:57.552Z</time></trkpt><trkpt lat="42.7297794" lon="12.5951612"><ele>703.0</ele><time>2026-04-25T13:45:59.571Z</time></trkpt><trkpt lat="42.7297619" lon="12.5952904"><ele>703.0</ele><time>2026-04-25T13:46:01.555Z</time></trkpt><trkpt lat="42.7297158" lon="12.5954017"><ele>692.0</ele><time>2026-04-25T13:46:03.565Z</time></trkpt><trkpt lat="42.7296719" lon="12.5955037"><ele>692.0</ele><time>2026-04-25T13:46:05.563Z</time></trkpt><trkpt lat="42.7296429" lon="12.5955948"><ele>692.0</ele><time>2026-04-25T13:46:07.583Z</time></trkpt></trkseg></trk></gpx>